<?xml version='1.0' encoding='UTF-8'?><gpx version="1.1" creator="JPX - https://github.com/jenetics/jpx" xmlns="http://www.topografix.com/GPX/1/1"><trk><trkseg><trkpt lat="45.6064919" lon="9.5533764"><ele>174.0</ele><time>2026-03-29T08:46:53.441Z</time></trkpt><trkpt lat="45.6065765" lon="9.553324"><ele>174.0</ele><time>2026-03-29T08:46:55.47Z</time></trkpt><trkpt lat="45.6066778" lon="9.5532831"><ele>174.0</ele><time>2026-03-29T08:46:57.49Z</time></trkpt><trkpt lat="45.6067999" lon="9.5532227"><ele>174.0</ele><time>2026-03-29T08:46:59.447Z</time></trkpt><trkpt lat="45.6068654" lon="9.5531964"><ele>174.0</ele><time>2026-03-29T08:47:00.483Z</time></trkpt><trkpt lat="45.6069876" lon="9.5531467"><ele>174.0</ele><time>2026-03-29T08:47:02.482Z</time></trkpt><trkpt lat="45.6070599" lon="9.5531179"><ele>174.0</ele><time>2026-03-29T08:47:03.484Z</time></trkpt><trkpt lat="45.6071398" lon="9.5530889"><ele>174.0</ele><time>2026-03-29T08:47:04.474Z</time></trkpt><trkpt lat="45.6072253" lon="9.5530541"><ele>174.0</ele><time>2026-03-29T08:47:05.464Z</time></trkpt><trkpt lat="45.6073096" lon="9.5530192"><ele>174.0</ele><time>2026-03-29T08:47:06.479Z</time></trkpt><trkpt lat="45.6073671" lon="9.5529571"><ele>174.0</ele><time>2026-03-29T08:47:07.549Z</time></trkpt><trkpt lat="45.6074124" lon="9.5528714"><ele>174.0</ele><time>2026-03-29T08:47:08.49Z</time></trkpt><trkpt lat="45.6074405" lon="9.5527588"><ele>174.0</ele><time>2026-03-29T08:47:09.455Z</time></trkpt><trkpt lat="45.6074528" lon="9.5526275"><ele>174.0</ele><time>2026-03-29T08:47:10.497Z</time></trkpt><trkpt lat="45.6074538" lon="9.552485"><ele>174.0</ele><time>2026-03-29T08:47:11.472Z</time></trkpt><trkpt lat="45.6074426" lon="9.5523484"><ele>174.0</ele><time>2026-03-29T08:47:12.465Z</time></trkpt><trkpt lat="45.6074312" lon="9.5522203"><ele>174.0</ele><time>2026-03-29T08:47:13.461Z</time></trkpt><trkpt lat="45.6074188" lon="9.5521265"><ele>174.0</ele><time>2026-03-29T08:47:14.452Z</time></trkpt><trkpt lat="45.6074038" lon="9.5519906"><ele>174.0</ele><time>2026-03-29T08:47:16.456Z</time></trkpt><trkpt lat="45.6073968" lon="9.5518874"><ele>174.0</ele><time>2026-03-29T08:47:20.442Z</time></trkpt><trkpt lat="45.6074556" lon="9.5518462"><ele>174.0</ele><time>2026-03-29T08:47:22.479Z</time></trkpt><trkpt lat="45.607567" lon="9.5518306"><ele>174.0</ele><time>2026-03-29T08:47:24.476Z</time></trkpt><trkpt lat="45.6076354" lon="9.5518233"><ele>174.5</ele><time>2026-03-29T08:47:25.492Z</time></trkpt><trkpt lat="45.6077022" lon="9.5518118"><ele>175.0</ele><time>2026-03-29T08:47:26.478Z</time></trkpt><trkpt lat="45.607805" lon="9.5517885"><ele>175.5</ele><time>2026-03-29T08:47:28.473Z</time></trkpt><trkpt lat="45.6078826" lon="9.551809"><ele>176.0</ele><time>2026-03-29T08:47:36.479Z</time></trkpt><trkpt lat="45.6079749" lon="9.5518715"><ele>176.5</ele><time>2026-03-29T08:47:38.482Z</time></trkpt><trkpt lat="45.6080413" lon="9.5519008"><ele>177.0</ele><time>2026-03-29T08:47:39.458Z</time></trkpt><trkpt lat="45.6081045" lon="9.5518854"><ele>177.0</ele><time>2026-03-29T08:47:40.485Z</time></trkpt><trkpt lat="45.6081534" lon="9.5518279"><ele>177.0</ele><time>2026-03-29T08:47:41.476Z</time></trkpt><trkpt lat="45.6081601" lon="9.5516506"><ele>177.0</ele><time>2026-03-29T08:47:43.45Z</time></trkpt><trkpt lat="45.6081169" lon="9.5515661"><ele>177.0</ele><time>2026-03-29T08:47:44.464Z</time></trkpt><trkpt lat="45.6080691" lon="9.5514777"><ele>177.0</ele><time>2026-03-29T08:47:45.459Z</time></trkpt><trkpt lat="45.6080014" lon="9.5513861"><ele>177.0</ele><time>2026-03-29T08:47:46.477Z</time></trkpt><trkpt lat="45.6079504" lon="9.5512654"><ele>177.0</ele><time>2026-03-29T08:47:47.444Z</time></trkpt><trkpt lat="45.6079115" lon="9.5511332"><ele>177.0</ele><time>2026-03-29T08:47:48.447Z</time></trkpt><trkpt lat="45.6078758" lon="9.55099"><ele>177.0</ele><time>2026-03-29T08:47:49.458Z</time></trkpt><trkpt lat="45.6078384" lon="9.5508454"><ele>177.0</ele><time>2026-03-29T08:47:50.456Z</time></trkpt><trkpt lat="45.6077998" lon="9.5507"><ele>177.0</ele><time>2026-03-29T08:47:51.449Z</time></trkpt><trkpt lat="45.6077639" lon="9.5505502"><ele>177.25</ele><time>2026-03-29T08:47:52.452Z</time></trkpt><trkpt lat="45.6077293" lon="9.5503977"><ele>177.5</ele><time>2026-03-29T08:47:53.458Z</time></trkpt><trkpt lat="45.6076927" lon="9.5502433"><ele>177.75</ele><time>2026-03-29T08:47:54.447Z</time></trkpt><trkpt lat="45.6076576" lon="9.5500891"><ele>178.0</ele><time>2026-03-29T08:47:55.457Z</time></trkpt><trkpt lat="45.6076265" lon="9.5499262"><ele>178.0</ele><time>2026-03-29T08:47:56.448Z</time></trkpt><trkpt lat="45.6075999" lon="9.5497464"><ele>178.0</ele><time>2026-03-29T08:47:57.458Z</time></trkpt><trkpt lat="45.6075829" lon="9.5495663"><ele>178.0</ele><time>2026-03-29T08:47:58.457Z</time></trkpt><trkpt lat="45.6075765" lon="9.5493872"><ele>178.0</ele><time>2026-03-29T08:47:59.46Z</time></trkpt><trkpt lat="45.607578" lon="9.5492036"><ele>178.0</ele><time>2026-03-29T08:48:00.458Z</time></trkpt><trkpt lat="45.6075857" lon="9.5490181"><ele>178.0</ele><time>2026-03-29T08:48:01.478Z</time></trkpt><trkpt lat="45.6075948" lon="9.5488289"><ele>178.0</ele><time>2026-03-29T08:48:02.444Z</time></trkpt><trkpt lat="45.6076066" lon="9.5486374"><ele>178.0</ele><time>2026-03-29T08:48:03.456Z</time></trkpt><trkpt lat="45.6076206" lon="9.5484413"><ele>178.0</ele><time>2026-03-29T08:48:04.459Z</time></trkpt><trkpt lat="45.6076347" lon="9.5482408"><ele>178.0</ele><time>2026-03-29T08:48:05.446Z</time></trkpt><trkpt lat="45.607652" lon="9.5480379"><ele>178.0</ele><time>2026-03-29T08:48:06.447Z</time></trkpt><trkpt lat="45.60767" lon="9.5478305"><ele>178.0</ele><time>2026-03-29T08:48:07.458Z</time></trkpt><trkpt lat="45.6076871" lon="9.5476192"><ele>178.0</ele><time>2026-03-29T08:48:08.443Z</time></trkpt><trkpt lat="45.607704" lon="9.5474046"><ele>178.0</ele><time>2026-03-29T08:48:09.45Z</time></trkpt><trkpt lat="45.6077217" lon="9.5471955"><ele>178.0</ele><time>2026-03-29T08:48:10.44Z</time></trkpt><trkpt lat="45.6077403" lon="9.5469953"><ele>178.0</ele><time>2026-03-29T08:48:11.477Z</time></trkpt><trkpt lat="45.6077554" lon="9.5467972"><ele>178.0</ele><time>2026-03-29T08:48:12.45Z</time></trkpt><trkpt lat="45.6077677" lon="9.546612"><ele>178.0</ele><time>2026-03-29T08:48:13.47Z</time></trkpt><trkpt lat="45.6077803" lon="9.5464352"><ele>178.0</ele><time>2026-03-29T08:48:14.439Z</time></trkpt><trkpt lat="45.6077944" lon="9.5462561"><ele>178.0</ele><time>2026-03-29T08:48:15.444Z</time></trkpt><trkpt lat="45.607806" lon="9.5460763"><ele>178.75</ele><time>2026-03-29T08:48:16.433Z</time></trkpt><trkpt lat="45.6078184" lon="9.5458927"><ele>179.5</ele><time>2026-03-29T08:48:17.456Z</time></trkpt><trkpt lat="45.6078334" lon="9.5457025"><ele>180.25</ele><time>2026-03-29T08:48:18.442Z</time></trkpt><trkpt lat="45.6078475" lon="9.5455068"><ele>181.0</ele><time>2026-03-29T08:48:19.442Z</time></trkpt><trkpt lat="45.6078622" lon="9.5453049"><ele>181.0</ele><time>2026-03-29T08:48:20.452Z</time></trkpt><trkpt lat="45.6078818" lon="9.5450973"><ele>181.0</ele><time>2026-03-29T08:48:21.445Z</time></trkpt><trkpt lat="45.6079126" lon="9.5448885"><ele>181.0</ele><time>2026-03-29T08:48:22.452Z</time></trkpt><trkpt lat="45.6079542" lon="9.5446808"><ele>181.0</ele><time>2026-03-29T08:48:23.477Z</time></trkpt><trkpt lat="45.6080034" lon="9.5444757"><ele>180.33333333333334</ele><time>2026-03-29T08:48:24.458Z</time></trkpt><trkpt lat="45.6080565" lon="9.5442646"><ele>179.66666666666666</ele><time>2026-03-29T08:48:25.453Z</time></trkpt><trkpt lat="45.6081133" lon="9.5440411"><ele>179.0</ele><time>2026-03-29T08:48:26.506Z</time></trkpt><trkpt lat="45.6081684" lon="9.5438238"><ele>178.75</ele><time>2026-03-29T08:48:27.45Z</time></trkpt><trkpt lat="45.60822" lon="9.5436144"><ele>178.5</ele><time>2026-03-29T08:48:28.455Z</time></trkpt><trkpt lat="45.6082632" lon="9.5434175"><ele>178.25</ele><time>2026-03-29T08:48:29.491Z</time></trkpt><trkpt lat="45.6082903" lon="9.5432293"><ele>178.0</ele><time>2026-03-29T08:48:30.47Z</time></trkpt><trkpt lat="45.6083003" lon="9.5430462"><ele>177.75</ele><time>2026-03-29T08:48:31.455Z</time></trkpt><trkpt lat="45.6082952" lon="9.5428548"><ele>177.5</ele><time>2026-03-29T08:48:32.472Z</time></trkpt><trkpt lat="45.608274" lon="9.5426698"><ele>177.25</ele><time>2026-03-29T08:48:33.453Z</time></trkpt><trkpt lat="45.6082495" lon="9.542507"><ele>177.0</ele><time>2026-03-29T08:48:34.479Z</time></trkpt><trkpt lat="45.6082352" lon="9.5423699"><ele>177.0</ele><time>2026-03-29T08:48:35.466Z</time></trkpt><trkpt lat="45.608238" lon="9.5422611"><ele>177.0</ele><time>2026-03-29T08:48:36.458Z</time></trkpt><trkpt lat="45.608259" lon="9.5421716"><ele>177.0</ele><time>2026-03-29T08:48:37.475Z</time></trkpt><trkpt lat="45.6082964" lon="9.5420944"><ele>177.0</ele><time>2026-03-29T08:48:38.452Z</time></trkpt><trkpt lat="45.6083451" lon="9.5420167"><ele>177.0</ele><time>2026-03-29T08:48:39.452Z</time></trkpt><trkpt lat="45.6083897" lon="9.5419145"><ele>177.0</ele><time>2026-03-29T08:48:40.448Z</time></trkpt><trkpt lat="45.6084148" lon="9.5417883"><ele>177.39999999999998</ele><time>2026-03-29T08:48:41.475Z</time></trkpt><trkpt lat="45.6084135" lon="9.5416634"><ele>177.79999999999998</ele><time>2026-03-29T08:48:42.478Z</time></trkpt><trkpt lat="45.6083871" lon="9.5415298"><ele>178.2</ele><time>2026-03-29T08:48:43.462Z</time></trkpt><trkpt lat="45.6083403" lon="9.5413855"><ele>178.6</ele><time>2026-03-29T08:48:44.475Z</time></trkpt><trkpt lat="45.6082791" lon="9.5412299"><ele>179.0</ele><time>2026-03-29T08:48:45.452Z</time></trkpt><trkpt lat="45.6082126" lon="9.5410717"><ele>179.0</ele><time>2026-03-29T08:48:46.45Z</time></trkpt><trkpt lat="45.6081441" lon="9.5409097"><ele>179.0</ele><time>2026-03-29T08:48:47.441Z</time></trkpt><trkpt lat="45.6080642" lon="9.5407218"><ele>179.0</ele><time>2026-03-29T08:48:48.446Z</time></trkpt><trkpt lat="45.6079824" lon="9.5405289"><ele>179.0</ele><time>2026-03-29T08:48:49.451Z</time></trkpt><trkpt lat="45.6079323" lon="9.540323"><ele>179.25</ele><time>2026-03-29T08:48:50.457Z</time></trkpt><trkpt lat="45.6079134" lon="9.5401138"><ele>179.5</ele><time>2026-03-29T08:48:51.448Z</time></trkpt><trkpt lat="45.6079211" lon="9.5399063"><ele>179.75</ele><time>2026-03-29T08:48:52.487Z</time></trkpt><trkpt lat="45.6079518" lon="9.5397114"><ele>180.0</ele><time>2026-03-29T08:48:53.517Z</time></trkpt><trkpt lat="45.6080041" lon="9.5395385"><ele>180.5</ele><time>2026-03-29T08:48:54.484Z</time></trkpt><trkpt lat="45.6080783" lon="9.5393771"><ele>181.0</ele><time>2026-03-29T08:48:55.46Z</time></trkpt><trkpt lat="45.6081546" lon="9.5392138"><ele>181.5</ele><time>2026-03-29T08:48:56.468Z</time></trkpt><trkpt lat="45.6082549" lon="9.5390734"><ele>182.0</ele><time>2026-03-29T08:48:57.516Z</time></trkpt><trkpt lat="45.6083488" lon="9.5389643"><ele>182.0</ele><time>2026-03-29T08:48:58.497Z</time></trkpt><trkpt lat="45.6084361" lon="9.5388659"><ele>182.0</ele><time>2026-03-29T08:48:59.447Z</time></trkpt><trkpt lat="45.6085158" lon="9.53877"><ele>182.0</ele><time>2026-03-29T08:49:00.485Z</time></trkpt><trkpt lat="45.6085887" lon="9.538685"><ele>182.0</ele><time>2026-03-29T08:49:01.48Z</time></trkpt><trkpt lat="45.6086519" lon="9.5386216"><ele>182.0</ele><time>2026-03-29T08:49:02.46Z</time></trkpt><trkpt lat="45.6087717" lon="9.5385829"><ele>182.5</ele><time>2026-03-29T08:49:04.477Z</time></trkpt><trkpt lat="45.6088415" lon="9.538596"><ele>183.0</ele><time>2026-03-29T08:49:05.471Z</time></trkpt><trkpt lat="45.6089182" lon="9.5386091"><ele>183.5</ele><time>2026-03-29T08:49:06.464Z</time></trkpt><trkpt lat="45.6090049" lon="9.5385968"><ele>184.0</ele><time>2026-03-29T08:49:07.464Z</time></trkpt><trkpt lat="45.6090939" lon="9.5385377"><ele>184.5</ele><time>2026-03-29T08:49:08.483Z</time></trkpt><trkpt lat="45.6091822" lon="9.5384679"><ele>185.0</ele><time>2026-03-29T08:49:09.497Z</time></trkpt><trkpt lat="45.609269" lon="9.538415"><ele>185.0</ele><time>2026-03-29T08:49:10.468Z</time></trkpt><trkpt lat="45.6093506" lon="9.5383687"><ele>185.0</ele><time>2026-03-29T08:49:11.475Z</time></trkpt><trkpt lat="45.6094264" lon="9.5383943"><ele>185.0</ele><time>2026-03-29T08:49:12.47Z</time></trkpt><trkpt lat="45.609507" lon="9.5384433"><ele>185.0</ele><time>2026-03-29T08:49:13.485Z</time></trkpt><trkpt lat="45.609594" lon="9.5385015"><ele>185.0</ele><time>2026-03-29T08:49:14.492Z</time></trkpt><trkpt lat="45.6096914" lon="9.5385615"><ele>184.75</ele><time>2026-03-29T08:49:15.46Z</time></trkpt><trkpt lat="45.6097985" lon="9.538621"><ele>184.5</ele><time>2026-03-29T08:49:16.516Z</time></trkpt><trkpt lat="45.6099118" lon="9.5386819"><ele>184.25</ele><time>2026-03-29T08:49:17.453Z</time></trkpt><trkpt lat="45.6100173" lon="9.5387363"><ele>184.0</ele><time>2026-03-29T08:49:18.467Z</time></trkpt><trkpt lat="45.6101137" lon="9.5387867"><ele>183.6</ele><time>2026-03-29T08:49:19.451Z</time></trkpt><trkpt lat="45.6101974" lon="9.5388526"><ele>183.2</ele><time>2026-03-29T08:49:20.461Z</time></trkpt><trkpt lat="45.6102727" lon="9.5389461"><ele>182.79999999999998</ele><time>2026-03-29T08:49:21.528Z</time></trkpt><trkpt lat="45.6103382" lon="9.5390653"><ele>182.39999999999998</ele><time>2026-03-29T08:49:22.488Z</time></trkpt><trkpt lat="45.6104027" lon="9.5391992"><ele>182.0</ele><time>2026-03-29T08:49:23.477Z</time></trkpt><trkpt lat="45.6104708" lon="9.5393237"><ele>182.0</ele><time>2026-03-29T08:49:24.471Z</time></trkpt><trkpt lat="45.6105458" lon="9.5394277"><ele>182.0</ele><time>2026-03-29T08:49:25.478Z</time></trkpt><trkpt lat="45.6106227" lon="9.5395317"><ele>182.0</ele><time>2026-03-29T08:49:26.459Z</time></trkpt><trkpt lat="45.6107201" lon="9.5395983"><ele>182.0</ele><time>2026-03-29T08:49:27.452Z</time></trkpt><trkpt lat="45.6108209" lon="9.539639"><ele>182.0</ele><time>2026-03-29T08:49:28.455Z</time></trkpt><trkpt lat="45.610915" lon="9.5396519"><ele>182.0</ele><time>2026-03-29T08:49:29.459Z</time></trkpt><trkpt lat="45.6109996" lon="9.539638"><ele>182.0</ele><time>2026-03-29T08:49:30.513Z</time></trkpt><trkpt lat="45.6110802" lon="9.53962"><ele>182.0</ele><time>2026-03-29T08:49:31.479Z</time></trkpt><trkpt lat="45.6111329" lon="9.5395324"><ele>182.0</ele><time>2026-03-29T08:49:32.452Z</time></trkpt><trkpt lat="45.6111674" lon="9.5394218"><ele>182.0</ele><time>2026-03-29T08:49:33.458Z</time></trkpt><trkpt lat="45.6111854" lon="9.5392923"><ele>182.0</ele><time>2026-03-29T08:49:34.44Z</time></trkpt><trkpt lat="45.6111956" lon="9.5391548"><ele>182.6</ele><time>2026-03-29T08:49:35.451Z</time></trkpt><trkpt lat="45.6112144" lon="9.539008"><ele>183.2</ele><time>2026-03-29T08:49:36.443Z</time></trkpt><trkpt lat="45.6112577" lon="9.5388601"><ele>183.8</ele><time>2026-03-29T08:49:37.456Z</time></trkpt><trkpt lat="45.611325" lon="9.5387245"><ele>184.4</ele><time>2026-03-29T08:49:38.437Z</time></trkpt><trkpt lat="45.6114042" lon="9.5386154"><ele>185.0</ele><time>2026-03-29T08:49:39.442Z</time></trkpt><trkpt lat="45.6114897" lon="9.5385317"><ele>185.0</ele><time>2026-03-29T08:49:40.449Z</time></trkpt><trkpt lat="45.6115847" lon="9.5384541"><ele>185.0</ele><time>2026-03-29T08:49:41.443Z</time></trkpt><trkpt lat="45.6116862" lon="9.5383725"><ele>185.0</ele><time>2026-03-29T08:49:42.442Z</time></trkpt><trkpt lat="45.6117937" lon="9.5382859"><ele>185.0</ele><time>2026-03-29T08:49:43.451Z</time></trkpt><trkpt lat="45.6119071" lon="9.5381938"><ele>185.0</ele><time>2026-03-29T08:49:44.453Z</time></trkpt><trkpt lat="45.612026" lon="9.5381002"><ele>185.0</ele><time>2026-03-29T08:49:45.433Z</time></trkpt><trkpt lat="45.6121514" lon="9.5380051"><ele>185.0</ele><time>2026-03-29T08:49:46.468Z</time></trkpt><trkpt lat="45.612281" lon="9.5379062"><ele>185.0</ele><time>2026-03-29T08:49:47.443Z</time></trkpt><trkpt lat="45.612414" lon="9.5378045"><ele>185.0</ele><time>2026-03-29T08:49:48.45Z</time></trkpt><trkpt lat="45.6125511" lon="9.537701"><ele>185.0</ele><time>2026-03-29T08:49:49.447Z</time></trkpt><trkpt lat="45.612693" lon="9.5375963"><ele>185.0</ele><time>2026-03-29T08:49:50.449Z</time></trkpt><trkpt lat="45.6128318" lon="9.5374893"><ele>185.33333333333331</ele><time>2026-03-29T08:49:51.445Z</time></trkpt><trkpt lat="45.6129677" lon="9.5373803"><ele>185.66666666666666</ele><time>2026-03-29T08:49:52.454Z</time></trkpt><trkpt lat="45.613105" lon="9.5372647"><ele>186.0</ele><time>2026-03-29T08:49:53.452Z</time></trkpt><trkpt lat="45.6132462" lon="9.5371493"><ele>185.66666666666666</ele><time>2026-03-29T08:49:54.45Z</time></trkpt><trkpt lat="45.6133905" lon="9.5370359"><ele>185.33333333333331</ele><time>2026-03-29T08:49:55.459Z</time></trkpt><trkpt lat="45.6135377" lon="9.5369239"><ele>185.0</ele><time>2026-03-29T08:49:56.454Z</time></trkpt><trkpt lat="45.6136872" lon="9.5368117"><ele>185.0</ele><time>2026-03-29T08:49:57.438Z</time></trkpt><trkpt lat="45.6138374" lon="9.5366964"><ele>185.0</ele><time>2026-03-29T08:49:58.47Z</time></trkpt><trkpt lat="45.6139864" lon="9.53658"><ele>185.0</ele><time>2026-03-29T08:49:59.475Z</time></trkpt><trkpt lat="45.6141279" lon="9.5364699"><ele>185.0</ele><time>2026-03-29T08:50:00.45Z</time></trkpt><trkpt lat="45.6142596" lon="9.5363669"><ele>185.0</ele><time>2026-03-29T08:50:01.47Z</time></trkpt><trkpt lat="45.6143846" lon="9.5362729"><ele>185.0</ele><time>2026-03-29T08:50:02.505Z</time></trkpt><trkpt lat="45.6145016" lon="9.5361864"><ele>185.0</ele><time>2026-03-29T08:50:03.44Z</time></trkpt><trkpt lat="45.6146101" lon="9.5361049"><ele>186.2</ele><time>2026-03-29T08:50:04.477Z</time></trkpt><trkpt lat="45.6147121" lon="9.5360289"><ele>187.4</ele><time>2026-03-29T08:50:05.469Z</time></trkpt><trkpt lat="45.6148124" lon="9.5359531"><ele>188.60000000000002</ele><time>2026-03-29T08:50:06.468Z</time></trkpt><trkpt lat="45.614909" lon="9.5358767"><ele>189.8</ele><time>2026-03-29T08:50:07.457Z</time></trkpt><trkpt lat="45.6150025" lon="9.5358099"><ele>191.0</ele><time>2026-03-29T08:50:08.5Z</time></trkpt><trkpt lat="45.6150921" lon="9.5357706"><ele>191.0</ele><time>2026-03-29T08:50:09.461Z</time></trkpt><trkpt lat="45.6151902" lon="9.5357666"><ele>191.0</ele><time>2026-03-29T08:50:10.457Z</time></trkpt><trkpt lat="45.6152862" lon="9.5357897"><ele>191.0</ele><time>2026-03-29T08:50:11.483Z</time></trkpt><trkpt lat="45.6153857" lon="9.5357986"><ele>191.0</ele><time>2026-03-29T08:50:12.467Z</time></trkpt><trkpt lat="45.6154783" lon="9.5357672"><ele>191.0</ele><time>2026-03-29T08:50:13.456Z</time></trkpt><trkpt lat="45.615558" lon="9.5356957"><ele>190.20000000000002</ele><time>2026-03-29T08:50:14.469Z</time></trkpt><trkpt lat="45.6156269" lon="9.5355881"><ele>189.4</ele><time>2026-03-29T08:50:15.506Z</time></trkpt><trkpt lat="45.6156827" lon="9.5354503"><ele>188.6</ele><time>2026-03-29T08:50:16.447Z</time></trkpt><trkpt lat="45.6157397" lon="9.5353083"><ele>187.8</ele><time>2026-03-29T08:50:17.441Z</time></trkpt><trkpt lat="45.6158087" lon="9.5351969"><ele>187.0</ele><time>2026-03-29T08:50:18.462Z</time></trkpt><trkpt lat="45.6158817" lon="9.53509"><ele>186.5</ele><time>2026-03-29T08:50:19.44Z</time></trkpt><trkpt lat="45.6159895" lon="9.5350138"><ele>186.0</ele><time>2026-03-29T08:50:20.446Z</time></trkpt><trkpt lat="45.6161071" lon="9.5349336"><ele>185.5</ele><time>2026-03-29T08:50:21.454Z</time></trkpt><trkpt lat="45.6162274" lon="9.5348476"><ele>185.0</ele><time>2026-03-29T08:50:22.458Z</time></trkpt><trkpt lat="45.6163468" lon="9.5347565"><ele>185.0</ele><time>2026-03-29T08:50:23.456Z</time></trkpt><trkpt lat="45.616465" lon="9.5346608"><ele>185.0</ele><time>2026-03-29T08:50:24.463Z</time></trkpt><trkpt lat="45.6165838" lon="9.5345682"><ele>185.0</ele><time>2026-03-29T08:50:25.479Z</time></trkpt><trkpt lat="45.6167047" lon="9.534479"><ele>185.0</ele><time>2026-03-29T08:50:26.448Z</time></trkpt><trkpt lat="45.6168209" lon="9.5343953"><ele>185.5</ele><time>2026-03-29T08:50:27.45Z</time></trkpt><trkpt lat="45.6169324" lon="9.5343118"><ele>186.0</ele><time>2026-03-29T08:50:28.45Z</time></trkpt><trkpt lat="45.6170465" lon="9.5342291"><ele>186.5</ele><time>2026-03-29T08:50:29.445Z</time></trkpt><trkpt lat="45.6171579" lon="9.5341482"><ele>187.0</ele><time>2026-03-29T08:50:30.463Z</time></trkpt><trkpt lat="45.6172682" lon="9.5340673"><ele>187.5</ele><time>2026-03-29T08:50:31.445Z</time></trkpt><trkpt lat="45.6173773" lon="9.5339869"><ele>188.0</ele><time>2026-03-29T08:50:32.453Z</time></trkpt><trkpt lat="45.6174836" lon="9.5339021"><ele>188.5</ele><time>2026-03-29T08:50:33.445Z</time></trkpt><trkpt lat="45.6175894" lon="9.5338198"><ele>189.0</ele><time>2026-03-29T08:50:34.445Z</time></trkpt><trkpt lat="45.6176863" lon="9.5337455"><ele>189.5</ele><time>2026-03-29T08:50:35.443Z</time></trkpt><trkpt lat="45.6177636" lon="9.5336856"><ele>190.0</ele><time>2026-03-29T08:50:36.45Z</time></trkpt><trkpt lat="45.6178273" lon="9.5336316"><ele>190.5</ele><time>2026-03-29T08:50:37.457Z</time></trkpt><trkpt lat="45.6178977" lon="9.5335768"><ele>191.0</ele><time>2026-03-29T08:50:38.474Z</time></trkpt><trkpt lat="45.617979" lon="9.5335202"><ele>191.5</ele><time>2026-03-29T08:50:39.454Z</time></trkpt><trkpt lat="45.6180666" lon="9.5334543"><ele>192.0</ele><time>2026-03-29T08:50:40.448Z</time></trkpt><trkpt lat="45.6181605" lon="9.5333816"><ele>193.0</ele><time>2026-03-29T08:50:41.468Z</time></trkpt><trkpt lat="45.61826" lon="9.5333011"><ele>194.0</ele><time>2026-03-29T08:50:42.463Z</time></trkpt><trkpt lat="45.6183637" lon="9.5332175"><ele>195.0</ele><time>2026-03-29T08:50:43.447Z</time></trkpt><trkpt lat="45.6184701" lon="9.5331312"><ele>196.0</ele><time>2026-03-29T08:50:44.475Z</time></trkpt><trkpt lat="45.6185756" lon="9.5330458"><ele>196.20000000000002</ele><time>2026-03-29T08:50:45.466Z</time></trkpt><trkpt lat="45.6186772" lon="9.5329666"><ele>196.4</ele><time>2026-03-29T08:50:46.488Z</time></trkpt><trkpt lat="45.6187709" lon="9.5328882"><ele>196.6</ele><time>2026-03-29T08:50:47.46Z</time></trkpt><trkpt lat="45.6188585" lon="9.5328104"><ele>196.8</ele><time>2026-03-29T08:50:48.46Z</time></trkpt><trkpt lat="45.6189422" lon="9.5327322"><ele>197.0</ele><time>2026-03-29T08:50:49.459Z</time></trkpt><trkpt lat="45.6190176" lon="9.5326563"><ele>197.00000000000003</ele><time>2026-03-29T08:50:50.48Z</time></trkpt><trkpt lat="45.6190868" lon="9.5325935"><ele>197.0</ele><time>2026-03-29T08:50:51.507Z</time></trkpt><trkpt lat="45.6191512" lon="9.5325572"><ele>197.0</ele><time>2026-03-29T08:50:52.473Z</time></trkpt><trkpt lat="45.6192527" lon="9.5325536"><ele>197.0</ele><time>2026-03-29T08:50:54.463Z</time></trkpt><trkpt lat="45.6193555" lon="9.5325566"><ele>197.00000000000003</ele><time>2026-03-29T08:50:56.481Z</time></trkpt><trkpt lat="45.6194183" lon="9.5325322"><ele>197.0</ele><time>2026-03-29T08:50:57.461Z</time></trkpt><trkpt lat="45.619473" lon="9.5324746"><ele>196.83333333333334</ele><time>2026-03-29T08:50:58.448Z</time></trkpt><trkpt lat="45.6195157" lon="9.5323865"><ele>196.66666666666669</ele><time>2026-03-29T08:50:59.482Z</time></trkpt><trkpt lat="45.6195435" lon="9.5322751"><ele>196.5</ele><time>2026-03-29T08:51:00.458Z</time></trkpt><trkpt lat="45.61957" lon="9.5321534"><ele>196.33333333333331</ele><time>2026-03-29T08:51:01.454Z</time></trkpt><trkpt lat="45.6196091" lon="9.5320409"><ele>196.16666666666666</ele><time>2026-03-29T08:51:02.464Z</time></trkpt><trkpt lat="45.6196494" lon="9.5319328"><ele>196.0</ele><time>2026-03-29T08:51:03.443Z</time></trkpt><trkpt lat="45.6197215" lon="9.5318412"><ele>196.60000000000002</ele><time>2026-03-29T08:51:04.447Z</time></trkpt><trkpt lat="45.619799" lon="9.5317457"><ele>197.2</ele><time>2026-03-29T08:51:05.442Z</time></trkpt><trkpt lat="45.6198726" lon="9.5316485"><ele>197.8</ele><time>2026-03-29T08:51:06.457Z</time></trkpt><trkpt lat="45.619943" lon="9.5315488"><ele>198.39999999999998</ele><time>2026-03-29T08:51:07.431Z</time></trkpt><trkpt lat="45.6200123" lon="9.5314475"><ele>199.0</ele><time>2026-03-29T08:51:08.446Z</time></trkpt><trkpt lat="45.6200828" lon="9.5313436"><ele>199.0</ele><time>2026-03-29T08:51:09.435Z</time></trkpt><trkpt lat="45.6201522" lon="9.5312338"><ele>199.0</ele><time>2026-03-29T08:51:10.471Z</time></trkpt><trkpt lat="45.6202204" lon="9.5311186"><ele>199.0</ele><time>2026-03-29T08:51:11.452Z</time></trkpt><trkpt lat="45.6202903" lon="9.5309986"><ele>199.0</ele><time>2026-03-29T08:51:12.447Z</time></trkpt><trkpt lat="45.620362" lon="9.5308733"><ele>199.0</ele><time>2026-03-29T08:51:13.451Z</time></trkpt><trkpt lat="45.6204366" lon="9.5307429"><ele>199.25</ele><time>2026-03-29T08:51:14.445Z</time></trkpt><trkpt lat="45.6205135" lon="9.5306086"><ele>199.5</ele><time>2026-03-29T08:51:15.457Z</time></trkpt><trkpt lat="45.6205908" lon="9.5304762"><ele>199.75</ele><time>2026-03-29T08:51:16.436Z</time></trkpt><trkpt lat="45.6206661" lon="9.5303493"><ele>200.0</ele><time>2026-03-29T08:51:17.445Z</time></trkpt><trkpt lat="45.6207462" lon="9.5302123"><ele>200.25</ele><time>2026-03-29T08:51:18.452Z</time></trkpt><trkpt lat="45.6208288" lon="9.5300677"><ele>200.5</ele><time>2026-03-29T08:51:19.455Z</time></trkpt><trkpt lat="45.6209132" lon="9.529922"><ele>200.75</ele><time>2026-03-29T08:51:20.456Z</time></trkpt><trkpt lat="45.6209987" lon="9.5297716"><ele>201.0</ele><time>2026-03-29T08:51:21.465Z</time></trkpt><trkpt lat="45.6210855" lon="9.5296165"><ele>201.5</ele><time>2026-03-29T08:51:22.441Z</time></trkpt><trkpt lat="45.6211727" lon="9.5294631"><ele>202.0</ele><time>2026-03-29T08:51:23.449Z</time></trkpt><trkpt lat="45.6212558" lon="9.5293204"><ele>202.5</ele><time>2026-03-29T08:51:24.46Z</time></trkpt><trkpt lat="45.6213381" lon="9.5291847"><ele>203.0</ele><time>2026-03-29T08:51:25.447Z</time></trkpt><trkpt lat="45.6214201" lon="9.5290497"><ele>203.0</ele><time>2026-03-29T08:51:26.473Z</time></trkpt><trkpt lat="45.6214979" lon="9.5289111"><ele>203.0</ele><time>2026-03-29T08:51:27.464Z</time></trkpt><trkpt lat="45.6215816" lon="9.5287661"><ele>203.0</ele><time>2026-03-29T08:51:28.463Z</time></trkpt><trkpt lat="45.6216663" lon="9.5286195"><ele>203.0</ele><time>2026-03-29T08:51:29.472Z</time></trkpt><trkpt lat="45.6217528" lon="9.5284765"><ele>203.0</ele><time>2026-03-29T08:51:30.484Z</time></trkpt><trkpt lat="45.6218297" lon="9.5283434"><ele>203.0</ele><time>2026-03-29T08:51:31.465Z</time></trkpt><trkpt lat="45.6218995" lon="9.5282194"><ele>203.0</ele><time>2026-03-29T08:51:32.465Z</time></trkpt><trkpt lat="45.6219669" lon="9.5281014"><ele>203.0</ele><time>2026-03-29T08:51:33.437Z</time></trkpt><trkpt lat="45.6220368" lon="9.5279787"><ele>203.0</ele><time>2026-03-29T08:51:34.442Z</time></trkpt><trkpt lat="45.6221014" lon="9.5278635"><ele>203.2</ele><time>2026-03-29T08:51:35.457Z</time></trkpt><trkpt lat="45.622163" lon="9.5277564"><ele>203.4</ele><time>2026-03-29T08:51:36.492Z</time></trkpt><trkpt lat="45.6222248" lon="9.5276601"><ele>203.6</ele><time>2026-03-29T08:51:37.453Z</time></trkpt><trkpt lat="45.6222961" lon="9.5275784"><ele>203.79999999999998</ele><time>2026-03-29T08:51:38.48Z</time></trkpt><trkpt lat="45.6223803" lon="9.5275129"><ele>204.0</ele><time>2026-03-29T08:51:39.446Z</time></trkpt><trkpt lat="45.6224571" lon="9.5274519"><ele>204.0</ele><time>2026-03-29T08:51:40.478Z</time></trkpt><trkpt lat="45.6225237" lon="9.5273736"><ele>204.0</ele><time>2026-03-29T08:51:41.457Z</time></trkpt><trkpt lat="45.622574" lon="9.5272758"><ele>204.0</ele><time>2026-03-29T08:51:42.456Z</time></trkpt><trkpt lat="45.6226111" lon="9.5271561"><ele>204.0</ele><time>2026-03-29T08:51:43.485Z</time></trkpt><trkpt lat="45.6226482" lon="9.5270356"><ele>204.0</ele><time>2026-03-29T08:51:44.468Z</time></trkpt><trkpt lat="45.6226759" lon="9.5269096"><ele>204.0</ele><time>2026-03-29T08:51:45.452Z</time></trkpt><trkpt lat="45.6227185" lon="9.5267987"><ele>204.2</ele><time>2026-03-29T08:51:46.454Z</time></trkpt><trkpt lat="45.6227734" lon="9.5266834"><ele>204.39999999999998</ele><time>2026-03-29T08:51:47.443Z</time></trkpt><trkpt lat="45.6228336" lon="9.5265661"><ele>204.6</ele><time>2026-03-29T08:51:48.477Z</time></trkpt><trkpt lat="45.6228976" lon="9.5264497"><ele>204.8</ele><time>2026-03-29T08:51:49.453Z</time></trkpt><trkpt lat="45.6229671" lon="9.5263276"><ele>205.0</ele><time>2026-03-29T08:51:50.448Z</time></trkpt><trkpt lat="45.6230403" lon="9.5262005"><ele>205.25</ele><time>2026-03-29T08:51:51.46Z</time></trkpt><trkpt lat="45.6231112" lon="9.5260725"><ele>205.5</ele><time>2026-03-29T08:51:52.448Z</time></trkpt><trkpt lat="45.6231827" lon="9.5259437"><ele>205.75</ele><time>2026-03-29T08:51:53.44Z</time></trkpt><trkpt lat="45.6232544" lon="9.5258138"><ele>206.0</ele><time>2026-03-29T08:51:54.457Z</time></trkpt><trkpt lat="45.623325" lon="9.5256875"><ele>206.0</ele><time>2026-03-29T08:51:55.457Z</time></trkpt><trkpt lat="45.6233947" lon="9.5255645"><ele>206.0</ele><time>2026-03-29T08:51:56.443Z</time></trkpt><trkpt lat="45.6234665" lon="9.5254389"><ele>206.0</ele><time>2026-03-29T08:51:57.467Z</time></trkpt><trkpt lat="45.6235431" lon="9.525304"><ele>206.0</ele><time>2026-03-29T08:51:58.464Z</time></trkpt><trkpt lat="45.6236193" lon="9.5251692"><ele>206.0</ele><time>2026-03-29T08:51:59.443Z</time></trkpt><trkpt lat="45.6236939" lon="9.5250354"><ele>206.0</ele><time>2026-03-29T08:52:00.441Z</time></trkpt><trkpt lat="45.623768" lon="9.5249013"><ele>206.0</ele><time>2026-03-29T08:52:01.446Z</time></trkpt><trkpt lat="45.6238428" lon="9.5247672"><ele>206.0</ele><time>2026-03-29T08:52:02.452Z</time></trkpt><trkpt lat="45.6239171" lon="9.5246317"><ele>206.25</ele><time>2026-03-29T08:52:03.464Z</time></trkpt><trkpt lat="45.6239943" lon="9.524496"><ele>206.5</ele><time>2026-03-29T08:52:04.435Z</time></trkpt><trkpt lat="45.6240733" lon="9.5243543"><ele>206.75</ele><time>2026-03-29T08:52:05.465Z</time></trkpt><trkpt lat="45.6241555" lon="9.5242074"><ele>207.0</ele><time>2026-03-29T08:52:06.457Z</time></trkpt><trkpt lat="45.6242405" lon="9.5240552"><ele>207.0</ele><time>2026-03-29T08:52:07.453Z</time></trkpt><trkpt lat="45.6243276" lon="9.5238997"><ele>207.0</ele><time>2026-03-29T08:52:08.448Z</time></trkpt><trkpt lat="45.6244163" lon="9.5237422"><ele>207.0</ele><time>2026-03-29T08:52:09.451Z</time></trkpt><trkpt lat="45.6245063" lon="9.523584"><ele>207.0</ele><time>2026-03-29T08:52:10.449Z</time></trkpt><trkpt lat="45.6245951" lon="9.5234293"><ele>207.0</ele><time>2026-03-29T08:52:11.44Z</time></trkpt><trkpt lat="45.6246853" lon="9.5232731"><ele>207.0</ele><time>2026-03-29T08:52:12.437Z</time></trkpt><trkpt lat="45.6247736" lon="9.5231196"><ele>207.0</ele><time>2026-03-29T08:52:13.46Z</time></trkpt><trkpt lat="45.624858" lon="9.5229682"><ele>207.0</ele><time>2026-03-29T08:52:14.436Z</time></trkpt><trkpt lat="45.6249433" lon="9.5228144"><ele>207.25</ele><time>2026-03-29T08:52:15.452Z</time></trkpt><trkpt lat="45.6250305" lon="9.522659"><ele>207.5</ele><time>2026-03-29T08:52:16.454Z</time></trkpt><trkpt lat="45.6251181" lon="9.5225003"><ele>207.75</ele><time>2026-03-29T08:52:17.449Z</time></trkpt><trkpt lat="45.6252069" lon="9.5223385"><ele>208.0</ele><time>2026-03-29T08:52:18.435Z</time></trkpt><trkpt lat="45.6252985" lon="9.5221727"><ele>208.25</ele><time>2026-03-29T08:52:19.453Z</time></trkpt><trkpt lat="45.6253889" lon="9.5220072"><ele>208.5</ele><time>2026-03-29T08:52:20.452Z</time></trkpt><trkpt lat="45.6254781" lon="9.5218454"><ele>208.75</ele><time>2026-03-29T08:52:21.439Z</time></trkpt><trkpt lat="45.6255674" lon="9.5216882"><ele>209.0</ele><time>2026-03-29T08:52:22.441Z</time></trkpt><trkpt lat="45.625657" lon="9.5215294"><ele>209.0</ele><time>2026-03-29T08:52:23.452Z</time></trkpt><trkpt lat="45.6257452" lon="9.5213702"><ele>209.0</ele><time>2026-03-29T08:52:24.439Z</time></trkpt><trkpt lat="45.6258346" lon="9.5212098"><ele>209.0</ele><time>2026-03-29T08:52:25.456Z</time></trkpt><trkpt lat="45.6259297" lon="9.5210487"><ele>209.0</ele><time>2026-03-29T08:52:26.451Z</time></trkpt><trkpt lat="45.6260242" lon="9.5208833"><ele>209.0</ele><time>2026-03-29T08:52:27.445Z</time></trkpt><trkpt lat="45.6261169" lon="9.5207185"><ele>209.0</ele><time>2026-03-29T08:52:28.447Z</time></trkpt><trkpt lat="45.6262092" lon="9.5205514"><ele>209.0</ele><time>2026-03-29T08:52:29.449Z</time></trkpt><trkpt lat="45.6263024" lon="9.5203847"><ele>209.0</ele><time>2026-03-29T08:52:30.453Z</time></trkpt><trkpt lat="45.6263963" lon="9.5202173"><ele>209.33333333333334</ele><time>2026-03-29T08:52:31.452Z</time></trkpt><trkpt lat="45.6264901" lon="9.520048"><ele>209.66666666666669</ele><time>2026-03-29T08:52:32.442Z</time></trkpt><trkpt lat="45.6265846" lon="9.5198759"><ele>210.0</ele><time>2026-03-29T08:52:33.447Z</time></trkpt><trkpt lat="45.6266816" lon="9.5197025"><ele>210.66666666666669</ele><time>2026-03-29T08:52:34.454Z</time></trkpt><trkpt lat="45.626781" lon="9.5195253"><ele>211.33333333333334</ele><time>2026-03-29T08:52:35.441Z</time></trkpt><trkpt lat="45.6268827" lon="9.5193456"><ele>212.0</ele><time>2026-03-29T08:52:36.446Z</time></trkpt><trkpt lat="45.6269855" lon="9.5191638"><ele>212.0</ele><time>2026-03-29T08:52:37.44Z</time></trkpt><trkpt lat="45.6270894" lon="9.5189801"><ele>212.0</ele><time>2026-03-29T08:52:38.45Z</time></trkpt><trkpt lat="45.6271944" lon="9.5187957"><ele>212.0</ele><time>2026-03-29T08:52:39.44Z</time></trkpt><trkpt lat="45.6273004" lon="9.5186101"><ele>212.33333333333334</ele><time>2026-03-29T08:52:40.439Z</time></trkpt><trkpt lat="45.6274079" lon="9.5184231"><ele>212.66666666666669</ele><time>2026-03-29T08:52:41.455Z</time></trkpt><trkpt lat="45.6275196" lon="9.5182393"><ele>213.0</ele><time>2026-03-29T08:52:42.445Z</time></trkpt><trkpt lat="45.6276369" lon="9.5180636"><ele>213.33333333333331</ele><time>2026-03-29T08:52:43.448Z</time></trkpt><trkpt lat="45.6277613" lon="9.517898"><ele>213.66666666666666</ele><time>2026-03-29T08:52:44.449Z</time></trkpt><trkpt lat="45.6278887" lon="9.5177359"><ele>214.0</ele><time>2026-03-29T08:52:45.444Z</time></trkpt><trkpt lat="45.6280185" lon="9.5175744"><ele>213.33333333333331</ele><time>2026-03-29T08:52:46.462Z</time></trkpt><trkpt lat="45.6281513" lon="9.5174142"><ele>212.66666666666669</ele><time>2026-03-29T08:52:47.472Z</time></trkpt><trkpt lat="45.6282892" lon="9.5172582"><ele>212.0</ele><time>2026-03-29T08:52:48.435Z</time></trkpt><trkpt lat="45.6284316" lon="9.5171112"><ele>212.33333333333334</ele><time>2026-03-29T08:52:49.456Z</time></trkpt><trkpt lat="45.6285773" lon="9.5169684"><ele>212.66666666666669</ele><time>2026-03-29T08:52:50.438Z</time></trkpt><trkpt lat="45.6287237" lon="9.5168258"><ele>213.0</ele><time>2026-03-29T08:52:51.46Z</time></trkpt><trkpt lat="45.628874" lon="9.5166879"><ele>213.33333333333331</ele><time>2026-03-29T08:52:52.465Z</time></trkpt><trkpt lat="45.6290226" lon="9.5165641"><ele>213.66666666666666</ele><time>2026-03-29T08:52:53.447Z</time></trkpt><trkpt lat="45.6291682" lon="9.5164575"><ele>214.0</ele><time>2026-03-29T08:52:54.452Z</time></trkpt><trkpt lat="45.629314" lon="9.5163623"><ele>214.0</ele><time>2026-03-29T08:52:55.435Z</time></trkpt><trkpt lat="45.6294643" lon="9.5162722"><ele>214.0</ele><time>2026-03-29T08:52:56.434Z</time></trkpt><trkpt lat="45.6296193" lon="9.5161884"><ele>214.0</ele><time>2026-03-29T08:52:57.432Z</time></trkpt><trkpt lat="45.6297783" lon="9.516112"><ele>214.0</ele><time>2026-03-29T08:52:58.444Z</time></trkpt><trkpt lat="45.6299381" lon="9.5160432"><ele>214.0</ele><time>2026-03-29T08:52:59.449Z</time></trkpt><trkpt lat="45.6300977" lon="9.515977"><ele>214.0</ele><time>2026-03-29T08:53:00.45Z</time></trkpt><trkpt lat="45.6302569" lon="9.5159104"><ele>214.66666666666666</ele><time>2026-03-29T08:53:01.471Z</time></trkpt><trkpt lat="45.6304168" lon="9.5158434"><ele>215.33333333333331</ele><time>2026-03-29T08:53:02.441Z</time></trkpt><trkpt lat="45.6305771" lon="9.5157757"><ele>216.0</ele><time>2026-03-29T08:53:03.468Z</time></trkpt><trkpt lat="45.6307374" lon="9.5157093"><ele>216.0</ele><time>2026-03-29T08:53:04.445Z</time></trkpt><trkpt lat="45.6308976" lon="9.515644"><ele>216.0</ele><time>2026-03-29T08:53:05.45Z</time></trkpt><trkpt lat="45.631057" lon="9.5155808"><ele>216.0</ele><time>2026-03-29T08:53:06.454Z</time></trkpt><trkpt lat="45.6312137" lon="9.515517"><ele>216.0</ele><time>2026-03-29T08:53:07.459Z</time></trkpt><trkpt lat="45.6313639" lon="9.5154532"><ele>216.0</ele><time>2026-03-29T08:53:08.441Z</time></trkpt><trkpt lat="45.6315069" lon="9.5153944"><ele>216.0</ele><time>2026-03-29T08:53:09.435Z</time></trkpt><trkpt lat="45.6316454" lon="9.5153404"><ele>216.0</ele><time>2026-03-29T08:53:10.451Z</time></trkpt><trkpt lat="45.631794" lon="9.5152833"><ele>216.0</ele><time>2026-03-29T08:53:11.447Z</time></trkpt><trkpt lat="45.6319389" lon="9.5152237"><ele>216.0</ele><time>2026-03-29T08:53:12.441Z</time></trkpt><trkpt lat="45.632076" lon="9.5151715"><ele>216.0</ele><time>2026-03-29T08:53:13.447Z</time></trkpt><trkpt lat="45.6322071" lon="9.5151226"><ele>216.0</ele><time>2026-03-29T08:53:14.453Z</time></trkpt><trkpt lat="45.6323438" lon="9.5150706"><ele>216.0</ele><time>2026-03-29T08:53:15.438Z</time></trkpt><trkpt lat="45.6324873" lon="9.5150159"><ele>216.0</ele><time>2026-03-29T08:53:16.432Z</time></trkpt><trkpt lat="45.6326369" lon="9.5149551"><ele>216.0</ele><time>2026-03-29T08:53:17.435Z</time></trkpt><trkpt lat="45.632793" lon="9.5148933"><ele>216.66666666666669</ele><time>2026-03-29T08:53:18.431Z</time></trkpt><trkpt lat="45.6329508" lon="9.5148298"><ele>217.33333333333334</ele><time>2026-03-29T08:53:19.445Z</time></trkpt><trkpt lat="45.6331097" lon="9.5147655"><ele>218.0</ele><time>2026-03-29T08:53:20.428Z</time></trkpt><trkpt lat="45.633268" lon="9.5147003"><ele>218.0</ele><time>2026-03-29T08:53:21.431Z</time></trkpt><trkpt lat="45.6334197" lon="9.5146392"><ele>218.0</ele><time>2026-03-29T08:53:22.429Z</time></trkpt><trkpt lat="45.6335657" lon="9.5145791"><ele>218.0</ele><time>2026-03-29T08:53:23.44Z</time></trkpt><trkpt lat="45.6337121" lon="9.514518"><ele>217.75</ele><time>2026-03-29T08:53:24.44Z</time></trkpt><trkpt lat="45.6338553" lon="9.5144583"><ele>217.5</ele><time>2026-03-29T08:53:25.439Z</time></trkpt><trkpt lat="45.6339937" lon="9.5144014"><ele>217.25</ele><time>2026-03-29T08:53:26.424Z</time></trkpt><trkpt lat="45.6341321" lon="9.5143442"><ele>217.0</ele><time>2026-03-29T08:53:27.44Z</time></trkpt><trkpt lat="45.6342691" lon="9.5142888"><ele>217.0</ele><time>2026-03-29T08:53:28.439Z</time></trkpt><trkpt lat="45.6344038" lon="9.5142362"><ele>217.0</ele><time>2026-03-29T08:53:29.444Z</time></trkpt><trkpt lat="45.6345376" lon="9.5141805"><ele>217.0</ele><time>2026-03-29T08:53:30.445Z</time></trkpt><trkpt lat="45.6346713" lon="9.5141228"><ele>217.0</ele><time>2026-03-29T08:53:31.446Z</time></trkpt><trkpt lat="45.6348077" lon="9.5140635"><ele>217.25</ele><time>2026-03-29T08:53:32.444Z</time></trkpt><trkpt lat="45.6349453" lon="9.5140038"><ele>217.5</ele><time>2026-03-29T08:53:33.431Z</time></trkpt><trkpt lat="45.6350817" lon="9.513945"><ele>217.75</ele><time>2026-03-29T08:53:34.446Z</time></trkpt><trkpt lat="45.6352179" lon="9.5138863"><ele>218.0</ele><time>2026-03-29T08:53:35.428Z</time></trkpt><trkpt lat="45.6353543" lon="9.5138286"><ele>218.25</ele><time>2026-03-29T08:53:36.443Z</time></trkpt><trkpt lat="45.6354878" lon="9.5137752"><ele>218.5</ele><time>2026-03-29T08:53:37.43Z</time></trkpt><trkpt lat="45.6356168" lon="9.5137252"><ele>218.75</ele><time>2026-03-29T08:53:38.447Z</time></trkpt><trkpt lat="45.6357399" lon="9.5136834"><ele>219.0</ele><time>2026-03-29T08:53:39.43Z</time></trkpt><trkpt lat="45.6358603" lon="9.5136338"><ele>218.5</ele><time>2026-03-29T08:53:40.436Z</time></trkpt><trkpt lat="45.6359789" lon="9.5135857"><ele>218.0</ele><time>2026-03-29T08:53:41.447Z</time></trkpt><trkpt lat="45.6361012" lon="9.5135351"><ele>217.5</ele><time>2026-03-29T08:53:42.448Z</time></trkpt><trkpt lat="45.6362214" lon="9.5134849"><ele>217.0</ele><time>2026-03-29T08:53:43.447Z</time></trkpt><trkpt lat="45.6363389" lon="9.5134354"><ele>216.5</ele><time>2026-03-29T08:53:44.43Z</time></trkpt><trkpt lat="45.6364613" lon="9.5133881"><ele>216.0</ele><time>2026-03-29T08:53:45.43Z</time></trkpt><trkpt lat="45.6365859" lon="9.5133382"><ele>215.5</ele><time>2026-03-29T08:53:46.441Z</time></trkpt><trkpt lat="45.6367049" lon="9.5132888"><ele>215.0</ele><time>2026-03-29T08:53:47.448Z</time></trkpt><trkpt lat="45.636824" lon="9.5132366"><ele>215.0</ele><time>2026-03-29T08:53:48.447Z</time></trkpt><trkpt lat="45.6369419" lon="9.5131863"><ele>215.0</ele><time>2026-03-29T08:53:49.433Z</time></trkpt><trkpt lat="45.6370636" lon="9.513139"><ele>215.0</ele><time>2026-03-29T08:53:50.433Z</time></trkpt><trkpt lat="45.6371946" lon="9.5130861"><ele>215.0</ele><time>2026-03-29T08:53:51.435Z</time></trkpt><trkpt lat="45.6373273" lon="9.5130329"><ele>215.25</ele><time>2026-03-29T08:53:52.443Z</time></trkpt><trkpt lat="45.6374621" lon="9.512969"><ele>215.5</ele><time>2026-03-29T08:53:53.445Z</time></trkpt><trkpt lat="45.6376022" lon="9.5129095"><ele>215.75</ele><time>2026-03-29T08:53:54.438Z</time></trkpt><trkpt lat="45.6377431" lon="9.5128533"><ele>216.0</ele><time>2026-03-29T08:53:55.456Z</time></trkpt><trkpt lat="45.6378862" lon="9.5127977"><ele>216.0</ele><time>2026-03-29T08:53:56.446Z</time></trkpt><trkpt lat="45.6380239" lon="9.5127448"><ele>216.0</ele><time>2026-03-29T08:53:57.445Z</time></trkpt><trkpt lat="45.6381529" lon="9.5126956"><ele>216.0</ele><time>2026-03-29T08:53:58.453Z</time></trkpt><trkpt lat="45.6382717" lon="9.5126405"><ele>216.0</ele><time>2026-03-29T08:53:59.432Z</time></trkpt><trkpt lat="45.6383901" lon="9.5125767"><ele>216.0</ele><time>2026-03-29T08:54:00.435Z</time></trkpt><trkpt lat="45.638524" lon="9.5125051"><ele>216.0</ele><time>2026-03-29T08:54:01.441Z</time></trkpt><trkpt lat="45.6386742" lon="9.5124281"><ele>216.0</ele><time>2026-03-29T08:54:02.431Z</time></trkpt><trkpt lat="45.6388472" lon="9.5123575"><ele>216.66666666666669</ele><time>2026-03-29T08:54:03.442Z</time></trkpt><trkpt lat="45.6390361" lon="9.5122909"><ele>217.33333333333334</ele><time>2026-03-29T08:54:04.441Z</time></trkpt><trkpt lat="45.6392217" lon="9.5122269"><ele>218.0</ele><time>2026-03-29T08:54:05.437Z</time></trkpt><trkpt lat="45.639393" lon="9.5121637"><ele>218.0</ele><time>2026-03-29T08:54:06.446Z</time></trkpt><trkpt lat="45.639553" lon="9.5121004"><ele>218.0</ele><time>2026-03-29T08:54:07.434Z</time></trkpt><trkpt lat="45.6397131" lon="9.5120374"><ele>218.0</ele><time>2026-03-29T08:54:08.442Z</time></trkpt><trkpt lat="45.6398735" lon="9.5119745"><ele>217.66666666666669</ele><time>2026-03-29T08:54:09.445Z</time></trkpt><trkpt lat="45.6400359" lon="9.5119102"><ele>217.33333333333331</ele><time>2026-03-29T08:54:10.438Z</time></trkpt><trkpt lat="45.6402019" lon="9.5118445"><ele>217.0</ele><time>2026-03-29T08:54:11.449Z</time></trkpt><trkpt lat="45.6403682" lon="9.511777"><ele>218.0</ele><time>2026-03-29T08:54:12.452Z</time></trkpt><trkpt lat="45.6405258" lon="9.5117128"><ele>219.0</ele><time>2026-03-29T08:54:13.467Z</time></trkpt><trkpt lat="45.6406752" lon="9.5116523"><ele>220.0</ele><time>2026-03-29T08:54:14.459Z</time></trkpt><trkpt lat="45.64082" lon="9.5115944"><ele>220.0</ele><time>2026-03-29T08:54:15.45Z</time></trkpt><trkpt lat="45.6409621" lon="9.5115368"><ele>220.0</ele><time>2026-03-29T08:54:16.434Z</time></trkpt><trkpt lat="45.6410976" lon="9.5114762"><ele>220.0</ele><time>2026-03-29T08:54:17.458Z</time></trkpt><trkpt lat="45.6412242" lon="9.5114192"><ele>220.0</ele><time>2026-03-29T08:54:18.459Z</time></trkpt><trkpt lat="45.641337" lon="9.5113762"><ele>220.4</ele><time>2026-03-29T08:54:19.443Z</time></trkpt><trkpt lat="45.641438" lon="9.5113521"><ele>220.8</ele><time>2026-03-29T08:54:20.437Z</time></trkpt><trkpt lat="45.6415366" lon="9.5113453"><ele>221.2</ele><time>2026-03-29T08:54:21.445Z</time></trkpt><trkpt lat="45.641636" lon="9.5113498"><ele>221.6</ele><time>2026-03-29T08:54:22.447Z</time></trkpt><trkpt lat="45.6417405" lon="9.5113566"><ele>222.0</ele><time>2026-03-29T08:54:23.442Z</time></trkpt><trkpt lat="45.6418348" lon="9.511331"><ele>222.0</ele><time>2026-03-29T08:54:24.449Z</time></trkpt><trkpt lat="45.6419139" lon="9.5112623"><ele>222.0</ele><time>2026-03-29T08:54:25.461Z</time></trkpt><trkpt lat="45.6420009" lon="9.5111777"><ele>222.0</ele><time>2026-03-29T08:54:26.448Z</time></trkpt><trkpt lat="45.6420883" lon="9.5110974"><ele>222.0</ele><time>2026-03-29T08:54:27.448Z</time></trkpt><trkpt lat="45.6421883" lon="9.5110325"><ele>222.0</ele><time>2026-03-29T08:54:28.443Z</time></trkpt><trkpt lat="45.6422893" lon="9.5109723"><ele>221.25</ele><time>2026-03-29T08:54:29.429Z</time></trkpt><trkpt lat="45.6423993" lon="9.5109305"><ele>220.5</ele><time>2026-03-29T08:54:30.447Z</time></trkpt><trkpt lat="45.6425243" lon="9.5108904"><ele>219.75</ele><time>2026-03-29T08:54:31.437Z</time></trkpt><trkpt lat="45.6426546" lon="9.5108407"><ele>219.0</ele><time>2026-03-29T08:54:32.443Z</time></trkpt><trkpt lat="45.6427906" lon="9.5107853"><ele>218.33333333333331</ele><time>2026-03-29T08:54:33.433Z</time></trkpt><trkpt lat="45.6429351" lon="9.5107253"><ele>217.66666666666666</ele><time>2026-03-29T08:54:34.444Z</time></trkpt><trkpt lat="45.6430825" lon="9.5106652"><ele>217.0</ele><time>2026-03-29T08:54:35.442Z</time></trkpt><trkpt lat="45.6432316" lon="9.5106054"><ele>217.0</ele><time>2026-03-29T08:54:36.439Z</time></trkpt><trkpt lat="45.6433837" lon="9.5105444"><ele>217.0</ele><time>2026-03-29T08:54:37.43Z</time></trkpt><trkpt lat="45.6435387" lon="9.5104828"><ele>217.0</ele><time>2026-03-29T08:54:38.45Z</time></trkpt><trkpt lat="45.6436968" lon="9.5104199"><ele>218.0</ele><time>2026-03-29T08:54:39.455Z</time></trkpt><trkpt lat="45.643852" lon="9.5103564"><ele>219.0</ele><time>2026-03-29T08:54:40.444Z</time></trkpt><trkpt lat="45.6440028" lon="9.510294"><ele>220.0</ele><time>2026-03-29T08:54:41.452Z</time></trkpt><trkpt lat="45.6441538" lon="9.5102297"><ele>220.0</ele><time>2026-03-29T08:54:42.432Z</time></trkpt><trkpt lat="45.6443063" lon="9.5101638"><ele>220.0</ele><time>2026-03-29T08:54:43.436Z</time></trkpt><trkpt lat="45.6444612" lon="9.5100961"><ele>220.0</ele><time>2026-03-29T08:54:44.429Z</time></trkpt><trkpt lat="45.6446193" lon="9.5100275"><ele>220.33333333333331</ele><time>2026-03-29T08:54:45.438Z</time></trkpt><trkpt lat="45.6447792" lon="9.5099576"><ele>220.66666666666669</ele><time>2026-03-29T08:54:46.438Z</time></trkpt><trkpt lat="45.6449427" lon="9.5098912"><ele>221.0</ele><time>2026-03-29T08:54:47.44Z</time></trkpt><trkpt lat="45.645109" lon="9.509828"><ele>221.0</ele><time>2026-03-29T08:54:48.435Z</time></trkpt><trkpt lat="45.6452728" lon="9.5097643"><ele>221.0</ele><time>2026-03-29T08:54:49.426Z</time></trkpt><trkpt lat="45.6454267" lon="9.5097021"><ele>221.0</ele><time>2026-03-29T08:54:50.453Z</time></trkpt><trkpt lat="45.6455713" lon="9.5096442"><ele>221.0</ele><time>2026-03-29T08:54:51.446Z</time></trkpt><trkpt lat="45.6457115" lon="9.509586"><ele>221.0</ele><time>2026-03-29T08:54:52.441Z</time></trkpt><trkpt lat="45.6458497" lon="9.5095257"><ele>221.0</ele><time>2026-03-29T08:54:53.435Z</time></trkpt><trkpt lat="45.6459865" lon="9.5094646"><ele>221.0</ele><time>2026-03-29T08:54:54.45Z</time></trkpt><trkpt lat="45.6461202" lon="9.509405"><ele>220.75</ele><time>2026-03-29T08:54:55.441Z</time></trkpt><trkpt lat="45.6462451" lon="9.5093511"><ele>220.5</ele><time>2026-03-29T08:54:56.448Z</time></trkpt><trkpt lat="45.6463628" lon="9.5093033"><ele>220.25</ele><time>2026-03-29T08:54:57.438Z</time></trkpt><trkpt lat="45.6464746" lon="9.5092637"><ele>220.0</ele><time>2026-03-29T08:54:58.44Z</time></trkpt><trkpt lat="45.6465884" lon="9.5092399"><ele>220.0</ele><time>2026-03-29T08:54:59.444Z</time></trkpt><trkpt lat="45.6467032" lon="9.5092403"><ele>220.0</ele><time>2026-03-29T08:55:00.441Z</time></trkpt><trkpt lat="45.6468139" lon="9.5092411"><ele>220.0</ele><time>2026-03-29T08:55:01.452Z</time></trkpt><trkpt lat="45.6469147" lon="9.5092067"><ele>220.0</ele><time>2026-03-29T08:55:02.441Z</time></trkpt><trkpt lat="45.6470046" lon="9.5091337"><ele>220.0</ele><time>2026-03-29T08:55:03.439Z</time></trkpt><trkpt lat="45.647105" lon="9.5090479"><ele>220.75</ele><time>2026-03-29T08:55:04.443Z</time></trkpt><trkpt lat="45.6472116" lon="9.5089641"><ele>221.5</ele><time>2026-03-29T08:55:05.444Z</time></trkpt><trkpt lat="45.6473261" lon="9.5089117"><ele>222.25</ele><time>2026-03-29T08:55:06.437Z</time></trkpt><trkpt lat="45.647449" lon="9.5088637"><ele>223.0</ele><time>2026-03-29T08:55:07.429Z</time></trkpt><trkpt lat="45.6475741" lon="9.5088121"><ele>223.0</ele><time>2026-03-29T08:55:08.439Z</time></trkpt><trkpt lat="45.6477015" lon="9.5087604"><ele>223.0</ele><time>2026-03-29T08:55:09.451Z</time></trkpt><trkpt lat="45.6478335" lon="9.5087037"><ele>223.0</ele><time>2026-03-29T08:55:10.461Z</time></trkpt><trkpt lat="45.6479692" lon="9.5086442"><ele>223.0</ele><time>2026-03-29T08:55:11.442Z</time></trkpt><trkpt lat="45.6481098" lon="9.5085838"><ele>223.5</ele><time>2026-03-29T08:55:12.429Z</time></trkpt><trkpt lat="45.6482553" lon="9.5085271"><ele>224.0</ele><time>2026-03-29T08:55:13.441Z</time></trkpt><trkpt lat="45.648396" lon="9.5084728"><ele>224.5</ele><time>2026-03-29T08:55:14.445Z</time></trkpt><trkpt lat="45.6485326" lon="9.5084157"><ele>225.0</ele><time>2026-03-29T08:55:15.435Z</time></trkpt><trkpt lat="45.6486721" lon="9.508355"><ele>225.33333333333331</ele><time>2026-03-29T08:55:16.437Z</time></trkpt><trkpt lat="45.6488141" lon="9.5082947"><ele>225.66666666666666</ele><time>2026-03-29T08:55:17.442Z</time></trkpt><trkpt lat="45.6489601" lon="9.5082333"><ele>226.0</ele><time>2026-03-29T08:55:18.441Z</time></trkpt><trkpt lat="45.6491101" lon="9.5081731"><ele>226.0</ele><time>2026-03-29T08:55:19.452Z</time></trkpt><trkpt lat="45.649263" lon="9.5081097"><ele>226.0</ele><time>2026-03-29T08:55:20.439Z</time></trkpt><trkpt lat="45.6494182" lon="9.5080453"><ele>226.0</ele><time>2026-03-29T08:55:21.432Z</time></trkpt><trkpt lat="45.6495708" lon="9.5079823"><ele>225.66666666666666</ele><time>2026-03-29T08:55:22.437Z</time></trkpt><trkpt lat="45.649722" lon="9.5079204"><ele>225.33333333333331</ele><time>2026-03-29T08:55:23.438Z</time></trkpt><trkpt lat="45.6498712" lon="9.5078561"><ele>225.0</ele><time>2026-03-29T08:55:24.441Z</time></trkpt><trkpt lat="45.6500181" lon="9.5077909"><ele>225.33333333333331</ele><time>2026-03-29T08:55:25.444Z</time></trkpt><trkpt lat="45.6501636" lon="9.5077266"><ele>225.66666666666666</ele><time>2026-03-29T08:55:26.441Z</time></trkpt><trkpt lat="45.6503093" lon="9.5076661"><ele>226.0</ele><time>2026-03-29T08:55:27.444Z</time></trkpt><trkpt lat="45.6504546" lon="9.5076035"><ele>226.0</ele><time>2026-03-29T08:55:28.443Z</time></trkpt><trkpt lat="45.6506014" lon="9.5075423"><ele>226.0</ele><time>2026-03-29T08:55:29.434Z</time></trkpt><trkpt lat="45.6507506" lon="9.5074825"><ele>226.0</ele><time>2026-03-29T08:55:30.441Z</time></trkpt><trkpt lat="45.6509022" lon="9.5074212"><ele>226.0</ele><time>2026-03-29T08:55:31.441Z</time></trkpt><trkpt lat="45.6510547" lon="9.5073585"><ele>226.0</ele><time>2026-03-29T08:55:32.432Z</time></trkpt><trkpt lat="45.65121" lon="9.5072934"><ele>226.0</ele><time>2026-03-29T08:55:33.438Z</time></trkpt><trkpt lat="45.6513647" lon="9.5072265"><ele>225.66666666666666</ele><time>2026-03-29T08:55:34.441Z</time></trkpt><trkpt lat="45.65152" lon="9.5071609"><ele>225.33333333333331</ele><time>2026-03-29T08:55:35.435Z</time></trkpt><trkpt lat="45.651676" lon="9.5070962"><ele>225.0</ele><time>2026-03-29T08:55:36.441Z</time></trkpt><trkpt lat="45.6518318" lon="9.5070279"><ele>225.33333333333331</ele><time>2026-03-29T08:55:37.445Z</time></trkpt><trkpt lat="45.6519874" lon="9.5069574"><ele>225.66666666666666</ele><time>2026-03-29T08:55:38.445Z</time></trkpt><trkpt lat="45.6521437" lon="9.5068894"><ele>226.0</ele><time>2026-03-29T08:55:39.439Z</time></trkpt><trkpt lat="45.6523022" lon="9.5068245"><ele>226.0</ele><time>2026-03-29T08:55:40.428Z</time></trkpt><trkpt lat="45.6524615" lon="9.5067603"><ele>226.0</ele><time>2026-03-29T08:55:41.44Z</time></trkpt><trkpt lat="45.6526205" lon="9.5066941"><ele>226.0</ele><time>2026-03-29T08:55:42.451Z</time></trkpt><trkpt lat="45.6527781" lon="9.5066294"><ele>227.0</ele><time>2026-03-29T08:55:43.44Z</time></trkpt><trkpt lat="45.6529341" lon="9.5065655"><ele>228.0</ele><time>2026-03-29T08:55:44.434Z</time></trkpt><trkpt lat="45.6530876" lon="9.5065003"><ele>229.0</ele><time>2026-03-29T08:55:45.436Z</time></trkpt><trkpt lat="45.6532418" lon="9.5064375"><ele>229.0</ele><time>2026-03-29T08:55:46.435Z</time></trkpt><trkpt lat="45.6533965" lon="9.506377"><ele>229.0</ele><time>2026-03-29T08:55:47.427Z</time></trkpt><trkpt lat="45.6535521" lon="9.5063128"><ele>229.0</ele><time>2026-03-29T08:55:48.441Z</time></trkpt><trkpt lat="45.6537105" lon="9.506247"><ele>229.0</ele><time>2026-03-29T08:55:49.441Z</time></trkpt><trkpt lat="45.6538721" lon="9.5061774"><ele>229.0</ele><time>2026-03-29T08:55:50.448Z</time></trkpt><trkpt lat="45.6540365" lon="9.5061054"><ele>229.0</ele><time>2026-03-29T08:55:51.439Z</time></trkpt><trkpt lat="45.654205" lon="9.506034"><ele>229.0</ele><time>2026-03-29T08:55:52.438Z</time></trkpt><trkpt lat="45.6543769" lon="9.5059646"><ele>229.0</ele><time>2026-03-29T08:55:53.441Z</time></trkpt><trkpt lat="45.6545506" lon="9.5058955"><ele>229.0</ele><time>2026-03-29T08:55:54.433Z</time></trkpt><trkpt lat="45.6547168" lon="9.505828"><ele>229.33333333333331</ele><time>2026-03-29T08:55:55.441Z</time></trkpt><trkpt lat="45.6548724" lon="9.5057647"><ele>229.66666666666669</ele><time>2026-03-29T08:55:56.434Z</time></trkpt><trkpt lat="45.6550165" lon="9.5057048"><ele>230.0</ele><time>2026-03-29T08:55:57.44Z</time></trkpt><trkpt lat="45.655151" lon="9.5056479"><ele>230.0</ele><time>2026-03-29T08:55:58.452Z</time></trkpt><trkpt lat="45.6552802" lon="9.5055947"><ele>230.0</ele><time>2026-03-29T08:55:59.444Z</time></trkpt><trkpt lat="45.655409" lon="9.5055416"><ele>230.0</ele><time>2026-03-29T08:56:00.425Z</time></trkpt><trkpt lat="45.6555365" lon="9.505491"><ele>230.0</ele><time>2026-03-29T08:56:01.439Z</time></trkpt><trkpt lat="45.6556624" lon="9.5054387"><ele>230.0</ele><time>2026-03-29T08:56:02.443Z</time></trkpt><trkpt lat="45.6557867" lon="9.5053862"><ele>230.0</ele><time>2026-03-29T08:56:03.444Z</time></trkpt><trkpt lat="45.6559046" lon="9.5053394"><ele>230.0</ele><time>2026-03-29T08:56:04.455Z</time></trkpt><trkpt lat="45.6560192" lon="9.5052883"><ele>230.0</ele><time>2026-03-29T08:56:05.45Z</time></trkpt><trkpt lat="45.6561268" lon="9.5052344"><ele>230.2</ele><time>2026-03-29T08:56:06.441Z</time></trkpt><trkpt lat="45.6562238" lon="9.5051744"><ele>230.4</ele><time>2026-03-29T08:56:07.437Z</time></trkpt><trkpt lat="45.6563139" lon="9.5051129"><ele>230.60000000000002</ele><time>2026-03-29T08:56:08.455Z</time></trkpt><trkpt lat="45.6564" lon="9.5050685"><ele>230.8</ele><time>2026-03-29T08:56:09.443Z</time></trkpt><trkpt lat="45.6564832" lon="9.5050665"><ele>231.0</ele><time>2026-03-29T08:56:10.447Z</time></trkpt><trkpt lat="45.6565663" lon="9.5050977"><ele>231.0</ele><time>2026-03-29T08:56:11.451Z</time></trkpt><trkpt lat="45.6566564" lon="9.5051179"><ele>231.00000000000003</ele><time>2026-03-29T08:56:12.457Z</time></trkpt><trkpt lat="45.6567479" lon="9.5050976"><ele>231.00000000000003</ele><time>2026-03-29T08:56:13.444Z</time></trkpt><trkpt lat="45.6568244" lon="9.5050373"><ele>231.0</ele><time>2026-03-29T08:56:14.437Z</time></trkpt><trkpt lat="45.6568972" lon="9.5049511"><ele>231.0</ele><time>2026-03-29T08:56:15.452Z</time></trkpt><trkpt lat="45.6569808" lon="9.5048843"><ele>231.25</ele><time>2026-03-29T08:56:16.439Z</time></trkpt><trkpt lat="45.6570799" lon="9.5048413"><ele>231.5</ele><time>2026-03-29T08:56:17.438Z</time></trkpt><trkpt lat="45.6571928" lon="9.5047984"><ele>231.75</ele><time>2026-03-29T08:56:18.444Z</time></trkpt><trkpt lat="45.6573086" lon="9.5047514"><ele>232.0</ele><time>2026-03-29T08:56:19.442Z</time></trkpt><trkpt lat="45.6574207" lon="9.5047037"><ele>232.0</ele><time>2026-03-29T08:56:20.438Z</time></trkpt><trkpt lat="45.6575353" lon="9.504654"><ele>232.0</ele><time>2026-03-29T08:56:21.433Z</time></trkpt><trkpt lat="45.6576525" lon="9.5046027"><ele>232.0</ele><time>2026-03-29T08:56:22.438Z</time></trkpt><trkpt lat="45.657773" lon="9.5045513"><ele>232.0</ele><time>2026-03-29T08:56:23.426Z</time></trkpt><trkpt lat="45.6578971" lon="9.5045002"><ele>232.0</ele><time>2026-03-29T08:56:24.442Z</time></trkpt><trkpt lat="45.6580241" lon="9.5044477"><ele>232.0</ele><time>2026-03-29T08:56:25.445Z</time></trkpt><trkpt lat="45.6581526" lon="9.5043937"><ele>232.0</ele><time>2026-03-29T08:56:26.449Z</time></trkpt><trkpt lat="45.6582875" lon="9.50434"><ele>232.0</ele><time>2026-03-29T08:56:27.44Z</time></trkpt><trkpt lat="45.6584223" lon="9.5042854"><ele>232.0</ele><time>2026-03-29T08:56:28.448Z</time></trkpt><trkpt lat="45.6585521" lon="9.5042316"><ele>232.0</ele><time>2026-03-29T08:56:29.442Z</time></trkpt><trkpt lat="45.6586801" lon="9.5041793"><ele>232.0</ele><time>2026-03-29T08:56:30.442Z</time></trkpt><trkpt lat="45.6588001" lon="9.5041308"><ele>232.0</ele><time>2026-03-29T08:56:31.454Z</time></trkpt><trkpt lat="45.6589102" lon="9.5040832"><ele>232.25</ele><time>2026-03-29T08:56:32.428Z</time></trkpt><trkpt lat="45.6590155" lon="9.5040415"><ele>232.5</ele><time>2026-03-29T08:56:33.431Z</time></trkpt><trkpt lat="45.6591239" lon="9.5039969"><ele>232.75</ele><time>2026-03-29T08:56:34.437Z</time></trkpt><trkpt lat="45.6592334" lon="9.5039469"><ele>233.0</ele><time>2026-03-29T08:56:35.443Z</time></trkpt><trkpt lat="45.6593422" lon="9.5038871"><ele>233.0</ele><time>2026-03-29T08:56:36.449Z</time></trkpt><trkpt lat="45.6594462" lon="9.5038184"><ele>233.0</ele><time>2026-03-29T08:56:37.43Z</time></trkpt><trkpt lat="45.6595464" lon="9.5037655"><ele>233.0</ele><time>2026-03-29T08:56:38.446Z</time></trkpt><trkpt lat="45.6596501" lon="9.5037216"><ele>233.0</ele><time>2026-03-29T08:56:39.446Z</time></trkpt><trkpt lat="45.6597588" lon="9.5036769"><ele>233.0</ele><time>2026-03-29T08:56:40.435Z</time></trkpt><trkpt lat="45.659871" lon="9.503636"><ele>233.25</ele><time>2026-03-29T08:56:41.441Z</time></trkpt><trkpt lat="45.6599935" lon="9.5036093"><ele>233.5</ele><time>2026-03-29T08:56:42.439Z</time></trkpt><trkpt lat="45.6601223" lon="9.5035762"><ele>233.75</ele><time>2026-03-29T08:56:43.44Z</time></trkpt><trkpt lat="45.6602528" lon="9.5035285"><ele>234.0</ele><time>2026-03-29T08:56:44.444Z</time></trkpt><trkpt lat="45.6603876" lon="9.5034779"><ele>234.0</ele><time>2026-03-29T08:56:45.447Z</time></trkpt><trkpt lat="45.660522" lon="9.5034215"><ele>234.0</ele><time>2026-03-29T08:56:46.437Z</time></trkpt><trkpt lat="45.6606556" lon="9.5033652"><ele>234.0</ele><time>2026-03-29T08:56:47.441Z</time></trkpt><trkpt lat="45.6607863" lon="9.5033103"><ele>234.0</ele><time>2026-03-29T08:56:48.443Z</time></trkpt><trkpt lat="45.6609178" lon="9.5032606"><ele>234.0</ele><time>2026-03-29T08:56:49.449Z</time></trkpt><trkpt lat="45.6610499" lon="9.5032078"><ele>234.0</ele><time>2026-03-29T08:56:50.446Z</time></trkpt><trkpt lat="45.6611811" lon="9.5031546"><ele>234.0</ele><time>2026-03-29T08:56:51.436Z</time></trkpt><trkpt lat="45.6613148" lon="9.5030999"><ele>234.0</ele><time>2026-03-29T08:56:52.455Z</time></trkpt><trkpt lat="45.6614505" lon="9.5030444"><ele>234.0</ele><time>2026-03-29T08:56:53.46Z</time></trkpt><trkpt lat="45.6615816" lon="9.5029916"><ele>234.0</ele><time>2026-03-29T08:56:54.438Z</time></trkpt><trkpt lat="45.6617095" lon="9.5029382"><ele>234.0</ele><time>2026-03-29T08:56:55.444Z</time></trkpt><trkpt lat="45.6618359" lon="9.5028813"><ele>234.0</ele><time>2026-03-29T08:56:56.444Z</time></trkpt><trkpt lat="45.6619568" lon="9.5028274"><ele>233.75</ele><time>2026-03-29T08:56:57.443Z</time></trkpt><trkpt lat="45.662079" lon="9.5027787"><ele>233.5</ele><time>2026-03-29T08:56:58.442Z</time></trkpt><trkpt lat="45.6622031" lon="9.5027284"><ele>233.25</ele><time>2026-03-29T08:56:59.432Z</time></trkpt><trkpt lat="45.6623321" lon="9.5026743"><ele>233.0</ele><time>2026-03-29T08:57:00.439Z</time></trkpt><trkpt lat="45.6624636" lon="9.5026202"><ele>233.0</ele><time>2026-03-29T08:57:01.442Z</time></trkpt><trkpt lat="45.6625953" lon="9.5025664"><ele>233.0</ele><time>2026-03-29T08:57:02.437Z</time></trkpt><trkpt lat="45.6627319" lon="9.5025111"><ele>233.0</ele><time>2026-03-29T08:57:03.44Z</time></trkpt><trkpt lat="45.662872" lon="9.5024524"><ele>233.0</ele><time>2026-03-29T08:57:04.441Z</time></trkpt><trkpt lat="45.663013" lon="9.5023933"><ele>232.33333333333334</ele><time>2026-03-29T08:57:05.436Z</time></trkpt><trkpt lat="45.6631571" lon="9.5023342"><ele>231.66666666666669</ele><time>2026-03-29T08:57:06.437Z</time></trkpt><trkpt lat="45.6633026" lon="9.5022715"><ele>231.0</ele><time>2026-03-29T08:57:07.437Z</time></trkpt><trkpt lat="45.6634474" lon="9.5022114"><ele>231.0</ele><time>2026-03-29T08:57:08.44Z</time></trkpt><trkpt lat="45.6635942" lon="9.502149"><ele>231.0</ele><time>2026-03-29T08:57:09.433Z</time></trkpt><trkpt lat="45.6637425" lon="9.5020849"><ele>231.0</ele><time>2026-03-29T08:57:10.446Z</time></trkpt><trkpt lat="45.6638931" lon="9.5020203"><ele>232.33333333333331</ele><time>2026-03-29T08:57:11.432Z</time></trkpt><trkpt lat="45.6640452" lon="9.5019569"><ele>233.66666666666666</ele><time>2026-03-29T08:57:12.441Z</time></trkpt><trkpt lat="45.6641959" lon="9.5018937"><ele>235.0</ele><time>2026-03-29T08:57:13.451Z</time></trkpt><trkpt lat="45.6643478" lon="9.5018308"><ele>235.33333333333331</ele><time>2026-03-29T08:57:14.445Z</time></trkpt><trkpt lat="45.6644997" lon="9.5017684"><ele>235.66666666666669</ele><time>2026-03-29T08:57:15.429Z</time></trkpt><trkpt lat="45.6646505" lon="9.5017061"><ele>236.0</ele><time>2026-03-29T08:57:16.442Z</time></trkpt><trkpt lat="45.6648013" lon="9.5016459"><ele>236.0</ele><time>2026-03-29T08:57:17.436Z</time></trkpt><trkpt lat="45.6649509" lon="9.5015872"><ele>236.0</ele><time>2026-03-29T08:57:18.428Z</time></trkpt><trkpt lat="45.6651" lon="9.5015266"><ele>236.0</ele><time>2026-03-29T08:57:19.45Z</time></trkpt><trkpt lat="45.6652473" lon="9.501465"><ele>236.33333333333334</ele><time>2026-03-29T08:57:20.444Z</time></trkpt><trkpt lat="45.6653957" lon="9.5014051"><ele>236.66666666666669</ele><time>2026-03-29T08:57:21.448Z</time></trkpt><trkpt lat="45.6655428" lon="9.5013446"><ele>237.0</ele><time>2026-03-29T08:57:22.431Z</time></trkpt><trkpt lat="45.6656896" lon="9.5012827"><ele>237.0</ele><time>2026-03-29T08:57:23.456Z</time></trkpt><trkpt lat="45.6658352" lon="9.501219"><ele>237.0</ele><time>2026-03-29T08:57:24.442Z</time></trkpt><trkpt lat="45.6659798" lon="9.5011492"><ele>237.0</ele><time>2026-03-29T08:57:25.447Z</time></trkpt><trkpt lat="45.6661236" lon="9.5010759"><ele>236.66666666666669</ele><time>2026-03-29T08:57:26.451Z</time></trkpt><trkpt lat="45.6662655" lon="9.5009957"><ele>236.33333333333334</ele><time>2026-03-29T08:57:27.442Z</time></trkpt><trkpt lat="45.6664054" lon="9.5009046"><ele>236.0</ele><time>2026-03-29T08:57:28.44Z</time></trkpt><trkpt lat="45.6665436" lon="9.500804"><ele>236.0</ele><time>2026-03-29T08:57:29.453Z</time></trkpt><trkpt lat="45.6666819" lon="9.5006979"><ele>236.0</ele><time>2026-03-29T08:57:30.449Z</time></trkpt><trkpt lat="45.6668226" lon="9.5005872"><ele>236.0</ele><time>2026-03-29T08:57:31.443Z</time></trkpt><trkpt lat="45.6669677" lon="9.5004754"><ele>236.66666666666669</ele><time>2026-03-29T08:57:32.429Z</time></trkpt><trkpt lat="45.6671082" lon="9.5003673"><ele>237.33333333333331</ele><time>2026-03-29T08:57:33.449Z</time></trkpt><trkpt lat="45.667245" lon="9.5002584"><ele>238.0</ele><time>2026-03-29T08:57:34.461Z</time></trkpt><trkpt lat="45.6673795" lon="9.5001483"><ele>238.0</ele><time>2026-03-29T08:57:35.485Z</time></trkpt><trkpt lat="45.6675131" lon="9.5000404"><ele>238.0</ele><time>2026-03-29T08:57:36.451Z</time></trkpt><trkpt lat="45.6676435" lon="9.499932"><ele>238.0</ele><time>2026-03-29T08:57:37.423Z</time></trkpt><trkpt lat="45.6677737" lon="9.4998224"><ele>237.66666666666666</ele><time>2026-03-29T08:57:38.446Z</time></trkpt><trkpt lat="45.6679067" lon="9.4997138"><ele>237.33333333333331</ele><time>2026-03-29T08:57:39.449Z</time></trkpt><trkpt lat="45.6680389" lon="9.4996083"><ele>237.0</ele><time>2026-03-29T08:57:40.438Z</time></trkpt><trkpt lat="45.668168" lon="9.4995036"><ele>237.75</ele><time>2026-03-29T08:57:41.446Z</time></trkpt><trkpt lat="45.6682954" lon="9.4993997"><ele>238.5</ele><time>2026-03-29T08:57:42.425Z</time></trkpt><trkpt lat="45.6684212" lon="9.4992966"><ele>239.25</ele><time>2026-03-29T08:57:43.425Z</time></trkpt><trkpt lat="45.6685473" lon="9.4991949"><ele>240.0</ele><time>2026-03-29T08:57:44.444Z</time></trkpt><trkpt lat="45.6686677" lon="9.4990978"><ele>240.25</ele><time>2026-03-29T08:57:45.447Z</time></trkpt><trkpt lat="45.6687808" lon="9.499006"><ele>240.5</ele><time>2026-03-29T08:57:46.436Z</time></trkpt><trkpt lat="45.6688909" lon="9.4989174"><ele>240.75</ele><time>2026-03-29T08:57:47.445Z</time></trkpt><trkpt lat="45.6690036" lon="9.498825"><ele>241.0</ele><time>2026-03-29T08:57:48.434Z</time></trkpt><trkpt lat="45.6691176" lon="9.4987316"><ele>241.0</ele><time>2026-03-29T08:57:49.438Z</time></trkpt><trkpt lat="45.6692318" lon="9.4986389"><ele>241.0</ele><time>2026-03-29T08:57:50.425Z</time></trkpt><trkpt lat="45.6693432" lon="9.4985501"><ele>241.0</ele><time>2026-03-29T08:57:51.44Z</time></trkpt><trkpt lat="45.6694573" lon="9.4984583"><ele>241.0</ele><time>2026-03-29T08:57:52.437Z</time></trkpt><trkpt lat="45.6695747" lon="9.4983637"><ele>241.25</ele><time>2026-03-29T08:57:53.426Z</time></trkpt><trkpt lat="45.6696953" lon="9.498267"><ele>241.5</ele><time>2026-03-29T08:57:54.435Z</time></trkpt><trkpt lat="45.669819" lon="9.4981684"><ele>241.75</ele><time>2026-03-29T08:57:55.439Z</time></trkpt><trkpt lat="45.6699458" lon="9.4980664"><ele>242.0</ele><time>2026-03-29T08:57:56.427Z</time></trkpt><trkpt lat="45.6700728" lon="9.4979646"><ele>242.0</ele><time>2026-03-29T08:57:57.435Z</time></trkpt><trkpt lat="45.6701922" lon="9.4978711"><ele>242.0</ele><time>2026-03-29T08:57:58.436Z</time></trkpt><trkpt lat="45.6703065" lon="9.4977808"><ele>242.0</ele><time>2026-03-29T08:57:59.443Z</time></trkpt><trkpt lat="45.67042" lon="9.4976849"><ele>242.0</ele><time>2026-03-29T08:58:00.421Z</time></trkpt><trkpt lat="45.6705333" lon="9.4975881"><ele>242.25</ele><time>2026-03-29T08:58:01.43Z</time></trkpt><trkpt lat="45.6706446" lon="9.4974963"><ele>242.5</ele><time>2026-03-29T08:58:02.44Z</time></trkpt><trkpt lat="45.6707573" lon="9.4974072"><ele>242.75</ele><time>2026-03-29T08:58:03.445Z</time></trkpt><trkpt lat="45.6708667" lon="9.4973218"><ele>243.0</ele><time>2026-03-29T08:58:04.439Z</time></trkpt><trkpt lat="45.670977" lon="9.4972367"><ele>243.0</ele><time>2026-03-29T08:58:05.436Z</time></trkpt><trkpt lat="45.6710884" lon="9.497148"><ele>243.0</ele><time>2026-03-29T08:58:06.427Z</time></trkpt><trkpt lat="45.6712004" lon="9.4970595"><ele>243.0</ele><time>2026-03-29T08:58:07.438Z</time></trkpt><trkpt lat="45.6713129" lon="9.4969722"><ele>243.0</ele><time>2026-03-29T08:58:08.437Z</time></trkpt><trkpt lat="45.6714259" lon="9.4968851"><ele>243.25</ele><time>2026-03-29T08:58:09.445Z</time></trkpt><trkpt lat="45.6715406" lon="9.496797"><ele>243.5</ele><time>2026-03-29T08:58:10.442Z</time></trkpt><trkpt lat="45.6716543" lon="9.4967099"><ele>243.75</ele><time>2026-03-29T08:58:11.435Z</time></trkpt><trkpt lat="45.6717701" lon="9.4966198"><ele>244.0</ele><time>2026-03-29T08:58:12.434Z</time></trkpt><trkpt lat="45.6718852" lon="9.4965293"><ele>244.25</ele><time>2026-03-29T08:58:13.431Z</time></trkpt><trkpt lat="45.671997" lon="9.4964443"><ele>244.5</ele><time>2026-03-29T08:58:14.441Z</time></trkpt><trkpt lat="45.6721049" lon="9.4963654"><ele>244.75</ele><time>2026-03-29T08:58:15.44Z</time></trkpt><trkpt lat="45.6722122" lon="9.4962813"><ele>245.0</ele><time>2026-03-29T08:58:16.43Z</time></trkpt><trkpt lat="45.6723174" lon="9.496189"><ele>245.0</ele><time>2026-03-29T08:58:17.447Z</time></trkpt><trkpt lat="45.6724227" lon="9.4960964"><ele>245.0</ele><time>2026-03-29T08:58:18.45Z</time></trkpt><trkpt lat="45.6725276" lon="9.4960037"><ele>245.0</ele><time>2026-03-29T08:58:19.457Z</time></trkpt><trkpt lat="45.6726328" lon="9.4959105"><ele>245.0</ele><time>2026-03-29T08:58:20.449Z</time></trkpt><trkpt lat="45.6727365" lon="9.4958228"><ele>245.0</ele><time>2026-03-29T08:58:21.429Z</time></trkpt><trkpt lat="45.6728332" lon="9.4957443"><ele>245.0</ele><time>2026-03-29T08:58:22.439Z</time></trkpt><trkpt lat="45.672924" lon="9.4956756"><ele>245.0</ele><time>2026-03-29T08:58:23.448Z</time></trkpt><trkpt lat="45.6730109" lon="9.4956174"><ele>245.0</ele><time>2026-03-29T08:58:24.451Z</time></trkpt><trkpt lat="45.6730965" lon="9.4955644"><ele>245.0</ele><time>2026-03-29T08:58:25.436Z</time></trkpt><trkpt lat="45.6731808" lon="9.4955257"><ele>245.00000000000003</ele><time>2026-03-29T08:58:26.445Z</time></trkpt><trkpt lat="45.6732685" lon="9.4954812"><ele>245.0</ele><time>2026-03-29T08:58:27.445Z</time></trkpt><trkpt lat="45.6733548" lon="9.4954372"><ele>245.0</ele><time>2026-03-29T08:58:28.441Z</time></trkpt><trkpt lat="45.6734409" lon="9.495401"><ele>245.0</ele><time>2026-03-29T08:58:29.449Z</time></trkpt><trkpt lat="45.6735182" lon="9.4953818"><ele>245.00000000000003</ele><time>2026-03-29T08:58:30.428Z</time></trkpt><trkpt lat="45.6735975" lon="9.4953937"><ele>245.0</ele><time>2026-03-29T08:58:31.433Z</time></trkpt><trkpt lat="45.6736744" lon="9.4954186"><ele>245.50000000000003</ele><time>2026-03-29T08:58:32.457Z</time></trkpt><trkpt lat="45.6737488" lon="9.495431"><ele>246.0</ele><time>2026-03-29T08:58:33.461Z</time></trkpt><trkpt lat="45.6738251" lon="9.49545"><ele>246.5</ele><time>2026-03-29T08:58:34.465Z</time></trkpt><trkpt lat="45.6738926" lon="9.4954071"><ele>247.0</ele><time>2026-03-29T08:58:35.455Z</time></trkpt><trkpt lat="45.6739459" lon="9.4953288"><ele>247.50000000000003</ele><time>2026-03-29T08:58:36.466Z</time></trkpt><trkpt lat="45.6739866" lon="9.495213"><ele>248.0</ele><time>2026-03-29T08:58:37.454Z</time></trkpt><trkpt lat="45.6740168" lon="9.4950729"><ele>248.0</ele><time>2026-03-29T08:58:38.444Z</time></trkpt><trkpt lat="45.6740568" lon="9.4949527"><ele>248.0</ele><time>2026-03-29T08:58:39.442Z</time></trkpt><trkpt lat="45.6741128" lon="9.4948469"><ele>248.0</ele><time>2026-03-29T08:58:40.445Z</time></trkpt><trkpt lat="45.6741864" lon="9.4947472"><ele>248.0</ele><time>2026-03-29T08:58:41.44Z</time></trkpt><trkpt lat="45.6742744" lon="9.4946522"><ele>248.0</ele><time>2026-03-29T08:58:42.439Z</time></trkpt><trkpt lat="45.6743736" lon="9.4945565"><ele>248.25</ele><time>2026-03-29T08:58:43.423Z</time></trkpt><trkpt lat="45.6744813" lon="9.4944583"><ele>248.5</ele><time>2026-03-29T08:58:44.447Z</time></trkpt><trkpt lat="45.6745917" lon="9.4943626"><ele>248.75</ele><time>2026-03-29T08:58:45.435Z</time></trkpt><trkpt lat="45.6747018" lon="9.4942717"><ele>249.0</ele><time>2026-03-29T08:58:46.432Z</time></trkpt><trkpt lat="45.6748165" lon="9.4941788"><ele>249.0</ele><time>2026-03-29T08:58:47.436Z</time></trkpt><trkpt lat="45.6749374" lon="9.4940808"><ele>249.0</ele><time>2026-03-29T08:58:48.445Z</time></trkpt><trkpt lat="45.6750635" lon="9.4939798"><ele>249.0</ele><time>2026-03-29T08:58:49.429Z</time></trkpt><trkpt lat="45.6751934" lon="9.4938755"><ele>249.0</ele><time>2026-03-29T08:58:50.425Z</time></trkpt><trkpt lat="45.675322" lon="9.4937716"><ele>249.0</ele><time>2026-03-29T08:58:51.44Z</time></trkpt><trkpt lat="45.6754471" lon="9.4936699"><ele>249.0</ele><time>2026-03-29T08:58:52.448Z</time></trkpt><trkpt lat="45.6755699" lon="9.493572"><ele>249.0</ele><time>2026-03-29T08:58:53.439Z</time></trkpt><trkpt lat="45.6756929" lon="9.4934728"><ele>249.0</ele><time>2026-03-29T08:58:54.453Z</time></trkpt><trkpt lat="45.6758201" lon="9.4933672"><ele>249.0</ele><time>2026-03-29T08:58:55.444Z</time></trkpt><trkpt lat="45.6759484" lon="9.4932628"><ele>249.0</ele><time>2026-03-29T08:58:56.452Z</time></trkpt><trkpt lat="45.6760791" lon="9.4931574"><ele>249.0</ele><time>2026-03-29T08:58:57.444Z</time></trkpt><trkpt lat="45.6762116" lon="9.4930524"><ele>249.0</ele><time>2026-03-29T08:58:58.425Z</time></trkpt><trkpt lat="45.6763409" lon="9.4929482"><ele>250.0</ele><time>2026-03-29T08:58:59.44Z</time></trkpt><trkpt lat="45.6764716" lon="9.4928454"><ele>251.0</ele><time>2026-03-29T08:59:00.459Z</time></trkpt><trkpt lat="45.6766034" lon="9.4927387"><ele>252.0</ele><time>2026-03-29T08:59:01.44Z</time></trkpt><trkpt lat="45.6767386" lon="9.4926286"><ele>252.0</ele><time>2026-03-29T08:59:02.445Z</time></trkpt><trkpt lat="45.6768768" lon="9.4925176"><ele>252.0</ele><time>2026-03-29T08:59:03.441Z</time></trkpt><trkpt lat="45.677017" lon="9.4924047"><ele>252.0</ele><time>2026-03-29T08:59:04.442Z</time></trkpt><trkpt lat="45.6771553" lon="9.4922939"><ele>252.0</ele><time>2026-03-29T08:59:05.442Z</time></trkpt><trkpt lat="45.6772942" lon="9.4921824"><ele>252.0</ele><time>2026-03-29T08:59:06.443Z</time></trkpt><trkpt lat="45.677432" lon="9.4920702"><ele>252.0</ele><time>2026-03-29T08:59:07.44Z</time></trkpt><trkpt lat="45.6775703" lon="9.4919591"><ele>252.0</ele><time>2026-03-29T08:59:08.435Z</time></trkpt><trkpt lat="45.677707" lon="9.4918489"><ele>252.0</ele><time>2026-03-29T08:59:09.433Z</time></trkpt><trkpt lat="45.6778447" lon="9.4917381"><ele>252.0</ele><time>2026-03-29T08:59:10.45Z</time></trkpt><trkpt lat="45.6779815" lon="9.4916236"><ele>252.0</ele><time>2026-03-29T08:59:11.433Z</time></trkpt><trkpt lat="45.678117" lon="9.4915066"><ele>252.0</ele><time>2026-03-29T08:59:12.446Z</time></trkpt><trkpt lat="45.6782463" lon="9.4913915"><ele>252.0</ele><time>2026-03-29T08:59:13.441Z</time></trkpt><trkpt lat="45.678374" lon="9.4912713"><ele>252.33333333333331</ele><time>2026-03-29T08:59:14.446Z</time></trkpt><trkpt lat="45.6785031" lon="9.4911451"><ele>252.66666666666666</ele><time>2026-03-29T08:59:15.444Z</time></trkpt><trkpt lat="45.6786317" lon="9.4910137"><ele>253.0</ele><time>2026-03-29T08:59:16.446Z</time></trkpt><trkpt lat="45.6787611" lon="9.4908814"><ele>253.0</ele><time>2026-03-29T08:59:17.444Z</time></trkpt><trkpt lat="45.6788891" lon="9.4907491"><ele>253.0</ele><time>2026-03-29T08:59:18.446Z</time></trkpt><trkpt lat="45.6790149" lon="9.4906197"><ele>253.0</ele><time>2026-03-29T08:59:19.441Z</time></trkpt><trkpt lat="45.6791375" lon="9.4904932"><ele>253.0</ele><time>2026-03-29T08:59:20.445Z</time></trkpt><trkpt lat="45.6792562" lon="9.4903707"><ele>253.0</ele><time>2026-03-29T08:59:21.436Z</time></trkpt><trkpt lat="45.6793718" lon="9.4902521"><ele>253.0</ele><time>2026-03-29T08:59:22.441Z</time></trkpt><trkpt lat="45.6794851" lon="9.4901376"><ele>253.0</ele><time>2026-03-29T08:59:23.441Z</time></trkpt><trkpt lat="45.6796" lon="9.4900203"><ele>253.25</ele><time>2026-03-29T08:59:24.443Z</time></trkpt><trkpt lat="45.6797178" lon="9.4898974"><ele>253.5</ele><time>2026-03-29T08:59:25.447Z</time></trkpt><trkpt lat="45.6798384" lon="9.4897729"><ele>253.75</ele><time>2026-03-29T08:59:26.439Z</time></trkpt><trkpt lat="45.6799631" lon="9.4896453"><ele>254.0</ele><time>2026-03-29T08:59:27.427Z</time></trkpt><trkpt lat="45.6800896" lon="9.4895131"><ele>254.33333333333334</ele><time>2026-03-29T08:59:28.442Z</time></trkpt><trkpt lat="45.6802184" lon="9.489377"><ele>254.66666666666669</ele><time>2026-03-29T08:59:29.452Z</time></trkpt><trkpt lat="45.6803498" lon="9.4892394"><ele>255.0</ele><time>2026-03-29T08:59:30.428Z</time></trkpt><trkpt lat="45.6804838" lon="9.4891011"><ele>255.66666666666669</ele><time>2026-03-29T08:59:31.439Z</time></trkpt><trkpt lat="45.680619" lon="9.4889605"><ele>256.33333333333337</ele><time>2026-03-29T08:59:32.449Z</time></trkpt><trkpt lat="45.680756" lon="9.4888182"><ele>257.0</ele><time>2026-03-29T08:59:33.438Z</time></trkpt><trkpt lat="45.6808958" lon="9.4886768"><ele>257.6666666666667</ele><time>2026-03-29T08:59:34.44Z</time></trkpt><trkpt lat="45.6810353" lon="9.4885359"><ele>258.3333333333333</ele><time>2026-03-29T08:59:35.448Z</time></trkpt><trkpt lat="45.6811732" lon="9.4883974"><ele>259.0</ele><time>2026-03-29T08:59:36.438Z</time></trkpt><trkpt lat="45.6813077" lon="9.4882584"><ele>259.0</ele><time>2026-03-29T08:59:37.439Z</time></trkpt><trkpt lat="45.681439" lon="9.4881188"><ele>259.0</ele><time>2026-03-29T08:59:38.443Z</time></trkpt><trkpt lat="45.6815692" lon="9.4879811"><ele>259.0</ele><time>2026-03-29T08:59:39.429Z</time></trkpt><trkpt lat="45.6816997" lon="9.4878472"><ele>259.0</ele><time>2026-03-29T08:59:40.438Z</time></trkpt><trkpt lat="45.6818297" lon="9.487714"><ele>259.0</ele><time>2026-03-29T08:59:41.437Z</time></trkpt><trkpt lat="45.6819601" lon="9.4875822"><ele>259.0</ele><time>2026-03-29T08:59:42.429Z</time></trkpt><trkpt lat="45.6820903" lon="9.4874502"><ele>259.0</ele><time>2026-03-29T08:59:43.437Z</time></trkpt><trkpt lat="45.68222" lon="9.4873172"><ele>259.0</ele><time>2026-03-29T08:59:44.44Z</time></trkpt><trkpt lat="45.6823511" lon="9.4871817"><ele>259.0</ele><time>2026-03-29T08:59:45.439Z</time></trkpt><trkpt lat="45.6824863" lon="9.4870414"><ele>258.75</ele><time>2026-03-29T08:59:46.444Z</time></trkpt><trkpt lat="45.6826124" lon="9.4869085"><ele>258.5</ele><time>2026-03-29T08:59:47.44Z</time></trkpt><trkpt lat="45.6827283" lon="9.4867859"><ele>258.25</ele><time>2026-03-29T08:59:48.435Z</time></trkpt><trkpt lat="45.6828357" lon="9.4866749"><ele>258.0</ele><time>2026-03-29T08:59:49.435Z</time></trkpt><trkpt lat="45.6829359" lon="9.4865747"><ele>258.0</ele><time>2026-03-29T08:59:50.437Z</time></trkpt><trkpt lat="45.683038" lon="9.4864933"><ele>258.0</ele><time>2026-03-29T08:59:51.437Z</time></trkpt><trkpt lat="45.6831463" lon="9.4864408"><ele>258.0</ele><time>2026-03-29T08:59:52.43Z</time></trkpt><trkpt lat="45.6832541" lon="9.4864181"><ele>258.0</ele><time>2026-03-29T08:59:53.434Z</time></trkpt><trkpt lat="45.6833545" lon="9.4864071"><ele>258.0</ele><time>2026-03-29T08:59:54.44Z</time></trkpt><trkpt lat="45.6834339" lon="9.4863441"><ele>258.2</ele><time>2026-03-29T08:59:55.438Z</time></trkpt><trkpt lat="45.6834894" lon="9.4862295"><ele>258.4</ele><time>2026-03-29T08:59:56.426Z</time></trkpt><trkpt lat="45.6835444" lon="9.486098"><ele>258.59999999999997</ele><time>2026-03-29T08:59:57.439Z</time></trkpt><trkpt lat="45.6836012" lon="9.48596"><ele>258.8</ele><time>2026-03-29T08:59:58.439Z</time></trkpt><trkpt lat="45.6836844" lon="9.4858414"><ele>259.0</ele><time>2026-03-29T08:59:59.435Z</time></trkpt><trkpt lat="45.6837838" lon="9.4857299"><ele>259.0</ele><time>2026-03-29T09:00:00.442Z</time></trkpt><trkpt lat="45.6838869" lon="9.4856137"><ele>259.0</ele><time>2026-03-29T09:00:01.433Z</time></trkpt><trkpt lat="45.6839997" lon="9.4854976"><ele>259.0</ele><time>2026-03-29T09:00:02.44Z</time></trkpt><trkpt lat="45.6841175" lon="9.4853757"><ele>259.0</ele><time>2026-03-29T09:00:03.427Z</time></trkpt><trkpt lat="45.6842348" lon="9.4852496"><ele>259.25</ele><time>2026-03-29T09:00:04.435Z</time></trkpt><trkpt lat="45.6843497" lon="9.4851286"><ele>259.5</ele><time>2026-03-29T09:00:05.442Z</time></trkpt><trkpt lat="45.6844573" lon="9.4850156"><ele>259.75</ele><time>2026-03-29T09:00:06.443Z</time></trkpt><trkpt lat="45.6845644" lon="9.4849028"><ele>260.0</ele><time>2026-03-29T09:00:07.433Z</time></trkpt><trkpt lat="45.6846732" lon="9.4847866"><ele>260.0</ele><time>2026-03-29T09:00:08.44Z</time></trkpt><trkpt lat="45.684786" lon="9.4846705"><ele>260.0</ele><time>2026-03-29T09:00:09.448Z</time></trkpt><trkpt lat="45.6849014" lon="9.4845524"><ele>260.0</ele><time>2026-03-29T09:00:10.439Z</time></trkpt><trkpt lat="45.6850186" lon="9.4844295"><ele>260.0</ele><time>2026-03-29T09:00:11.434Z</time></trkpt><trkpt lat="45.685138" lon="9.4843069"><ele>260.25</ele><time>2026-03-29T09:00:12.442Z</time></trkpt><trkpt lat="45.685256" lon="9.4841843"><ele>260.5</ele><time>2026-03-29T09:00:13.434Z</time></trkpt><trkpt lat="45.6853725" lon="9.484066"><ele>260.75</ele><time>2026-03-29T09:00:14.433Z</time></trkpt><trkpt lat="45.6854895" lon="9.4839487"><ele>261.0</ele><time>2026-03-29T09:00:15.44Z</time></trkpt><trkpt lat="45.6856058" lon="9.4838294"><ele>261.0</ele><time>2026-03-29T09:00:16.437Z</time></trkpt><trkpt lat="45.6857184" lon="9.4837115"><ele>261.0</ele><time>2026-03-29T09:00:17.44Z</time></trkpt><trkpt lat="45.6858244" lon="9.483605"><ele>261.0</ele><time>2026-03-29T09:00:18.44Z</time></trkpt><trkpt lat="45.6859225" lon="9.4835074"><ele>261.0</ele><time>2026-03-29T09:00:19.437Z</time></trkpt><trkpt lat="45.6860127" lon="9.4834172"><ele>261.8</ele><time>2026-03-29T09:00:20.431Z</time></trkpt><trkpt lat="45.6861" lon="9.4833284"><ele>262.6</ele><time>2026-03-29T09:00:21.439Z</time></trkpt><trkpt lat="45.6861852" lon="9.4832419"><ele>263.4</ele><time>2026-03-29T09:00:22.441Z</time></trkpt><trkpt lat="45.6862653" lon="9.4831591"><ele>264.2</ele><time>2026-03-29T09:00:23.439Z</time></trkpt><trkpt lat="45.686341" lon="9.4830801"><ele>265.0</ele><time>2026-03-29T09:00:24.436Z</time></trkpt><trkpt lat="45.6864087" lon="9.4830091"><ele>264.99999999999994</ele><time>2026-03-29T09:00:25.439Z</time></trkpt><trkpt lat="45.6864707" lon="9.4829488"><ele>265.0</ele><time>2026-03-29T09:00:26.44Z</time></trkpt><trkpt lat="45.6865259" lon="9.4828956"><ele>265.0</ele><time>2026-03-29T09:00:27.428Z</time></trkpt><trkpt lat="45.6865792" lon="9.4828436"><ele>265.0</ele><time>2026-03-29T09:00:28.43Z</time></trkpt><trkpt lat="45.6866364" lon="9.4827931"><ele>265.0</ele><time>2026-03-29T09:00:29.429Z</time></trkpt><trkpt lat="45.6866922" lon="9.4827431"><ele>264.99999999999994</ele><time>2026-03-29T09:00:30.437Z</time></trkpt><trkpt lat="45.6867808" lon="9.4826559"><ele>265.0</ele><time>2026-03-29T09:00:32.439Z</time></trkpt><trkpt lat="45.6868526" lon="9.4825855"><ele>265.16666666666663</ele><time>2026-03-29T09:00:34.441Z</time></trkpt><trkpt lat="45.686907" lon="9.4825292"><ele>265.3333333333333</ele><time>2026-03-29T09:00:36.446Z</time></trkpt><trkpt lat="45.6869734" lon="9.4824589"><ele>265.5</ele><time>2026-03-29T09:01:00.432Z</time></trkpt><trkpt lat="45.687078" lon="9.4823534"><ele>265.6666666666667</ele><time>2026-03-29T09:01:02.448Z</time></trkpt><trkpt lat="45.68714" lon="9.4822897"><ele>265.83333333333337</ele><time>2026-03-29T09:01:03.434Z</time></trkpt><trkpt lat="45.6871985" lon="9.4822279"><ele>266.0</ele><time>2026-03-29T09:01:04.431Z</time></trkpt><trkpt lat="45.6872707" lon="9.4821551"><ele>266.2</ele><time>2026-03-29T09:01:05.435Z</time></trkpt><trkpt lat="45.6873468" lon="9.4820717"><ele>266.40000000000003</ele><time>2026-03-29T09:01:06.442Z</time></trkpt><trkpt lat="45.6874258" lon="9.4819855"><ele>266.6</ele><time>2026-03-29T09:01:07.435Z</time></trkpt><trkpt lat="45.6875083" lon="9.4818956"><ele>266.8</ele><time>2026-03-29T09:01:08.439Z</time></trkpt><trkpt lat="45.6875966" lon="9.4818023"><ele>267.0</ele><time>2026-03-29T09:01:09.434Z</time></trkpt><trkpt lat="45.6876883" lon="9.4817042"><ele>267.0</ele><time>2026-03-29T09:01:10.436Z</time></trkpt><trkpt lat="45.6877848" lon="9.4816007"><ele>267.0</ele><time>2026-03-29T09:01:11.434Z</time></trkpt><trkpt lat="45.6878857" lon="9.4814949"><ele>267.0</ele><time>2026-03-29T09:01:12.438Z</time></trkpt><trkpt lat="45.687984" lon="9.4813921"><ele>267.0</ele><time>2026-03-29T09:01:13.427Z</time></trkpt><trkpt lat="45.6880836" lon="9.4812884"><ele>266.75</ele><time>2026-03-29T09:01:14.436Z</time></trkpt><trkpt lat="45.6881857" lon="9.4811773"><ele>266.5</ele><time>2026-03-29T09:01:15.434Z</time></trkpt><trkpt lat="45.6882901" lon="9.4810609"><ele>266.25</ele><time>2026-03-29T09:01:16.432Z</time></trkpt><trkpt lat="45.6883969" lon="9.4809409"><ele>266.0</ele><time>2026-03-29T09:01:17.44Z</time></trkpt><trkpt lat="45.6885069" lon="9.4808202"><ele>266.75</ele><time>2026-03-29T09:01:18.439Z</time></trkpt><trkpt lat="45.6886216" lon="9.4807018"><ele>267.5</ele><time>2026-03-29T09:01:19.442Z</time></trkpt><trkpt lat="45.6887401" lon="9.4805816"><ele>268.25</ele><time>2026-03-29T09:01:20.44Z</time></trkpt><trkpt lat="45.6888614" lon="9.480458"><ele>269.0</ele><time>2026-03-29T09:01:21.441Z</time></trkpt><trkpt lat="45.6889813" lon="9.4803355"><ele>269.0</ele><time>2026-03-29T09:01:22.432Z</time></trkpt><trkpt lat="45.6890972" lon="9.4802161"><ele>269.0</ele><time>2026-03-29T09:01:23.436Z</time></trkpt><trkpt lat="45.6892133" lon="9.4800909"><ele>269.0</ele><time>2026-03-29T09:01:24.437Z</time></trkpt><trkpt lat="45.689332" lon="9.4799601"><ele>269.0</ele><time>2026-03-29T09:01:25.436Z</time></trkpt><trkpt lat="45.689458" lon="9.479831"><ele>269.6666666666667</ele><time>2026-03-29T09:01:26.442Z</time></trkpt><trkpt lat="45.6895845" lon="9.4797019"><ele>270.3333333333333</ele><time>2026-03-29T09:01:27.441Z</time></trkpt><trkpt lat="45.6897148" lon="9.4795732"><ele>271.0</ele><time>2026-03-29T09:01:28.44Z</time></trkpt><trkpt lat="45.6898447" lon="9.479442"><ele>271.0</ele><time>2026-03-29T09:01:29.434Z</time></trkpt><trkpt lat="45.6899747" lon="9.4793095"><ele>271.0</ele><time>2026-03-29T09:01:30.461Z</time></trkpt><trkpt lat="45.6900986" lon="9.4791842"><ele>271.0</ele><time>2026-03-29T09:01:31.453Z</time></trkpt><trkpt lat="45.690216" lon="9.479066"><ele>271.25</ele><time>2026-03-29T09:01:32.446Z</time></trkpt><trkpt lat="45.6903317" lon="9.4789465"><ele>271.5</ele><time>2026-03-29T09:01:33.449Z</time></trkpt><trkpt lat="45.6904458" lon="9.4788276"><ele>271.75</ele><time>2026-03-29T09:01:34.437Z</time></trkpt><trkpt lat="45.6905591" lon="9.4787091"><ele>272.0</ele><time>2026-03-29T09:01:35.455Z</time></trkpt><trkpt lat="45.6906706" lon="9.478593"><ele>272.25</ele><time>2026-03-29T09:01:36.472Z</time></trkpt><trkpt lat="45.6907754" lon="9.4784845"><ele>272.5</ele><time>2026-03-29T09:01:37.463Z</time></trkpt><trkpt lat="45.6908724" lon="9.478385"><ele>272.75</ele><time>2026-03-29T09:01:38.435Z</time></trkpt><trkpt lat="45.6909645" lon="9.4782899"><ele>273.0</ele><time>2026-03-29T09:01:39.459Z</time></trkpt><trkpt lat="45.6910491" lon="9.4782073"><ele>273.3333333333333</ele><time>2026-03-29T09:01:40.457Z</time></trkpt><trkpt lat="45.6911146" lon="9.4781563"><ele>273.6666666666667</ele><time>2026-03-29T09:01:41.438Z</time></trkpt><trkpt lat="45.6911862" lon="9.478117"><ele>274.0</ele><time>2026-03-29T09:01:43.448Z</time></trkpt><trkpt lat="45.6912776" lon="9.4781183"><ele>274.33333333333337</ele><time>2026-03-29T09:01:50.471Z</time></trkpt><trkpt lat="45.6913944" lon="9.4781223"><ele>274.6666666666667</ele><time>2026-03-29T09:01:52.487Z</time></trkpt><trkpt lat="45.6914594" lon="9.4780912"><ele>275.0</ele><time>2026-03-29T09:01:53.464Z</time></trkpt><trkpt lat="45.6915217" lon="9.4780404"><ele>275.0</ele><time>2026-03-29T09:01:54.442Z</time></trkpt><trkpt lat="45.6915805" lon="9.4779934"><ele>275.0</ele><time>2026-03-29T09:01:55.467Z</time></trkpt><trkpt lat="45.6916489" lon="9.4779689"><ele>275.0</ele><time>2026-03-29T09:01:56.465Z</time></trkpt><trkpt lat="45.69173" lon="9.4779759"><ele>275.0</ele><time>2026-03-29T09:01:57.437Z</time></trkpt><trkpt lat="45.6918156" lon="9.4780141"><ele>275.0</ele><time>2026-03-29T09:01:58.44Z</time></trkpt><trkpt lat="45.6919045" lon="9.4780773"><ele>275.0</ele><time>2026-03-29T09:01:59.441Z</time></trkpt><trkpt lat="45.6919934" lon="9.4781597"><ele>274.8</ele><time>2026-03-29T09:02:00.434Z</time></trkpt><trkpt lat="45.6920771" lon="9.478241"><ele>274.6</ele><time>2026-03-29T09:02:01.442Z</time></trkpt><trkpt lat="45.6921622" lon="9.4783245"><ele>274.4</ele><time>2026-03-29T09:02:02.44Z</time></trkpt><trkpt lat="45.6922507" lon="9.4784113"><ele>274.2</ele><time>2026-03-29T09:02:03.444Z</time></trkpt><trkpt lat="45.6923441" lon="9.4785012"><ele>274.0</ele><time>2026-03-29T09:02:04.451Z</time></trkpt><trkpt lat="45.6924454" lon="9.4785956"><ele>274.0</ele><time>2026-03-29T09:02:05.444Z</time></trkpt><trkpt lat="45.6925525" lon="9.4786957"><ele>274.0</ele><time>2026-03-29T09:02:06.446Z</time></trkpt><trkpt lat="45.6926643" lon="9.478801"><ele>274.0</ele><time>2026-03-29T09:02:07.448Z</time></trkpt><trkpt lat="45.692773" lon="9.4789036"><ele>274.0</ele><time>2026-03-29T09:02:08.449Z</time></trkpt><trkpt lat="45.6928753" lon="9.4790007"><ele>274.75</ele><time>2026-03-29T09:02:09.43Z</time></trkpt><trkpt lat="45.69298" lon="9.4791011"><ele>275.5</ele><time>2026-03-29T09:02:10.44Z</time></trkpt><trkpt lat="45.6930889" lon="9.4792088"><ele>276.25</ele><time>2026-03-29T09:02:11.451Z</time></trkpt><trkpt lat="45.6932034" lon="9.4793217"><ele>277.0</ele><time>2026-03-29T09:02:12.457Z</time></trkpt><trkpt lat="45.6933204" lon="9.4794357"><ele>277.0</ele><time>2026-03-29T09:02:13.451Z</time></trkpt><trkpt lat="45.6934306" lon="9.4795418"><ele>277.0</ele><time>2026-03-29T09:02:14.452Z</time></trkpt><trkpt lat="45.6935328" lon="9.4796404"><ele>277.0</ele><time>2026-03-29T09:02:15.461Z</time></trkpt><trkpt lat="45.6936329" lon="9.4797351"><ele>277.0</ele><time>2026-03-29T09:02:16.46Z</time></trkpt><trkpt lat="45.6937327" lon="9.4798292"><ele>277.0</ele><time>2026-03-29T09:02:17.454Z</time></trkpt><trkpt lat="45.6938259" lon="9.4799198"><ele>277.0</ele><time>2026-03-29T09:02:18.447Z</time></trkpt><trkpt lat="45.6939064" lon="9.4800114"><ele>277.0</ele><time>2026-03-29T09:02:19.466Z</time></trkpt><trkpt lat="45.6939688" lon="9.4801078"><ele>277.0</ele><time>2026-03-29T09:02:20.454Z</time></trkpt><trkpt lat="45.6940078" lon="9.4802118"><ele>277.0</ele><time>2026-03-29T09:02:21.449Z</time></trkpt><trkpt lat="45.6940311" lon="9.4803193"><ele>277.0</ele><time>2026-03-29T09:02:22.451Z</time></trkpt><trkpt lat="45.6940561" lon="9.4804413"><ele>277.0</ele><time>2026-03-29T09:02:23.45Z</time></trkpt><trkpt lat="45.6940878" lon="9.4805761"><ele>277.0</ele><time>2026-03-29T09:02:24.448Z</time></trkpt><trkpt lat="45.694129" lon="9.480714"><ele>277.0</ele><time>2026-03-29T09:02:25.449Z</time></trkpt><trkpt lat="45.6941745" lon="9.4808403"><ele>277.0</ele><time>2026-03-29T09:02:26.466Z</time></trkpt><trkpt lat="45.6942217" lon="9.4809501"><ele>277.0</ele><time>2026-03-29T09:02:27.468Z</time></trkpt><trkpt lat="45.6942815" lon="9.4810426"><ele>277.0</ele><time>2026-03-29T09:02:28.445Z</time></trkpt><trkpt lat="45.6943512" lon="9.4811019"><ele>277.0</ele><time>2026-03-29T09:02:29.451Z</time></trkpt><trkpt lat="45.6944302" lon="9.4811296"><ele>277.0</ele><time>2026-03-29T09:02:30.45Z</time></trkpt><trkpt lat="45.6945088" lon="9.4811241"><ele>277.0</ele><time>2026-03-29T09:02:31.45Z</time></trkpt><trkpt lat="45.6945777" lon="9.4810854"><ele>277.0</ele><time>2026-03-29T09:02:32.45Z</time></trkpt><trkpt lat="45.694653" lon="9.4810415"><ele>277.4</ele><time>2026-03-29T09:02:33.448Z</time></trkpt><trkpt lat="45.6947071" lon="9.4809428"><ele>277.79999999999995</ele><time>2026-03-29T09:02:34.444Z</time></trkpt><trkpt lat="45.6947394" lon="9.4808216"><ele>278.2</ele><time>2026-03-29T09:02:35.443Z</time></trkpt><trkpt lat="45.6947511" lon="9.4806788"><ele>278.59999999999997</ele><time>2026-03-29T09:02:36.44Z</time></trkpt><trkpt lat="45.6947491" lon="9.4805124"><ele>279.0</ele><time>2026-03-29T09:02:37.461Z</time></trkpt><trkpt lat="45.6947494" lon="9.4803323"><ele>279.0</ele><time>2026-03-29T09:02:38.439Z</time></trkpt><trkpt lat="45.6947609" lon="9.4801582"><ele>279.0</ele><time>2026-03-29T09:02:39.454Z</time></trkpt><trkpt lat="45.6947846" lon="9.4799778"><ele>279.0</ele><time>2026-03-29T09:02:40.448Z</time></trkpt><trkpt lat="45.6948159" lon="9.4797838"><ele>279.0</ele><time>2026-03-29T09:02:41.435Z</time></trkpt><trkpt lat="45.6948467" lon="9.4795767"><ele>279.0</ele><time>2026-03-29T09:02:42.444Z</time></trkpt><trkpt lat="45.6948789" lon="9.4793569"><ele>279.0</ele><time>2026-03-29T09:02:43.446Z</time></trkpt><trkpt lat="45.694912" lon="9.4791334"><ele>279.0</ele><time>2026-03-29T09:02:44.431Z</time></trkpt><trkpt lat="45.6949428" lon="9.4789125"><ele>280.3333333333333</ele><time>2026-03-29T09:02:45.444Z</time></trkpt><trkpt lat="45.6949741" lon="9.478695"><ele>281.66666666666663</ele><time>2026-03-29T09:02:46.444Z</time></trkpt><trkpt lat="45.6950081" lon="9.4784841"><ele>283.0</ele><time>2026-03-29T09:02:47.433Z</time></trkpt><trkpt lat="45.6950377" lon="9.478272"><ele>283.0</ele><time>2026-03-29T09:02:48.458Z</time></trkpt><trkpt lat="45.6950692" lon="9.4780545"><ele>283.0</ele><time>2026-03-29T09:02:49.436Z</time></trkpt><trkpt lat="45.6951113" lon="9.4778336"><ele>283.0</ele><time>2026-03-29T09:02:50.453Z</time></trkpt><trkpt lat="45.6951692" lon="9.477619"><ele>283.3333333333333</ele><time>2026-03-29T09:02:51.431Z</time></trkpt><trkpt lat="45.6952433" lon="9.4774264"><ele>283.6666666666667</ele><time>2026-03-29T09:02:52.432Z</time></trkpt><trkpt lat="45.6953356" lon="9.4772568"><ele>284.0</ele><time>2026-03-29T09:02:53.43Z</time></trkpt><trkpt lat="45.6954401" lon="9.4771081"><ele>285.5</ele><time>2026-03-29T09:02:54.446Z</time></trkpt><trkpt lat="45.6955562" lon="9.47698"><ele>287.0</ele><time>2026-03-29T09:02:55.439Z</time></trkpt><trkpt lat="45.695683" lon="9.4768726"><ele>288.5</ele><time>2026-03-29T09:02:56.451Z</time></trkpt><trkpt lat="45.695821" lon="9.4767867"><ele>290.0</ele><time>2026-03-29T09:02:57.444Z</time></trkpt><trkpt lat="45.6959681" lon="9.4767307"><ele>291.33333333333337</ele><time>2026-03-29T09:02:58.443Z</time></trkpt><trkpt lat="45.696123" lon="9.476707"><ele>292.6666666666667</ele><time>2026-03-29T09:02:59.435Z</time></trkpt><trkpt lat="45.6962849" lon="9.4767116"><ele>294.0</ele><time>2026-03-29T09:03:00.438Z</time></trkpt><trkpt lat="45.6964516" lon="9.4767307"><ele>294.0</ele><time>2026-03-29T09:03:01.444Z</time></trkpt><trkpt lat="45.6966233" lon="9.476753"><ele>294.0</ele><time>2026-03-29T09:03:02.443Z</time></trkpt><trkpt lat="45.6967995" lon="9.4767743"><ele>294.0</ele><time>2026-03-29T09:03:03.436Z</time></trkpt><trkpt lat="45.6969793" lon="9.4767962"><ele>295.3333333333333</ele><time>2026-03-29T09:03:04.436Z</time></trkpt><trkpt lat="45.6971574" lon="9.4768199"><ele>296.66666666666663</ele><time>2026-03-29T09:03:05.434Z</time></trkpt><trkpt lat="45.6973246" lon="9.4768436"><ele>298.0</ele><time>2026-03-29T09:03:06.442Z</time></trkpt><trkpt lat="45.6974896" lon="9.4768683"><ele>298.0</ele><time>2026-03-29T09:03:07.432Z</time></trkpt><trkpt lat="45.6976517" lon="9.4768911"><ele>298.0</ele><time>2026-03-29T09:03:08.425Z</time></trkpt><trkpt lat="45.6978113" lon="9.4769133"><ele>298.0</ele><time>2026-03-29T09:03:09.431Z</time></trkpt><trkpt lat="45.697973" lon="9.4769361"><ele>298.66666666666663</ele><time>2026-03-29T09:03:10.436Z</time></trkpt><trkpt lat="45.698138" lon="9.4769477"><ele>299.3333333333333</ele><time>2026-03-29T09:03:11.444Z</time></trkpt><trkpt lat="45.6983039" lon="9.4769428"><ele>300.0</ele><time>2026-03-29T09:03:12.438Z</time></trkpt><trkpt lat="45.6984715" lon="9.4769245"><ele>300.0</ele><time>2026-03-29T09:03:13.437Z</time></trkpt><trkpt lat="45.6986408" lon="9.4768906"><ele>300.0</ele><time>2026-03-29T09:03:14.444Z</time></trkpt><trkpt lat="45.6988108" lon="9.4768416"><ele>300.0</ele><time>2026-03-29T09:03:15.441Z</time></trkpt><trkpt lat="45.6989778" lon="9.4767759"><ele>300.0</ele><time>2026-03-29T09:03:16.444Z</time></trkpt><trkpt lat="45.6991438" lon="9.476694"><ele>300.0</ele><time>2026-03-29T09:03:17.435Z</time></trkpt><trkpt lat="45.6993084" lon="9.4765969"><ele>300.0</ele><time>2026-03-29T09:03:18.447Z</time></trkpt><trkpt lat="45.6994707" lon="9.4764866"><ele>301.0</ele><time>2026-03-29T09:03:19.439Z</time></trkpt><trkpt lat="45.6996312" lon="9.4763664"><ele>302.0</ele><time>2026-03-29T09:03:20.437Z</time></trkpt><trkpt lat="45.6997899" lon="9.4762375"><ele>303.0</ele><time>2026-03-29T09:03:21.433Z</time></trkpt><trkpt lat="45.699948" lon="9.4760986"><ele>303.0</ele><time>2026-03-29T09:03:22.438Z</time></trkpt><trkpt lat="45.7001082" lon="9.4759561"><ele>303.0</ele><time>2026-03-29T09:03:23.434Z</time></trkpt><trkpt lat="45.7002725" lon="9.4758085"><ele>303.0</ele><time>2026-03-29T09:03:24.434Z</time></trkpt><trkpt lat="45.7004383" lon="9.4756593"><ele>302.0</ele><time>2026-03-29T09:03:25.426Z</time></trkpt><trkpt lat="45.7005984" lon="9.4755181"><ele>301.0</ele><time>2026-03-29T09:03:26.435Z</time></trkpt><trkpt lat="45.7007462" lon="9.4753638"><ele>300.0</ele><time>2026-03-29T09:03:27.428Z</time></trkpt><trkpt lat="45.7008889" lon="9.4751867"><ele>300.6666666666667</ele><time>2026-03-29T09:03:28.432Z</time></trkpt><trkpt lat="45.7010257" lon="9.4749942"><ele>301.33333333333337</ele><time>2026-03-29T09:03:29.441Z</time></trkpt><trkpt lat="45.7011547" lon="9.4747913"><ele>302.0</ele><time>2026-03-29T09:03:30.448Z</time></trkpt><trkpt lat="45.7012784" lon="9.4745831"><ele>303.33333333333337</ele><time>2026-03-29T09:03:31.435Z</time></trkpt><trkpt lat="45.701398" lon="9.474374"><ele>304.6666666666667</ele><time>2026-03-29T09:03:32.441Z</time></trkpt><trkpt lat="45.7015162" lon="9.4741608"><ele>306.0</ele><time>2026-03-29T09:03:33.44Z</time></trkpt><trkpt lat="45.7016304" lon="9.4739472"><ele>307.0</ele><time>2026-03-29T09:03:34.426Z</time></trkpt><trkpt lat="45.7017421" lon="9.4737341"><ele>308.0</ele><time>2026-03-29T09:03:35.43Z</time></trkpt><trkpt lat="45.7018586" lon="9.4735244"><ele>309.0</ele><time>2026-03-29T09:03:36.426Z</time></trkpt><trkpt lat="45.7019733" lon="9.4733161"><ele>309.0</ele><time>2026-03-29T09:03:37.45Z</time></trkpt><trkpt lat="45.702088" lon="9.4731092"><ele>309.0</ele><time>2026-03-29T09:03:38.431Z</time></trkpt><trkpt lat="45.7078263" lon="9.4634925"><ele>294.75</ele><time>2026-03-29T09:04:32.408Z</time></trkpt><trkpt lat="45.7079431" lon="9.4633439"><ele>280.5</ele><time>2026-03-29T09:04:33.431Z</time></trkpt><trkpt lat="45.7080441" lon="9.4631983"><ele>266.25</ele><time>2026-03-29T09:04:34.446Z</time></trkpt><trkpt lat="45.7081473" lon="9.4630545"><ele>252.0</ele><time>2026-03-29T09:04:35.431Z</time></trkpt><trkpt lat="45.708246" lon="9.4629052"><ele>251.33333333333331</ele><time>2026-03-29T09:04:36.44Z</time></trkpt><trkpt lat="45.7083498" lon="9.4627453"><ele>250.66666666666666</ele><time>2026-03-29T09:04:37.438Z</time></trkpt><trkpt lat="45.7084537" lon="9.4625826"><ele>250.0</ele><time>2026-03-29T09:04:38.438Z</time></trkpt><trkpt lat="45.7085606" lon="9.4624196"><ele>250.66666666666666</ele><time>2026-03-29T09:04:39.424Z</time></trkpt><trkpt lat="45.7086661" lon="9.4622638"><ele>251.33333333333331</ele><time>2026-03-29T09:04:40.431Z</time></trkpt><trkpt lat="45.7087711" lon="9.4621067"><ele>252.0</ele><time>2026-03-29T09:04:41.45Z</time></trkpt><trkpt lat="45.7088763" lon="9.4619486"><ele>249.0</ele><time>2026-03-29T09:04:42.442Z</time></trkpt><trkpt lat="45.7089826" lon="9.4617884"><ele>246.0</ele><time>2026-03-29T09:04:43.427Z</time></trkpt><trkpt lat="45.7090919" lon="9.4616282"><ele>243.0</ele><time>2026-03-29T09:04:44.436Z</time></trkpt><trkpt lat="45.7092" lon="9.4614636"><ele>243.0</ele><time>2026-03-29T09:04:45.441Z</time></trkpt><trkpt lat="45.7093092" lon="9.4612949"><ele>243.0</ele><time>2026-03-29T09:04:46.433Z</time></trkpt><trkpt lat="45.7094216" lon="9.4611265"><ele>243.0</ele><time>2026-03-29T09:04:47.442Z</time></trkpt><trkpt lat="45.7095348" lon="9.460959"><ele>241.66666666666669</ele><time>2026-03-29T09:04:48.444Z</time></trkpt><trkpt lat="45.7096459" lon="9.460792"><ele>240.33333333333334</ele><time>2026-03-29T09:04:49.425Z</time></trkpt><trkpt lat="45.7097569" lon="9.4606292"><ele>239.0</ele><time>2026-03-29T09:04:50.443Z</time></trkpt><trkpt lat="45.7098672" lon="9.4604707"><ele>237.0</ele><time>2026-03-29T09:04:51.434Z</time></trkpt><trkpt lat="45.7099768" lon="9.4603177"><ele>235.0</ele><time>2026-03-29T09:04:52.436Z</time></trkpt><trkpt lat="45.7100878" lon="9.4601644"><ele>233.0</ele><time>2026-03-29T09:04:53.44Z</time></trkpt><trkpt lat="45.7101988" lon="9.460013"><ele>233.0</ele><time>2026-03-29T09:04:54.437Z</time></trkpt><trkpt lat="45.7103125" lon="9.4598678"><ele>233.0</ele><time>2026-03-29T09:04:55.434Z</time></trkpt><trkpt lat="45.7104304" lon="9.4597294"><ele>233.0</ele><time>2026-03-29T09:04:56.432Z</time></trkpt><trkpt lat="45.7105522" lon="9.459594"><ele>233.0</ele><time>2026-03-29T09:04:57.428Z</time></trkpt><trkpt lat="45.7106753" lon="9.459462"><ele>233.0</ele><time>2026-03-29T09:04:58.431Z</time></trkpt><trkpt lat="45.7107994" lon="9.4593363"><ele>233.0</ele><time>2026-03-29T09:04:59.436Z</time></trkpt><trkpt lat="45.7109215" lon="9.4592217"><ele>233.0</ele><time>2026-03-29T09:05:00.433Z</time></trkpt><trkpt lat="45.7110404" lon="9.4591158"><ele>233.0</ele><time>2026-03-29T09:05:01.431Z</time></trkpt><trkpt lat="45.7111592" lon="9.4590144"><ele>233.0</ele><time>2026-03-29T09:05:02.433Z</time></trkpt><trkpt lat="45.7112762" lon="9.4589144"><ele>233.0</ele><time>2026-03-29T09:05:03.444Z</time></trkpt><trkpt lat="45.7113924" lon="9.4588154"><ele>232.5</ele><time>2026-03-29T09:05:04.437Z</time></trkpt><trkpt lat="45.7115092" lon="9.4587191"><ele>232.0</ele><time>2026-03-29T09:05:05.452Z</time></trkpt><trkpt lat="45.7116238" lon="9.4586239"><ele>231.5</ele><time>2026-03-29T09:05:06.438Z</time></trkpt><trkpt lat="45.7117354" lon="9.4585313"><ele>231.0</ele><time>2026-03-29T09:05:07.435Z</time></trkpt><trkpt lat="45.7118424" lon="9.4584416"><ele>231.75</ele><time>2026-03-29T09:05:08.449Z</time></trkpt><trkpt lat="45.7119495" lon="9.4583539"><ele>232.5</ele><time>2026-03-29T09:05:09.448Z</time></trkpt><trkpt lat="45.712054" lon="9.4582659"><ele>233.25</ele><time>2026-03-29T09:05:10.439Z</time></trkpt><trkpt lat="45.7121546" lon="9.4581792"><ele>234.0</ele><time>2026-03-29T09:05:11.44Z</time></trkpt><trkpt lat="45.7122544" lon="9.4580948"><ele>234.0</ele><time>2026-03-29T09:05:12.461Z</time></trkpt><trkpt lat="45.7123528" lon="9.4580122"><ele>234.0</ele><time>2026-03-29T09:05:13.457Z</time></trkpt><trkpt lat="45.7124467" lon="9.4579372"><ele>234.0</ele><time>2026-03-29T09:05:14.441Z</time></trkpt><trkpt lat="45.7125504" lon="9.4578691"><ele>234.0</ele><time>2026-03-29T09:05:15.456Z</time></trkpt><trkpt lat="45.7126631" lon="9.4578286"><ele>233.39999999999998</ele><time>2026-03-29T09:05:16.487Z</time></trkpt><trkpt lat="45.7127828" lon="9.4578183"><ele>232.79999999999998</ele><time>2026-03-29T09:05:17.464Z</time></trkpt><trkpt lat="45.712899" lon="9.4578025"><ele>232.20000000000002</ele><time>2026-03-29T09:05:18.459Z</time></trkpt><trkpt lat="45.7129985" lon="9.4577545"><ele>231.60000000000002</ele><time>2026-03-29T09:05:19.461Z</time></trkpt><trkpt lat="45.7130783" lon="9.4576703"><ele>231.0</ele><time>2026-03-29T09:05:20.465Z</time></trkpt><trkpt lat="45.7131412" lon="9.4575514"><ele>231.0</ele><time>2026-03-29T09:05:21.445Z</time></trkpt><trkpt lat="45.7131869" lon="9.4574059"><ele>231.0</ele><time>2026-03-29T09:05:22.435Z</time></trkpt><trkpt lat="45.7132263" lon="9.457247"><ele>231.0</ele><time>2026-03-29T09:05:23.429Z</time></trkpt><trkpt lat="45.7132786" lon="9.4571052"><ele>231.0</ele><time>2026-03-29T09:05:24.436Z</time></trkpt><trkpt lat="45.713356" lon="9.4569787"><ele>231.0</ele><time>2026-03-29T09:05:25.439Z</time></trkpt><trkpt lat="45.7134595" lon="9.4568646"><ele>231.0</ele><time>2026-03-29T09:05:26.439Z</time></trkpt><trkpt lat="45.7135807" lon="9.4567614"><ele>231.0</ele><time>2026-03-29T09:05:27.433Z</time></trkpt><trkpt lat="45.7137086" lon="9.4566706"><ele>231.0</ele><time>2026-03-29T09:05:28.44Z</time></trkpt><trkpt lat="45.7138368" lon="9.4565966"><ele>231.0</ele><time>2026-03-29T09:05:29.465Z</time></trkpt><trkpt lat="45.7139729" lon="9.4565337"><ele>231.0</ele><time>2026-03-29T09:05:30.47Z</time></trkpt><trkpt lat="45.7141085" lon="9.456497"><ele>231.0</ele><time>2026-03-29T09:05:31.446Z</time></trkpt><trkpt lat="45.7142479" lon="9.4564824"><ele>231.0</ele><time>2026-03-29T09:05:32.454Z</time></trkpt><trkpt lat="45.7143902" lon="9.4564728"><ele>231.0</ele><time>2026-03-29T09:05:33.446Z</time></trkpt><trkpt lat="45.7145369" lon="9.4564638"><ele>231.0</ele><time>2026-03-29T09:05:34.463Z</time></trkpt><trkpt lat="45.7146875" lon="9.4564588"><ele>231.0</ele><time>2026-03-29T09:05:35.452Z</time></trkpt><trkpt lat="45.7148395" lon="9.4564586"><ele>231.0</ele><time>2026-03-29T09:05:36.433Z</time></trkpt><trkpt lat="45.7149992" lon="9.4564645"><ele>231.0</ele><time>2026-03-29T09:05:37.467Z</time></trkpt><trkpt lat="45.71515" lon="9.4564645"><ele>231.0</ele><time>2026-03-29T09:05:38.438Z</time></trkpt><trkpt lat="45.7152856" lon="9.4564591"><ele>231.0</ele><time>2026-03-29T09:05:39.451Z</time></trkpt><trkpt lat="45.7154116" lon="9.4564571"><ele>231.0</ele><time>2026-03-29T09:05:40.449Z</time></trkpt><trkpt lat="45.7155425" lon="9.4564542"><ele>231.5</ele><time>2026-03-29T09:05:41.441Z</time></trkpt><trkpt lat="45.715673" lon="9.4564501"><ele>232.0</ele><time>2026-03-29T09:05:42.458Z</time></trkpt><trkpt lat="45.7158091" lon="9.4564457"><ele>232.5</ele><time>2026-03-29T09:05:43.442Z</time></trkpt><trkpt lat="45.7159434" lon="9.4564391"><ele>233.0</ele><time>2026-03-29T09:05:44.441Z</time></trkpt><trkpt lat="45.7160799" lon="9.456435"><ele>233.25</ele><time>2026-03-29T09:05:45.445Z</time></trkpt><trkpt lat="45.7162186" lon="9.456428"><ele>233.5</ele><time>2026-03-29T09:05:46.437Z</time></trkpt><trkpt lat="45.7163563" lon="9.45642"><ele>233.75</ele><time>2026-03-29T09:05:47.431Z</time></trkpt><trkpt lat="45.7164952" lon="9.4564115"><ele>234.0</ele><time>2026-03-29T09:05:48.427Z</time></trkpt><trkpt lat="45.716634" lon="9.4564044"><ele>234.0</ele><time>2026-03-29T09:05:49.43Z</time></trkpt><trkpt lat="45.7167675" lon="9.4563979"><ele>234.0</ele><time>2026-03-29T09:05:50.436Z</time></trkpt><trkpt lat="45.7168987" lon="9.4563907"><ele>234.0</ele><time>2026-03-29T09:05:51.439Z</time></trkpt><trkpt lat="45.717028" lon="9.4563859"><ele>234.0</ele><time>2026-03-29T09:05:52.437Z</time></trkpt><trkpt lat="45.7171575" lon="9.4563786"><ele>234.0</ele><time>2026-03-29T09:05:53.436Z</time></trkpt><trkpt lat="45.717287" lon="9.4563689"><ele>234.0</ele><time>2026-03-29T09:05:54.438Z</time></trkpt><trkpt lat="45.7174157" lon="9.4563635"><ele>234.0</ele><time>2026-03-29T09:05:55.435Z</time></trkpt><trkpt lat="45.7175436" lon="9.4563591"><ele>234.0</ele><time>2026-03-29T09:05:56.425Z</time></trkpt><trkpt lat="45.7176721" lon="9.4563542"><ele>233.75</ele><time>2026-03-29T09:05:57.44Z</time></trkpt><trkpt lat="45.7178006" lon="9.4563489"><ele>233.5</ele><time>2026-03-29T09:05:58.441Z</time></trkpt><trkpt lat="45.7179278" lon="9.4563447"><ele>233.25</ele><time>2026-03-29T09:05:59.437Z</time></trkpt><trkpt lat="45.7180545" lon="9.4563377"><ele>233.0</ele><time>2026-03-29T09:06:00.431Z</time></trkpt><trkpt lat="45.7181795" lon="9.4563321"><ele>233.0</ele><time>2026-03-29T09:06:01.447Z</time></trkpt><trkpt lat="45.7183039" lon="9.4563294"><ele>233.0</ele><time>2026-03-29T09:06:02.435Z</time></trkpt><trkpt lat="45.7184331" lon="9.4563288"><ele>233.0</ele><time>2026-03-29T09:06:03.436Z</time></trkpt><trkpt lat="45.7185599" lon="9.4563267"><ele>233.0</ele><time>2026-03-29T09:06:04.43Z</time></trkpt><trkpt lat="45.7186901" lon="9.4563242"><ele>232.75</ele><time>2026-03-29T09:06:05.433Z</time></trkpt><trkpt lat="45.7188108" lon="9.4563172"><ele>232.5</ele><time>2026-03-29T09:06:06.427Z</time></trkpt><trkpt lat="45.7189385" lon="9.4563123"><ele>232.25</ele><time>2026-03-29T09:06:07.441Z</time></trkpt><trkpt lat="45.7190776" lon="9.4563035"><ele>232.0</ele><time>2026-03-29T09:06:08.448Z</time></trkpt><trkpt lat="45.7192375" lon="9.4562835"><ele>232.33333333333331</ele><time>2026-03-29T09:06:09.428Z</time></trkpt><trkpt lat="45.7194107" lon="9.4562589"><ele>232.66666666666669</ele><time>2026-03-29T09:06:10.442Z</time></trkpt><trkpt lat="45.7195807" lon="9.456244"><ele>233.0</ele><time>2026-03-29T09:06:11.43Z</time></trkpt><trkpt lat="45.7197558" lon="9.4562398"><ele>233.0</ele><time>2026-03-29T09:06:12.44Z</time></trkpt><trkpt lat="45.7199368" lon="9.4562427"><ele>233.0</ele><time>2026-03-29T09:06:13.441Z</time></trkpt><trkpt lat="45.7201239" lon="9.4562474"><ele>233.0</ele><time>2026-03-29T09:06:14.43Z</time></trkpt><trkpt lat="45.7203109" lon="9.4562498"><ele>233.33333333333334</ele><time>2026-03-29T09:06:15.436Z</time></trkpt><trkpt lat="45.7204857" lon="9.4562485"><ele>233.66666666666669</ele><time>2026-03-29T09:06:16.431Z</time></trkpt><trkpt lat="45.7206386" lon="9.4562415"><ele>234.0</ele><time>2026-03-29T09:06:17.423Z</time></trkpt><trkpt lat="45.7207803" lon="9.4562349"><ele>234.0</ele><time>2026-03-29T09:06:18.44Z</time></trkpt><trkpt lat="45.7209133" lon="9.4562296"><ele>234.0</ele><time>2026-03-29T09:06:19.437Z</time></trkpt><trkpt lat="45.7210468" lon="9.4562229"><ele>234.0</ele><time>2026-03-29T09:06:20.426Z</time></trkpt><trkpt lat="45.7211829" lon="9.4562153"><ele>234.0</ele><time>2026-03-29T09:06:21.441Z</time></trkpt><trkpt lat="45.7213207" lon="9.4562084"><ele>234.0</ele><time>2026-03-29T09:06:22.433Z</time></trkpt><trkpt lat="45.7214607" lon="9.4562012"><ele>234.0</ele><time>2026-03-29T09:06:23.441Z</time></trkpt><trkpt lat="45.7216047" lon="9.4561949"><ele>234.0</ele><time>2026-03-29T09:06:24.446Z</time></trkpt><trkpt lat="45.7217524" lon="9.4561891"><ele>234.0</ele><time>2026-03-29T09:06:25.436Z</time></trkpt><trkpt lat="45.7219059" lon="9.4561847"><ele>234.0</ele><time>2026-03-29T09:06:26.436Z</time></trkpt><trkpt lat="45.7220622" lon="9.4561798"><ele>234.0</ele><time>2026-03-29T09:06:27.438Z</time></trkpt><trkpt lat="45.7222211" lon="9.456174"><ele>234.0</ele><time>2026-03-29T09:06:28.44Z</time></trkpt><trkpt lat="45.7223833" lon="9.4561677"><ele>234.0</ele><time>2026-03-29T09:06:29.44Z</time></trkpt><trkpt lat="45.7225479" lon="9.4561622"><ele>234.0</ele><time>2026-03-29T09:06:30.431Z</time></trkpt><trkpt lat="45.7227179" lon="9.4561562"><ele>234.0</ele><time>2026-03-29T09:06:31.431Z</time></trkpt><trkpt lat="45.7228913" lon="9.4561485"><ele>235.66666666666669</ele><time>2026-03-29T09:06:32.433Z</time></trkpt><trkpt lat="45.723057" lon="9.4561431"><ele>237.33333333333334</ele><time>2026-03-29T09:06:33.432Z</time></trkpt><trkpt lat="45.723223" lon="9.4561364"><ele>239.0</ele><time>2026-03-29T09:06:34.437Z</time></trkpt><trkpt lat="45.7233847" lon="9.456129"><ele>239.0</ele><time>2026-03-29T09:06:35.421Z</time></trkpt><trkpt lat="45.7235492" lon="9.4561196"><ele>239.0</ele><time>2026-03-29T09:06:36.433Z</time></trkpt><trkpt lat="45.7237136" lon="9.4561065"><ele>239.0</ele><time>2026-03-29T09:06:37.461Z</time></trkpt><trkpt lat="45.723872" lon="9.4560927"><ele>239.0</ele><time>2026-03-29T09:06:38.433Z</time></trkpt><trkpt lat="45.7240221" lon="9.4560817"><ele>239.0</ele><time>2026-03-29T09:06:39.444Z</time></trkpt><trkpt lat="45.7241659" lon="9.4560756"><ele>239.0</ele><time>2026-03-29T09:06:40.44Z</time></trkpt><trkpt lat="45.7243033" lon="9.4560671"><ele>239.0</ele><time>2026-03-29T09:06:41.443Z</time></trkpt><trkpt lat="45.7244375" lon="9.4560516"><ele>238.75</ele><time>2026-03-29T09:06:42.439Z</time></trkpt><trkpt lat="45.7245739" lon="9.4560248"><ele>238.5</ele><time>2026-03-29T09:06:43.436Z</time></trkpt><trkpt lat="45.7247098" lon="9.4559829"><ele>238.25</ele><time>2026-03-29T09:06:44.442Z</time></trkpt><trkpt lat="45.7248388" lon="9.4559304"><ele>238.0</ele><time>2026-03-29T09:06:45.434Z</time></trkpt><trkpt lat="45.72496" lon="9.4558687"><ele>238.0</ele><time>2026-03-29T09:06:46.446Z</time></trkpt><trkpt lat="45.7250702" lon="9.4557901"><ele>238.0</ele><time>2026-03-29T09:06:47.436Z</time></trkpt><trkpt lat="45.7251721" lon="9.4556921"><ele>238.0</ele><time>2026-03-29T09:06:48.429Z</time></trkpt><trkpt lat="45.7252607" lon="9.4555754"><ele>238.0</ele><time>2026-03-29T09:06:49.447Z</time></trkpt><trkpt lat="45.7253349" lon="9.4554422"><ele>236.25</ele><time>2026-03-29T09:06:50.44Z</time></trkpt><trkpt lat="45.7254101" lon="9.4553008"><ele>234.5</ele><time>2026-03-29T09:06:51.45Z</time></trkpt><trkpt lat="45.7254709" lon="9.4551591"><ele>232.75</ele><time>2026-03-29T09:06:52.428Z</time></trkpt><trkpt lat="45.7255433" lon="9.455035"><ele>231.0</ele><time>2026-03-29T09:06:53.449Z</time></trkpt><trkpt lat="45.7256255" lon="9.4549394"><ele>231.0</ele><time>2026-03-29T09:06:54.442Z</time></trkpt><trkpt lat="45.7257172" lon="9.4548777"><ele>231.00000000000003</ele><time>2026-03-29T09:06:55.444Z</time></trkpt><trkpt lat="45.7258099" lon="9.4548433"><ele>231.00000000000003</ele><time>2026-03-29T09:06:56.436Z</time></trkpt><trkpt lat="45.7259077" lon="9.4548342"><ele>231.0</ele><time>2026-03-29T09:06:57.44Z</time></trkpt><trkpt lat="45.7260073" lon="9.4548411"><ele>231.0</ele><time>2026-03-29T09:06:58.445Z</time></trkpt><trkpt lat="45.7261157" lon="9.4548367"><ele>231.5</ele><time>2026-03-29T09:06:59.448Z</time></trkpt><trkpt lat="45.7262346" lon="9.4548173"><ele>232.0</ele><time>2026-03-29T09:07:00.442Z</time></trkpt><trkpt lat="45.7263534" lon="9.4547917"><ele>232.5</ele><time>2026-03-29T09:07:01.439Z</time></trkpt><trkpt lat="45.7264701" lon="9.4547606"><ele>233.0</ele><time>2026-03-29T09:07:02.446Z</time></trkpt><trkpt lat="45.7265751" lon="9.4546938"><ele>230.0</ele><time>2026-03-29T09:07:03.445Z</time></trkpt><trkpt lat="45.7266736" lon="9.4546056"><ele>227.0</ele><time>2026-03-29T09:07:04.437Z</time></trkpt><trkpt lat="45.7267601" lon="9.4544923"><ele>224.0</ele><time>2026-03-29T09:07:05.446Z</time></trkpt><trkpt lat="45.7268396" lon="9.454355"><ele>221.0</ele><time>2026-03-29T09:07:06.426Z</time></trkpt><trkpt lat="45.7269093" lon="9.4542136"><ele>221.0</ele><time>2026-03-29T09:07:07.447Z</time></trkpt><trkpt lat="45.726975" lon="9.4540725"><ele>221.0</ele><time>2026-03-29T09:07:08.448Z</time></trkpt><trkpt lat="45.7270317" lon="9.4539276"><ele>221.0</ele><time>2026-03-29T09:07:09.435Z</time></trkpt><trkpt lat="45.727073" lon="9.4537747"><ele>221.0</ele><time>2026-03-29T09:07:10.436Z</time></trkpt><trkpt lat="45.7271022" lon="9.4536136"><ele>219.4</ele><time>2026-03-29T09:07:11.44Z</time></trkpt><trkpt lat="45.7271322" lon="9.4534578"><ele>217.8</ele><time>2026-03-29T09:07:12.431Z</time></trkpt><trkpt lat="45.7271772" lon="9.4533246"><ele>216.20000000000002</ele><time>2026-03-29T09:07:13.445Z</time></trkpt><trkpt lat="45.7272232" lon="9.4531986"><ele>214.60000000000002</ele><time>2026-03-29T09:07:14.426Z</time></trkpt><trkpt lat="45.7273072" lon="9.4531147"><ele>213.0</ele><time>2026-03-29T09:07:15.435Z</time></trkpt><trkpt lat="45.7273961" lon="9.4530714"><ele>213.0</ele><time>2026-03-29T09:07:16.435Z</time></trkpt><trkpt lat="45.7275032" lon="9.4530783"><ele>213.0</ele><time>2026-03-29T09:07:17.431Z</time></trkpt><trkpt lat="45.7276177" lon="9.4531379"><ele>213.0</ele><time>2026-03-29T09:07:18.427Z</time></trkpt><trkpt lat="45.7277475" lon="9.4531871"><ele>213.0</ele><time>2026-03-29T09:07:19.436Z</time></trkpt><trkpt lat="45.7278803" lon="9.4531867"><ele>210.5</ele><time>2026-03-29T09:07:20.428Z</time></trkpt><trkpt lat="45.7280268" lon="9.4531739"><ele>208.0</ele><time>2026-03-29T09:07:21.44Z</time></trkpt><trkpt lat="45.7281736" lon="9.4531542"><ele>205.5</ele><time>2026-03-29T09:07:22.44Z</time></trkpt><trkpt lat="45.7283129" lon="9.453129"><ele>203.0</ele><time>2026-03-29T09:07:23.433Z</time></trkpt><trkpt lat="45.7284566" lon="9.4531041"><ele>202.0</ele><time>2026-03-29T09:07:24.434Z</time></trkpt><trkpt lat="45.7285994" lon="9.453076"><ele>201.0</ele><time>2026-03-29T09:07:25.437Z</time></trkpt><trkpt lat="45.7287491" lon="9.453052"><ele>200.0</ele><time>2026-03-29T09:07:26.429Z</time></trkpt><trkpt lat="45.7289032" lon="9.4530286"><ele>200.0</ele><time>2026-03-29T09:07:27.433Z</time></trkpt><trkpt lat="45.7290604" lon="9.4530024"><ele>200.0</ele><time>2026-03-29T09:07:28.445Z</time></trkpt><trkpt lat="45.7292211" lon="9.4529736"><ele>200.0</ele><time>2026-03-29T09:07:29.439Z</time></trkpt><trkpt lat="45.729382" lon="9.4529391"><ele>199.33333333333334</ele><time>2026-03-29T09:07:30.432Z</time></trkpt><trkpt lat="45.7295427" lon="9.4528927"><ele>198.66666666666669</ele><time>2026-03-29T09:07:31.438Z</time></trkpt><trkpt lat="45.7296943" lon="9.452831"><ele>198.0</ele><time>2026-03-29T09:07:32.429Z</time></trkpt><trkpt lat="45.7298422" lon="9.4527614"><ele>198.0</ele><time>2026-03-29T09:07:33.444Z</time></trkpt><trkpt lat="45.7299886" lon="9.4526876"><ele>198.0</ele><time>2026-03-29T09:07:34.438Z</time></trkpt><trkpt lat="45.7301307" lon="9.4526183"><ele>198.0</ele><time>2026-03-29T09:07:35.438Z</time></trkpt><trkpt lat="45.7302656" lon="9.4525599"><ele>198.0</ele><time>2026-03-29T09:07:36.437Z</time></trkpt><trkpt lat="45.7304011" lon="9.4525188"><ele>197.75</ele><time>2026-03-29T09:07:37.438Z</time></trkpt><trkpt lat="45.7305327" lon="9.4525042"><ele>197.5</ele><time>2026-03-29T09:07:38.445Z</time></trkpt><trkpt lat="45.730662" lon="9.452507"><ele>197.25</ele><time>2026-03-29T09:07:39.439Z</time></trkpt><trkpt lat="45.7307805" lon="9.4525155"><ele>197.0</ele><time>2026-03-29T09:07:40.438Z</time></trkpt><trkpt lat="45.730891" lon="9.4525308"><ele>197.0</ele><time>2026-03-29T09:07:41.441Z</time></trkpt><trkpt lat="45.7309926" lon="9.4525491"><ele>197.0</ele><time>2026-03-29T09:07:42.443Z</time></trkpt><trkpt lat="45.7310843" lon="9.4525702"><ele>197.0</ele><time>2026-03-29T09:07:43.439Z</time></trkpt><trkpt lat="45.7311718" lon="9.4526041"><ele>197.0</ele><time>2026-03-29T09:07:44.441Z</time></trkpt><trkpt lat="45.7312508" lon="9.4526576"><ele>197.0</ele><time>2026-03-29T09:07:45.44Z</time></trkpt><trkpt lat="45.7313256" lon="9.4527112"><ele>197.00000000000003</ele><time>2026-03-29T09:07:46.437Z</time></trkpt><trkpt lat="45.7313988" lon="9.4527668"><ele>197.0</ele><time>2026-03-29T09:07:47.436Z</time></trkpt><trkpt lat="45.7314748" lon="9.4527912"><ele>197.0</ele><time>2026-03-29T09:07:48.432Z</time></trkpt><trkpt lat="45.7315505" lon="9.4527723"><ele>197.0</ele><time>2026-03-29T09:07:49.442Z</time></trkpt><trkpt lat="45.7316242" lon="9.4527179"><ele>197.00000000000003</ele><time>2026-03-29T09:07:50.442Z</time></trkpt><trkpt lat="45.7316902" lon="9.4526368"><ele>197.0</ele><time>2026-03-29T09:07:51.438Z</time></trkpt><trkpt lat="45.7317689" lon="9.4525536"><ele>197.0</ele><time>2026-03-29T09:07:52.427Z</time></trkpt><trkpt lat="45.7318672" lon="9.4524928"><ele>197.0</ele><time>2026-03-29T09:07:53.437Z</time></trkpt><trkpt lat="45.7319741" lon="9.452433"><ele>197.0</ele><time>2026-03-29T09:07:54.434Z</time></trkpt><trkpt lat="45.7320973" lon="9.4523751"><ele>197.0</ele><time>2026-03-29T09:07:55.44Z</time></trkpt><trkpt lat="45.7322149" lon="9.4523008"><ele>197.0</ele><time>2026-03-29T09:07:56.439Z</time></trkpt><trkpt lat="45.7323322" lon="9.4522048"><ele>197.0</ele><time>2026-03-29T09:07:57.439Z</time></trkpt><trkpt lat="45.7324479" lon="9.4520875"><ele>197.0</ele><time>2026-03-29T09:07:58.442Z</time></trkpt><trkpt lat="45.7325621" lon="9.4519571"><ele>197.0</ele><time>2026-03-29T09:07:59.433Z</time></trkpt><trkpt lat="45.732677" lon="9.4518277"><ele>197.5</ele><time>2026-03-29T09:08:00.432Z</time></trkpt><trkpt lat="45.7327957" lon="9.4517128"><ele>198.0</ele><time>2026-03-29T09:08:01.461Z</time></trkpt><trkpt lat="45.7329186" lon="9.4516221"><ele>198.5</ele><time>2026-03-29T09:08:02.432Z</time></trkpt><trkpt lat="45.7330398" lon="9.4515407"><ele>199.0</ele><time>2026-03-29T09:08:03.441Z</time></trkpt><trkpt lat="45.7331689" lon="9.4514901"><ele>199.0</ele><time>2026-03-29T09:08:04.438Z</time></trkpt><trkpt lat="45.7332988" lon="9.4514529"><ele>199.0</ele><time>2026-03-29T09:08:05.429Z</time></trkpt><trkpt lat="45.73344" lon="9.4514266"><ele>199.0</ele><time>2026-03-29T09:08:06.443Z</time></trkpt><trkpt lat="45.7335873" lon="9.451415"><ele>199.0</ele><time>2026-03-29T09:08:07.448Z</time></trkpt><trkpt lat="45.7337391" lon="9.4514169"><ele>199.66666666666666</ele><time>2026-03-29T09:08:08.435Z</time></trkpt><trkpt lat="45.7338975" lon="9.4514347"><ele>200.33333333333331</ele><time>2026-03-29T09:08:09.435Z</time></trkpt><trkpt lat="45.734056" lon="9.4514529"><ele>201.0</ele><time>2026-03-29T09:08:10.443Z</time></trkpt><trkpt lat="45.7342147" lon="9.4514662"><ele>201.0</ele><time>2026-03-29T09:08:11.434Z</time></trkpt><trkpt lat="45.7343693" lon="9.4514817"><ele>201.0</ele><time>2026-03-29T09:08:12.433Z</time></trkpt><trkpt lat="45.7345205" lon="9.4515036"><ele>201.0</ele><time>2026-03-29T09:08:13.448Z</time></trkpt><trkpt lat="45.7346683" lon="9.4515248"><ele>200.5</ele><time>2026-03-29T09:08:14.441Z</time></trkpt><trkpt lat="45.734817" lon="9.451546"><ele>200.0</ele><time>2026-03-29T09:08:15.439Z</time></trkpt><trkpt lat="45.7349604" lon="9.4515651"><ele>199.5</ele><time>2026-03-29T09:08:16.434Z</time></trkpt><trkpt lat="45.7351053" lon="9.4515723"><ele>199.0</ele><time>2026-03-29T09:08:17.439Z</time></trkpt><trkpt lat="45.7352531" lon="9.4515601"><ele>199.0</ele><time>2026-03-29T09:08:18.441Z</time></trkpt><trkpt lat="45.735403" lon="9.4515339"><ele>199.0</ele><time>2026-03-29T09:08:19.437Z</time></trkpt><trkpt lat="45.7355548" lon="9.451491"><ele>199.0</ele><time>2026-03-29T09:08:20.419Z</time></trkpt><trkpt lat="45.7357048" lon="9.4514277"><ele>199.0</ele><time>2026-03-29T09:08:21.438Z</time></trkpt><trkpt lat="45.7358527" lon="9.4513469"><ele>199.0</ele><time>2026-03-29T09:08:22.429Z</time></trkpt><trkpt lat="45.7359983" lon="9.4512569"><ele>199.0</ele><time>2026-03-29T09:08:23.437Z</time></trkpt><trkpt lat="45.7361341" lon="9.4511681"><ele>198.5</ele><time>2026-03-29T09:08:24.425Z</time></trkpt><trkpt lat="45.7362673" lon="9.4510864"><ele>198.0</ele><time>2026-03-29T09:08:25.439Z</time></trkpt><trkpt lat="45.7363984" lon="9.4510174"><ele>197.5</ele><time>2026-03-29T09:08:26.43Z</time></trkpt><trkpt lat="45.7365393" lon="9.4509809"><ele>197.0</ele><time>2026-03-29T09:08:27.442Z</time></trkpt><trkpt lat="45.7366807" lon="9.4509502"><ele>197.0</ele><time>2026-03-29T09:08:28.442Z</time></trkpt><trkpt lat="45.7368313" lon="9.4509144"><ele>197.0</ele><time>2026-03-29T09:08:29.441Z</time></trkpt><trkpt lat="45.7369823" lon="9.4508754"><ele>197.0</ele><time>2026-03-29T09:08:30.438Z</time></trkpt><trkpt lat="45.7371341" lon="9.4508378"><ele>197.33333333333334</ele><time>2026-03-29T09:08:31.433Z</time></trkpt><trkpt lat="45.7372923" lon="9.4508014"><ele>197.66666666666669</ele><time>2026-03-29T09:08:32.437Z</time></trkpt><trkpt lat="45.7374462" lon="9.45077"><ele>198.0</ele><time>2026-03-29T09:08:33.466Z</time></trkpt><trkpt lat="45.7375905" lon="9.4507372"><ele>198.5</ele><time>2026-03-29T09:08:34.435Z</time></trkpt><trkpt lat="45.7377306" lon="9.4507124"><ele>199.0</ele><time>2026-03-29T09:08:35.435Z</time></trkpt><trkpt lat="45.7378674" lon="9.4506909"><ele>199.5</ele><time>2026-03-29T09:08:36.462Z</time></trkpt><trkpt lat="45.7380028" lon="9.4506722"><ele>200.0</ele><time>2026-03-29T09:08:37.467Z</time></trkpt><trkpt lat="45.7381387" lon="9.4506552"><ele>200.0</ele><time>2026-03-29T09:08:38.45Z</time></trkpt><trkpt lat="45.7382712" lon="9.4506388"><ele>200.0</ele><time>2026-03-29T09:08:39.443Z</time></trkpt><trkpt lat="45.7383946" lon="9.4506245"><ele>200.0</ele><time>2026-03-29T09:08:40.449Z</time></trkpt><trkpt lat="45.7385122" lon="9.4506104"><ele>200.0</ele><time>2026-03-29T09:08:41.466Z</time></trkpt><trkpt lat="45.7386237" lon="9.4505999"><ele>199.8</ele><time>2026-03-29T09:08:42.438Z</time></trkpt><trkpt lat="45.7387308" lon="9.4505879"><ele>199.6</ele><time>2026-03-29T09:08:43.435Z</time></trkpt><trkpt lat="45.7388372" lon="9.4505766"><ele>199.39999999999998</ele><time>2026-03-29T09:08:44.456Z</time></trkpt><trkpt lat="45.7389334" lon="9.4505719"><ele>199.2</ele><time>2026-03-29T09:08:45.443Z</time></trkpt><trkpt lat="45.739007" lon="9.4505795"><ele>199.0</ele><time>2026-03-29T09:08:46.439Z</time></trkpt><trkpt lat="45.7391217" lon="9.4506647"><ele>198.99999999999997</ele><time>2026-03-29T09:08:48.463Z</time></trkpt><trkpt lat="45.7391702" lon="9.4507235"><ele>199.0</ele><time>2026-03-29T09:08:49.448Z</time></trkpt><trkpt lat="45.7392834" lon="9.4507779"><ele>199.0</ele><time>2026-03-29T09:08:51.437Z</time></trkpt><trkpt lat="45.7393523" lon="9.4507927"><ele>199.0</ele><time>2026-03-29T09:08:52.447Z</time></trkpt><trkpt lat="45.7394294" lon="9.4508257"><ele>198.99999999999997</ele><time>2026-03-29T09:08:53.444Z</time></trkpt><trkpt lat="45.7395065" lon="9.4508953"><ele>199.0</ele><time>2026-03-29T09:08:54.434Z</time></trkpt><trkpt lat="45.7395958" lon="9.4510124"><ele>199.0</ele><time>2026-03-29T09:08:55.447Z</time></trkpt><trkpt lat="45.7396988" lon="9.4511369"><ele>199.0</ele><time>2026-03-29T09:08:56.444Z</time></trkpt><trkpt lat="45.7398064" lon="9.4512576"><ele>199.0</ele><time>2026-03-29T09:08:57.436Z</time></trkpt><trkpt lat="45.7399144" lon="9.4513868"><ele>199.0</ele><time>2026-03-29T09:08:58.444Z</time></trkpt><trkpt lat="45.74002" lon="9.4515136"><ele>199.0</ele><time>2026-03-29T09:08:59.446Z</time></trkpt><trkpt lat="45.7401223" lon="9.4516326"><ele>199.0</ele><time>2026-03-29T09:09:00.442Z</time></trkpt><trkpt lat="45.740219" lon="9.4517452"><ele>199.0</ele><time>2026-03-29T09:09:01.44Z</time></trkpt><trkpt lat="45.7403119" lon="9.451858"><ele>199.0</ele><time>2026-03-29T09:09:02.441Z</time></trkpt><trkpt lat="45.7403993" lon="9.45196"><ele>199.0</ele><time>2026-03-29T09:09:03.443Z</time></trkpt><trkpt lat="45.7404789" lon="9.4520538"><ele>199.0</ele><time>2026-03-29T09:09:04.437Z</time></trkpt><trkpt lat="45.7405507" lon="9.4521389"><ele>199.0</ele><time>2026-03-29T09:09:05.435Z</time></trkpt><trkpt lat="45.7406207" lon="9.4522194"><ele>199.0</ele><time>2026-03-29T09:09:06.438Z</time></trkpt><trkpt lat="45.7406929" lon="9.4523059"><ele>199.0</ele><time>2026-03-29T09:09:07.447Z</time></trkpt><trkpt lat="45.7407713" lon="9.4524014"><ele>199.6</ele><time>2026-03-29T09:09:08.458Z</time></trkpt><trkpt lat="45.7408468" lon="9.4525043"><ele>200.2</ele><time>2026-03-29T09:09:09.446Z</time></trkpt><trkpt lat="45.7409135" lon="9.4526193"><ele>200.79999999999998</ele><time>2026-03-29T09:09:10.431Z</time></trkpt><trkpt lat="45.7409651" lon="9.4527392"><ele>201.39999999999998</ele><time>2026-03-29T09:09:11.435Z</time></trkpt><trkpt lat="45.7410028" lon="9.4528575"><ele>202.0</ele><time>2026-03-29T09:09:12.443Z</time></trkpt><trkpt lat="45.7410322" lon="9.4529838"><ele>202.25</ele><time>2026-03-29T09:09:13.448Z</time></trkpt><trkpt lat="45.7410524" lon="9.4531153"><ele>202.5</ele><time>2026-03-29T09:09:14.445Z</time></trkpt><trkpt lat="45.7410678" lon="9.4532768"><ele>202.75</ele><time>2026-03-29T09:09:15.447Z</time></trkpt><trkpt lat="45.7410798" lon="9.4534604"><ele>203.0</ele><time>2026-03-29T09:09:16.446Z</time></trkpt><trkpt lat="45.7410887" lon="9.4536531"><ele>203.8</ele><time>2026-03-29T09:09:17.449Z</time></trkpt><trkpt lat="45.7410926" lon="9.4538304"><ele>204.60000000000002</ele><time>2026-03-29T09:09:18.449Z</time></trkpt><trkpt lat="45.7410938" lon="9.4539879"><ele>205.39999999999998</ele><time>2026-03-29T09:09:19.454Z</time></trkpt><trkpt lat="45.7410957" lon="9.4541271"><ele>206.2</ele><time>2026-03-29T09:09:20.45Z</time></trkpt><trkpt lat="45.7410912" lon="9.4542578"><ele>207.0</ele><time>2026-03-29T09:09:21.45Z</time></trkpt><trkpt lat="45.7410771" lon="9.4543966"><ele>207.0</ele><time>2026-03-29T09:09:22.442Z</time></trkpt><trkpt lat="45.7410426" lon="9.4545106"><ele>207.0</ele><time>2026-03-29T09:09:23.437Z</time></trkpt><trkpt lat="45.7410003" lon="9.4546101"><ele>207.0</ele><time>2026-03-29T09:09:24.446Z</time></trkpt><trkpt lat="45.7409773" lon="9.4547237"><ele>207.0</ele><time>2026-03-29T09:09:25.448Z</time></trkpt><trkpt lat="45.7409594" lon="9.4548314"><ele>207.0</ele><time>2026-03-29T09:09:26.471Z</time></trkpt><trkpt lat="45.7409689" lon="9.4549374"><ele>207.0</ele><time>2026-03-29T09:09:27.448Z</time></trkpt><trkpt lat="45.740984" lon="9.455038"><ele>206.83333333333334</ele><time>2026-03-29T09:09:28.453Z</time></trkpt><trkpt lat="45.7410288" lon="9.4551105"><ele>206.66666666666669</ele><time>2026-03-29T09:09:29.435Z</time></trkpt><trkpt lat="45.7411341" lon="9.4551282"><ele>206.5</ele><time>2026-03-29T09:09:31.454Z</time></trkpt><trkpt lat="45.7412004" lon="9.4551042"><ele>206.33333333333334</ele><time>2026-03-29T09:09:32.436Z</time></trkpt><trkpt lat="45.7412672" lon="9.4550872"><ele>206.16666666666669</ele><time>2026-03-29T09:09:33.456Z</time></trkpt><trkpt lat="45.7413427" lon="9.455111"><ele>206.0</ele><time>2026-03-29T09:09:34.448Z</time></trkpt><trkpt lat="45.7414148" lon="9.4551631"><ele>206.0</ele><time>2026-03-29T09:09:35.447Z</time></trkpt><trkpt lat="45.7414758" lon="9.4552536"><ele>206.0</ele><time>2026-03-29T09:09:36.451Z</time></trkpt><trkpt lat="45.7415287" lon="9.4553815"><ele>206.0</ele><time>2026-03-29T09:09:37.443Z</time></trkpt><trkpt lat="45.7415758" lon="9.4555198"><ele>206.0</ele><time>2026-03-29T09:09:38.444Z</time></trkpt><trkpt lat="45.7416274" lon="9.4556843"><ele>206.0</ele><time>2026-03-29T09:09:39.437Z</time></trkpt><trkpt lat="45.7416883" lon="9.4558827"><ele>205.66666666666669</ele><time>2026-03-29T09:09:40.444Z</time></trkpt><trkpt lat="45.7417566" lon="9.4560927"><ele>205.33333333333331</ele><time>2026-03-29T09:09:41.431Z</time></trkpt><trkpt lat="45.7418301" lon="9.45631"><ele>205.0</ele><time>2026-03-29T09:09:42.449Z</time></trkpt><trkpt lat="45.7419059" lon="9.4565113"><ele>205.0</ele><time>2026-03-29T09:09:43.442Z</time></trkpt><trkpt lat="45.7419832" lon="9.4567033"><ele>205.0</ele><time>2026-03-29T09:09:44.434Z</time></trkpt><trkpt lat="45.7420863" lon="9.456843"><ele>205.0</ele><time>2026-03-29T09:09:45.45Z</time></trkpt><trkpt lat="45.7422115" lon="9.456944"><ele>205.0</ele><time>2026-03-29T09:09:46.435Z</time></trkpt><trkpt lat="45.742351" lon="9.4570484"><ele>205.0</ele><time>2026-03-29T09:09:47.44Z</time></trkpt><trkpt lat="45.7424978" lon="9.4571651"><ele>205.0</ele><time>2026-03-29T09:09:48.438Z</time></trkpt><trkpt lat="45.7426335" lon="9.4572876"><ele>205.0</ele><time>2026-03-29T09:09:49.436Z</time></trkpt><trkpt lat="45.7427675" lon="9.457428"><ele>205.0</ele><time>2026-03-29T09:09:50.445Z</time></trkpt><trkpt lat="45.7428995" lon="9.4575798"><ele>205.0</ele><time>2026-03-29T09:09:51.443Z</time></trkpt><trkpt lat="45.743031" lon="9.4577374"><ele>205.0</ele><time>2026-03-29T09:09:52.434Z</time></trkpt><trkpt lat="45.7431587" lon="9.4579006"><ele>206.66666666666666</ele><time>2026-03-29T09:09:53.439Z</time></trkpt><trkpt lat="45.7432795" lon="9.4580736"><ele>208.33333333333331</ele><time>2026-03-29T09:09:54.432Z</time></trkpt><trkpt lat="45.7433933" lon="9.4582377"><ele>210.0</ele><time>2026-03-29T09:09:55.442Z</time></trkpt><trkpt lat="45.7435007" lon="9.458385"><ele>210.25</ele><time>2026-03-29T09:09:56.456Z</time></trkpt><trkpt lat="45.743602" lon="9.4585106"><ele>210.5</ele><time>2026-03-29T09:09:57.448Z</time></trkpt><trkpt lat="45.7436991" lon="9.458622"><ele>210.75</ele><time>2026-03-29T09:09:58.45Z</time></trkpt><trkpt lat="45.743787" lon="9.4587242"><ele>211.0</ele><time>2026-03-29T09:09:59.444Z</time></trkpt><trkpt lat="45.7438633" lon="9.4588163"><ele>210.99999999999997</ele><time>2026-03-29T09:10:00.428Z</time></trkpt><trkpt lat="45.7439211" lon="9.4589152"><ele>211.0</ele><time>2026-03-29T09:10:01.432Z</time></trkpt><trkpt lat="45.7439536" lon="9.4590256"><ele>211.0</ele><time>2026-03-29T09:10:02.445Z</time></trkpt><trkpt lat="45.7439698" lon="9.4591418"><ele>211.0</ele><time>2026-03-29T09:10:03.443Z</time></trkpt><trkpt lat="45.7439894" lon="9.4592543"><ele>210.99999999999997</ele><time>2026-03-29T09:10:04.439Z</time></trkpt><trkpt lat="45.7440137" lon="9.4593461"><ele>211.0</ele><time>2026-03-29T09:10:05.431Z</time></trkpt><trkpt lat="45.7440743" lon="9.4594036"><ele>211.0</ele><time>2026-03-29T09:10:06.433Z</time></trkpt><trkpt lat="45.7441488" lon="9.459441"><ele>211.0</ele><time>2026-03-29T09:10:07.45Z</time></trkpt><trkpt lat="45.7442331" lon="9.459451"><ele>211.0</ele><time>2026-03-29T09:10:08.439Z</time></trkpt><trkpt lat="45.7443269" lon="9.4594474"><ele>211.0</ele><time>2026-03-29T09:10:09.432Z</time></trkpt><trkpt lat="45.7444303" lon="9.4594509"><ele>211.0</ele><time>2026-03-29T09:10:10.423Z</time></trkpt><trkpt lat="45.7445379" lon="9.4594654"><ele>212.75</ele><time>2026-03-29T09:10:11.441Z</time></trkpt><trkpt lat="45.7446498" lon="9.4595457"><ele>214.5</ele><time>2026-03-29T09:10:12.425Z</time></trkpt><trkpt lat="45.7447656" lon="9.4596367"><ele>216.25</ele><time>2026-03-29T09:10:13.441Z</time></trkpt><trkpt lat="45.7448823" lon="9.4597574"><ele>218.0</ele><time>2026-03-29T09:10:14.441Z</time></trkpt><trkpt lat="45.7450141" lon="9.4598799"><ele>218.0</ele><time>2026-03-29T09:10:15.435Z</time></trkpt><trkpt lat="45.7451477" lon="9.459986"><ele>218.0</ele><time>2026-03-29T09:10:16.431Z</time></trkpt><trkpt lat="45.7452886" lon="9.4600895"><ele>218.0</ele><time>2026-03-29T09:10:17.438Z</time></trkpt><trkpt lat="45.7454412" lon="9.4601869"><ele>215.0</ele><time>2026-03-29T09:10:18.428Z</time></trkpt><trkpt lat="45.7456036" lon="9.4602664"><ele>212.0</ele><time>2026-03-29T09:10:19.427Z</time></trkpt><trkpt lat="45.7457634" lon="9.4603152"><ele>209.0</ele><time>2026-03-29T09:10:20.432Z</time></trkpt><trkpt lat="45.745922" lon="9.4603538"><ele>207.0</ele><time>2026-03-29T09:10:21.438Z</time></trkpt><trkpt lat="45.7460811" lon="9.4603911"><ele>205.0</ele><time>2026-03-29T09:10:22.431Z</time></trkpt><trkpt lat="45.7462387" lon="9.4604307"><ele>203.0</ele><time>2026-03-29T09:10:23.427Z</time></trkpt><trkpt lat="45.7463942" lon="9.4604696"><ele>209.66666666666669</ele><time>2026-03-29T09:10:24.431Z</time></trkpt><trkpt lat="45.7465443" lon="9.4605112"><ele>216.33333333333331</ele><time>2026-03-29T09:10:25.427Z</time></trkpt><trkpt lat="45.7466933" lon="9.4605523"><ele>223.0</ele><time>2026-03-29T09:10:26.433Z</time></trkpt><trkpt lat="45.7468412" lon="9.460596"><ele>219.75</ele><time>2026-03-29T09:10:27.435Z</time></trkpt><trkpt lat="45.7469866" lon="9.4606514"><ele>216.5</ele><time>2026-03-29T09:10:28.432Z</time></trkpt><trkpt lat="45.7471187" lon="9.4607216"><ele>213.25</ele><time>2026-03-29T09:10:29.438Z</time></trkpt><trkpt lat="45.7472447" lon="9.4608069"><ele>210.0</ele><time>2026-03-29T09:10:30.436Z</time></trkpt><trkpt lat="45.7473739" lon="9.4608915"><ele>210.0</ele><time>2026-03-29T09:10:31.439Z</time></trkpt><trkpt lat="45.7475062" lon="9.4609703"><ele>210.0</ele><time>2026-03-29T09:10:32.429Z</time></trkpt><trkpt lat="45.7476373" lon="9.4610481"><ele>210.0</ele><time>2026-03-29T09:10:33.441Z</time></trkpt><trkpt lat="45.7477659" lon="9.4611203"><ele>210.0</ele><time>2026-03-29T09:10:34.445Z</time></trkpt><trkpt lat="45.7478963" lon="9.4611742"><ele>208.5</ele><time>2026-03-29T09:10:35.453Z</time></trkpt><trkpt lat="45.7480296" lon="9.4612072"><ele>207.0</ele><time>2026-03-29T09:10:36.443Z</time></trkpt><trkpt lat="45.7481645" lon="9.4612122"><ele>205.5</ele><time>2026-03-29T09:10:37.428Z</time></trkpt><trkpt lat="45.7482996" lon="9.4611937"><ele>204.0</ele><time>2026-03-29T09:10:38.452Z</time></trkpt><trkpt lat="45.7484378" lon="9.4611586"><ele>203.75</ele><time>2026-03-29T09:10:39.441Z</time></trkpt><trkpt lat="45.7485797" lon="9.4611274"><ele>203.5</ele><time>2026-03-29T09:10:40.436Z</time></trkpt><trkpt lat="45.7487233" lon="9.4611119"><ele>203.25</ele><time>2026-03-29T09:10:41.444Z</time></trkpt><trkpt lat="45.7488691" lon="9.46111"><ele>203.0</ele><time>2026-03-29T09:10:42.436Z</time></trkpt><trkpt lat="45.7490107" lon="9.4611151"><ele>203.0</ele><time>2026-03-29T09:10:43.438Z</time></trkpt><trkpt lat="45.7491431" lon="9.4611232"><ele>203.0</ele><time>2026-03-29T09:10:44.46Z</time></trkpt><trkpt lat="45.7492709" lon="9.4611429"><ele>203.0</ele><time>2026-03-29T09:10:45.443Z</time></trkpt><trkpt lat="45.7493945" lon="9.4611862"><ele>203.0</ele><time>2026-03-29T09:10:46.445Z</time></trkpt><trkpt lat="45.749506" lon="9.4612436"><ele>203.5</ele><time>2026-03-29T09:10:47.44Z</time></trkpt><trkpt lat="45.7496178" lon="9.461287"><ele>204.0</ele><time>2026-03-29T09:10:48.442Z</time></trkpt><trkpt lat="45.7497332" lon="9.4613141"><ele>204.5</ele><time>2026-03-29T09:10:49.446Z</time></trkpt><trkpt lat="45.7498537" lon="9.4612837"><ele>205.0</ele><time>2026-03-29T09:10:50.468Z</time></trkpt><trkpt lat="45.7499821" lon="9.4612712"><ele>205.75</ele><time>2026-03-29T09:10:51.454Z</time></trkpt><trkpt lat="45.7501168" lon="9.4612758"><ele>206.5</ele><time>2026-03-29T09:10:52.441Z</time></trkpt><trkpt lat="45.7502664" lon="9.4612954"><ele>207.25</ele><time>2026-03-29T09:10:53.427Z</time></trkpt><trkpt lat="45.7504231" lon="9.4612906"><ele>208.0</ele><time>2026-03-29T09:10:54.44Z</time></trkpt><trkpt lat="45.7505726" lon="9.4612698"><ele>208.25</ele><time>2026-03-29T09:10:55.438Z</time></trkpt><trkpt lat="45.7507198" lon="9.4612417"><ele>208.5</ele><time>2026-03-29T09:10:56.442Z</time></trkpt><trkpt lat="45.7508623" lon="9.4611997"><ele>208.75</ele><time>2026-03-29T09:10:57.44Z</time></trkpt><trkpt lat="45.7510026" lon="9.4611492"><ele>209.0</ele><time>2026-03-29T09:10:58.433Z</time></trkpt><trkpt lat="45.7511428" lon="9.4610904"><ele>209.0</ele><time>2026-03-29T09:10:59.446Z</time></trkpt><trkpt lat="45.7512828" lon="9.4610269"><ele>209.0</ele><time>2026-03-29T09:11:00.432Z</time></trkpt><trkpt lat="45.7514226" lon="9.4609601"><ele>209.0</ele><time>2026-03-29T09:11:01.449Z</time></trkpt><trkpt lat="45.7515598" lon="9.4608793"><ele>209.0</ele><time>2026-03-29T09:11:02.441Z</time></trkpt><trkpt lat="45.7516956" lon="9.4607848"><ele>209.0</ele><time>2026-03-29T09:11:03.428Z</time></trkpt><trkpt lat="45.7518333" lon="9.4606793"><ele>209.0</ele><time>2026-03-29T09:11:04.445Z</time></trkpt><trkpt lat="45.7519719" lon="9.4605749"><ele>209.0</ele><time>2026-03-29T09:11:05.447Z</time></trkpt><trkpt lat="45.7521063" lon="9.4604674"><ele>210.0</ele><time>2026-03-29T09:11:06.448Z</time></trkpt><trkpt lat="45.7522317" lon="9.4603527"><ele>211.0</ele><time>2026-03-29T09:11:07.438Z</time></trkpt><trkpt lat="45.7523527" lon="9.460229"><ele>212.0</ele><time>2026-03-29T09:11:08.434Z</time></trkpt><trkpt lat="45.752467" lon="9.4600946"><ele>213.0</ele><time>2026-03-29T09:11:09.44Z</time></trkpt><trkpt lat="45.7525778" lon="9.4599558"><ele>213.0</ele><time>2026-03-29T09:11:10.429Z</time></trkpt><trkpt lat="45.7526844" lon="9.4598109"><ele>213.0</ele><time>2026-03-29T09:11:11.436Z</time></trkpt><trkpt lat="45.7527856" lon="9.4596608"><ele>213.0</ele><time>2026-03-29T09:11:12.433Z</time></trkpt><trkpt lat="45.7528782" lon="9.4595019"><ele>213.0</ele><time>2026-03-29T09:11:13.444Z</time></trkpt><trkpt lat="45.7529668" lon="9.4593375"><ele>213.0</ele><time>2026-03-29T09:11:14.429Z</time></trkpt><trkpt lat="45.7530599" lon="9.459169"><ele>213.0</ele><time>2026-03-29T09:11:15.442Z</time></trkpt><trkpt lat="45.7531581" lon="9.4589957"><ele>213.0</ele><time>2026-03-29T09:11:16.437Z</time></trkpt><trkpt lat="45.7532594" lon="9.4588158"><ele>210.33333333333331</ele><time>2026-03-29T09:11:17.437Z</time></trkpt><trkpt lat="45.7533599" lon="9.4586394"><ele>207.66666666666666</ele><time>2026-03-29T09:11:18.439Z</time></trkpt><trkpt lat="45.7534502" lon="9.4584577"><ele>205.0</ele><time>2026-03-29T09:11:19.429Z</time></trkpt><trkpt lat="45.7535251" lon="9.458254"><ele>207.0</ele><time>2026-03-29T09:11:20.431Z</time></trkpt><trkpt lat="45.7535889" lon="9.4580267"><ele>209.0</ele><time>2026-03-29T09:11:21.434Z</time></trkpt><trkpt lat="45.7536442" lon="9.4577921"><ele>211.0</ele><time>2026-03-29T09:11:22.45Z</time></trkpt><trkpt lat="45.7537006" lon="9.4575546"><ele>211.0</ele><time>2026-03-29T09:11:23.433Z</time></trkpt><trkpt lat="45.7537628" lon="9.4573299"><ele>211.0</ele><time>2026-03-29T09:11:24.443Z</time></trkpt><trkpt lat="45.7538259" lon="9.4571213"><ele>211.0</ele><time>2026-03-29T09:11:25.427Z</time></trkpt><trkpt lat="45.7538896" lon="9.4569289"><ele>209.25</ele><time>2026-03-29T09:11:26.425Z</time></trkpt><trkpt lat="45.7539536" lon="9.4567501"><ele>207.5</ele><time>2026-03-29T09:11:27.444Z</time></trkpt><trkpt lat="45.7540178" lon="9.4565844"><ele>205.75</ele><time>2026-03-29T09:11:28.439Z</time></trkpt><trkpt lat="45.7540918" lon="9.4564217"><ele>204.0</ele><time>2026-03-29T09:11:29.437Z</time></trkpt><trkpt lat="45.7541788" lon="9.456263"><ele>204.0</ele><time>2026-03-29T09:11:30.428Z</time></trkpt><trkpt lat="45.754273" lon="9.4561096"><ele>204.0</ele><time>2026-03-29T09:11:31.434Z</time></trkpt><trkpt lat="45.7543691" lon="9.4559555"><ele>204.0</ele><time>2026-03-29T09:11:32.433Z</time></trkpt><trkpt lat="45.754464" lon="9.4558027"><ele>204.0</ele><time>2026-03-29T09:11:33.435Z</time></trkpt><trkpt lat="45.7545555" lon="9.4556607"><ele>204.0</ele><time>2026-03-29T09:11:34.442Z</time></trkpt><trkpt lat="45.754645" lon="9.4555227"><ele>204.0</ele><time>2026-03-29T09:11:35.432Z</time></trkpt><trkpt lat="45.7547372" lon="9.4553863"><ele>204.0</ele><time>2026-03-29T09:11:36.425Z</time></trkpt><trkpt lat="45.7548395" lon="9.4552622"><ele>204.0</ele><time>2026-03-29T09:11:37.436Z</time></trkpt><trkpt lat="45.7549529" lon="9.4551548"><ele>204.25</ele><time>2026-03-29T09:11:38.438Z</time></trkpt><trkpt lat="45.7550727" lon="9.4550635"><ele>204.5</ele><time>2026-03-29T09:11:39.449Z</time></trkpt><trkpt lat="45.7551957" lon="9.4549822"><ele>204.75</ele><time>2026-03-29T09:11:40.451Z</time></trkpt><trkpt lat="45.7553194" lon="9.4549067"><ele>205.0</ele><time>2026-03-29T09:11:41.428Z</time></trkpt><trkpt lat="45.7554435" lon="9.4548328"><ele>205.0</ele><time>2026-03-29T09:11:42.445Z</time></trkpt><trkpt lat="45.7555667" lon="9.4547594"><ele>205.0</ele><time>2026-03-29T09:11:43.444Z</time></trkpt><trkpt lat="45.7556896" lon="9.4546862"><ele>205.0</ele><time>2026-03-29T09:11:44.446Z</time></trkpt><trkpt lat="45.7558155" lon="9.4546093"><ele>205.0</ele><time>2026-03-29T09:11:45.446Z</time></trkpt><trkpt lat="45.7559336" lon="9.4545273"><ele>205.6</ele><time>2026-03-29T09:11:46.45Z</time></trkpt><trkpt lat="45.7560388" lon="9.4544487"><ele>206.2</ele><time>2026-03-29T09:11:47.44Z</time></trkpt><trkpt lat="45.7561344" lon="9.4543743"><ele>206.8</ele><time>2026-03-29T09:11:48.44Z</time></trkpt><trkpt lat="45.7562254" lon="9.4543138"><ele>207.4</ele><time>2026-03-29T09:11:49.447Z</time></trkpt><trkpt lat="45.7563104" lon="9.4542738"><ele>208.0</ele><time>2026-03-29T09:11:50.442Z</time></trkpt><trkpt lat="45.7563966" lon="9.4542525"><ele>207.99999999999997</ele><time>2026-03-29T09:11:51.441Z</time></trkpt><trkpt lat="45.756484" lon="9.4542538"><ele>208.0</ele><time>2026-03-29T09:11:52.437Z</time></trkpt><trkpt lat="45.7565619" lon="9.4542776"><ele>208.0</ele><time>2026-03-29T09:11:53.453Z</time></trkpt><trkpt lat="45.7566301" lon="9.4543157"><ele>208.0</ele><time>2026-03-29T09:11:54.447Z</time></trkpt><trkpt lat="45.7567017" lon="9.454384"><ele>207.99999999999997</ele><time>2026-03-29T09:11:55.448Z</time></trkpt><trkpt lat="45.7567738" lon="9.4544696"><ele>208.0</ele><time>2026-03-29T09:11:56.456Z</time></trkpt><trkpt lat="45.756839" lon="9.4545553"><ele>209.60000000000002</ele><time>2026-03-29T09:11:57.439Z</time></trkpt><trkpt lat="45.7569101" lon="9.4545683"><ele>211.20000000000002</ele><time>2026-03-29T09:11:58.436Z</time></trkpt><trkpt lat="45.756975" lon="9.4545358"><ele>212.8</ele><time>2026-03-29T09:11:59.447Z</time></trkpt><trkpt lat="45.7570437" lon="9.4544599"><ele>214.4</ele><time>2026-03-29T09:12:00.451Z</time></trkpt><trkpt lat="45.7571263" lon="9.4543532"><ele>216.0</ele><time>2026-03-29T09:12:01.453Z</time></trkpt><trkpt lat="45.7572118" lon="9.4542125"><ele>216.0</ele><time>2026-03-29T09:12:02.44Z</time></trkpt><trkpt lat="45.7573022" lon="9.45409"><ele>216.0</ele><time>2026-03-29T09:12:03.437Z</time></trkpt><trkpt lat="45.7573999" lon="9.4539661"><ele>216.0</ele><time>2026-03-29T09:12:04.438Z</time></trkpt><trkpt lat="45.7575065" lon="9.4538444"><ele>216.0</ele><time>2026-03-29T09:12:05.435Z</time></trkpt><trkpt lat="45.7576235" lon="9.4537301"><ele>214.75</ele><time>2026-03-29T09:12:06.434Z</time></trkpt><trkpt lat="45.7577499" lon="9.4536282"><ele>213.5</ele><time>2026-03-29T09:12:07.437Z</time></trkpt><trkpt lat="45.7578802" lon="9.4535273"><ele>212.25</ele><time>2026-03-29T09:12:08.438Z</time></trkpt><trkpt lat="45.7580125" lon="9.4534293"><ele>211.0</ele><time>2026-03-29T09:12:09.446Z</time></trkpt><trkpt lat="45.7581455" lon="9.453331"><ele>211.0</ele><time>2026-03-29T09:12:10.45Z</time></trkpt><trkpt lat="45.7582764" lon="9.4532367"><ele>211.0</ele><time>2026-03-29T09:12:11.441Z</time></trkpt><trkpt lat="45.7584059" lon="9.453143"><ele>211.0</ele><time>2026-03-29T09:12:12.431Z</time></trkpt><trkpt lat="45.7585251" lon="9.4530534"><ele>211.0</ele><time>2026-03-29T09:12:13.447Z</time></trkpt><trkpt lat="45.7586437" lon="9.4529681"><ele>210.5</ele><time>2026-03-29T09:12:14.431Z</time></trkpt><trkpt lat="45.7587705" lon="9.452878"><ele>210.0</ele><time>2026-03-29T09:12:15.448Z</time></trkpt><trkpt lat="45.758901" lon="9.4527785"><ele>209.5</ele><time>2026-03-29T09:12:16.446Z</time></trkpt><trkpt lat="45.7590311" lon="9.452671"><ele>209.0</ele><time>2026-03-29T09:12:17.443Z</time></trkpt><trkpt lat="45.7591561" lon="9.452552"><ele>209.0</ele><time>2026-03-29T09:12:18.444Z</time></trkpt><trkpt lat="45.7592769" lon="9.4524216"><ele>209.0</ele><time>2026-03-29T09:12:19.443Z</time></trkpt><trkpt lat="45.7593957" lon="9.4522804"><ele>209.0</ele><time>2026-03-29T09:12:20.444Z</time></trkpt><trkpt lat="45.7595137" lon="9.4521371"><ele>208.66666666666669</ele><time>2026-03-29T09:12:21.433Z</time></trkpt><trkpt lat="45.7596295" lon="9.4519897"><ele>208.33333333333331</ele><time>2026-03-29T09:12:22.451Z</time></trkpt><trkpt lat="45.7597455" lon="9.4518389"><ele>208.0</ele><time>2026-03-29T09:12:23.44Z</time></trkpt><trkpt lat="45.7598636" lon="9.4516866"><ele>208.0</ele><time>2026-03-29T09:12:24.45Z</time></trkpt><trkpt lat="45.7599858" lon="9.4515323"><ele>208.0</ele><time>2026-03-29T09:12:25.453Z</time></trkpt><trkpt lat="45.7601112" lon="9.4513784"><ele>208.0</ele><time>2026-03-29T09:12:26.456Z</time></trkpt><trkpt lat="45.7602419" lon="9.4512233"><ele>206.0</ele><time>2026-03-29T09:12:27.43Z</time></trkpt><trkpt lat="45.7603761" lon="9.4510542"><ele>204.0</ele><time>2026-03-29T09:12:28.429Z</time></trkpt><trkpt lat="45.7605059" lon="9.4508856"><ele>202.0</ele><time>2026-03-29T09:12:29.434Z</time></trkpt><trkpt lat="45.7606318" lon="9.4507258"><ele>202.0</ele><time>2026-03-29T09:12:30.439Z</time></trkpt><trkpt lat="45.7607545" lon="9.4505762"><ele>202.0</ele><time>2026-03-29T09:12:31.435Z</time></trkpt><trkpt lat="45.7608753" lon="9.4504262"><ele>202.0</ele><time>2026-03-29T09:12:32.433Z</time></trkpt><trkpt lat="45.7609944" lon="9.4502806"><ele>202.75</ele><time>2026-03-29T09:12:33.428Z</time></trkpt><trkpt lat="45.7611081" lon="9.4501361"><ele>203.5</ele><time>2026-03-29T09:12:34.424Z</time></trkpt><trkpt lat="45.7612124" lon="9.4500008"><ele>204.25</ele><time>2026-03-29T09:12:35.426Z</time></trkpt><trkpt lat="45.7613197" lon="9.449867"><ele>205.0</ele><time>2026-03-29T09:12:36.433Z</time></trkpt><trkpt lat="45.7614256" lon="9.4497303"><ele>205.25</ele><time>2026-03-29T09:12:37.435Z</time></trkpt><trkpt lat="45.7615288" lon="9.4495908"><ele>205.5</ele><time>2026-03-29T09:12:38.431Z</time></trkpt><trkpt lat="45.7616288" lon="9.4494638"><ele>205.75</ele><time>2026-03-29T09:12:39.429Z</time></trkpt><trkpt lat="45.7617289" lon="9.4493359"><ele>206.0</ele><time>2026-03-29T09:12:40.425Z</time></trkpt><trkpt lat="45.7618291" lon="9.4492058"><ele>205.75</ele><time>2026-03-29T09:12:41.437Z</time></trkpt><trkpt lat="45.7619266" lon="9.4490771"><ele>205.5</ele><time>2026-03-29T09:12:42.435Z</time></trkpt><trkpt lat="45.7620206" lon="9.4489552"><ele>205.25</ele><time>2026-03-29T09:12:43.44Z</time></trkpt><trkpt lat="45.7621108" lon="9.44884"><ele>205.0</ele><time>2026-03-29T09:12:44.436Z</time></trkpt><trkpt lat="45.7622019" lon="9.4487245"><ele>205.0</ele><time>2026-03-29T09:12:45.437Z</time></trkpt><trkpt lat="45.7623007" lon="9.4486058"><ele>205.0</ele><time>2026-03-29T09:12:46.437Z</time></trkpt><trkpt lat="45.7624051" lon="9.4484792"><ele>205.0</ele><time>2026-03-29T09:12:47.442Z</time></trkpt><trkpt lat="45.7625148" lon="9.4483429"><ele>205.0</ele><time>2026-03-29T09:12:48.425Z</time></trkpt><trkpt lat="45.7626296" lon="9.4482019"><ele>205.33333333333331</ele><time>2026-03-29T09:12:49.437Z</time></trkpt><trkpt lat="45.762749" lon="9.4480603"><ele>205.66666666666669</ele><time>2026-03-29T09:12:50.429Z</time></trkpt><trkpt lat="45.7628733" lon="9.4479213"><ele>206.0</ele><time>2026-03-29T09:12:51.426Z</time></trkpt><trkpt lat="45.7630107" lon="9.4477861"><ele>206.0</ele><time>2026-03-29T09:12:52.441Z</time></trkpt><trkpt lat="45.7631535" lon="9.447663"><ele>206.0</ele><time>2026-03-29T09:12:53.439Z</time></trkpt><trkpt lat="45.7632943" lon="9.4475543"><ele>206.0</ele><time>2026-03-29T09:12:54.421Z</time></trkpt><trkpt lat="45.7634438" lon="9.4474475"><ele>205.33333333333334</ele><time>2026-03-29T09:12:55.444Z</time></trkpt><trkpt lat="45.7635964" lon="9.4473399"><ele>204.66666666666669</ele><time>2026-03-29T09:12:56.438Z</time></trkpt><trkpt lat="45.7637561" lon="9.4472241"><ele>204.0</ele><time>2026-03-29T09:12:57.425Z</time></trkpt><trkpt lat="45.7639151" lon="9.4471062"><ele>203.33333333333331</ele><time>2026-03-29T09:12:58.44Z</time></trkpt><trkpt lat="45.7640791" lon="9.4469901"><ele>202.66666666666666</ele><time>2026-03-29T09:12:59.436Z</time></trkpt><trkpt lat="45.7642417" lon="9.4468733"><ele>202.0</ele><time>2026-03-29T09:13:00.428Z</time></trkpt><trkpt lat="45.7643992" lon="9.4467624"><ele>201.33333333333331</ele><time>2026-03-29T09:13:01.435Z</time></trkpt><trkpt lat="45.7645529" lon="9.4466535"><ele>200.66666666666669</ele><time>2026-03-29T09:13:02.448Z</time></trkpt><trkpt lat="45.7647061" lon="9.4465444"><ele>200.0</ele><time>2026-03-29T09:13:03.439Z</time></trkpt><trkpt lat="45.7648566" lon="9.4464334"><ele>200.0</ele><time>2026-03-29T09:13:04.437Z</time></trkpt><trkpt lat="45.7650073" lon="9.446325"><ele>200.0</ele><time>2026-03-29T09:13:05.432Z</time></trkpt><trkpt lat="45.7651514" lon="9.4462188"><ele>200.0</ele><time>2026-03-29T09:13:06.438Z</time></trkpt><trkpt lat="45.7652884" lon="9.4461211"><ele>200.25</ele><time>2026-03-29T09:13:07.435Z</time></trkpt><trkpt lat="45.7654171" lon="9.4460288"><ele>200.5</ele><time>2026-03-29T09:13:08.432Z</time></trkpt><trkpt lat="45.7655521" lon="9.4459393"><ele>200.75</ele><time>2026-03-29T09:13:09.436Z</time></trkpt><trkpt lat="45.7656917" lon="9.445856"><ele>201.0</ele><time>2026-03-29T09:13:10.435Z</time></trkpt><trkpt lat="45.7658355" lon="9.4457772"><ele>201.0</ele><time>2026-03-29T09:13:11.435Z</time></trkpt><trkpt lat="45.7659806" lon="9.445705"><ele>201.0</ele><time>2026-03-29T09:13:12.443Z</time></trkpt><trkpt lat="45.7661289" lon="9.4456373"><ele>201.0</ele><time>2026-03-29T09:13:13.454Z</time></trkpt><trkpt lat="45.7662773" lon="9.4455691"><ele>201.66666666666669</ele><time>2026-03-29T09:13:14.442Z</time></trkpt><trkpt lat="45.7664272" lon="9.4455039"><ele>202.33333333333334</ele><time>2026-03-29T09:13:15.434Z</time></trkpt><trkpt lat="45.7665794" lon="9.4454358"><ele>203.0</ele><time>2026-03-29T09:13:16.436Z</time></trkpt><trkpt lat="45.7667349" lon="9.4453637"><ele>201.33333333333334</ele><time>2026-03-29T09:13:17.429Z</time></trkpt><trkpt lat="45.7668922" lon="9.4452904"><ele>199.66666666666669</ele><time>2026-03-29T09:13:18.435Z</time></trkpt><trkpt lat="45.7670523" lon="9.4452122"><ele>198.0</ele><time>2026-03-29T09:13:19.455Z</time></trkpt><trkpt lat="45.767216" lon="9.4451342"><ele>198.0</ele><time>2026-03-29T09:13:20.442Z</time></trkpt><trkpt lat="45.767385" lon="9.4450611"><ele>198.0</ele><time>2026-03-29T09:13:21.435Z</time></trkpt><trkpt lat="45.7675488" lon="9.4449913"><ele>198.0</ele><time>2026-03-29T09:13:22.442Z</time></trkpt><trkpt lat="45.7677045" lon="9.4449254"><ele>199.66666666666669</ele><time>2026-03-29T09:13:23.443Z</time></trkpt><trkpt lat="45.7678604" lon="9.4448571"><ele>201.33333333333334</ele><time>2026-03-29T09:13:24.439Z</time></trkpt><trkpt lat="45.7680236" lon="9.4447869"><ele>203.0</ele><time>2026-03-29T09:13:25.44Z</time></trkpt><trkpt lat="45.768185" lon="9.4447227"><ele>203.0</ele><time>2026-03-29T09:13:26.436Z</time></trkpt><trkpt lat="45.7683407" lon="9.444653"><ele>203.0</ele><time>2026-03-29T09:13:27.451Z</time></trkpt><trkpt lat="45.7684966" lon="9.4445853"><ele>203.0</ele><time>2026-03-29T09:13:28.444Z</time></trkpt><trkpt lat="45.7686567" lon="9.4445165"><ele>199.66666666666669</ele><time>2026-03-29T09:13:29.436Z</time></trkpt><trkpt lat="45.7688198" lon="9.4444483"><ele>196.33333333333331</ele><time>2026-03-29T09:13:30.43Z</time></trkpt><trkpt lat="45.7689822" lon="9.444377"><ele>193.0</ele><time>2026-03-29T09:13:31.439Z</time></trkpt><trkpt lat="45.7691491" lon="9.4443057"><ele>193.0</ele><time>2026-03-29T09:13:32.434Z</time></trkpt><trkpt lat="45.7693138" lon="9.4442334"><ele>193.0</ele><time>2026-03-29T09:13:33.438Z</time></trkpt><trkpt lat="45.7694774" lon="9.4441586"><ele>193.0</ele><time>2026-03-29T09:13:34.429Z</time></trkpt><trkpt lat="45.7696395" lon="9.4440837"><ele>194.66666666666666</ele><time>2026-03-29T09:13:35.441Z</time></trkpt><trkpt lat="45.769802" lon="9.4440149"><ele>196.33333333333331</ele><time>2026-03-29T09:13:36.435Z</time></trkpt><trkpt lat="45.7699604" lon="9.4439472"><ele>198.0</ele><time>2026-03-29T09:13:37.435Z</time></trkpt><trkpt lat="45.7701156" lon="9.4438798"><ele>197.66666666666669</ele><time>2026-03-29T09:13:38.44Z</time></trkpt><trkpt lat="45.7702682" lon="9.4438129"><ele>197.33333333333334</ele><time>2026-03-29T09:13:39.458Z</time></trkpt><trkpt lat="45.7704192" lon="9.4437451"><ele>197.0</ele><time>2026-03-29T09:13:40.438Z</time></trkpt><trkpt lat="45.7705671" lon="9.4436808"><ele>197.0</ele><time>2026-03-29T09:13:41.438Z</time></trkpt><trkpt lat="45.7707146" lon="9.4436176"><ele>197.0</ele><time>2026-03-29T09:13:42.435Z</time></trkpt><trkpt lat="45.7708657" lon="9.4435485"><ele>197.0</ele><time>2026-03-29T09:13:43.433Z</time></trkpt><trkpt lat="45.7710218" lon="9.4434754"><ele>197.66666666666669</ele><time>2026-03-29T09:13:44.423Z</time></trkpt><trkpt lat="45.7711794" lon="9.4433992"><ele>198.33333333333331</ele><time>2026-03-29T09:13:45.438Z</time></trkpt><trkpt lat="45.7713384" lon="9.4433306"><ele>199.0</ele><time>2026-03-29T09:13:46.433Z</time></trkpt><trkpt lat="45.7714934" lon="9.443282"><ele>199.0</ele><time>2026-03-29T09:13:47.42Z</time></trkpt><trkpt lat="45.7716518" lon="9.443259"><ele>199.0</ele><time>2026-03-29T09:13:48.438Z</time></trkpt><trkpt lat="45.7718126" lon="9.4432541"><ele>199.0</ele><time>2026-03-29T09:13:49.435Z</time></trkpt><trkpt lat="45.7719758" lon="9.4432562"><ele>200.33333333333331</ele><time>2026-03-29T09:13:50.43Z</time></trkpt><trkpt lat="45.7721418" lon="9.4432677"><ele>201.66666666666669</ele><time>2026-03-29T09:13:51.443Z</time></trkpt><trkpt lat="45.7723075" lon="9.4432867"><ele>203.0</ele><time>2026-03-29T09:13:52.432Z</time></trkpt><trkpt lat="45.7724732" lon="9.4433066"><ele>203.0</ele><time>2026-03-29T09:13:53.43Z</time></trkpt><trkpt lat="45.7726377" lon="9.4433245"><ele>203.0</ele><time>2026-03-29T09:13:54.437Z</time></trkpt><trkpt lat="45.7728009" lon="9.443341"><ele>203.0</ele><time>2026-03-29T09:13:55.441Z</time></trkpt><trkpt lat="45.7729625" lon="9.4433566"><ele>202.33333333333334</ele><time>2026-03-29T09:13:56.426Z</time></trkpt><trkpt lat="45.7731227" lon="9.4433759"><ele>201.66666666666669</ele><time>2026-03-29T09:13:57.437Z</time></trkpt><trkpt lat="45.7732811" lon="9.4433971"><ele>201.0</ele><time>2026-03-29T09:13:58.426Z</time></trkpt><trkpt lat="45.7734393" lon="9.443416"><ele>201.0</ele><time>2026-03-29T09:13:59.423Z</time></trkpt><trkpt lat="45.7735973" lon="9.4434319"><ele>201.0</ele><time>2026-03-29T09:14:00.444Z</time></trkpt><trkpt lat="45.7737519" lon="9.4434462"><ele>201.0</ele><time>2026-03-29T09:14:01.437Z</time></trkpt><trkpt lat="45.7738972" lon="9.4434532"><ele>201.0</ele><time>2026-03-29T09:14:02.441Z</time></trkpt><trkpt lat="45.774034" lon="9.4434514"><ele>201.0</ele><time>2026-03-29T09:14:03.423Z</time></trkpt><trkpt lat="45.7741705" lon="9.4434474"><ele>201.0</ele><time>2026-03-29T09:14:04.432Z</time></trkpt><trkpt lat="45.7743077" lon="9.4434393"><ele>201.0</ele><time>2026-03-29T09:14:05.434Z</time></trkpt><trkpt lat="45.7744452" lon="9.4434233"><ele>202.0</ele><time>2026-03-29T09:14:06.433Z</time></trkpt><trkpt lat="45.7745865" lon="9.4433983"><ele>203.0</ele><time>2026-03-29T09:14:07.442Z</time></trkpt><trkpt lat="45.7747325" lon="9.4433663"><ele>204.0</ele><time>2026-03-29T09:14:08.42Z</time></trkpt><trkpt lat="45.7748827" lon="9.4433277"><ele>205.0</ele><time>2026-03-29T09:14:09.433Z</time></trkpt><trkpt lat="45.7750282" lon="9.4432901"><ele>205.0</ele><time>2026-03-29T09:14:10.439Z</time></trkpt><trkpt lat="45.7751694" lon="9.4432574"><ele>205.0</ele><time>2026-03-29T09:14:11.434Z</time></trkpt><trkpt lat="45.7753119" lon="9.4432221"><ele>205.0</ele><time>2026-03-29T09:14:12.43Z</time></trkpt><trkpt lat="45.775455" lon="9.4431836"><ele>205.0</ele><time>2026-03-29T09:14:13.438Z</time></trkpt><trkpt lat="45.7756002" lon="9.4431467"><ele>206.0</ele><time>2026-03-29T09:14:14.43Z</time></trkpt><trkpt lat="45.775748" lon="9.4431071"><ele>207.0</ele><time>2026-03-29T09:14:15.433Z</time></trkpt><trkpt lat="45.7758953" lon="9.4430587"><ele>208.0</ele><time>2026-03-29T09:14:16.424Z</time></trkpt><trkpt lat="45.7760409" lon="9.4429985"><ele>205.75</ele><time>2026-03-29T09:14:17.426Z</time></trkpt><trkpt lat="45.7761839" lon="9.442922"><ele>203.5</ele><time>2026-03-29T09:14:18.439Z</time></trkpt><trkpt lat="45.776315" lon="9.4428324"><ele>201.25</ele><time>2026-03-29T09:14:19.437Z</time></trkpt><trkpt lat="45.7764382" lon="9.4427441"><ele>199.0</ele><time>2026-03-29T09:14:20.425Z</time></trkpt><trkpt lat="45.7765626" lon="9.4426606"><ele>199.0</ele><time>2026-03-29T09:14:21.429Z</time></trkpt><trkpt lat="45.77669" lon="9.4425772"><ele>199.0</ele><time>2026-03-29T09:14:22.438Z</time></trkpt><trkpt lat="45.7768204" lon="9.4424901"><ele>199.0</ele><time>2026-03-29T09:14:23.436Z</time></trkpt><trkpt lat="45.7769533" lon="9.4424007"><ele>199.0</ele><time>2026-03-29T09:14:24.438Z</time></trkpt><trkpt lat="45.7770869" lon="9.4423043"><ele>199.33333333333331</ele><time>2026-03-29T09:14:25.424Z</time></trkpt><trkpt lat="45.7772203" lon="9.4422083"><ele>199.66666666666669</ele><time>2026-03-29T09:14:26.425Z</time></trkpt><trkpt lat="45.7773599" lon="9.4421156"><ele>200.0</ele><time>2026-03-29T09:14:27.437Z</time></trkpt><trkpt lat="45.7774987" lon="9.4420261"><ele>200.0</ele><time>2026-03-29T09:14:28.438Z</time></trkpt><trkpt lat="45.7776296" lon="9.4419361"><ele>200.0</ele><time>2026-03-29T09:14:29.434Z</time></trkpt><trkpt lat="45.7777651" lon="9.4418405"><ele>200.0</ele><time>2026-03-29T09:14:30.439Z</time></trkpt><trkpt lat="45.7779099" lon="9.4417507"><ele>199.66666666666669</ele><time>2026-03-29T09:14:31.441Z</time></trkpt><trkpt lat="45.7780622" lon="9.4416755"><ele>199.33333333333331</ele><time>2026-03-29T09:14:32.429Z</time></trkpt><trkpt lat="45.7782116" lon="9.4416264"><ele>199.0</ele><time>2026-03-29T09:14:33.438Z</time></trkpt><trkpt lat="45.7783612" lon="9.4415973"><ele>199.0</ele><time>2026-03-29T09:14:34.434Z</time></trkpt><trkpt lat="45.7785101" lon="9.4415729"><ele>199.0</ele><time>2026-03-29T09:14:35.432Z</time></trkpt><trkpt lat="45.7786593" lon="9.4415469"><ele>199.0</ele><time>2026-03-29T09:14:36.43Z</time></trkpt><trkpt lat="45.7788105" lon="9.4415178"><ele>200.25</ele><time>2026-03-29T09:14:37.434Z</time></trkpt><trkpt lat="45.7789637" lon="9.4414896"><ele>201.5</ele><time>2026-03-29T09:14:38.442Z</time></trkpt><trkpt lat="45.7791122" lon="9.4414679"><ele>202.75</ele><time>2026-03-29T09:14:39.434Z</time></trkpt><trkpt lat="45.779256" lon="9.4414518"><ele>204.0</ele><time>2026-03-29T09:14:40.438Z</time></trkpt><trkpt lat="45.7794021" lon="9.4414357"><ele>204.5</ele><time>2026-03-29T09:14:41.431Z</time></trkpt><trkpt lat="45.779552" lon="9.4414242"><ele>205.0</ele><time>2026-03-29T09:14:42.443Z</time></trkpt><trkpt lat="45.7797017" lon="9.4414143"><ele>205.5</ele><time>2026-03-29T09:14:43.433Z</time></trkpt><trkpt lat="45.7798509" lon="9.4414134"><ele>206.0</ele><time>2026-03-29T09:14:44.45Z</time></trkpt><trkpt lat="45.7799999" lon="9.4414196"><ele>206.0</ele><time>2026-03-29T09:14:45.433Z</time></trkpt><trkpt lat="45.7801476" lon="9.4414226"><ele>206.0</ele><time>2026-03-29T09:14:46.433Z</time></trkpt><trkpt lat="45.7802943" lon="9.4414234"><ele>206.0</ele><time>2026-03-29T09:14:47.437Z</time></trkpt><trkpt lat="45.7804329" lon="9.4414248"><ele>206.0</ele><time>2026-03-29T09:14:48.436Z</time></trkpt><trkpt lat="45.7805606" lon="9.4414254"><ele>206.0</ele><time>2026-03-29T09:14:49.438Z</time></trkpt><trkpt lat="45.7806846" lon="9.4414261"><ele>206.0</ele><time>2026-03-29T09:14:50.424Z</time></trkpt><trkpt lat="45.7808106" lon="9.4414242"><ele>206.0</ele><time>2026-03-29T09:14:51.44Z</time></trkpt><trkpt lat="45.7809358" lon="9.4414222"><ele>206.0</ele><time>2026-03-29T09:14:52.438Z</time></trkpt><trkpt lat="45.7810546" lon="9.4414188"><ele>206.0</ele><time>2026-03-29T09:14:53.428Z</time></trkpt><trkpt lat="45.7811742" lon="9.4414116"><ele>206.0</ele><time>2026-03-29T09:14:54.433Z</time></trkpt><trkpt lat="45.7812969" lon="9.4414057"><ele>206.0</ele><time>2026-03-29T09:14:55.433Z</time></trkpt><trkpt lat="45.7814224" lon="9.4414044"><ele>206.0</ele><time>2026-03-29T09:14:56.434Z</time></trkpt><trkpt lat="45.7815517" lon="9.4414042"><ele>206.0</ele><time>2026-03-29T09:14:57.44Z</time></trkpt><trkpt lat="45.7816838" lon="9.4414026"><ele>206.0</ele><time>2026-03-29T09:14:58.432Z</time></trkpt><trkpt lat="45.7818124" lon="9.4413997"><ele>206.0</ele><time>2026-03-29T09:14:59.437Z</time></trkpt><trkpt lat="45.7819366" lon="9.4413974"><ele>206.0</ele><time>2026-03-29T09:15:00.447Z</time></trkpt><trkpt lat="45.7820597" lon="9.4413962"><ele>205.75</ele><time>2026-03-29T09:15:01.438Z</time></trkpt><trkpt lat="45.7821839" lon="9.4413993"><ele>205.5</ele><time>2026-03-29T09:15:02.444Z</time></trkpt><trkpt lat="45.7823047" lon="9.4414084"><ele>205.25</ele><time>2026-03-29T09:15:03.445Z</time></trkpt><trkpt lat="45.7824213" lon="9.4414208"><ele>205.0</ele><time>2026-03-29T09:15:04.453Z</time></trkpt><trkpt lat="45.7825325" lon="9.4414302"><ele>205.0</ele><time>2026-03-29T09:15:05.463Z</time></trkpt><trkpt lat="45.7826387" lon="9.4414332"><ele>205.0</ele><time>2026-03-29T09:15:06.447Z</time></trkpt><trkpt lat="45.7827438" lon="9.4414315"><ele>205.0</ele><time>2026-03-29T09:15:07.449Z</time></trkpt><trkpt lat="45.7828507" lon="9.4414255"><ele>205.0</ele><time>2026-03-29T09:15:08.463Z</time></trkpt><trkpt lat="45.7829581" lon="9.4414196"><ele>205.0</ele><time>2026-03-29T09:15:09.45Z</time></trkpt><trkpt lat="45.7830622" lon="9.4414096"><ele>204.8</ele><time>2026-03-29T09:15:10.448Z</time></trkpt><trkpt lat="45.7831691" lon="9.4413993"><ele>204.6</ele><time>2026-03-29T09:15:11.457Z</time></trkpt><trkpt lat="45.7832769" lon="9.4413941"><ele>204.39999999999998</ele><time>2026-03-29T09:15:12.453Z</time></trkpt><trkpt lat="45.783378" lon="9.441388"><ele>204.2</ele><time>2026-03-29T09:15:13.452Z</time></trkpt><trkpt lat="45.7834769" lon="9.4413798"><ele>204.0</ele><time>2026-03-29T09:15:14.48Z</time></trkpt><trkpt lat="45.7835716" lon="9.4413596"><ele>204.0</ele><time>2026-03-29T09:15:15.452Z</time></trkpt><trkpt lat="45.7836544" lon="9.4413361"><ele>204.0</ele><time>2026-03-29T09:15:16.452Z</time></trkpt><trkpt lat="45.7837404" lon="9.4413163"><ele>204.0</ele><time>2026-03-29T09:15:17.476Z</time></trkpt><trkpt lat="45.7838347" lon="9.4413216"><ele>204.0</ele><time>2026-03-29T09:15:18.45Z</time></trkpt><trkpt lat="45.7839257" lon="9.4413315"><ele>204.0</ele><time>2026-03-29T09:15:19.433Z</time></trkpt><trkpt lat="45.7840101" lon="9.4413265"><ele>204.0</ele><time>2026-03-29T09:15:20.444Z</time></trkpt><trkpt lat="45.7840923" lon="9.4413173"><ele>204.0</ele><time>2026-03-29T09:15:21.435Z</time></trkpt><trkpt lat="45.7841774" lon="9.4413182"><ele>204.0</ele><time>2026-03-29T09:15:22.448Z</time></trkpt><trkpt lat="45.784258" lon="9.4413288"><ele>204.0</ele><time>2026-03-29T09:15:23.466Z</time></trkpt><trkpt lat="45.7843489" lon="9.4413479"><ele>204.0</ele><time>2026-03-29T09:15:24.454Z</time></trkpt><trkpt lat="45.7844507" lon="9.4413687"><ele>204.0</ele><time>2026-03-29T09:15:25.448Z</time></trkpt><trkpt lat="45.7845536" lon="9.4413797"><ele>204.6</ele><time>2026-03-29T09:15:26.448Z</time></trkpt><trkpt lat="45.7846599" lon="9.4413877"><ele>205.2</ele><time>2026-03-29T09:15:27.44Z</time></trkpt><trkpt lat="45.7847648" lon="9.4413954"><ele>205.79999999999998</ele><time>2026-03-29T09:15:28.448Z</time></trkpt><trkpt lat="45.7848661" lon="9.441394"><ele>206.39999999999998</ele><time>2026-03-29T09:15:29.443Z</time></trkpt><trkpt lat="45.7849693" lon="9.4413942"><ele>207.0</ele><time>2026-03-29T09:15:30.429Z</time></trkpt><trkpt lat="45.7850674" lon="9.4413929"><ele>207.0</ele><time>2026-03-29T09:15:31.433Z</time></trkpt><trkpt lat="45.7851583" lon="9.4413866"><ele>207.0</ele><time>2026-03-29T09:15:32.429Z</time></trkpt><trkpt lat="45.7852559" lon="9.4413755"><ele>207.0</ele><time>2026-03-29T09:15:33.453Z</time></trkpt><trkpt lat="45.7853627" lon="9.4413673"><ele>207.0</ele><time>2026-03-29T09:15:34.454Z</time></trkpt><trkpt lat="45.7854797" lon="9.441352"><ele>207.0</ele><time>2026-03-29T09:15:35.446Z</time></trkpt><trkpt lat="45.7856022" lon="9.4413255"><ele>206.75</ele><time>2026-03-29T09:15:36.442Z</time></trkpt><trkpt lat="45.7857233" lon="9.4412886"><ele>206.5</ele><time>2026-03-29T09:15:37.489Z</time></trkpt><trkpt lat="45.7858366" lon="9.4412351"><ele>206.25</ele><time>2026-03-29T09:15:38.446Z</time></trkpt><trkpt lat="45.7859424" lon="9.4411679"><ele>206.0</ele><time>2026-03-29T09:15:39.434Z</time></trkpt><trkpt lat="45.7860426" lon="9.4410917"><ele>206.0</ele><time>2026-03-29T09:15:40.434Z</time></trkpt><trkpt lat="45.7861487" lon="9.441012"><ele>206.0</ele><time>2026-03-29T09:15:41.439Z</time></trkpt><trkpt lat="45.7862578" lon="9.4409521"><ele>206.0</ele><time>2026-03-29T09:15:42.458Z</time></trkpt><trkpt lat="45.7863726" lon="9.4409154"><ele>206.0</ele><time>2026-03-29T09:15:43.462Z</time></trkpt><trkpt lat="45.7864895" lon="9.4409088"><ele>206.0</ele><time>2026-03-29T09:15:44.46Z</time></trkpt><trkpt lat="45.7866105" lon="9.4409059"><ele>206.0</ele><time>2026-03-29T09:15:45.452Z</time></trkpt><trkpt lat="45.7867375" lon="9.440904"><ele>206.0</ele><time>2026-03-29T09:15:46.449Z</time></trkpt><trkpt lat="45.7868597" lon="9.4409128"><ele>206.0</ele><time>2026-03-29T09:15:47.43Z</time></trkpt><trkpt lat="45.7869709" lon="9.4409207"><ele>205.60000000000002</ele><time>2026-03-29T09:15:48.447Z</time></trkpt><trkpt lat="45.7870836" lon="9.4409373"><ele>205.2</ele><time>2026-03-29T09:15:49.463Z</time></trkpt><trkpt lat="45.7871907" lon="9.4409357"><ele>204.8</ele><time>2026-03-29T09:15:50.441Z</time></trkpt><trkpt lat="45.7872883" lon="9.440926"><ele>204.39999999999998</ele><time>2026-03-29T09:15:51.455Z</time></trkpt><trkpt lat="45.7873849" lon="9.4409216"><ele>204.0</ele><time>2026-03-29T09:15:52.443Z</time></trkpt><trkpt lat="45.7874656" lon="9.4409136"><ele>204.0</ele><time>2026-03-29T09:15:53.428Z</time></trkpt><trkpt lat="45.7875388" lon="9.4409003"><ele>204.0</ele><time>2026-03-29T09:15:54.435Z</time></trkpt><trkpt lat="45.7876158" lon="9.4408794"><ele>204.0</ele><time>2026-03-29T09:15:55.453Z</time></trkpt><trkpt lat="45.7876895" lon="9.4408707"><ele>204.0</ele><time>2026-03-29T09:15:56.432Z</time></trkpt><trkpt lat="45.787761" lon="9.4408713"><ele>204.0</ele><time>2026-03-29T09:15:57.444Z</time></trkpt><trkpt lat="45.7878377" lon="9.4408616"><ele>204.0</ele><time>2026-03-29T09:15:58.468Z</time></trkpt><trkpt lat="45.7879193" lon="9.4408168"><ele>204.39999999999998</ele><time>2026-03-29T09:15:59.445Z</time></trkpt><trkpt lat="45.7879971" lon="9.4407384"><ele>204.8</ele><time>2026-03-29T09:16:00.432Z</time></trkpt><trkpt lat="45.7880803" lon="9.4406496"><ele>205.2</ele><time>2026-03-29T09:16:01.464Z</time></trkpt><trkpt lat="45.7881809" lon="9.4405769"><ele>205.60000000000002</ele><time>2026-03-29T09:16:02.449Z</time></trkpt><trkpt lat="45.7882975" lon="9.4405198"><ele>206.0</ele><time>2026-03-29T09:16:03.429Z</time></trkpt><trkpt lat="45.7884105" lon="9.4404636"><ele>206.5</ele><time>2026-03-29T09:16:04.448Z</time></trkpt><trkpt lat="45.7885143" lon="9.4404097"><ele>207.0</ele><time>2026-03-29T09:16:05.429Z</time></trkpt><trkpt lat="45.7886198" lon="9.4403546"><ele>207.5</ele><time>2026-03-29T09:16:06.439Z</time></trkpt><trkpt lat="45.7887302" lon="9.4402987"><ele>208.0</ele><time>2026-03-29T09:16:07.441Z</time></trkpt><trkpt lat="45.7888469" lon="9.4402409"><ele>208.0</ele><time>2026-03-29T09:16:08.437Z</time></trkpt><trkpt lat="45.7889696" lon="9.4401792"><ele>208.0</ele><time>2026-03-29T09:16:09.441Z</time></trkpt><trkpt lat="45.7890929" lon="9.4401111"><ele>208.0</ele><time>2026-03-29T09:16:10.444Z</time></trkpt><trkpt lat="45.7892189" lon="9.440045"><ele>208.0</ele><time>2026-03-29T09:16:11.453Z</time></trkpt><trkpt lat="45.7893351" lon="9.4399863"><ele>208.25</ele><time>2026-03-29T09:16:12.449Z</time></trkpt><trkpt lat="45.7894411" lon="9.439931"><ele>208.5</ele><time>2026-03-29T09:16:13.447Z</time></trkpt><trkpt lat="45.7895527" lon="9.4398748"><ele>208.75</ele><time>2026-03-29T09:16:14.453Z</time></trkpt><trkpt lat="45.7896655" lon="9.4398155"><ele>209.0</ele><time>2026-03-29T09:16:15.472Z</time></trkpt><trkpt lat="45.789768" lon="9.4397619"><ele>209.00000000000003</ele><time>2026-03-29T09:16:16.453Z</time></trkpt><trkpt lat="45.7898614" lon="9.4397165"><ele>209.0</ele><time>2026-03-29T09:16:17.444Z</time></trkpt><trkpt lat="45.7899456" lon="9.4396739"><ele>209.0</ele><time>2026-03-29T09:16:18.443Z</time></trkpt><trkpt lat="45.790023" lon="9.4396335"><ele>209.0</ele><time>2026-03-29T09:16:19.466Z</time></trkpt><trkpt lat="45.7900935" lon="9.4396247"><ele>209.00000000000003</ele><time>2026-03-29T09:16:20.46Z</time></trkpt><trkpt lat="45.7901622" lon="9.4396536"><ele>209.0</ele><time>2026-03-29T09:16:21.442Z</time></trkpt><trkpt lat="45.7902284" lon="9.4396858"><ele>210.0</ele><time>2026-03-29T09:16:22.457Z</time></trkpt><trkpt lat="45.7902789" lon="9.4397562"><ele>211.0</ele><time>2026-03-29T09:16:23.47Z</time></trkpt><trkpt lat="45.7903329" lon="9.4398065"><ele>211.99999999999997</ele><time>2026-03-29T09:16:24.462Z</time></trkpt><trkpt lat="45.7904531" lon="9.4397893"><ele>213.0</ele><time>2026-03-29T09:16:26.443Z</time></trkpt><trkpt lat="45.7905129" lon="9.439633"><ele>214.0</ele><time>2026-03-29T09:16:28.466Z</time></trkpt><trkpt lat="45.7905232" lon="9.4395321"><ele>213.99999999999997</ele><time>2026-03-29T09:16:29.455Z</time></trkpt><trkpt lat="45.7905491" lon="9.4394387"><ele>214.0</ele><time>2026-03-29T09:16:30.451Z</time></trkpt><trkpt lat="45.7906024" lon="9.439367"><ele>214.0</ele><time>2026-03-29T09:16:31.442Z</time></trkpt><trkpt lat="45.7906597" lon="9.4392925"><ele>214.0</ele><time>2026-03-29T09:16:32.447Z</time></trkpt><trkpt lat="45.7907547" lon="9.4392475"><ele>213.99999999999997</ele><time>2026-03-29T09:16:33.452Z</time></trkpt><trkpt lat="45.790849" lon="9.4392069"><ele>214.0</ele><time>2026-03-29T09:16:34.438Z</time></trkpt><trkpt lat="45.7909367" lon="9.4391667"><ele>214.39999999999998</ele><time>2026-03-29T09:16:35.435Z</time></trkpt><trkpt lat="45.7910277" lon="9.4391241"><ele>214.79999999999998</ele><time>2026-03-29T09:16:36.446Z</time></trkpt><trkpt lat="45.7911223" lon="9.4390758"><ele>215.20000000000002</ele><time>2026-03-29T09:16:37.446Z</time></trkpt><trkpt lat="45.7912188" lon="9.4390272"><ele>215.60000000000002</ele><time>2026-03-29T09:16:38.442Z</time></trkpt><trkpt lat="45.791317" lon="9.43898"><ele>216.0</ele><time>2026-03-29T09:16:39.433Z</time></trkpt><trkpt lat="45.7914154" lon="9.4389308"><ele>216.0</ele><time>2026-03-29T09:16:40.444Z</time></trkpt><trkpt lat="45.7915118" lon="9.4388825"><ele>216.00000000000003</ele><time>2026-03-29T09:16:41.443Z</time></trkpt><trkpt lat="45.7916063" lon="9.4388351"><ele>216.00000000000003</ele><time>2026-03-29T09:16:42.452Z</time></trkpt><trkpt lat="45.791693" lon="9.4387855"><ele>216.0</ele><time>2026-03-29T09:16:43.445Z</time></trkpt><trkpt lat="45.7917756" lon="9.438727"><ele>216.0</ele><time>2026-03-29T09:16:44.45Z</time></trkpt><trkpt lat="45.7918608" lon="9.438667"><ele>216.33333333333334</ele><time>2026-03-29T09:16:45.464Z</time></trkpt><trkpt lat="45.7919473" lon="9.4385996"><ele>216.66666666666669</ele><time>2026-03-29T09:16:46.46Z</time></trkpt><trkpt lat="45.7920267" lon="9.4385349"><ele>217.0</ele><time>2026-03-29T09:16:47.454Z</time></trkpt><trkpt lat="45.7921004" lon="9.4384784"><ele>217.33333333333334</ele><time>2026-03-29T09:16:48.459Z</time></trkpt><trkpt lat="45.792173" lon="9.4384247"><ele>217.66666666666669</ele><time>2026-03-29T09:16:49.456Z</time></trkpt><trkpt lat="45.7922428" lon="9.4383713"><ele>218.0</ele><time>2026-03-29T09:16:50.445Z</time></trkpt><trkpt lat="45.7923145" lon="9.4383172"><ele>218.00000000000003</ele><time>2026-03-29T09:16:51.447Z</time></trkpt><trkpt lat="45.7923907" lon="9.4382616"><ele>218.0</ele><time>2026-03-29T09:16:52.467Z</time></trkpt><trkpt lat="45.7924662" lon="9.4382028"><ele>218.0</ele><time>2026-03-29T09:16:53.442Z</time></trkpt><trkpt lat="45.7925402" lon="9.4381402"><ele>218.0</ele><time>2026-03-29T09:16:54.466Z</time></trkpt><trkpt lat="45.7926076" lon="9.4380815"><ele>218.00000000000003</ele><time>2026-03-29T09:16:55.442Z</time></trkpt><trkpt lat="45.7926681" lon="9.4380265"><ele>218.0</ele><time>2026-03-29T09:16:56.459Z</time></trkpt><trkpt lat="45.7927255" lon="9.4379696"><ele>218.2</ele><time>2026-03-29T09:16:57.441Z</time></trkpt><trkpt lat="45.7927801" lon="9.4379151"><ele>218.4</ele><time>2026-03-29T09:16:58.497Z</time></trkpt><trkpt lat="45.7928805" lon="9.4378123"><ele>218.59999999999997</ele><time>2026-03-29T09:17:00.441Z</time></trkpt><trkpt lat="45.7929687" lon="9.4377331"><ele>218.79999999999998</ele><time>2026-03-29T09:17:02.441Z</time></trkpt><trkpt lat="45.7930744" lon="9.4376815"><ele>219.0</ele><time>2026-03-29T09:17:04.467Z</time></trkpt><trkpt lat="45.7931388" lon="9.4376303"><ele>219.0</ele><time>2026-03-29T09:17:05.464Z</time></trkpt><trkpt lat="45.793204" lon="9.4375647"><ele>219.0</ele><time>2026-03-29T09:17:06.444Z</time></trkpt><trkpt lat="45.7932689" lon="9.4374995"><ele>219.0</ele><time>2026-03-29T09:17:07.46Z</time></trkpt><trkpt lat="45.7933459" lon="9.4374412"><ele>219.0</ele><time>2026-03-29T09:17:08.458Z</time></trkpt><trkpt lat="45.7934252" lon="9.4373809"><ele>219.0</ele><time>2026-03-29T09:17:09.448Z</time></trkpt><trkpt lat="45.7935059" lon="9.4373281"><ele>219.0</ele><time>2026-03-29T09:17:10.446Z</time></trkpt><trkpt lat="45.7935824" lon="9.4372784"><ele>219.0</ele><time>2026-03-29T09:17:11.427Z</time></trkpt><trkpt lat="45.7936673" lon="9.4372253"><ele>218.99999999999997</ele><time>2026-03-29T09:17:12.45Z</time></trkpt><trkpt lat="45.7937583" lon="9.4371678"><ele>218.99999999999997</ele><time>2026-03-29T09:17:13.443Z</time></trkpt><trkpt lat="45.7938508" lon="9.4370959"><ele>219.0</ele><time>2026-03-29T09:17:14.445Z</time></trkpt><trkpt lat="45.7939417" lon="9.437024"><ele>219.0</ele><time>2026-03-29T09:17:15.432Z</time></trkpt><trkpt lat="45.7940314" lon="9.4369587"><ele>219.0</ele><time>2026-03-29T09:17:16.456Z</time></trkpt><trkpt lat="45.7941239" lon="9.4368855"><ele>218.99999999999997</ele><time>2026-03-29T09:17:17.452Z</time></trkpt><trkpt lat="45.7942189" lon="9.4368059"><ele>218.99999999999997</ele><time>2026-03-29T09:17:18.45Z</time></trkpt><trkpt lat="45.7943127" lon="9.4367324"><ele>219.0</ele><time>2026-03-29T09:17:19.441Z</time></trkpt><trkpt lat="45.7943967" lon="9.4366678"><ele>219.0</ele><time>2026-03-29T09:17:20.437Z</time></trkpt><trkpt lat="45.7944744" lon="9.4366097"><ele>219.39999999999998</ele><time>2026-03-29T09:17:21.428Z</time></trkpt><trkpt lat="45.7945506" lon="9.4365545"><ele>219.79999999999998</ele><time>2026-03-29T09:17:22.44Z</time></trkpt><trkpt lat="45.7946287" lon="9.4364959"><ele>220.20000000000002</ele><time>2026-03-29T09:17:23.438Z</time></trkpt><trkpt lat="45.7947087" lon="9.4364336"><ele>220.60000000000002</ele><time>2026-03-29T09:17:24.443Z</time></trkpt><trkpt lat="45.7947911" lon="9.436371"><ele>221.0</ele><time>2026-03-29T09:17:25.435Z</time></trkpt><trkpt lat="45.7948753" lon="9.4363049"><ele>220.4</ele><time>2026-03-29T09:17:26.457Z</time></trkpt><trkpt lat="45.7949665" lon="9.4362335"><ele>219.8</ele><time>2026-03-29T09:17:27.443Z</time></trkpt><trkpt lat="45.7950618" lon="9.4361613"><ele>219.20000000000002</ele><time>2026-03-29T09:17:28.441Z</time></trkpt><trkpt lat="45.7951531" lon="9.4360911"><ele>218.60000000000002</ele><time>2026-03-29T09:17:29.463Z</time></trkpt><trkpt lat="45.7952357" lon="9.4360263"><ele>218.0</ele><time>2026-03-29T09:17:30.433Z</time></trkpt><trkpt lat="45.7953216" lon="9.4359603"><ele>218.0</ele><time>2026-03-29T09:17:31.451Z</time></trkpt><trkpt lat="45.7954085" lon="9.4358988"><ele>218.0</ele><time>2026-03-29T09:17:32.447Z</time></trkpt><trkpt lat="45.7954925" lon="9.4358365"><ele>218.0</ele><time>2026-03-29T09:17:33.448Z</time></trkpt><trkpt lat="45.7955779" lon="9.4357668"><ele>218.0</ele><time>2026-03-29T09:17:34.423Z</time></trkpt><trkpt lat="45.7956665" lon="9.4356988"><ele>218.0</ele><time>2026-03-29T09:17:35.462Z</time></trkpt><trkpt lat="45.7957543" lon="9.4356287"><ele>218.0</ele><time>2026-03-29T09:17:36.436Z</time></trkpt><trkpt lat="45.7958397" lon="9.4355632"><ele>218.0</ele><time>2026-03-29T09:17:37.446Z</time></trkpt><trkpt lat="45.7959258" lon="9.4354939"><ele>218.0</ele><time>2026-03-29T09:17:38.452Z</time></trkpt><trkpt lat="45.7960155" lon="9.4354228"><ele>218.0</ele><time>2026-03-29T09:17:39.443Z</time></trkpt><trkpt lat="45.7961031" lon="9.4353547"><ele>218.0</ele><time>2026-03-29T09:17:40.431Z</time></trkpt><trkpt lat="45.7961878" lon="9.4352889"><ele>217.4</ele><time>2026-03-29T09:17:41.447Z</time></trkpt><trkpt lat="45.7962735" lon="9.4352251"><ele>216.8</ele><time>2026-03-29T09:17:42.444Z</time></trkpt><trkpt lat="45.79636" lon="9.435157"><ele>216.2</ele><time>2026-03-29T09:17:43.446Z</time></trkpt><trkpt lat="45.796449" lon="9.4350877"><ele>215.6</ele><time>2026-03-29T09:17:44.444Z</time></trkpt><trkpt lat="45.796532" lon="9.4350242"><ele>215.0</ele><time>2026-03-29T09:17:45.433Z</time></trkpt><trkpt lat="45.7966091" lon="9.4349642"><ele>215.0</ele><time>2026-03-29T09:17:46.446Z</time></trkpt><trkpt lat="45.7966887" lon="9.4349024"><ele>215.0</ele><time>2026-03-29T09:17:47.446Z</time></trkpt><trkpt lat="45.7967726" lon="9.4348366"><ele>215.0</ele><time>2026-03-29T09:17:48.452Z</time></trkpt><trkpt lat="45.7968623" lon="9.4347722"><ele>215.0</ele><time>2026-03-29T09:17:49.443Z</time></trkpt><trkpt lat="45.796958" lon="9.4347077"><ele>215.0</ele><time>2026-03-29T09:17:50.476Z</time></trkpt><trkpt lat="45.7970488" lon="9.4346414"><ele>214.16666666666669</ele><time>2026-03-29T09:17:51.436Z</time></trkpt><trkpt lat="45.7971304" lon="9.4345765"><ele>213.33333333333334</ele><time>2026-03-29T09:17:52.441Z</time></trkpt><trkpt lat="45.7972017" lon="9.4345152"><ele>212.5</ele><time>2026-03-29T09:17:53.449Z</time></trkpt><trkpt lat="45.7972617" lon="9.434462"><ele>211.66666666666669</ele><time>2026-03-29T09:17:54.445Z</time></trkpt><trkpt lat="45.7973602" lon="9.4343851"><ele>210.83333333333334</ele><time>2026-03-29T09:17:56.442Z</time></trkpt><trkpt lat="45.7974243" lon="9.4343349"><ele>210.0</ele><time>2026-03-29T09:17:58.444Z</time></trkpt><trkpt lat="45.7974853" lon="9.4342888"><ele>210.0</ele><time>2026-03-29T09:18:01.443Z</time></trkpt><trkpt lat="45.7975605" lon="9.4342338"><ele>210.0</ele><time>2026-03-29T09:18:53.427Z</time></trkpt><trkpt lat="45.7976585" lon="9.4341572"><ele>210.0</ele><time>2026-03-29T09:18:56.446Z</time></trkpt><trkpt lat="45.7977613" lon="9.4340724"><ele>210.0</ele><time>2026-03-29T09:18:58.446Z</time></trkpt><trkpt lat="45.7978557" lon="9.4340001"><ele>210.0</ele><time>2026-03-29T09:19:00.449Z</time></trkpt><trkpt lat="45.7979206" lon="9.4339505"><ele>210.0</ele><time>2026-03-29T09:19:01.445Z</time></trkpt><trkpt lat="45.7979857" lon="9.4338998"><ele>210.0</ele><time>2026-03-29T09:19:02.436Z</time></trkpt><trkpt lat="45.7980562" lon="9.4338478"><ele>210.0</ele><time>2026-03-29T09:19:03.45Z</time></trkpt><trkpt lat="45.7981356" lon="9.4337893"><ele>210.0</ele><time>2026-03-29T09:19:04.449Z</time></trkpt><trkpt lat="45.7982263" lon="9.4337219"><ele>210.0</ele><time>2026-03-29T09:19:05.443Z</time></trkpt><trkpt lat="45.7983098" lon="9.4336524"><ele>210.0</ele><time>2026-03-29T09:19:06.418Z</time></trkpt><trkpt lat="45.7983797" lon="9.4335933"><ele>210.0</ele><time>2026-03-29T09:19:07.445Z</time></trkpt><trkpt lat="45.7984502" lon="9.4335409"><ele>210.0</ele><time>2026-03-29T09:19:08.451Z</time></trkpt><trkpt lat="45.7985109" lon="9.4334942"><ele>210.0</ele><time>2026-03-29T09:19:09.446Z</time></trkpt><trkpt lat="45.7985774" lon="9.433441"><ele>210.0</ele><time>2026-03-29T09:19:10.443Z</time></trkpt><trkpt lat="45.7986515" lon="9.4333815"><ele>210.0</ele><time>2026-03-29T09:19:11.455Z</time></trkpt><trkpt lat="45.7987239" lon="9.4333268"><ele>210.0</ele><time>2026-03-29T09:19:12.443Z</time></trkpt><trkpt lat="45.7987967" lon="9.433272"><ele>210.4</ele><time>2026-03-29T09:19:13.442Z</time></trkpt><trkpt lat="45.7988777" lon="9.4332112"><ele>210.8</ele><time>2026-03-29T09:19:14.445Z</time></trkpt><trkpt lat="45.7989618" lon="9.4331473"><ele>211.2</ele><time>2026-03-29T09:19:15.449Z</time></trkpt><trkpt lat="45.7990447" lon="9.4330827"><ele>211.6</ele><time>2026-03-29T09:19:16.436Z</time></trkpt><trkpt lat="45.7991201" lon="9.4330242"><ele>212.0</ele><time>2026-03-29T09:19:17.436Z</time></trkpt><trkpt lat="45.7991944" lon="9.4329637"><ele>212.16666666666669</ele><time>2026-03-29T09:19:18.449Z</time></trkpt><trkpt lat="45.7992716" lon="9.4329036"><ele>212.33333333333334</ele><time>2026-03-29T09:19:19.446Z</time></trkpt><trkpt lat="45.7993516" lon="9.4328427"><ele>212.5</ele><time>2026-03-29T09:19:20.447Z</time></trkpt><trkpt lat="45.7994298" lon="9.4327827"><ele>212.66666666666669</ele><time>2026-03-29T09:19:21.447Z</time></trkpt><trkpt lat="45.7995032" lon="9.4327233"><ele>212.83333333333334</ele><time>2026-03-29T09:19:22.448Z</time></trkpt><trkpt lat="45.7995766" lon="9.4326629"><ele>213.0</ele><time>2026-03-29T09:19:23.441Z</time></trkpt><trkpt lat="45.7996515" lon="9.4326044"><ele>213.5</ele><time>2026-03-29T09:19:24.44Z</time></trkpt><trkpt lat="45.7997286" lon="9.4325443"><ele>214.0</ele><time>2026-03-29T09:19:25.445Z</time></trkpt><trkpt lat="45.7998068" lon="9.4324869"><ele>214.5</ele><time>2026-03-29T09:19:26.433Z</time></trkpt><trkpt lat="45.7998802" lon="9.4324301"><ele>215.0</ele><time>2026-03-29T09:19:27.442Z</time></trkpt><trkpt lat="45.7999512" lon="9.4323766"><ele>215.5</ele><time>2026-03-29T09:19:28.441Z</time></trkpt><trkpt lat="45.8000181" lon="9.4323258"><ele>216.0</ele><time>2026-03-29T09:19:29.438Z</time></trkpt><trkpt lat="45.8000759" lon="9.4322803"><ele>216.0</ele><time>2026-03-29T09:19:30.448Z</time></trkpt><trkpt lat="45.8001332" lon="9.4322368"><ele>216.0</ele><time>2026-03-29T09:19:31.448Z</time></trkpt><trkpt lat="45.8002291" lon="9.4321621"><ele>216.0</ele><time>2026-03-29T09:19:33.442Z</time></trkpt><trkpt lat="45.8002915" lon="9.4321116"><ele>216.0</ele><time>2026-03-29T09:19:35.441Z</time></trkpt><trkpt lat="45.8003584" lon="9.4320552"><ele>216.0</ele><time>2026-03-29T09:19:38.443Z</time></trkpt><trkpt lat="45.800417" lon="9.4319977"><ele>216.0</ele><time>2026-03-29T09:19:43.46Z</time></trkpt><trkpt lat="45.8004888" lon="9.4319427"><ele>216.33333333333334</ele><time>2026-03-29T09:19:46.435Z</time></trkpt><trkpt lat="45.8005853" lon="9.4318746"><ele>216.66666666666669</ele><time>2026-03-29T09:19:48.439Z</time></trkpt><trkpt lat="45.8006457" lon="9.4318277"><ele>217.0</ele><time>2026-03-29T09:19:49.45Z</time></trkpt><trkpt lat="45.8007095" lon="9.4317779"><ele>217.33333333333334</ele><time>2026-03-29T09:19:50.44Z</time></trkpt><trkpt lat="45.800772" lon="9.4317273"><ele>217.66666666666669</ele><time>2026-03-29T09:19:51.449Z</time></trkpt><trkpt lat="45.8008312" lon="9.4316805"><ele>218.0</ele><time>2026-03-29T09:19:52.443Z</time></trkpt><trkpt lat="45.8008943" lon="9.4316314"><ele>218.00000000000003</ele><time>2026-03-29T09:19:53.479Z</time></trkpt><trkpt lat="45.8009622" lon="9.4315735"><ele>218.0</ele><time>2026-03-29T09:19:54.447Z</time></trkpt><trkpt lat="45.8010328" lon="9.4314954"><ele>218.0</ele><time>2026-03-29T09:19:55.452Z</time></trkpt><trkpt lat="45.8011059" lon="9.4314219"><ele>218.0</ele><time>2026-03-29T09:19:56.44Z</time></trkpt><trkpt lat="45.8011738" lon="9.4313453"><ele>218.00000000000003</ele><time>2026-03-29T09:19:57.443Z</time></trkpt><trkpt lat="45.8012372" lon="9.4312693"><ele>218.0</ele><time>2026-03-29T09:19:58.453Z</time></trkpt><trkpt lat="45.8013" lon="9.4311913"><ele>218.00000000000003</ele><time>2026-03-29T09:19:59.425Z</time></trkpt><trkpt lat="45.8013642" lon="9.4311117"><ele>218.0</ele><time>2026-03-29T09:20:00.437Z</time></trkpt><trkpt lat="45.8014248" lon="9.4310341"><ele>218.0</ele><time>2026-03-29T09:20:01.444Z</time></trkpt><trkpt lat="45.8014795" lon="9.4309655"><ele>218.0</ele><time>2026-03-29T09:20:02.441Z</time></trkpt><trkpt lat="45.8015288" lon="9.4309015"><ele>218.00000000000003</ele><time>2026-03-29T09:20:03.447Z</time></trkpt><trkpt lat="45.8015825" lon="9.4308328"><ele>218.0</ele><time>2026-03-29T09:20:04.434Z</time></trkpt><trkpt lat="45.8016384" lon="9.4307569"><ele>218.00000000000003</ele><time>2026-03-29T09:20:05.443Z</time></trkpt><trkpt lat="45.8016952" lon="9.4306743"><ele>218.0</ele><time>2026-03-29T09:20:06.439Z</time></trkpt><trkpt lat="45.8017521" lon="9.4305841"><ele>218.0</ele><time>2026-03-29T09:20:07.426Z</time></trkpt><trkpt lat="45.8018094" lon="9.4304881"><ele>218.0</ele><time>2026-03-29T09:20:08.426Z</time></trkpt><trkpt lat="45.8018683" lon="9.4303896"><ele>218.00000000000003</ele><time>2026-03-29T09:20:09.445Z</time></trkpt><trkpt lat="45.8019288" lon="9.4302887"><ele>218.0</ele><time>2026-03-29T09:20:10.432Z</time></trkpt><trkpt lat="45.8019907" lon="9.4301842"><ele>217.83333333333334</ele><time>2026-03-29T09:20:11.439Z</time></trkpt><trkpt lat="45.8020482" lon="9.4300819"><ele>217.66666666666669</ele><time>2026-03-29T09:20:12.436Z</time></trkpt><trkpt lat="45.8021014" lon="9.4299883"><ele>217.5</ele><time>2026-03-29T09:20:13.434Z</time></trkpt><trkpt lat="45.8021514" lon="9.4299025"><ele>217.33333333333331</ele><time>2026-03-29T09:20:14.434Z</time></trkpt><trkpt lat="45.8022031" lon="9.4298129"><ele>217.16666666666666</ele><time>2026-03-29T09:20:15.435Z</time></trkpt><trkpt lat="45.802257" lon="9.4297199"><ele>217.0</ele><time>2026-03-29T09:20:16.442Z</time></trkpt><trkpt lat="45.8023138" lon="9.4296221"><ele>216.99999999999997</ele><time>2026-03-29T09:20:17.438Z</time></trkpt><trkpt lat="45.8023711" lon="9.42952"><ele>217.0</ele><time>2026-03-29T09:20:18.447Z</time></trkpt><trkpt lat="45.8024246" lon="9.4294249"><ele>217.0</ele><time>2026-03-29T09:20:19.444Z</time></trkpt><trkpt lat="45.8024735" lon="9.4293376"><ele>217.0</ele><time>2026-03-29T09:20:20.452Z</time></trkpt><trkpt lat="45.8025207" lon="9.4292523"><ele>216.99999999999997</ele><time>2026-03-29T09:20:21.436Z</time></trkpt><trkpt lat="45.8025715" lon="9.4291576"><ele>217.0</ele><time>2026-03-29T09:20:22.441Z</time></trkpt><trkpt lat="45.8026262" lon="9.429048"><ele>218.2</ele><time>2026-03-29T09:20:23.44Z</time></trkpt><trkpt lat="45.8026849" lon="9.4289331"><ele>219.39999999999998</ele><time>2026-03-29T09:20:24.445Z</time></trkpt><trkpt lat="45.8027415" lon="9.4288205"><ele>220.60000000000002</ele><time>2026-03-29T09:20:25.443Z</time></trkpt><trkpt lat="45.8028008" lon="9.4287125"><ele>221.8</ele><time>2026-03-29T09:20:26.428Z</time></trkpt><trkpt lat="45.8028608" lon="9.4286037"><ele>223.0</ele><time>2026-03-29T09:20:27.433Z</time></trkpt><trkpt lat="45.8029254" lon="9.4284878"><ele>223.0</ele><time>2026-03-29T09:20:28.433Z</time></trkpt><trkpt lat="45.8029873" lon="9.42838"><ele>223.0</ele><time>2026-03-29T09:20:29.435Z</time></trkpt><trkpt lat="45.8030462" lon="9.4282815"><ele>223.0</ele><time>2026-03-29T09:20:30.456Z</time></trkpt><trkpt lat="45.8031064" lon="9.4281815"><ele>223.0</ele><time>2026-03-29T09:20:31.456Z</time></trkpt><trkpt lat="45.8031704" lon="9.42807"><ele>223.0</ele><time>2026-03-29T09:20:32.453Z</time></trkpt><trkpt lat="45.8032362" lon="9.4279607"><ele>224.0</ele><time>2026-03-29T09:20:33.47Z</time></trkpt><trkpt lat="45.803309" lon="9.427839"><ele>225.0</ele><time>2026-03-29T09:20:34.471Z</time></trkpt><trkpt lat="45.8033831" lon="9.4277118"><ele>226.0</ele><time>2026-03-29T09:20:35.452Z</time></trkpt><trkpt lat="45.8034591" lon="9.4275851"><ele>227.0</ele><time>2026-03-29T09:20:36.44Z</time></trkpt><trkpt lat="45.803537" lon="9.4274629"><ele>227.0</ele><time>2026-03-29T09:20:37.446Z</time></trkpt><trkpt lat="45.803615" lon="9.4273514"><ele>227.0</ele><time>2026-03-29T09:20:38.452Z</time></trkpt><trkpt lat="45.8036887" lon="9.4272585"><ele>227.0</ele><time>2026-03-29T09:20:39.441Z</time></trkpt><trkpt lat="45.8037517" lon="9.4271806"><ele>227.0</ele><time>2026-03-29T09:20:40.458Z</time></trkpt><trkpt lat="45.8038138" lon="9.4271041"><ele>227.0</ele><time>2026-03-29T09:20:41.467Z</time></trkpt><trkpt lat="45.8038754" lon="9.4270355"><ele>225.2</ele><time>2026-03-29T09:20:42.453Z</time></trkpt><trkpt lat="45.8039374" lon="9.4269669"><ele>223.39999999999998</ele><time>2026-03-29T09:20:43.446Z</time></trkpt><trkpt lat="45.8039969" lon="9.4269169"><ele>221.60000000000002</ele><time>2026-03-29T09:20:44.46Z</time></trkpt><trkpt lat="45.8041006" lon="9.4268439"><ele>219.8</ele><time>2026-03-29T09:20:46.452Z</time></trkpt><trkpt lat="45.8042085" lon="9.4267617"><ele>218.0</ele><time>2026-03-29T09:20:48.47Z</time></trkpt><trkpt lat="45.804267" lon="9.4267108"><ele>219.2</ele><time>2026-03-29T09:20:49.437Z</time></trkpt><trkpt lat="45.804361" lon="9.4266316"><ele>220.4</ele><time>2026-03-29T09:20:51.472Z</time></trkpt><trkpt lat="45.8044762" lon="9.4265737"><ele>221.59999999999997</ele><time>2026-03-29T09:20:53.516Z</time></trkpt><trkpt lat="45.804549" lon="9.426533"><ele>222.79999999999998</ele><time>2026-03-29T09:20:54.435Z</time></trkpt><trkpt lat="45.8046178" lon="9.4264706"><ele>224.0</ele><time>2026-03-29T09:20:55.448Z</time></trkpt><trkpt lat="45.8046904" lon="9.4264038"><ele>224.00000000000003</ele><time>2026-03-29T09:20:56.489Z</time></trkpt><trkpt lat="45.8047666" lon="9.426335"><ele>224.0</ele><time>2026-03-29T09:20:57.437Z</time></trkpt><trkpt lat="45.8048418" lon="9.4262635"><ele>224.0</ele><time>2026-03-29T09:20:58.433Z</time></trkpt><trkpt lat="45.8049126" lon="9.4262003"><ele>224.0</ele><time>2026-03-29T09:20:59.46Z</time></trkpt><trkpt lat="45.804979" lon="9.4261463"><ele>224.00000000000003</ele><time>2026-03-29T09:21:00.432Z</time></trkpt><trkpt lat="45.805046" lon="9.4260922"><ele>224.0</ele><time>2026-03-29T09:21:01.447Z</time></trkpt><trkpt lat="45.8051138" lon="9.4260401"><ele>223.66666666666669</ele><time>2026-03-29T09:21:02.449Z</time></trkpt><trkpt lat="45.805185" lon="9.4259849"><ele>223.33333333333334</ele><time>2026-03-29T09:21:03.444Z</time></trkpt><trkpt lat="45.8052612" lon="9.4259232"><ele>223.0</ele><time>2026-03-29T09:21:04.459Z</time></trkpt><trkpt lat="45.8053368" lon="9.4258618"><ele>222.66666666666669</ele><time>2026-03-29T09:21:05.449Z</time></trkpt><trkpt lat="45.8054092" lon="9.4258049"><ele>222.33333333333334</ele><time>2026-03-29T09:21:06.446Z</time></trkpt><trkpt lat="45.8054804" lon="9.4257487"><ele>222.0</ele><time>2026-03-29T09:21:07.435Z</time></trkpt><trkpt lat="45.8055446" lon="9.4256967"><ele>222.0</ele><time>2026-03-29T09:21:08.449Z</time></trkpt><trkpt lat="45.8056071" lon="9.4256485"><ele>222.0</ele><time>2026-03-29T09:21:09.443Z</time></trkpt><trkpt lat="45.8056717" lon="9.4256"><ele>222.0</ele><time>2026-03-29T09:21:10.443Z</time></trkpt><trkpt lat="45.805743" lon="9.4255443"><ele>222.0</ele><time>2026-03-29T09:21:11.451Z</time></trkpt><trkpt lat="45.8058207" lon="9.4254824"><ele>222.0</ele><time>2026-03-29T09:21:12.442Z</time></trkpt><trkpt lat="45.8058975" lon="9.4254247"><ele>222.0</ele><time>2026-03-29T09:21:13.44Z</time></trkpt><trkpt lat="45.8059696" lon="9.4253706"><ele>222.33333333333334</ele><time>2026-03-29T09:21:14.446Z</time></trkpt><trkpt lat="45.8060466" lon="9.4253103"><ele>222.66666666666669</ele><time>2026-03-29T09:21:15.455Z</time></trkpt><trkpt lat="45.8061157" lon="9.4252552"><ele>223.0</ele><time>2026-03-29T09:21:16.439Z</time></trkpt><trkpt lat="45.8062065" lon="9.4251854"><ele>223.33333333333334</ele><time>2026-03-29T09:21:18.444Z</time></trkpt><trkpt lat="45.8062767" lon="9.4251407"><ele>223.66666666666669</ele><time>2026-03-29T09:21:20.452Z</time></trkpt><trkpt lat="45.8063436" lon="9.4250939"><ele>224.0</ele><time>2026-03-29T09:21:23.45Z</time></trkpt><trkpt lat="45.8063989" lon="9.4250484"><ele>224.00000000000003</ele><time>2026-03-29T09:21:25.447Z</time></trkpt><trkpt lat="45.8064964" lon="9.4249715"><ele>224.0</ele><time>2026-03-29T09:21:27.456Z</time></trkpt><trkpt lat="45.8065533" lon="9.4249206"><ele>224.0</ele><time>2026-03-29T09:21:28.444Z</time></trkpt><trkpt lat="45.8066131" lon="9.4248662"><ele>224.0</ele><time>2026-03-29T09:21:29.449Z</time></trkpt><trkpt lat="45.8066717" lon="9.4248182"><ele>224.00000000000003</ele><time>2026-03-29T09:21:30.449Z</time></trkpt><trkpt lat="45.8067291" lon="9.4247716"><ele>224.0</ele><time>2026-03-29T09:21:31.444Z</time></trkpt><trkpt lat="45.8067906" lon="9.424722"><ele>224.16666666666669</ele><time>2026-03-29T09:21:32.454Z</time></trkpt><trkpt lat="45.8068596" lon="9.4246619"><ele>224.33333333333334</ele><time>2026-03-29T09:21:33.452Z</time></trkpt><trkpt lat="45.8069331" lon="9.4245998"><ele>224.5</ele><time>2026-03-29T09:21:34.444Z</time></trkpt><trkpt lat="45.8070119" lon="9.424533"><ele>224.66666666666669</ele><time>2026-03-29T09:21:35.458Z</time></trkpt><trkpt lat="45.8070979" lon="9.4244728"><ele>224.83333333333334</ele><time>2026-03-29T09:21:36.459Z</time></trkpt><trkpt lat="45.8071821" lon="9.4244175"><ele>225.0</ele><time>2026-03-29T09:21:37.432Z</time></trkpt><trkpt lat="45.8072677" lon="9.4243437"><ele>225.0</ele><time>2026-03-29T09:21:38.445Z</time></trkpt><trkpt lat="45.8073622" lon="9.4242774"><ele>225.0</ele><time>2026-03-29T09:21:39.444Z</time></trkpt><trkpt lat="45.8074614" lon="9.4242308"><ele>225.0</ele><time>2026-03-29T09:21:40.449Z</time></trkpt><trkpt lat="45.8075583" lon="9.4241929"><ele>225.0</ele><time>2026-03-29T09:21:41.442Z</time></trkpt><trkpt lat="45.8076542" lon="9.4241614"><ele>225.0</ele><time>2026-03-29T09:21:42.467Z</time></trkpt><trkpt lat="45.8077524" lon="9.4241287"><ele>225.5</ele><time>2026-03-29T09:21:43.447Z</time></trkpt><trkpt lat="45.8078445" lon="9.4240954"><ele>226.0</ele><time>2026-03-29T09:21:44.442Z</time></trkpt><trkpt lat="45.8079131" lon="9.424074"><ele>226.5</ele><time>2026-03-29T09:21:45.448Z</time></trkpt><trkpt lat="45.8079999" lon="9.4240508"><ele>227.0</ele><time>2026-03-29T09:21:47.438Z</time></trkpt><trkpt lat="45.8080852" lon="9.4240253"><ele>227.5</ele><time>2026-03-29T09:21:56.453Z</time></trkpt><trkpt lat="45.8081607" lon="9.4240005"><ele>228.0</ele><time>2026-03-29T09:21:58.458Z</time></trkpt><trkpt lat="45.8082286" lon="9.4239802"><ele>228.0</ele><time>2026-03-29T09:22:00.447Z</time></trkpt><trkpt lat="45.8083323" lon="9.4239446"><ele>228.0</ele><time>2026-03-29T09:22:02.44Z</time></trkpt><trkpt lat="45.8084038" lon="9.4239154"><ele>228.0</ele><time>2026-03-29T09:22:03.448Z</time></trkpt><trkpt lat="45.8084732" lon="9.4238942"><ele>228.0</ele><time>2026-03-29T09:22:04.443Z</time></trkpt><trkpt lat="45.8085366" lon="9.4238733"><ele>228.0</ele><time>2026-03-29T09:22:05.447Z</time></trkpt><trkpt lat="45.8086088" lon="9.4238497"><ele>228.0</ele><time>2026-03-29T09:22:06.452Z</time></trkpt><trkpt lat="45.8086884" lon="9.4238241"><ele>227.2</ele><time>2026-03-29T09:22:07.465Z</time></trkpt><trkpt lat="45.8087767" lon="9.423794"><ele>226.4</ele><time>2026-03-29T09:22:08.437Z</time></trkpt><trkpt lat="45.8088717" lon="9.4237652"><ele>225.59999999999997</ele><time>2026-03-29T09:22:09.443Z</time></trkpt><trkpt lat="45.8089595" lon="9.4237405"><ele>224.79999999999998</ele><time>2026-03-29T09:22:10.432Z</time></trkpt><trkpt lat="45.8090492" lon="9.4237196"><ele>224.0</ele><time>2026-03-29T09:22:11.442Z</time></trkpt><trkpt lat="45.8091432" lon="9.4237027"><ele>224.0</ele><time>2026-03-29T09:22:12.48Z</time></trkpt><trkpt lat="45.8092404" lon="9.4236917"><ele>223.99999999999997</ele><time>2026-03-29T09:22:13.441Z</time></trkpt><trkpt lat="45.8093355" lon="9.4236886"><ele>223.99999999999997</ele><time>2026-03-29T09:22:14.439Z</time></trkpt><trkpt lat="45.8094351" lon="9.4236937"><ele>224.0</ele><time>2026-03-29T09:22:15.439Z</time></trkpt><trkpt lat="45.8095368" lon="9.4237104"><ele>224.0</ele><time>2026-03-29T09:22:16.433Z</time></trkpt><trkpt lat="45.8096371" lon="9.4237301"><ele>223.66666666666669</ele><time>2026-03-29T09:22:17.423Z</time></trkpt><trkpt lat="45.809728" lon="9.4237515"><ele>223.33333333333334</ele><time>2026-03-29T09:22:18.453Z</time></trkpt><trkpt lat="45.809814" lon="9.4237719"><ele>223.0</ele><time>2026-03-29T09:22:19.445Z</time></trkpt><trkpt lat="45.8098935" lon="9.4237933"><ele>222.66666666666669</ele><time>2026-03-29T09:22:20.436Z</time></trkpt><trkpt lat="45.8099704" lon="9.4238163"><ele>222.33333333333334</ele><time>2026-03-29T09:22:21.43Z</time></trkpt><trkpt lat="45.8100485" lon="9.4238411"><ele>222.0</ele><time>2026-03-29T09:22:22.441Z</time></trkpt><trkpt lat="45.8101303" lon="9.4238676"><ele>222.66666666666666</ele><time>2026-03-29T09:22:23.428Z</time></trkpt><trkpt lat="45.8102145" lon="9.4238917"><ele>223.33333333333331</ele><time>2026-03-29T09:22:24.45Z</time></trkpt><trkpt lat="45.8102976" lon="9.4239168"><ele>224.0</ele><time>2026-03-29T09:22:25.439Z</time></trkpt><trkpt lat="45.8103792" lon="9.4239438"><ele>224.66666666666666</ele><time>2026-03-29T09:22:26.439Z</time></trkpt><trkpt lat="45.8104676" lon="9.4239719"><ele>225.33333333333331</ele><time>2026-03-29T09:22:27.439Z</time></trkpt><trkpt lat="45.8105483" lon="9.4239952"><ele>226.0</ele><time>2026-03-29T09:22:28.434Z</time></trkpt><trkpt lat="45.8106243" lon="9.4240197"><ele>225.99999999999997</ele><time>2026-03-29T09:22:29.449Z</time></trkpt><trkpt lat="45.8106986" lon="9.4240398"><ele>226.0</ele><time>2026-03-29T09:22:30.435Z</time></trkpt><trkpt lat="45.8107745" lon="9.4240585"><ele>226.0</ele><time>2026-03-29T09:22:31.446Z</time></trkpt><trkpt lat="45.8108498" lon="9.4240813"><ele>226.0</ele><time>2026-03-29T09:22:32.451Z</time></trkpt><trkpt lat="45.8109273" lon="9.4241011"><ele>225.99999999999997</ele><time>2026-03-29T09:22:33.435Z</time></trkpt><trkpt lat="45.8110053" lon="9.4241176"><ele>226.0</ele><time>2026-03-29T09:22:34.456Z</time></trkpt><trkpt lat="45.8110756" lon="9.424135"><ele>225.16666666666666</ele><time>2026-03-29T09:22:35.442Z</time></trkpt><trkpt lat="45.8111385" lon="9.4241535"><ele>224.33333333333331</ele><time>2026-03-29T09:22:36.445Z</time></trkpt><trkpt lat="45.8112464" lon="9.4241845"><ele>223.5</ele><time>2026-03-29T09:22:38.429Z</time></trkpt><trkpt lat="45.8113301" lon="9.4242117"><ele>222.66666666666669</ele><time>2026-03-29T09:22:40.441Z</time></trkpt><trkpt lat="45.8114015" lon="9.4242344"><ele>221.83333333333334</ele><time>2026-03-29T09:22:42.457Z</time></trkpt><trkpt lat="45.8114627" lon="9.4242712"><ele>221.0</ele><time>2026-03-29T09:22:59.437Z</time></trkpt><trkpt lat="45.8115695" lon="9.4242962"><ele>221.00000000000003</ele><time>2026-03-29T09:23:01.44Z</time></trkpt><trkpt lat="45.8116471" lon="9.4243106"><ele>221.0</ele><time>2026-03-29T09:23:02.444Z</time></trkpt><trkpt lat="45.8117199" lon="9.4243241"><ele>221.0</ele><time>2026-03-29T09:23:03.439Z</time></trkpt><trkpt lat="45.8117884" lon="9.4243319"><ele>221.0</ele><time>2026-03-29T09:23:04.442Z</time></trkpt><trkpt lat="45.8118574" lon="9.4243315"><ele>221.00000000000003</ele><time>2026-03-29T09:23:05.452Z</time></trkpt><trkpt lat="45.8119727" lon="9.4243201"><ele>221.0</ele><time>2026-03-29T09:23:07.446Z</time></trkpt><trkpt lat="45.8120844" lon="9.4242943"><ele>221.33333333333334</ele><time>2026-03-29T09:23:09.441Z</time></trkpt><trkpt lat="45.8121645" lon="9.4242648"><ele>221.66666666666669</ele><time>2026-03-29T09:23:10.433Z</time></trkpt><trkpt lat="45.8122565" lon="9.424227"><ele>222.0</ele><time>2026-03-29T09:23:11.447Z</time></trkpt><trkpt lat="45.812348" lon="9.424189"><ele>222.33333333333331</ele><time>2026-03-29T09:23:12.443Z</time></trkpt><trkpt lat="45.8124307" lon="9.4241543"><ele>222.66666666666666</ele><time>2026-03-29T09:23:13.434Z</time></trkpt><trkpt lat="45.8125144" lon="9.424119"><ele>223.0</ele><time>2026-03-29T09:23:14.459Z</time></trkpt><trkpt lat="45.812603" lon="9.4240809"><ele>223.2</ele><time>2026-03-29T09:23:15.433Z</time></trkpt><trkpt lat="45.8126938" lon="9.4240399"><ele>223.4</ele><time>2026-03-29T09:23:16.434Z</time></trkpt><trkpt lat="45.8127804" lon="9.4240028"><ele>223.59999999999997</ele><time>2026-03-29T09:23:17.438Z</time></trkpt><trkpt lat="45.8128697" lon="9.4239647"><ele>223.79999999999998</ele><time>2026-03-29T09:23:18.441Z</time></trkpt><trkpt lat="45.8129616" lon="9.4239235"><ele>224.0</ele><time>2026-03-29T09:23:19.442Z</time></trkpt><trkpt lat="45.8130581" lon="9.4238808"><ele>224.0</ele><time>2026-03-29T09:23:20.443Z</time></trkpt><trkpt lat="45.8131566" lon="9.4238392"><ele>223.99999999999997</ele><time>2026-03-29T09:23:21.443Z</time></trkpt><trkpt lat="45.8132587" lon="9.4237961"><ele>223.99999999999997</ele><time>2026-03-29T09:23:22.443Z</time></trkpt><trkpt lat="45.8133566" lon="9.423757"><ele>224.0</ele><time>2026-03-29T09:23:23.438Z</time></trkpt><trkpt lat="45.8134489" lon="9.423716"><ele>224.0</ele><time>2026-03-29T09:23:24.443Z</time></trkpt><trkpt lat="45.8135435" lon="9.4236751"><ele>223.39999999999998</ele><time>2026-03-29T09:23:25.443Z</time></trkpt><trkpt lat="45.8136405" lon="9.4236314"><ele>222.79999999999998</ele><time>2026-03-29T09:23:26.44Z</time></trkpt><trkpt lat="45.8137399" lon="9.4235864"><ele>222.20000000000002</ele><time>2026-03-29T09:23:27.435Z</time></trkpt><trkpt lat="45.8138327" lon="9.4235445"><ele>221.60000000000002</ele><time>2026-03-29T09:23:28.432Z</time></trkpt><trkpt lat="45.8139266" lon="9.423503"><ele>221.0</ele><time>2026-03-29T09:23:29.447Z</time></trkpt><trkpt lat="45.8140184" lon="9.4234364"><ele>221.0</ele><time>2026-03-29T09:23:30.461Z</time></trkpt><trkpt lat="45.8141121" lon="9.4233671"><ele>221.0</ele><time>2026-03-29T09:23:31.44Z</time></trkpt><trkpt lat="45.8141969" lon="9.4232552"><ele>221.0</ele><time>2026-03-29T09:23:32.426Z</time></trkpt><trkpt lat="45.8142771" lon="9.4231271"><ele>221.0</ele><time>2026-03-29T09:23:33.449Z</time></trkpt><trkpt lat="45.814352" lon="9.4230023"><ele>224.5</ele><time>2026-03-29T09:23:34.441Z</time></trkpt><trkpt lat="45.8144196" lon="9.4228662"><ele>228.0</ele><time>2026-03-29T09:23:35.454Z</time></trkpt><trkpt lat="45.8144874" lon="9.4227316"><ele>231.5</ele><time>2026-03-29T09:23:36.444Z</time></trkpt><trkpt lat="45.814555" lon="9.4225976"><ele>235.0</ele><time>2026-03-29T09:23:37.444Z</time></trkpt><trkpt lat="45.8146233" lon="9.4224728"><ele>235.0</ele><time>2026-03-29T09:23:38.433Z</time></trkpt><trkpt lat="45.8146927" lon="9.4223579"><ele>235.0</ele><time>2026-03-29T09:23:39.45Z</time></trkpt><trkpt lat="45.81477" lon="9.4222466"><ele>235.0</ele><time>2026-03-29T09:23:40.439Z</time></trkpt><trkpt lat="45.8148504" lon="9.4221325"><ele>235.0</ele><time>2026-03-29T09:23:41.444Z</time></trkpt><trkpt lat="45.8149559" lon="9.4220243"><ele>233.25</ele><time>2026-03-29T09:23:42.439Z</time></trkpt><trkpt lat="45.8150605" lon="9.4219161"><ele>231.5</ele><time>2026-03-29T09:23:43.446Z</time></trkpt><trkpt lat="45.8151578" lon="9.4218183"><ele>229.75</ele><time>2026-03-29T09:23:44.447Z</time></trkpt><trkpt lat="45.8152535" lon="9.4217193"><ele>228.0</ele><time>2026-03-29T09:23:45.438Z</time></trkpt><trkpt lat="45.8153543" lon="9.4216166"><ele>228.0</ele><time>2026-03-29T09:23:46.432Z</time></trkpt><trkpt lat="45.8154511" lon="9.4215177"><ele>228.0</ele><time>2026-03-29T09:23:47.439Z</time></trkpt><trkpt lat="45.8155413" lon="9.4214235"><ele>228.0</ele><time>2026-03-29T09:23:48.443Z</time></trkpt><trkpt lat="45.8156309" lon="9.4213292"><ele>228.0</ele><time>2026-03-29T09:23:49.45Z</time></trkpt><trkpt lat="45.8157309" lon="9.4212219"><ele>225.75</ele><time>2026-03-29T09:23:50.441Z</time></trkpt><trkpt lat="45.8158339" lon="9.421105"><ele>223.5</ele><time>2026-03-29T09:23:51.444Z</time></trkpt><trkpt lat="45.8159308" lon="9.4209923"><ele>221.25</ele><time>2026-03-29T09:23:52.45Z</time></trkpt><trkpt lat="45.8160183" lon="9.4208739"><ele>219.0</ele><time>2026-03-29T09:23:53.435Z</time></trkpt><trkpt lat="45.8161054" lon="9.4207567"><ele>219.0</ele><time>2026-03-29T09:23:54.44Z</time></trkpt><trkpt lat="45.8161908" lon="9.4206497"><ele>218.99999999999997</ele><time>2026-03-29T09:23:55.469Z</time></trkpt><trkpt lat="45.8162744" lon="9.4205453"><ele>218.99999999999997</ele><time>2026-03-29T09:23:56.431Z</time></trkpt><trkpt lat="45.8163581" lon="9.4204375"><ele>219.0</ele><time>2026-03-29T09:23:57.454Z</time></trkpt><trkpt lat="45.8164354" lon="9.420337"><ele>219.0</ele><time>2026-03-29T09:23:58.444Z</time></trkpt><trkpt lat="45.8165073" lon="9.4202408"><ele>219.0</ele><time>2026-03-29T09:23:59.446Z</time></trkpt><trkpt lat="45.8165843" lon="9.4201406"><ele>218.99999999999997</ele><time>2026-03-29T09:24:00.435Z</time></trkpt><trkpt lat="45.8166574" lon="9.4200457"><ele>218.99999999999997</ele><time>2026-03-29T09:24:01.44Z</time></trkpt><trkpt lat="45.8167281" lon="9.4199558"><ele>219.0</ele><time>2026-03-29T09:24:02.45Z</time></trkpt><trkpt lat="45.8168024" lon="9.4198627"><ele>219.0</ele><time>2026-03-29T09:24:03.449Z</time></trkpt><trkpt lat="45.8168825" lon="9.4197615"><ele>219.0</ele><time>2026-03-29T09:24:04.431Z</time></trkpt><trkpt lat="45.8169683" lon="9.4196537"><ele>219.0</ele><time>2026-03-29T09:24:05.457Z</time></trkpt><trkpt lat="45.8170563" lon="9.4195428"><ele>219.0</ele><time>2026-03-29T09:24:06.441Z</time></trkpt><trkpt lat="45.8171502" lon="9.4194417"><ele>219.0</ele><time>2026-03-29T09:24:07.433Z</time></trkpt><trkpt lat="45.8172424" lon="9.4193568"><ele>217.6</ele><time>2026-03-29T09:24:08.445Z</time></trkpt><trkpt lat="45.8173387" lon="9.419273"><ele>216.2</ele><time>2026-03-29T09:24:09.436Z</time></trkpt><trkpt lat="45.8174319" lon="9.419193"><ele>214.79999999999998</ele><time>2026-03-29T09:24:10.442Z</time></trkpt><trkpt lat="45.8175251" lon="9.419138"><ele>213.39999999999998</ele><time>2026-03-29T09:24:11.49Z</time></trkpt><trkpt lat="45.8176207" lon="9.4190925"><ele>212.0</ele><time>2026-03-29T09:24:12.438Z</time></trkpt><trkpt lat="45.8177113" lon="9.4190437"><ele>212.0</ele><time>2026-03-29T09:24:13.438Z</time></trkpt><trkpt lat="45.8177969" lon="9.419006"><ele>212.0</ele><time>2026-03-29T09:24:14.44Z</time></trkpt><trkpt lat="45.817883" lon="9.4189804"><ele>212.0</ele><time>2026-03-29T09:24:15.45Z</time></trkpt><trkpt lat="45.8179762" lon="9.4189628"><ele>212.0</ele><time>2026-03-29T09:24:16.445Z</time></trkpt><trkpt lat="45.8180698" lon="9.4189466"><ele>212.0</ele><time>2026-03-29T09:24:17.44Z</time></trkpt><trkpt lat="45.8181638" lon="9.4189348"><ele>212.00000000000003</ele><time>2026-03-29T09:24:18.451Z</time></trkpt><trkpt lat="45.8182511" lon="9.4189321"><ele>212.0</ele><time>2026-03-29T09:24:19.456Z</time></trkpt><trkpt lat="45.8183402" lon="9.4189401"><ele>212.0</ele><time>2026-03-29T09:24:20.441Z</time></trkpt><trkpt lat="45.8184403" lon="9.4189494"><ele>212.0</ele><time>2026-03-29T09:24:21.448Z</time></trkpt><trkpt lat="45.8185273" lon="9.4189592"><ele>212.00000000000003</ele><time>2026-03-29T09:24:22.448Z</time></trkpt><trkpt lat="45.8186077" lon="9.4189722"><ele>212.0</ele><time>2026-03-29T09:24:23.44Z</time></trkpt><trkpt lat="45.8186762" lon="9.4189832"><ele>211.85714285714286</ele><time>2026-03-29T09:24:24.462Z</time></trkpt><trkpt lat="45.8187401" lon="9.4189887"><ele>211.7142857142857</ele><time>2026-03-29T09:24:25.444Z</time></trkpt><trkpt lat="45.8188609" lon="9.4189843"><ele>211.57142857142856</ele><time>2026-03-29T09:24:27.445Z</time></trkpt><trkpt lat="45.8189246" lon="9.4189763"><ele>211.42857142857144</ele><time>2026-03-29T09:24:28.466Z</time></trkpt><trkpt lat="45.8189883" lon="9.4189651"><ele>211.28571428571428</ele><time>2026-03-29T09:24:29.445Z</time></trkpt><trkpt lat="45.8190537" lon="9.4189577"><ele>211.14285714285714</ele><time>2026-03-29T09:24:30.44Z</time></trkpt><trkpt lat="45.819117" lon="9.4189582"><ele>211.0</ele><time>2026-03-29T09:24:31.454Z</time></trkpt><trkpt lat="45.819233" lon="9.4189742"><ele>211.0</ele><time>2026-03-29T09:24:33.435Z</time></trkpt><trkpt lat="45.8193442" lon="9.4189568"><ele>211.0</ele><time>2026-03-29T09:24:35.446Z</time></trkpt><trkpt lat="45.8194819" lon="9.4189397"><ele>211.0</ele><time>2026-03-29T09:24:37.463Z</time></trkpt><trkpt lat="45.819558" lon="9.4189189"><ele>211.0</ele><time>2026-03-29T09:24:38.461Z</time></trkpt><trkpt lat="45.8196321" lon="9.4188959"><ele>211.0</ele><time>2026-03-29T09:24:39.437Z</time></trkpt><trkpt lat="45.8196649" lon="9.4187959"><ele>209.8</ele><time>2026-03-29T09:24:40.437Z</time></trkpt><trkpt lat="45.8196981" lon="9.4186784"><ele>208.60000000000002</ele><time>2026-03-29T09:24:41.464Z</time></trkpt><trkpt lat="45.8197117" lon="9.418522"><ele>207.4</ele><time>2026-03-29T09:24:42.463Z</time></trkpt><trkpt lat="45.8197498" lon="9.4183717"><ele>206.2</ele><time>2026-03-29T09:24:43.442Z</time></trkpt><trkpt lat="45.8198165" lon="9.4182019"><ele>205.0</ele><time>2026-03-29T09:24:44.44Z</time></trkpt><trkpt lat="45.8198846" lon="9.4180214"><ele>204.25</ele><time>2026-03-29T09:24:45.442Z</time></trkpt><trkpt lat="45.8199491" lon="9.4178472"><ele>203.5</ele><time>2026-03-29T09:24:46.44Z</time></trkpt><trkpt lat="45.8200086" lon="9.4176843"><ele>202.75</ele><time>2026-03-29T09:24:47.43Z</time></trkpt><trkpt lat="45.8200682" lon="9.4175193"><ele>202.0</ele><time>2026-03-29T09:24:48.437Z</time></trkpt><trkpt lat="45.8201289" lon="9.4173506"><ele>202.75</ele><time>2026-03-29T09:24:49.438Z</time></trkpt><trkpt lat="45.8201909" lon="9.4171802"><ele>203.5</ele><time>2026-03-29T09:24:50.451Z</time></trkpt><trkpt lat="45.8202599" lon="9.4170071"><ele>204.25</ele><time>2026-03-29T09:24:51.447Z</time></trkpt><trkpt lat="45.8203419" lon="9.4168447"><ele>205.0</ele><time>2026-03-29T09:24:52.436Z</time></trkpt><trkpt lat="45.8204398" lon="9.4166934"><ele>205.0</ele><time>2026-03-29T09:24:53.454Z</time></trkpt><trkpt lat="45.8205576" lon="9.4165558"><ele>205.0</ele><time>2026-03-29T09:24:54.452Z</time></trkpt><trkpt lat="45.8206719" lon="9.416426"><ele>205.0</ele><time>2026-03-29T09:24:55.443Z</time></trkpt><trkpt lat="45.8208019" lon="9.4163211"><ele>205.0</ele><time>2026-03-29T09:24:56.444Z</time></trkpt><trkpt lat="45.8209378" lon="9.4162117"><ele>203.66666666666666</ele><time>2026-03-29T09:24:57.44Z</time></trkpt><trkpt lat="45.8210812" lon="9.4160964"><ele>202.33333333333331</ele><time>2026-03-29T09:24:58.448Z</time></trkpt><trkpt lat="45.8212331" lon="9.4159767"><ele>201.0</ele><time>2026-03-29T09:24:59.442Z</time></trkpt><trkpt lat="45.8213844" lon="9.4158539"><ele>201.0</ele><time>2026-03-29T09:25:00.431Z</time></trkpt><trkpt lat="45.8215268" lon="9.4157396"><ele>201.0</ele><time>2026-03-29T09:25:01.469Z</time></trkpt><trkpt lat="45.8216599" lon="9.4156337"><ele>201.0</ele><time>2026-03-29T09:25:02.472Z</time></trkpt><trkpt lat="45.821783" lon="9.4155324"><ele>200.75</ele><time>2026-03-29T09:25:03.449Z</time></trkpt><trkpt lat="45.8219037" lon="9.4154351"><ele>200.5</ele><time>2026-03-29T09:25:04.455Z</time></trkpt><trkpt lat="45.8220244" lon="9.4153411"><ele>200.25</ele><time>2026-03-29T09:25:05.449Z</time></trkpt><trkpt lat="45.8221438" lon="9.4152619"><ele>200.0</ele><time>2026-03-29T09:25:06.455Z</time></trkpt><trkpt lat="45.8222634" lon="9.4151962"><ele>200.0</ele><time>2026-03-29T09:25:07.46Z</time></trkpt><trkpt lat="45.8223804" lon="9.4151408"><ele>200.0</ele><time>2026-03-29T09:25:08.464Z</time></trkpt><trkpt lat="45.8224931" lon="9.4150945"><ele>200.0</ele><time>2026-03-29T09:25:09.472Z</time></trkpt><trkpt lat="45.8225935" lon="9.415063"><ele>200.0</ele><time>2026-03-29T09:25:10.464Z</time></trkpt><trkpt lat="45.8226805" lon="9.4150471"><ele>200.0</ele><time>2026-03-29T09:25:11.453Z</time></trkpt><trkpt lat="45.8227633" lon="9.415049"><ele>200.16666666666669</ele><time>2026-03-29T09:25:12.449Z</time></trkpt><trkpt lat="45.8228431" lon="9.4150533"><ele>200.33333333333334</ele><time>2026-03-29T09:25:13.493Z</time></trkpt><trkpt lat="45.8229283" lon="9.4150766"><ele>200.5</ele><time>2026-03-29T09:25:14.465Z</time></trkpt><trkpt lat="45.8230082" lon="9.4150723"><ele>200.66666666666669</ele><time>2026-03-29T09:25:15.452Z</time></trkpt><trkpt lat="45.8230731" lon="9.4150306"><ele>200.83333333333334</ele><time>2026-03-29T09:25:16.455Z</time></trkpt><trkpt lat="45.8231228" lon="9.4149515"><ele>201.0</ele><time>2026-03-29T09:25:17.453Z</time></trkpt><trkpt lat="45.8231607" lon="9.4148414"><ele>201.0</ele><time>2026-03-29T09:25:18.465Z</time></trkpt><trkpt lat="45.823198" lon="9.414724"><ele>201.0</ele><time>2026-03-29T09:25:19.454Z</time></trkpt><trkpt lat="45.8232534" lon="9.4146089"><ele>201.0</ele><time>2026-03-29T09:25:20.454Z</time></trkpt><trkpt lat="45.8233323" lon="9.4145103"><ele>201.0</ele><time>2026-03-29T09:25:21.446Z</time></trkpt><trkpt lat="45.8234311" lon="9.4144236"><ele>201.0</ele><time>2026-03-29T09:25:22.449Z</time></trkpt><trkpt lat="45.8235505" lon="9.4143224"><ele>201.75</ele><time>2026-03-29T09:25:23.45Z</time></trkpt><trkpt lat="45.8236754" lon="9.4142144"><ele>202.5</ele><time>2026-03-29T09:25:24.431Z</time></trkpt><trkpt lat="45.8238011" lon="9.4141044"><ele>203.25</ele><time>2026-03-29T09:25:25.446Z</time></trkpt><trkpt lat="45.8239306" lon="9.4139977"><ele>204.0</ele><time>2026-03-29T09:25:26.45Z</time></trkpt><trkpt lat="45.8240598" lon="9.4138868"><ele>203.75</ele><time>2026-03-29T09:25:27.461Z</time></trkpt><trkpt lat="45.8241875" lon="9.4137772"><ele>203.5</ele><time>2026-03-29T09:25:28.445Z</time></trkpt><trkpt lat="45.8243116" lon="9.4136735"><ele>203.25</ele><time>2026-03-29T09:25:29.442Z</time></trkpt><trkpt lat="45.8244344" lon="9.4135711"><ele>203.0</ele><time>2026-03-29T09:25:30.436Z</time></trkpt><trkpt lat="45.8245496" lon="9.413473"><ele>204.0</ele><time>2026-03-29T09:25:31.454Z</time></trkpt><trkpt lat="45.8246587" lon="9.4133817"><ele>205.0</ele><time>2026-03-29T09:25:32.468Z</time></trkpt><trkpt lat="45.8247643" lon="9.4132934"><ele>206.0</ele><time>2026-03-29T09:25:33.458Z</time></trkpt><trkpt lat="45.8248796" lon="9.4132005"><ele>207.0</ele><time>2026-03-29T09:25:34.445Z</time></trkpt><trkpt lat="45.824999" lon="9.4131005"><ele>207.0</ele><time>2026-03-29T09:25:35.433Z</time></trkpt><trkpt lat="45.8251133" lon="9.4130055"><ele>207.0</ele><time>2026-03-29T09:25:36.45Z</time></trkpt><trkpt lat="45.8252281" lon="9.4129101"><ele>207.0</ele><time>2026-03-29T09:25:37.441Z</time></trkpt><trkpt lat="45.8253471" lon="9.4128127"><ele>207.0</ele><time>2026-03-29T09:25:38.455Z</time></trkpt><trkpt lat="45.8254649" lon="9.4127141"><ele>205.25</ele><time>2026-03-29T09:25:39.439Z</time></trkpt><trkpt lat="45.8255814" lon="9.4126157"><ele>203.5</ele><time>2026-03-29T09:25:40.445Z</time></trkpt><trkpt lat="45.8256919" lon="9.4125237"><ele>201.75</ele><time>2026-03-29T09:25:41.449Z</time></trkpt><trkpt lat="45.825799" lon="9.4124353"><ele>200.0</ele><time>2026-03-29T09:25:42.453Z</time></trkpt><trkpt lat="45.8259047" lon="9.4123461"><ele>200.0</ele><time>2026-03-29T09:25:43.446Z</time></trkpt><trkpt lat="45.8260121" lon="9.4122575"><ele>200.0</ele><time>2026-03-29T09:25:44.429Z</time></trkpt><trkpt lat="45.8261191" lon="9.4121696"><ele>200.0</ele><time>2026-03-29T09:25:45.443Z</time></trkpt><trkpt lat="45.8262256" lon="9.4120814"><ele>200.0</ele><time>2026-03-29T09:25:46.441Z</time></trkpt><trkpt lat="45.8263315" lon="9.4119933"><ele>200.0</ele><time>2026-03-29T09:25:47.443Z</time></trkpt><trkpt lat="45.8264379" lon="9.4119046"><ele>200.0</ele><time>2026-03-29T09:25:48.441Z</time></trkpt><trkpt lat="45.826545" lon="9.4118154"><ele>200.0</ele><time>2026-03-29T09:25:49.457Z</time></trkpt><trkpt lat="45.8266525" lon="9.4117261"><ele>200.0</ele><time>2026-03-29T09:25:50.442Z</time></trkpt><trkpt lat="45.8267607" lon="9.4116375"><ele>200.5</ele><time>2026-03-29T09:25:51.447Z</time></trkpt><trkpt lat="45.8268714" lon="9.4115477"><ele>201.0</ele><time>2026-03-29T09:25:52.438Z</time></trkpt><trkpt lat="45.8269827" lon="9.4114575"><ele>201.5</ele><time>2026-03-29T09:25:53.445Z</time></trkpt><trkpt lat="45.8270898" lon="9.4113709"><ele>202.0</ele><time>2026-03-29T09:25:54.446Z</time></trkpt><trkpt lat="45.8271947" lon="9.4112849"><ele>202.0</ele><time>2026-03-29T09:25:55.446Z</time></trkpt><trkpt lat="45.8272934" lon="9.4112037"><ele>202.0</ele><time>2026-03-29T09:25:56.446Z</time></trkpt><trkpt lat="45.827387" lon="9.4111239"><ele>202.0</ele><time>2026-03-29T09:25:57.447Z</time></trkpt><trkpt lat="45.8274838" lon="9.4110435"><ele>202.0</ele><time>2026-03-29T09:25:58.432Z</time></trkpt><trkpt lat="45.8275823" lon="9.4109648"><ele>202.0</ele><time>2026-03-29T09:25:59.445Z</time></trkpt><trkpt lat="45.8276831" lon="9.4108841"><ele>202.6</ele><time>2026-03-29T09:26:00.439Z</time></trkpt><trkpt lat="45.8277813" lon="9.4108059"><ele>203.2</ele><time>2026-03-29T09:26:01.444Z</time></trkpt><trkpt lat="45.8278728" lon="9.4107306"><ele>203.8</ele><time>2026-03-29T09:26:02.442Z</time></trkpt><trkpt lat="45.8279619" lon="9.4106553"><ele>204.4</ele><time>2026-03-29T09:26:03.433Z</time></trkpt><trkpt lat="45.8280542" lon="9.4105773"><ele>205.0</ele><time>2026-03-29T09:26:04.444Z</time></trkpt><trkpt lat="45.8281474" lon="9.410499"><ele>204.0</ele><time>2026-03-29T09:26:05.463Z</time></trkpt><trkpt lat="45.828242" lon="9.4104209"><ele>203.0</ele><time>2026-03-29T09:26:06.45Z</time></trkpt><trkpt lat="45.8283385" lon="9.4103397"><ele>202.0</ele><time>2026-03-29T09:26:07.458Z</time></trkpt><trkpt lat="45.8284375" lon="9.4102555"><ele>201.0</ele><time>2026-03-29T09:26:08.454Z</time></trkpt><trkpt lat="45.8285391" lon="9.4101674"><ele>201.0</ele><time>2026-03-29T09:26:09.456Z</time></trkpt><trkpt lat="45.8286424" lon="9.4100786"><ele>201.0</ele><time>2026-03-29T09:26:10.437Z</time></trkpt><trkpt lat="45.8287487" lon="9.4099903"><ele>201.0</ele><time>2026-03-29T09:26:11.433Z</time></trkpt><trkpt lat="45.8288577" lon="9.4099026"><ele>201.0</ele><time>2026-03-29T09:26:12.451Z</time></trkpt><trkpt lat="45.828966" lon="9.4098158"><ele>201.0</ele><time>2026-03-29T09:26:13.449Z</time></trkpt><trkpt lat="45.8290681" lon="9.409734"><ele>201.0</ele><time>2026-03-29T09:26:14.436Z</time></trkpt><trkpt lat="45.8291701" lon="9.4096517"><ele>201.0</ele><time>2026-03-29T09:26:15.461Z</time></trkpt><trkpt lat="45.8292717" lon="9.4095686"><ele>201.0</ele><time>2026-03-29T09:26:16.46Z</time></trkpt><trkpt lat="45.829366" lon="9.4094917"><ele>201.33333333333334</ele><time>2026-03-29T09:26:17.463Z</time></trkpt><trkpt lat="45.8294547" lon="9.4094208"><ele>201.66666666666669</ele><time>2026-03-29T09:26:18.457Z</time></trkpt><trkpt lat="45.8295462" lon="9.4093813"><ele>202.0</ele><time>2026-03-29T09:26:19.455Z</time></trkpt><trkpt lat="45.829634" lon="9.4093631"><ele>202.33333333333334</ele><time>2026-03-29T09:26:20.464Z</time></trkpt><trkpt lat="45.8297092" lon="9.4093356"><ele>202.66666666666669</ele><time>2026-03-29T09:26:21.44Z</time></trkpt><trkpt lat="45.8297719" lon="9.4092855"><ele>203.0</ele><time>2026-03-29T09:26:22.457Z</time></trkpt><trkpt lat="45.8298232" lon="9.409218"><ele>203.0</ele><time>2026-03-29T09:26:23.451Z</time></trkpt><trkpt lat="45.8298783" lon="9.4091428"><ele>203.0</ele><time>2026-03-29T09:26:24.447Z</time></trkpt><trkpt lat="45.8299458" lon="9.4090502"><ele>203.0</ele><time>2026-03-29T09:26:25.455Z</time></trkpt><trkpt lat="45.8300224" lon="9.408949"><ele>203.0</ele><time>2026-03-29T09:26:26.453Z</time></trkpt><trkpt lat="45.8301274" lon="9.4088563"><ele>203.0</ele><time>2026-03-29T09:26:27.447Z</time></trkpt><trkpt lat="45.8302394" lon="9.4087582"><ele>203.5</ele><time>2026-03-29T09:26:28.448Z</time></trkpt><trkpt lat="45.8303465" lon="9.4086673"><ele>204.0</ele><time>2026-03-29T09:26:29.433Z</time></trkpt><trkpt lat="45.830454" lon="9.4085766"><ele>204.5</ele><time>2026-03-29T09:26:30.454Z</time></trkpt><trkpt lat="45.8305663" lon="9.4084806"><ele>205.0</ele><time>2026-03-29T09:26:31.456Z</time></trkpt><trkpt lat="45.8306805" lon="9.4083836"><ele>205.0</ele><time>2026-03-29T09:26:32.437Z</time></trkpt><trkpt lat="45.8307998" lon="9.408275"><ele>205.0</ele><time>2026-03-29T09:26:33.427Z</time></trkpt><trkpt lat="45.8309137" lon="9.4081595"><ele>205.0</ele><time>2026-03-29T09:26:34.443Z</time></trkpt><trkpt lat="45.8310253" lon="9.4080302"><ele>205.0</ele><time>2026-03-29T09:26:35.432Z</time></trkpt><trkpt lat="45.83113" lon="9.4079032"><ele>204.75</ele><time>2026-03-29T09:26:36.449Z</time></trkpt><trkpt lat="45.8312305" lon="9.4077808"><ele>204.5</ele><time>2026-03-29T09:26:37.452Z</time></trkpt><trkpt lat="45.831332" lon="9.4076505"><ele>204.25</ele><time>2026-03-29T09:26:38.454Z</time></trkpt><trkpt lat="45.8314371" lon="9.4075209"><ele>204.0</ele><time>2026-03-29T09:26:39.441Z</time></trkpt><trkpt lat="45.8315376" lon="9.4074047"><ele>204.0</ele><time>2026-03-29T09:26:40.43Z</time></trkpt><trkpt lat="45.831634" lon="9.4073001"><ele>204.0</ele><time>2026-03-29T09:26:41.432Z</time></trkpt><trkpt lat="45.831731" lon="9.4071973"><ele>204.0</ele><time>2026-03-29T09:26:42.439Z</time></trkpt><trkpt lat="45.831829" lon="9.4070928"><ele>204.0</ele><time>2026-03-29T09:26:43.457Z</time></trkpt><trkpt lat="45.8319278" lon="9.4069937"><ele>203.25</ele><time>2026-03-29T09:26:44.457Z</time></trkpt><trkpt lat="45.8320304" lon="9.4069007"><ele>202.5</ele><time>2026-03-29T09:26:45.447Z</time></trkpt><trkpt lat="45.8321401" lon="9.4068177"><ele>201.75</ele><time>2026-03-29T09:26:46.448Z</time></trkpt><trkpt lat="45.8322568" lon="9.4067552"><ele>201.0</ele><time>2026-03-29T09:26:47.439Z</time></trkpt><trkpt lat="45.8323786" lon="9.406714"><ele>201.0</ele><time>2026-03-29T09:26:48.44Z</time></trkpt><trkpt lat="45.8325029" lon="9.4066882"><ele>201.0</ele><time>2026-03-29T09:26:49.456Z</time></trkpt><trkpt lat="45.8326298" lon="9.4066771"><ele>201.0</ele><time>2026-03-29T09:26:50.447Z</time></trkpt><trkpt lat="45.832757" lon="9.4066746"><ele>201.0</ele><time>2026-03-29T09:26:51.445Z</time></trkpt><trkpt lat="45.8328812" lon="9.4066857"><ele>200.20000000000002</ele><time>2026-03-29T09:26:52.443Z</time></trkpt><trkpt lat="45.832995" lon="9.4067112"><ele>199.4</ele><time>2026-03-29T09:26:53.434Z</time></trkpt><trkpt lat="45.8331004" lon="9.406741"><ele>198.6</ele><time>2026-03-29T09:26:54.452Z</time></trkpt><trkpt lat="45.8331983" lon="9.4067761"><ele>197.8</ele><time>2026-03-29T09:26:55.462Z</time></trkpt><trkpt lat="45.8332928" lon="9.4068194"><ele>197.0</ele><time>2026-03-29T09:26:56.45Z</time></trkpt><trkpt lat="45.8333861" lon="9.4068699"><ele>197.0</ele><time>2026-03-29T09:26:57.448Z</time></trkpt><trkpt lat="45.8334756" lon="9.4069299"><ele>197.0</ele><time>2026-03-29T09:26:58.469Z</time></trkpt><trkpt lat="45.8335624" lon="9.4069946"><ele>197.0</ele><time>2026-03-29T09:26:59.464Z</time></trkpt><trkpt lat="45.833644" lon="9.4070577"><ele>197.0</ele><time>2026-03-29T09:27:00.454Z</time></trkpt><trkpt lat="45.833717" lon="9.407121"><ele>197.0</ele><time>2026-03-29T09:27:01.448Z</time></trkpt><trkpt lat="45.8337855" lon="9.4071833"><ele>197.50000000000003</ele><time>2026-03-29T09:27:02.498Z</time></trkpt><trkpt lat="45.833847" lon="9.4072467"><ele>198.0</ele><time>2026-03-29T09:27:03.451Z</time></trkpt><trkpt lat="45.8339063" lon="9.4073445"><ele>198.5</ele><time>2026-03-29T09:27:05.456Z</time></trkpt><trkpt lat="45.8339506" lon="9.40748"><ele>199.0</ele><time>2026-03-29T09:27:08.456Z</time></trkpt><trkpt lat="45.8339916" lon="9.4075538"><ele>199.50000000000003</ele><time>2026-03-29T09:27:09.45Z</time></trkpt><trkpt lat="45.8340438" lon="9.4076098"><ele>200.0</ele><time>2026-03-29T09:27:10.463Z</time></trkpt><trkpt lat="45.8341022" lon="9.4076504"><ele>200.00000000000003</ele><time>2026-03-29T09:27:11.45Z</time></trkpt><trkpt lat="45.8341662" lon="9.4076912"><ele>200.0</ele><time>2026-03-29T09:27:12.463Z</time></trkpt><trkpt lat="45.8342378" lon="9.4077291"><ele>200.0</ele><time>2026-03-29T09:27:13.442Z</time></trkpt><trkpt lat="45.834306" lon="9.4077577"><ele>200.0</ele><time>2026-03-29T09:27:14.439Z</time></trkpt><trkpt lat="45.8343729" lon="9.4077804"><ele>200.00000000000003</ele><time>2026-03-29T09:27:15.444Z</time></trkpt><trkpt lat="45.8344501" lon="9.4077973"><ele>200.0</ele><time>2026-03-29T09:27:16.438Z</time></trkpt><trkpt lat="45.834536" lon="9.407808"><ele>200.8</ele><time>2026-03-29T09:27:17.442Z</time></trkpt><trkpt lat="45.8346295" lon="9.4078143"><ele>201.6</ele><time>2026-03-29T09:27:18.455Z</time></trkpt><trkpt lat="45.8347227" lon="9.4078206"><ele>202.39999999999998</ele><time>2026-03-29T09:27:19.437Z</time></trkpt><trkpt lat="45.8348138" lon="9.4078281"><ele>203.2</ele><time>2026-03-29T09:27:20.443Z</time></trkpt><trkpt lat="45.8349153" lon="9.4078368"><ele>204.0</ele><time>2026-03-29T09:27:21.443Z</time></trkpt><trkpt lat="45.8350276" lon="9.4078451"><ele>204.0</ele><time>2026-03-29T09:27:22.431Z</time></trkpt><trkpt lat="45.8351508" lon="9.4078538"><ele>204.0</ele><time>2026-03-29T09:27:23.441Z</time></trkpt><trkpt lat="45.8352735" lon="9.4078648"><ele>204.0</ele><time>2026-03-29T09:27:24.443Z</time></trkpt><trkpt lat="45.8353901" lon="9.4078759"><ele>204.0</ele><time>2026-03-29T09:27:25.435Z</time></trkpt><trkpt lat="45.8355025" lon="9.4078849"><ele>204.0</ele><time>2026-03-29T09:27:26.445Z</time></trkpt><trkpt lat="45.8356157" lon="9.407894"><ele>204.0</ele><time>2026-03-29T09:27:27.44Z</time></trkpt><trkpt lat="45.8359786" lon="9.407929"><ele>203.25</ele><time>2026-03-29T09:27:30.433Z</time></trkpt><trkpt lat="45.8361068" lon="9.4079382"><ele>202.5</ele><time>2026-03-29T09:27:31.445Z</time></trkpt><trkpt lat="45.8362313" lon="9.4079422"><ele>201.75</ele><time>2026-03-29T09:27:32.442Z</time></trkpt><trkpt lat="45.8363492" lon="9.4079483"><ele>201.0</ele><time>2026-03-29T09:27:33.431Z</time></trkpt><trkpt lat="45.8364677" lon="9.407958"><ele>201.0</ele><time>2026-03-29T09:27:34.439Z</time></trkpt><trkpt lat="45.8365817" lon="9.4079606"><ele>201.0</ele><time>2026-03-29T09:27:35.444Z</time></trkpt><trkpt lat="45.8366824" lon="9.4079652"><ele>201.0</ele><time>2026-03-29T09:27:36.436Z</time></trkpt><trkpt lat="45.8367742" lon="9.4079691"><ele>201.0</ele><time>2026-03-29T09:27:37.441Z</time></trkpt><trkpt lat="45.8368605" lon="9.407966"><ele>201.0</ele><time>2026-03-29T09:27:38.448Z</time></trkpt><trkpt lat="45.8369486" lon="9.4079558"><ele>201.0</ele><time>2026-03-29T09:27:39.448Z</time></trkpt><trkpt lat="45.837039" lon="9.407938"><ele>201.0</ele><time>2026-03-29T09:27:40.443Z</time></trkpt><trkpt lat="45.8371267" lon="9.4079132"><ele>201.0</ele><time>2026-03-29T09:27:41.437Z</time></trkpt><trkpt lat="45.8372036" lon="9.4078784"><ele>201.0</ele><time>2026-03-29T09:27:42.436Z</time></trkpt><trkpt lat="45.8372717" lon="9.4078328"><ele>201.0</ele><time>2026-03-29T09:27:43.446Z</time></trkpt><trkpt lat="45.8373381" lon="9.4077783"><ele>201.0</ele><time>2026-03-29T09:27:44.441Z</time></trkpt><trkpt lat="45.837404" lon="9.4077279"><ele>201.0</ele><time>2026-03-29T09:27:45.449Z</time></trkpt><trkpt lat="45.8374662" lon="9.4076847"><ele>201.0</ele><time>2026-03-29T09:27:46.442Z</time></trkpt><trkpt lat="45.8375255" lon="9.4076473"><ele>201.0</ele><time>2026-03-29T09:27:47.437Z</time></trkpt><trkpt lat="45.8375939" lon="9.4076159"><ele>201.0</ele><time>2026-03-29T09:27:48.437Z</time></trkpt><trkpt lat="45.8376631" lon="9.4075837"><ele>201.0</ele><time>2026-03-29T09:27:49.434Z</time></trkpt><trkpt lat="45.8377291" lon="9.4075431"><ele>201.0</ele><time>2026-03-29T09:27:50.434Z</time></trkpt><trkpt lat="45.8378001" lon="9.40749"><ele>201.0</ele><time>2026-03-29T09:27:51.432Z</time></trkpt><trkpt lat="45.83788" lon="9.4074262"><ele>201.0</ele><time>2026-03-29T09:27:52.437Z</time></trkpt><trkpt lat="45.8379726" lon="9.4073621"><ele>201.0</ele><time>2026-03-29T09:27:53.443Z</time></trkpt><trkpt lat="45.8380677" lon="9.4072997"><ele>201.0</ele><time>2026-03-29T09:27:54.449Z</time></trkpt><trkpt lat="45.8381486" lon="9.4072314"><ele>201.0</ele><time>2026-03-29T09:27:55.45Z</time></trkpt><trkpt lat="45.8382209" lon="9.4071539"><ele>201.0</ele><time>2026-03-29T09:27:56.429Z</time></trkpt><trkpt lat="45.8382929" lon="9.4070744"><ele>201.0</ele><time>2026-03-29T09:27:57.448Z</time></trkpt><trkpt lat="45.8383541" lon="9.4069964"><ele>201.0</ele><time>2026-03-29T09:27:58.448Z</time></trkpt><trkpt lat="45.8384392" lon="9.4069256"><ele>201.0</ele><time>2026-03-29T09:28:00.45Z</time></trkpt><trkpt lat="45.8385148" lon="9.4068954"><ele>201.0</ele><time>2026-03-29T09:28:12.44Z</time></trkpt><trkpt lat="45.8385842" lon="9.4068489"><ele>201.0</ele><time>2026-03-29T09:28:13.478Z</time></trkpt><trkpt lat="45.8386611" lon="9.4067926"><ele>201.0</ele><time>2026-03-29T09:28:14.471Z</time></trkpt><trkpt lat="45.8387599" lon="9.4067218"><ele>200.75</ele><time>2026-03-29T09:28:15.441Z</time></trkpt><trkpt lat="45.8388652" lon="9.4066443"><ele>200.5</ele><time>2026-03-29T09:28:16.474Z</time></trkpt><trkpt lat="45.838967" lon="9.4065638"><ele>200.25</ele><time>2026-03-29T09:28:17.467Z</time></trkpt><trkpt lat="45.8390716" lon="9.4064794"><ele>200.0</ele><time>2026-03-29T09:28:18.45Z</time></trkpt><trkpt lat="45.8391777" lon="9.4063947"><ele>200.25</ele><time>2026-03-29T09:28:19.454Z</time></trkpt><trkpt lat="45.8392848" lon="9.4063086"><ele>200.5</ele><time>2026-03-29T09:28:20.455Z</time></trkpt><trkpt lat="45.8393917" lon="9.4062213"><ele>200.75</ele><time>2026-03-29T09:28:21.46Z</time></trkpt><trkpt lat="45.8395012" lon="9.4061305"><ele>201.0</ele><time>2026-03-29T09:28:22.44Z</time></trkpt><trkpt lat="45.8396135" lon="9.4060343"><ele>201.25</ele><time>2026-03-29T09:28:23.462Z</time></trkpt><trkpt lat="45.8397204" lon="9.4059418"><ele>201.5</ele><time>2026-03-29T09:28:24.447Z</time></trkpt><trkpt lat="45.8398154" lon="9.4058586"><ele>201.75</ele><time>2026-03-29T09:28:25.444Z</time></trkpt><trkpt lat="45.8399085" lon="9.4057783"><ele>202.0</ele><time>2026-03-29T09:28:26.448Z</time></trkpt><trkpt lat="45.8400058" lon="9.4056936"><ele>202.0</ele><time>2026-03-29T09:28:27.473Z</time></trkpt><trkpt lat="45.8401006" lon="9.4056006"><ele>202.0</ele><time>2026-03-29T09:28:28.449Z</time></trkpt><trkpt lat="45.840185" lon="9.4055211"><ele>202.0</ele><time>2026-03-29T09:28:29.446Z</time></trkpt><trkpt lat="45.8402613" lon="9.405448"><ele>202.0</ele><time>2026-03-29T09:28:30.459Z</time></trkpt><trkpt lat="45.8403327" lon="9.4053774"><ele>202.0</ele><time>2026-03-29T09:28:31.458Z</time></trkpt><trkpt lat="45.8404031" lon="9.4053065"><ele>202.66666666666666</ele><time>2026-03-29T09:28:32.461Z</time></trkpt><trkpt lat="45.8404693" lon="9.4052388"><ele>203.33333333333331</ele><time>2026-03-29T09:28:33.459Z</time></trkpt><trkpt lat="45.8405348" lon="9.4051754"><ele>204.0</ele><time>2026-03-29T09:28:34.477Z</time></trkpt><trkpt lat="45.8406065" lon="9.4051188"><ele>204.66666666666669</ele><time>2026-03-29T09:28:35.462Z</time></trkpt><trkpt lat="45.8406731" lon="9.4050743"><ele>205.33333333333334</ele><time>2026-03-29T09:28:36.445Z</time></trkpt><trkpt lat="45.8407332" lon="9.405042"><ele>206.0</ele><time>2026-03-29T09:28:37.454Z</time></trkpt><trkpt lat="45.8408343" lon="9.4050108"><ele>206.00000000000003</ele><time>2026-03-29T09:28:39.467Z</time></trkpt><trkpt lat="45.8408979" lon="9.4049986"><ele>206.0</ele><time>2026-03-29T09:28:41.45Z</time></trkpt><trkpt lat="45.8409715" lon="9.4049938"><ele>206.0</ele><time>2026-03-29T09:28:44.451Z</time></trkpt><trkpt lat="45.8410909" lon="9.4049886"><ele>206.0</ele><time>2026-03-29T09:28:46.465Z</time></trkpt><trkpt lat="45.8411821" lon="9.4049856"><ele>206.00000000000003</ele><time>2026-03-29T09:28:47.467Z</time></trkpt><trkpt lat="45.8412742" lon="9.4049854"><ele>206.0</ele><time>2026-03-29T09:28:48.474Z</time></trkpt><trkpt lat="45.8413666" lon="9.4049866"><ele>206.60000000000002</ele><time>2026-03-29T09:28:49.463Z</time></trkpt><trkpt lat="45.8414665" lon="9.4049995"><ele>207.2</ele><time>2026-03-29T09:28:50.452Z</time></trkpt><trkpt lat="45.8415694" lon="9.4050126"><ele>207.8</ele><time>2026-03-29T09:28:51.446Z</time></trkpt><trkpt lat="45.8416721" lon="9.4050215"><ele>208.39999999999998</ele><time>2026-03-29T09:28:52.469Z</time></trkpt><trkpt lat="45.8417732" lon="9.405031"><ele>209.0</ele><time>2026-03-29T09:28:53.461Z</time></trkpt><trkpt lat="45.8418745" lon="9.405043"><ele>209.0</ele><time>2026-03-29T09:28:54.455Z</time></trkpt><trkpt lat="45.8419682" lon="9.4050559"><ele>209.0</ele><time>2026-03-29T09:28:55.455Z</time></trkpt><trkpt lat="45.8420643" lon="9.4050677"><ele>209.0</ele><time>2026-03-29T09:28:56.474Z</time></trkpt><trkpt lat="45.8421665" lon="9.4050804"><ele>209.0</ele><time>2026-03-29T09:28:57.459Z</time></trkpt><trkpt lat="45.8422765" lon="9.4050947"><ele>209.0</ele><time>2026-03-29T09:28:58.448Z</time></trkpt><trkpt lat="45.8423926" lon="9.4051167"><ele>209.0</ele><time>2026-03-29T09:28:59.447Z</time></trkpt><trkpt lat="45.8425086" lon="9.405152"><ele>209.0</ele><time>2026-03-29T09:29:00.493Z</time></trkpt><trkpt lat="45.8426184" lon="9.4051971"><ele>209.0</ele><time>2026-03-29T09:29:01.463Z</time></trkpt><trkpt lat="45.842729" lon="9.4052411"><ele>209.0</ele><time>2026-03-29T09:29:02.461Z</time></trkpt><trkpt lat="45.8428418" lon="9.4052842"><ele>208.75</ele><time>2026-03-29T09:29:03.442Z</time></trkpt><trkpt lat="45.8429575" lon="9.4053284"><ele>208.5</ele><time>2026-03-29T09:29:04.448Z</time></trkpt><trkpt lat="45.8430751" lon="9.4053758"><ele>208.25</ele><time>2026-03-29T09:29:05.433Z</time></trkpt><trkpt lat="45.843194" lon="9.4054305"><ele>208.0</ele><time>2026-03-29T09:29:06.437Z</time></trkpt><trkpt lat="45.8433161" lon="9.4054874"><ele>208.25</ele><time>2026-03-29T09:29:07.451Z</time></trkpt><trkpt lat="45.8434361" lon="9.40554"><ele>208.5</ele><time>2026-03-29T09:29:08.447Z</time></trkpt><trkpt lat="45.843549" lon="9.4055918"><ele>208.75</ele><time>2026-03-29T09:29:09.462Z</time></trkpt><trkpt lat="45.8436582" lon="9.4056442"><ele>209.0</ele><time>2026-03-29T09:29:10.453Z</time></trkpt><trkpt lat="45.84377" lon="9.4056965"><ele>209.0</ele><time>2026-03-29T09:29:11.452Z</time></trkpt><trkpt lat="45.8438805" lon="9.4057469"><ele>209.0</ele><time>2026-03-29T09:29:12.454Z</time></trkpt><trkpt lat="45.8439875" lon="9.405788"><ele>209.0</ele><time>2026-03-29T09:29:13.463Z</time></trkpt><trkpt lat="45.8440961" lon="9.4058087"><ele>209.0</ele><time>2026-03-29T09:29:14.464Z</time></trkpt><trkpt lat="45.8442124" lon="9.405801"><ele>210.0</ele><time>2026-03-29T09:29:15.436Z</time></trkpt><trkpt lat="45.8443362" lon="9.4057589"><ele>211.0</ele><time>2026-03-29T09:29:16.46Z</time></trkpt><trkpt lat="45.8444609" lon="9.4056851"><ele>212.0</ele><time>2026-03-29T09:29:17.443Z</time></trkpt><trkpt lat="45.8445917" lon="9.4056072"><ele>213.0</ele><time>2026-03-29T09:29:18.462Z</time></trkpt><trkpt lat="45.8447166" lon="9.4054963"><ele>212.0</ele><time>2026-03-29T09:29:19.458Z</time></trkpt><trkpt lat="45.8448372" lon="9.4053944"><ele>211.0</ele><time>2026-03-29T09:29:20.45Z</time></trkpt><trkpt lat="45.8449368" lon="9.4052961"><ele>210.0</ele><time>2026-03-29T09:29:21.462Z</time></trkpt><trkpt lat="45.8450216" lon="9.4052033"><ele>209.0</ele><time>2026-03-29T09:29:22.46Z</time></trkpt><trkpt lat="45.8451021" lon="9.4051093"><ele>209.2</ele><time>2026-03-29T09:29:23.45Z</time></trkpt><trkpt lat="45.8451521" lon="9.404987"><ele>209.39999999999998</ele><time>2026-03-29T09:29:24.454Z</time></trkpt><trkpt lat="45.8451985" lon="9.4048672"><ele>209.6</ele><time>2026-03-29T09:29:25.439Z</time></trkpt><trkpt lat="45.8452078" lon="9.4047152"><ele>209.8</ele><time>2026-03-29T09:29:26.446Z</time></trkpt><trkpt lat="45.8451933" lon="9.4045576"><ele>210.0</ele><time>2026-03-29T09:29:27.442Z</time></trkpt><trkpt lat="45.8451524" lon="9.4044072"><ele>209.5</ele><time>2026-03-29T09:29:28.432Z</time></trkpt><trkpt lat="45.8450827" lon="9.4042742"><ele>209.0</ele><time>2026-03-29T09:29:29.438Z</time></trkpt><trkpt lat="45.8450071" lon="9.4041482"><ele>208.5</ele><time>2026-03-29T09:29:30.449Z</time></trkpt><trkpt lat="45.8448974" lon="9.4040813"><ele>208.0</ele><time>2026-03-29T09:29:31.43Z</time></trkpt><trkpt lat="45.8447807" lon="9.4040577"><ele>208.0</ele><time>2026-03-29T09:29:32.438Z</time></trkpt><trkpt lat="45.8446568" lon="9.4040805"><ele>208.0</ele><time>2026-03-29T09:29:33.422Z</time></trkpt><trkpt lat="45.8445248" lon="9.4041508"><ele>208.0</ele><time>2026-03-29T09:29:34.481Z</time></trkpt><trkpt lat="45.8443837" lon="9.4042506"><ele>208.0</ele><time>2026-03-29T09:29:35.441Z</time></trkpt><trkpt lat="45.8442445" lon="9.4043509"><ele>208.0</ele><time>2026-03-29T09:29:36.44Z</time></trkpt><trkpt lat="45.8441156" lon="9.4044608"><ele>208.0</ele><time>2026-03-29T09:29:37.45Z</time></trkpt><trkpt lat="45.8439879" lon="9.4045606"><ele>208.0</ele><time>2026-03-29T09:29:38.43Z</time></trkpt><trkpt lat="45.8438762" lon="9.4046976"><ele>208.0</ele><time>2026-03-29T09:29:39.432Z</time></trkpt><trkpt lat="45.8440195" lon="9.404657"><ele>208.0</ele><time>2026-03-29T09:30:10.598Z</time></trkpt><trkpt lat="45.8443108" lon="9.4047536"><ele>208.0</ele><time>2026-03-29T09:30:42.906Z</time></trkpt><trkpt lat="45.8440195" lon="9.404657"><ele>337.0</ele><time>2026-03-29T09:31:08.801Z</time></trkpt><trkpt lat="45.8592133" lon="9.416729"><ele>339.0</ele><time>2026-03-29T09:32:29.416Z</time></trkpt><trkpt lat="45.8593161" lon="9.4165913"><ele>341.0</ele><time>2026-03-29T09:32:30.403Z</time></trkpt><trkpt lat="45.8594225" lon="9.4164808"><ele>343.0</ele><time>2026-03-29T09:32:31.447Z</time></trkpt><trkpt lat="45.8595314" lon="9.4163971"><ele>345.0</ele><time>2026-03-29T09:32:32.454Z</time></trkpt><trkpt lat="45.8596524" lon="9.4163084"><ele>367.0</ele><time>2026-03-29T09:32:33.438Z</time></trkpt><trkpt lat="45.8603106" lon="9.4158677"><ele>367.0</ele><time>2026-03-29T09:32:38.43Z</time></trkpt><trkpt lat="45.8604212" lon="9.4157704"><ele>367.0</ele><time>2026-03-29T09:32:39.445Z</time></trkpt><trkpt lat="45.8605455" lon="9.4156561"><ele>367.0</ele><time>2026-03-29T09:32:40.468Z</time></trkpt><trkpt lat="45.8606924" lon="9.4154718"><ele>364.66666666666663</ele><time>2026-03-29T09:32:41.444Z</time></trkpt><trkpt lat="45.8608266" lon="9.4153204"><ele>362.3333333333333</ele><time>2026-03-29T09:32:42.469Z</time></trkpt><trkpt lat="45.8609757" lon="9.4151841"><ele>360.0</ele><time>2026-03-29T09:32:43.441Z</time></trkpt><trkpt lat="45.8611256" lon="9.4150426"><ele>360.0</ele><time>2026-03-29T09:32:44.428Z</time></trkpt><trkpt lat="45.861273" lon="9.4149267"><ele>360.0</ele><time>2026-03-29T09:32:45.449Z</time></trkpt><trkpt lat="45.8614116" lon="9.4148451"><ele>360.0</ele><time>2026-03-29T09:32:46.44Z</time></trkpt><trkpt lat="45.8615508" lon="9.4147957"><ele>360.0</ele><time>2026-03-29T09:32:47.451Z</time></trkpt><trkpt lat="45.8617097" lon="9.4147948"><ele>360.0</ele><time>2026-03-29T09:32:48.445Z</time></trkpt><trkpt lat="45.8618669" lon="9.4148222"><ele>360.0</ele><time>2026-03-29T09:32:49.442Z</time></trkpt><trkpt lat="45.8620246" lon="9.414867"><ele>364.6666666666667</ele><time>2026-03-29T09:32:50.432Z</time></trkpt><trkpt lat="45.8621794" lon="9.4149316"><ele>369.33333333333337</ele><time>2026-03-29T09:32:51.444Z</time></trkpt><trkpt lat="45.8623213" lon="9.4150009"><ele>374.0</ele><time>2026-03-29T09:32:52.447Z</time></trkpt><trkpt lat="45.8624478" lon="9.4151061"><ele>374.0</ele><time>2026-03-29T09:32:53.438Z</time></trkpt><trkpt lat="45.8625652" lon="9.4152427"><ele>374.0</ele><time>2026-03-29T09:32:54.435Z</time></trkpt><trkpt lat="45.8626772" lon="9.4154082"><ele>374.0</ele><time>2026-03-29T09:32:55.433Z</time></trkpt><trkpt lat="45.8627814" lon="9.415583"><ele>372.6666666666667</ele><time>2026-03-29T09:32:56.467Z</time></trkpt><trkpt lat="45.8628781" lon="9.4157789"><ele>371.3333333333333</ele><time>2026-03-29T09:32:57.434Z</time></trkpt><trkpt lat="45.862968" lon="9.4159777"><ele>370.0</ele><time>2026-03-29T09:32:58.467Z</time></trkpt><trkpt lat="45.8630584" lon="9.4161734"><ele>375.0</ele><time>2026-03-29T09:32:59.447Z</time></trkpt><trkpt lat="45.863148" lon="9.4163713"><ele>380.0</ele><time>2026-03-29T09:33:00.446Z</time></trkpt><trkpt lat="45.8632426" lon="9.4165753"><ele>385.0</ele><time>2026-03-29T09:33:01.448Z</time></trkpt><trkpt lat="45.863336" lon="9.4167837"><ele>385.0</ele><time>2026-03-29T09:33:02.427Z</time></trkpt><trkpt lat="45.8634254" lon="9.4169931"><ele>385.0</ele><time>2026-03-29T09:33:03.442Z</time></trkpt><trkpt lat="45.8635211" lon="9.4171959"><ele>385.0</ele><time>2026-03-29T09:33:04.442Z</time></trkpt><trkpt lat="45.8636111" lon="9.4174003"><ele>384.6666666666667</ele><time>2026-03-29T09:33:05.44Z</time></trkpt><trkpt lat="45.8636993" lon="9.4176067"><ele>384.33333333333337</ele><time>2026-03-29T09:33:06.443Z</time></trkpt><trkpt lat="45.863789" lon="9.4178066"><ele>384.0</ele><time>2026-03-29T09:33:07.445Z</time></trkpt><trkpt lat="45.8638778" lon="9.4179986"><ele>387.33333333333337</ele><time>2026-03-29T09:33:08.445Z</time></trkpt><trkpt lat="45.8639631" lon="9.4181828"><ele>390.6666666666667</ele><time>2026-03-29T09:33:09.433Z</time></trkpt><trkpt lat="45.8640469" lon="9.4183635"><ele>394.0</ele><time>2026-03-29T09:33:10.431Z</time></trkpt><trkpt lat="45.8641327" lon="9.4185483"><ele>392.0</ele><time>2026-03-29T09:33:11.439Z</time></trkpt><trkpt lat="45.8645628" lon="9.4195065"><ele>400.0</ele><time>2026-03-29T09:33:16.422Z</time></trkpt><trkpt lat="45.8646548" lon="9.4197028"><ele>408.0</ele><time>2026-03-29T09:33:17.435Z</time></trkpt><trkpt lat="45.8647583" lon="9.4199099"><ele>416.0</ele><time>2026-03-29T09:33:18.443Z</time></trkpt><trkpt lat="45.8648701" lon="9.4201179"><ele>430.0</ele><time>2026-03-29T09:33:19.432Z</time></trkpt><trkpt lat="45.8658403" lon="9.4215798"><ele>426.0</ele><time>2026-03-29T09:33:28.443Z</time></trkpt><trkpt lat="45.8659464" lon="9.421787"><ele>422.0</ele><time>2026-03-29T09:33:29.433Z</time></trkpt><trkpt lat="45.8669927" lon="9.4243316"><ele>422.0</ele><time>2026-03-29T09:33:41.438Z</time></trkpt><trkpt lat="45.867006" lon="9.42459"><ele>422.0</ele><time>2026-03-29T09:33:42.438Z</time></trkpt><trkpt lat="45.8670817" lon="9.4248566"><ele>422.0</ele><time>2026-03-29T09:33:43.434Z</time></trkpt><trkpt lat="45.8671951" lon="9.4250537"><ele>428.66666666666663</ele><time>2026-03-29T09:33:44.471Z</time></trkpt><trkpt lat="45.8673342" lon="9.4252622"><ele>435.33333333333337</ele><time>2026-03-29T09:33:45.469Z</time></trkpt><trkpt lat="45.8674805" lon="9.4254465"><ele>442.0</ele><time>2026-03-29T09:33:46.443Z</time></trkpt><trkpt lat="45.8676327" lon="9.4256222"><ele>447.0</ele><time>2026-03-29T09:33:47.441Z</time></trkpt><trkpt lat="45.867782" lon="9.4257974"><ele>452.0</ele><time>2026-03-29T09:33:48.447Z</time></trkpt><trkpt lat="45.8679278" lon="9.4259669"><ele>457.0</ele><time>2026-03-29T09:33:49.443Z</time></trkpt><trkpt lat="45.8680655" lon="9.4261283"><ele>457.0</ele><time>2026-03-29T09:33:50.438Z</time></trkpt><trkpt lat="45.8681995" lon="9.4262824"><ele>457.0</ele><time>2026-03-29T09:33:51.45Z</time></trkpt><trkpt lat="45.8683365" lon="9.4264358"><ele>457.0</ele><time>2026-03-29T09:33:52.449Z</time></trkpt><trkpt lat="45.8684729" lon="9.4265859"><ele>458.6666666666667</ele><time>2026-03-29T09:33:53.431Z</time></trkpt><trkpt lat="45.868612" lon="9.4267349"><ele>460.33333333333337</ele><time>2026-03-29T09:33:54.441Z</time></trkpt><trkpt lat="45.8687479" lon="9.4268854"><ele>462.0</ele><time>2026-03-29T09:33:55.44Z</time></trkpt><trkpt lat="45.8688802" lon="9.4270302"><ele>466.33333333333337</ele><time>2026-03-29T09:33:56.442Z</time></trkpt><trkpt lat="45.8690093" lon="9.4271726"><ele>470.6666666666667</ele><time>2026-03-29T09:33:57.435Z</time></trkpt><trkpt lat="45.8691338" lon="9.4273072"><ele>475.0</ele><time>2026-03-29T09:33:58.444Z</time></trkpt><trkpt lat="45.8692571" lon="9.4274378"><ele>471.0</ele><time>2026-03-29T09:33:59.438Z</time></trkpt><trkpt lat="45.8693788" lon="9.4275649"><ele>467.0</ele><time>2026-03-29T09:34:00.441Z</time></trkpt><trkpt lat="45.8695085" lon="9.4276904"><ele>463.0</ele><time>2026-03-29T09:34:01.443Z</time></trkpt><trkpt lat="45.8696509" lon="9.4278004"><ele>463.0</ele><time>2026-03-29T09:34:02.45Z</time></trkpt><trkpt lat="45.8698053" lon="9.4278992"><ele>463.0</ele><time>2026-03-29T09:34:03.445Z</time></trkpt><trkpt lat="45.8699667" lon="9.4279991"><ele>463.0</ele><time>2026-03-29T09:34:04.435Z</time></trkpt><trkpt lat="45.8701424" lon="9.4280706"><ele>469.6666666666667</ele><time>2026-03-29T09:34:05.439Z</time></trkpt><trkpt lat="45.8703307" lon="9.4281441"><ele>476.33333333333337</ele><time>2026-03-29T09:34:06.448Z</time></trkpt><trkpt lat="45.8705112" lon="9.4282153"><ele>483.0</ele><time>2026-03-29T09:34:07.444Z</time></trkpt><trkpt lat="45.8706738" lon="9.4282805"><ele>483.0</ele><time>2026-03-29T09:34:08.44Z</time></trkpt><trkpt lat="45.8708245" lon="9.4283403"><ele>483.0</ele><time>2026-03-29T09:34:09.436Z</time></trkpt><trkpt lat="45.8709777" lon="9.4284032"><ele>483.0</ele><time>2026-03-29T09:34:10.437Z</time></trkpt><trkpt lat="45.8711374" lon="9.4284693"><ele>480.0</ele><time>2026-03-29T09:34:11.431Z</time></trkpt><trkpt lat="45.8713008" lon="9.4285365"><ele>477.0</ele><time>2026-03-29T09:34:12.445Z</time></trkpt><trkpt lat="45.8714548" lon="9.4286013"><ele>474.0</ele><time>2026-03-29T09:34:13.444Z</time></trkpt><trkpt lat="45.8716108" lon="9.4286659"><ele>474.0</ele><time>2026-03-29T09:34:14.434Z</time></trkpt><trkpt lat="45.8717732" lon="9.4287319"><ele>474.0</ele><time>2026-03-29T09:34:15.433Z</time></trkpt><trkpt lat="45.8719315" lon="9.4287918"><ele>474.0</ele><time>2026-03-29T09:34:16.442Z</time></trkpt><trkpt lat="45.8720863" lon="9.4288562"><ele>481.66666666666663</ele><time>2026-03-29T09:34:17.431Z</time></trkpt><trkpt lat="45.8722425" lon="9.4289214"><ele>489.3333333333333</ele><time>2026-03-29T09:34:18.44Z</time></trkpt><trkpt lat="45.8724024" lon="9.4289828"><ele>497.0</ele><time>2026-03-29T09:34:19.452Z</time></trkpt><trkpt lat="45.8725639" lon="9.4290462"><ele>496.66666666666663</ele><time>2026-03-29T09:34:20.449Z</time></trkpt><trkpt lat="45.8727197" lon="9.4291106"><ele>496.33333333333337</ele><time>2026-03-29T09:34:21.45Z</time></trkpt><trkpt lat="45.8728608" lon="9.4291838"><ele>496.0</ele><time>2026-03-29T09:34:22.45Z</time></trkpt><trkpt lat="45.8729927" lon="9.4292808"><ele>496.0</ele><time>2026-03-29T09:34:23.433Z</time></trkpt><trkpt lat="45.873115" lon="9.4293995"><ele>496.0</ele><time>2026-03-29T09:34:24.442Z</time></trkpt><trkpt lat="45.8732235" lon="9.4295349"><ele>496.0</ele><time>2026-03-29T09:34:25.449Z</time></trkpt><trkpt lat="45.8733281" lon="9.4296748"><ele>496.0</ele><time>2026-03-29T09:34:26.45Z</time></trkpt><trkpt lat="45.8734187" lon="9.4298439"><ele>493.33333333333337</ele><time>2026-03-29T09:34:27.454Z</time></trkpt><trkpt lat="45.8735006" lon="9.4300322"><ele>490.66666666666663</ele><time>2026-03-29T09:34:28.455Z</time></trkpt><trkpt lat="45.8735697" lon="9.4302361"><ele>488.0</ele><time>2026-03-29T09:34:29.438Z</time></trkpt><trkpt lat="45.8736269" lon="9.4304493"><ele>493.3333333333333</ele><time>2026-03-29T09:34:30.44Z</time></trkpt><trkpt lat="45.8736758" lon="9.4306697"><ele>498.66666666666663</ele><time>2026-03-29T09:34:31.444Z</time></trkpt><trkpt lat="45.8737254" lon="9.4308934"><ele>504.0</ele><time>2026-03-29T09:34:32.444Z</time></trkpt><trkpt lat="45.8737763" lon="9.4311188"><ele>509.0</ele><time>2026-03-29T09:34:33.435Z</time></trkpt><trkpt lat="45.8738307" lon="9.4313553"><ele>514.0</ele><time>2026-03-29T09:34:34.442Z</time></trkpt><trkpt lat="45.8738846" lon="9.4315869"><ele>519.0</ele><time>2026-03-29T09:34:35.433Z</time></trkpt><trkpt lat="45.8739506" lon="9.4318096"><ele>519.0</ele><time>2026-03-29T09:34:36.446Z</time></trkpt><trkpt lat="45.8740267" lon="9.4320216"><ele>519.0</ele><time>2026-03-29T09:34:37.447Z</time></trkpt><trkpt lat="45.8741134" lon="9.4322303"><ele>519.0</ele><time>2026-03-29T09:34:38.441Z</time></trkpt><trkpt lat="45.8741979" lon="9.4324363"><ele>516.3333333333334</ele><time>2026-03-29T09:34:39.432Z</time></trkpt><trkpt lat="45.8742988" lon="9.4326204"><ele>513.6666666666667</ele><time>2026-03-29T09:34:40.452Z</time></trkpt><trkpt lat="45.8744074" lon="9.4327949"><ele>511.0</ele><time>2026-03-29T09:34:41.44Z</time></trkpt><trkpt lat="45.8745284" lon="9.4329616"><ele>516.0</ele><time>2026-03-29T09:34:42.442Z</time></trkpt><trkpt lat="45.8746534" lon="9.4331091"><ele>521.0</ele><time>2026-03-29T09:34:43.457Z</time></trkpt><trkpt lat="45.8747868" lon="9.4332471"><ele>526.0</ele><time>2026-03-29T09:34:44.444Z</time></trkpt><trkpt lat="45.8749237" lon="9.4333708"><ele>526.0</ele><time>2026-03-29T09:34:45.439Z</time></trkpt><trkpt lat="45.8750616" lon="9.4334888"><ele>526.0</ele><time>2026-03-29T09:34:46.446Z</time></trkpt><trkpt lat="45.8752024" lon="9.433585"><ele>526.0</ele><time>2026-03-29T09:34:47.448Z</time></trkpt><trkpt lat="45.8753341" lon="9.433668"><ele>535.0</ele><time>2026-03-29T09:34:48.448Z</time></trkpt><trkpt lat="45.8754611" lon="9.433763"><ele>544.0</ele><time>2026-03-29T09:34:49.436Z</time></trkpt><trkpt lat="45.8776296" lon="9.4336394"><ele>550.0</ele><time>2026-03-29T09:35:04.444Z</time></trkpt><trkpt lat="45.8777391" lon="9.4336254"><ele>556.0</ele><time>2026-03-29T09:35:05.439Z</time></trkpt><trkpt lat="45.8778519" lon="9.4336193"><ele>562.0</ele><time>2026-03-29T09:35:06.445Z</time></trkpt><trkpt lat="45.8779678" lon="9.4336154"><ele>568.0</ele><time>2026-03-29T09:35:07.444Z</time></trkpt><trkpt lat="45.8780971" lon="9.4336122"><ele>672.0</ele><time>2026-03-29T09:35:08.438Z</time></trkpt><trkpt lat="45.8954447" lon="9.4263592"><ele>671.2</ele><time>2026-03-29T09:36:54.419Z</time></trkpt><trkpt lat="45.8955387" lon="9.4262146"><ele>670.4000000000001</ele><time>2026-03-29T09:36:55.451Z</time></trkpt><trkpt lat="45.8956214" lon="9.4260989"><ele>669.5999999999999</ele><time>2026-03-29T09:36:56.451Z</time></trkpt><trkpt lat="45.8956884" lon="9.4260081"><ele>668.8</ele><time>2026-03-29T09:36:57.448Z</time></trkpt><trkpt lat="45.8957563" lon="9.4259246"><ele>668.0</ele><time>2026-03-29T09:36:58.44Z</time></trkpt><trkpt lat="45.8958172" lon="9.4258565"><ele>668.0</ele><time>2026-03-29T09:36:59.448Z</time></trkpt><trkpt lat="45.8958716" lon="9.4257974"><ele>668.0</ele><time>2026-03-29T09:37:00.453Z</time></trkpt><trkpt lat="45.895941" lon="9.4257236"><ele>668.0</ele><time>2026-03-29T09:37:02.436Z</time></trkpt><trkpt lat="45.8959955" lon="9.4256696"><ele>668.0</ele><time>2026-03-29T09:37:05.45Z</time></trkpt><trkpt lat="45.8961045" lon="9.4256448"><ele>668.0</ele><time>2026-03-29T09:37:15.448Z</time></trkpt><trkpt lat="45.8961694" lon="9.4256524"><ele>668.0</ele><time>2026-03-29T09:37:16.438Z</time></trkpt><trkpt lat="45.8962748" lon="9.425641"><ele>669.5999999999999</ele><time>2026-03-29T09:37:18.459Z</time></trkpt><trkpt lat="45.896366" lon="9.4255434"><ele>671.1999999999999</ele><time>2026-03-29T09:37:20.446Z</time></trkpt><trkpt lat="45.8963923" lon="9.4253995"><ele>672.8</ele><time>2026-03-29T09:37:22.44Z</time></trkpt><trkpt lat="45.8963538" lon="9.4252483"><ele>674.4</ele><time>2026-03-29T09:37:24.444Z</time></trkpt><trkpt lat="45.8962772" lon="9.4251477"><ele>676.0</ele><time>2026-03-29T09:37:26.47Z</time></trkpt><trkpt lat="45.8961552" lon="9.4251476"><ele>676.0</ele><time>2026-03-29T09:37:28.455Z</time></trkpt><trkpt lat="45.8960887" lon="9.4251695"><ele>676.0</ele><time>2026-03-29T09:37:29.449Z</time></trkpt><trkpt lat="45.8960118" lon="9.42519"><ele>676.0</ele><time>2026-03-29T09:37:30.45Z</time></trkpt><trkpt lat="45.8959095" lon="9.4252178"><ele>676.0</ele><time>2026-03-29T09:37:31.455Z</time></trkpt><trkpt lat="45.8957896" lon="9.4252559"><ele>676.0</ele><time>2026-03-29T09:37:32.448Z</time></trkpt><trkpt lat="45.8956461" lon="9.4252829"><ele>674.0</ele><time>2026-03-29T09:37:33.441Z</time></trkpt><trkpt lat="45.8954802" lon="9.4252999"><ele>672.0</ele><time>2026-03-29T09:37:34.456Z</time></trkpt><trkpt lat="45.8952899" lon="9.4253121"><ele>670.0</ele><time>2026-03-29T09:37:35.449Z</time></trkpt><trkpt lat="45.8950971" lon="9.4253276"><ele>668.3333333333334</ele><time>2026-03-29T09:37:36.452Z</time></trkpt><trkpt lat="45.8949136" lon="9.4253509"><ele>666.6666666666666</ele><time>2026-03-29T09:37:37.452Z</time></trkpt><trkpt lat="45.8947382" lon="9.4253767"><ele>665.0</ele><time>2026-03-29T09:37:38.437Z</time></trkpt><trkpt lat="45.8945672" lon="9.4253984"><ele>665.0</ele><time>2026-03-29T09:37:39.436Z</time></trkpt><trkpt lat="45.8944019" lon="9.4254215"><ele>665.0</ele><time>2026-03-29T09:37:40.452Z</time></trkpt><trkpt lat="45.8942419" lon="9.42544"><ele>665.0</ele><time>2026-03-29T09:37:41.449Z</time></trkpt><trkpt lat="45.8940829" lon="9.4254453"><ele>664.0</ele><time>2026-03-29T09:37:42.453Z</time></trkpt><trkpt lat="45.8939133" lon="9.4254297"><ele>663.0</ele><time>2026-03-29T09:37:43.444Z</time></trkpt><trkpt lat="45.8937334" lon="9.425389"><ele>662.0</ele><time>2026-03-29T09:37:44.447Z</time></trkpt><trkpt lat="45.8935555" lon="9.4253232"><ele>660.0</ele><time>2026-03-29T09:37:45.454Z</time></trkpt><trkpt lat="45.8933837" lon="9.4252372"><ele>658.0</ele><time>2026-03-29T09:37:46.452Z</time></trkpt><trkpt lat="45.8932189" lon="9.4251263"><ele>656.0</ele><time>2026-03-29T09:37:47.447Z</time></trkpt><trkpt lat="45.8930624" lon="9.4249892"><ele>656.0</ele><time>2026-03-29T09:37:48.452Z</time></trkpt><trkpt lat="45.8929181" lon="9.4248421"><ele>656.0</ele><time>2026-03-29T09:37:49.452Z</time></trkpt><trkpt lat="45.8927827" lon="9.4246955"><ele>656.0</ele><time>2026-03-29T09:37:50.45Z</time></trkpt><trkpt lat="45.892646" lon="9.42455"><ele>655.0</ele><time>2026-03-29T09:37:51.475Z</time></trkpt><trkpt lat="45.8925063" lon="9.4244051"><ele>654.0</ele><time>2026-03-29T09:37:52.487Z</time></trkpt><trkpt lat="45.8923669" lon="9.4242636"><ele>653.0</ele><time>2026-03-29T09:37:53.451Z</time></trkpt><trkpt lat="45.8922137" lon="9.424118"><ele>653.0</ele><time>2026-03-29T09:37:54.468Z</time></trkpt><trkpt lat="45.8920527" lon="9.4239563"><ele>653.0</ele><time>2026-03-29T09:37:55.447Z</time></trkpt><trkpt lat="45.8918923" lon="9.4237902"><ele>653.0</ele><time>2026-03-29T09:37:56.455Z</time></trkpt><trkpt lat="45.8917213" lon="9.4236231"><ele>651.6666666666666</ele><time>2026-03-29T09:37:57.449Z</time></trkpt><trkpt lat="45.8915491" lon="9.4234552"><ele>650.3333333333334</ele><time>2026-03-29T09:37:58.457Z</time></trkpt><trkpt lat="45.8913867" lon="9.4232887"><ele>649.0</ele><time>2026-03-29T09:37:59.441Z</time></trkpt><trkpt lat="45.8912275" lon="9.4231217"><ele>648.3333333333334</ele><time>2026-03-29T09:38:00.448Z</time></trkpt><trkpt lat="45.8910701" lon="9.4229512"><ele>647.6666666666666</ele><time>2026-03-29T09:38:01.469Z</time></trkpt><trkpt lat="45.8909082" lon="9.4227819"><ele>647.0</ele><time>2026-03-29T09:38:02.454Z</time></trkpt><trkpt lat="45.8907455" lon="9.4226131"><ele>647.0</ele><time>2026-03-29T09:38:03.439Z</time></trkpt><trkpt lat="45.8905823" lon="9.4224428"><ele>647.0</ele><time>2026-03-29T09:38:04.449Z</time></trkpt><trkpt lat="45.8904187" lon="9.4222717"><ele>647.0</ele><time>2026-03-29T09:38:05.444Z</time></trkpt><trkpt lat="45.8902547" lon="9.4220995"><ele>648.0</ele><time>2026-03-29T09:38:06.45Z</time></trkpt><trkpt lat="45.8900966" lon="9.4219338"><ele>649.0</ele><time>2026-03-29T09:38:07.471Z</time></trkpt><trkpt lat="45.8899468" lon="9.4217775"><ele>650.0</ele><time>2026-03-29T09:38:08.451Z</time></trkpt><trkpt lat="45.889805" lon="9.421629"><ele>650.0</ele><time>2026-03-29T09:38:09.446Z</time></trkpt><trkpt lat="45.8896701" lon="9.4214882"><ele>650.0</ele><time>2026-03-29T09:38:10.443Z</time></trkpt><trkpt lat="45.8895395" lon="9.421358"><ele>650.0</ele><time>2026-03-29T09:38:11.451Z</time></trkpt><trkpt lat="45.8894077" lon="9.4212381"><ele>649.75</ele><time>2026-03-29T09:38:12.441Z</time></trkpt><trkpt lat="45.8892715" lon="9.4211354"><ele>649.5</ele><time>2026-03-29T09:38:13.447Z</time></trkpt><trkpt lat="45.8891343" lon="9.421052"><ele>649.25</ele><time>2026-03-29T09:38:14.446Z</time></trkpt><trkpt lat="45.8889992" lon="9.4209802"><ele>649.0</ele><time>2026-03-29T09:38:15.445Z</time></trkpt><trkpt lat="45.8888672" lon="9.42092"><ele>649.0</ele><time>2026-03-29T09:38:16.446Z</time></trkpt><trkpt lat="45.8887366" lon="9.420873"><ele>649.0</ele><time>2026-03-29T09:38:17.446Z</time></trkpt><trkpt lat="45.8886017" lon="9.420837"><ele>649.0</ele><time>2026-03-29T09:38:18.443Z</time></trkpt><trkpt lat="45.8884669" lon="9.4208031"><ele>649.0</ele><time>2026-03-29T09:38:19.449Z</time></trkpt><trkpt lat="45.8883385" lon="9.4207603"><ele>649.0</ele><time>2026-03-29T09:38:20.448Z</time></trkpt><trkpt lat="45.8882181" lon="9.4207005"><ele>649.0</ele><time>2026-03-29T09:38:21.448Z</time></trkpt><trkpt lat="45.8881077" lon="9.4206148"><ele>649.0</ele><time>2026-03-29T09:38:22.449Z</time></trkpt><trkpt lat="45.8880083" lon="9.4205066"><ele>649.0</ele><time>2026-03-29T09:38:23.447Z</time></trkpt><trkpt lat="45.887909" lon="9.4203941"><ele>649.0</ele><time>2026-03-29T09:38:24.448Z</time></trkpt><trkpt lat="45.8878117" lon="9.420272"><ele>649.0</ele><time>2026-03-29T09:38:25.448Z</time></trkpt><trkpt lat="45.8877159" lon="9.4201563"><ele>649.0</ele><time>2026-03-29T09:38:26.44Z</time></trkpt><trkpt lat="45.8876029" lon="9.4200841"><ele>649.0</ele><time>2026-03-29T09:38:27.45Z</time></trkpt><trkpt lat="45.8874796" lon="9.4200336"><ele>645.25</ele><time>2026-03-29T09:38:28.448Z</time></trkpt><trkpt lat="45.8873522" lon="9.4200163"><ele>641.5</ele><time>2026-03-29T09:38:29.445Z</time></trkpt><trkpt lat="45.8872229" lon="9.4200328"><ele>637.75</ele><time>2026-03-29T09:38:30.452Z</time></trkpt><trkpt lat="45.8870896" lon="9.4200655"><ele>634.0</ele><time>2026-03-29T09:38:31.445Z</time></trkpt><trkpt lat="45.8869565" lon="9.4200978"><ele>634.0</ele><time>2026-03-29T09:38:32.447Z</time></trkpt><trkpt lat="45.8868249" lon="9.4201239"><ele>634.0</ele><time>2026-03-29T09:38:33.459Z</time></trkpt><trkpt lat="45.8866941" lon="9.4201446"><ele>634.0</ele><time>2026-03-29T09:38:34.433Z</time></trkpt><trkpt lat="45.8865642" lon="9.4201561"><ele>634.0</ele><time>2026-03-29T09:38:35.429Z</time></trkpt><trkpt lat="45.8864344" lon="9.42015"><ele>632.25</ele><time>2026-03-29T09:38:36.45Z</time></trkpt><trkpt lat="45.8863074" lon="9.4201139"><ele>630.5</ele><time>2026-03-29T09:38:37.438Z</time></trkpt><trkpt lat="45.8861759" lon="9.4200556"><ele>628.75</ele><time>2026-03-29T09:38:38.447Z</time></trkpt><trkpt lat="45.8860402" lon="9.4199772"><ele>627.0</ele><time>2026-03-29T09:38:39.444Z</time></trkpt><trkpt lat="45.8859032" lon="9.4198841"><ele>627.0</ele><time>2026-03-29T09:38:40.447Z</time></trkpt><trkpt lat="45.8857694" lon="9.4197891"><ele>627.0</ele><time>2026-03-29T09:38:41.447Z</time></trkpt><trkpt lat="45.8856357" lon="9.419702"><ele>627.0</ele><time>2026-03-29T09:38:42.437Z</time></trkpt><trkpt lat="45.8855016" lon="9.4196213"><ele>627.0</ele><time>2026-03-29T09:38:43.45Z</time></trkpt><trkpt lat="45.8853643" lon="9.4195669"><ele>619.25</ele><time>2026-03-29T09:38:44.441Z</time></trkpt><trkpt lat="45.8852234" lon="9.4195245"><ele>611.5</ele><time>2026-03-29T09:38:45.444Z</time></trkpt><trkpt lat="45.8850837" lon="9.41949"><ele>603.75</ele><time>2026-03-29T09:38:46.45Z</time></trkpt><trkpt lat="45.8849415" lon="9.4194531"><ele>596.0</ele><time>2026-03-29T09:38:47.453Z</time></trkpt><trkpt lat="45.884804" lon="9.4194165"><ele>596.0</ele><time>2026-03-29T09:38:48.446Z</time></trkpt><trkpt lat="45.8846708" lon="9.4193888"><ele>596.0</ele><time>2026-03-29T09:38:49.439Z</time></trkpt><trkpt lat="45.8845458" lon="9.4193795"><ele>596.0</ele><time>2026-03-29T09:38:50.447Z</time></trkpt><trkpt lat="45.8844298" lon="9.41939"><ele>596.0</ele><time>2026-03-29T09:38:51.436Z</time></trkpt><trkpt lat="45.8843261" lon="9.4194029"><ele>596.0</ele><time>2026-03-29T09:38:52.439Z</time></trkpt><trkpt lat="45.8842363" lon="9.4193822"><ele>596.0</ele><time>2026-03-29T09:38:53.448Z</time></trkpt><trkpt lat="45.8841601" lon="9.4193478"><ele>596.0</ele><time>2026-03-29T09:38:54.449Z</time></trkpt><trkpt lat="45.8841331" lon="9.4192431"><ele>596.0</ele><time>2026-03-29T09:38:55.451Z</time></trkpt><trkpt lat="45.8841087" lon="9.419137"><ele>596.0</ele><time>2026-03-29T09:38:56.456Z</time></trkpt><trkpt lat="45.8841753" lon="9.4190583"><ele>596.0</ele><time>2026-03-29T09:38:57.449Z</time></trkpt><trkpt lat="45.884272" lon="9.4190201"><ele>596.0</ele><time>2026-03-29T09:38:58.46Z</time></trkpt><trkpt lat="45.8843845" lon="9.4190081"><ele>596.0</ele><time>2026-03-29T09:38:59.437Z</time></trkpt><trkpt lat="45.8845117" lon="9.4190014"><ele>596.0</ele><time>2026-03-29T09:39:00.447Z</time></trkpt><trkpt lat="45.884643" lon="9.4189949"><ele>596.0</ele><time>2026-03-29T09:39:01.457Z</time></trkpt><trkpt lat="45.8847731" lon="9.4189909"><ele>596.0</ele><time>2026-03-29T09:39:02.448Z</time></trkpt><trkpt lat="45.884911" lon="9.4189881"><ele>596.0</ele><time>2026-03-29T09:39:03.449Z</time></trkpt><trkpt lat="45.8850526" lon="9.4189927"><ele>596.0</ele><time>2026-03-29T09:39:04.442Z</time></trkpt><trkpt lat="45.8851932" lon="9.4189991"><ele>596.0</ele><time>2026-03-29T09:39:05.432Z</time></trkpt><trkpt lat="45.8853364" lon="9.4190115"><ele>595.5</ele><time>2026-03-29T09:39:06.461Z</time></trkpt><trkpt lat="45.8854763" lon="9.4190276"><ele>595.0</ele><time>2026-03-29T09:39:07.45Z</time></trkpt><trkpt lat="45.8856178" lon="9.4190383"><ele>594.5</ele><time>2026-03-29T09:39:08.434Z</time></trkpt><trkpt lat="45.8857563" lon="9.4190519"><ele>594.0</ele><time>2026-03-29T09:39:09.447Z</time></trkpt><trkpt lat="45.8858925" lon="9.4190419"><ele>595.5</ele><time>2026-03-29T09:39:10.45Z</time></trkpt><trkpt lat="45.8860325" lon="9.4190075"><ele>597.0</ele><time>2026-03-29T09:39:11.456Z</time></trkpt><trkpt lat="45.8861714" lon="9.4189339"><ele>598.5</ele><time>2026-03-29T09:39:12.451Z</time></trkpt><trkpt lat="45.886297" lon="9.4188311"><ele>600.0</ele><time>2026-03-29T09:39:13.446Z</time></trkpt><trkpt lat="45.8864123" lon="9.4187067"><ele>598.0</ele><time>2026-03-29T09:39:14.457Z</time></trkpt><trkpt lat="45.8865166" lon="9.4185731"><ele>596.0</ele><time>2026-03-29T09:39:15.449Z</time></trkpt><trkpt lat="45.8866151" lon="9.4184327"><ele>594.0</ele><time>2026-03-29T09:39:16.442Z</time></trkpt><trkpt lat="45.8867147" lon="9.4183012"><ele>592.0</ele><time>2026-03-29T09:39:17.446Z</time></trkpt><trkpt lat="45.8868179" lon="9.4181829"><ele>592.0</ele><time>2026-03-29T09:39:18.457Z</time></trkpt><trkpt lat="45.8869191" lon="9.4180736"><ele>592.0</ele><time>2026-03-29T09:39:19.458Z</time></trkpt><trkpt lat="45.8870334" lon="9.417996"><ele>592.0</ele><time>2026-03-29T09:39:20.437Z</time></trkpt><trkpt lat="45.8871472" lon="9.4179546"><ele>592.0</ele><time>2026-03-29T09:39:21.448Z</time></trkpt><trkpt lat="45.8872427" lon="9.4179111"><ele>591.8333333333334</ele><time>2026-03-29T09:39:22.449Z</time></trkpt><trkpt lat="45.8873176" lon="9.4178424"><ele>591.6666666666667</ele><time>2026-03-29T09:39:23.443Z</time></trkpt><trkpt lat="45.8873675" lon="9.4177405"><ele>591.5</ele><time>2026-03-29T09:39:24.445Z</time></trkpt><trkpt lat="45.8873975" lon="9.4176448"><ele>591.3333333333334</ele><time>2026-03-29T09:39:25.441Z</time></trkpt><trkpt lat="45.887364" lon="9.4175263"><ele>591.1666666666666</ele><time>2026-03-29T09:39:26.436Z</time></trkpt><trkpt lat="45.8872825" lon="9.4174222"><ele>591.0</ele><time>2026-03-29T09:39:27.445Z</time></trkpt><trkpt lat="45.8871839" lon="9.4173147"><ele>591.0</ele><time>2026-03-29T09:39:28.442Z</time></trkpt><trkpt lat="45.88705" lon="9.41725"><ele>591.0</ele><time>2026-03-29T09:39:29.444Z</time></trkpt><trkpt lat="45.8869171" lon="9.4171849"><ele>591.0</ele><time>2026-03-29T09:39:30.432Z</time></trkpt><trkpt lat="45.8867909" lon="9.4171077"><ele>591.0</ele><time>2026-03-29T09:39:31.443Z</time></trkpt><trkpt lat="45.8866696" lon="9.4170261"><ele>586.25</ele><time>2026-03-29T09:39:32.442Z</time></trkpt><trkpt lat="45.8865639" lon="9.4169369"><ele>581.5</ele><time>2026-03-29T09:39:33.447Z</time></trkpt><trkpt lat="45.8864906" lon="9.4168295"><ele>576.75</ele><time>2026-03-29T09:39:34.441Z</time></trkpt><trkpt lat="45.8864377" lon="9.4166914"><ele>572.0</ele><time>2026-03-29T09:39:35.434Z</time></trkpt><trkpt lat="45.8864009" lon="9.4165267"><ele>572.0</ele><time>2026-03-29T09:39:36.434Z</time></trkpt><trkpt lat="45.8863544" lon="9.4163412"><ele>572.0</ele><time>2026-03-29T09:39:37.436Z</time></trkpt><trkpt lat="45.8862995" lon="9.4161428"><ele>572.0</ele><time>2026-03-29T09:39:38.445Z</time></trkpt><trkpt lat="45.8862466" lon="9.4159353"><ele>572.0</ele><time>2026-03-29T09:39:39.447Z</time></trkpt><trkpt lat="45.8862043" lon="9.4157236"><ele>573.5</ele><time>2026-03-29T09:39:40.449Z</time></trkpt><trkpt lat="45.8861804" lon="9.4155089"><ele>575.0</ele><time>2026-03-29T09:39:41.447Z</time></trkpt><trkpt lat="45.8861774" lon="9.415292"><ele>576.5</ele><time>2026-03-29T09:39:42.446Z</time></trkpt><trkpt lat="45.8861735" lon="9.4150809"><ele>578.0</ele><time>2026-03-29T09:39:43.443Z</time></trkpt><trkpt lat="45.8861922" lon="9.4148628"><ele>575.0</ele><time>2026-03-29T09:39:44.445Z</time></trkpt><trkpt lat="45.8862137" lon="9.4146451"><ele>572.0</ele><time>2026-03-29T09:39:45.444Z</time></trkpt><trkpt lat="45.886233" lon="9.414432"><ele>569.0</ele><time>2026-03-29T09:39:46.441Z</time></trkpt><trkpt lat="45.8862497" lon="9.4142236"><ele>566.0</ele><time>2026-03-29T09:39:47.432Z</time></trkpt><trkpt lat="45.8862685" lon="9.414016"><ele>564.5</ele><time>2026-03-29T09:39:48.448Z</time></trkpt><trkpt lat="45.8862593" lon="9.4138197"><ele>563.0</ele><time>2026-03-29T09:39:49.45Z</time></trkpt><trkpt lat="45.8862262" lon="9.4136233"><ele>561.5</ele><time>2026-03-29T09:39:50.442Z</time></trkpt><trkpt lat="45.8861916" lon="9.4134237"><ele>560.0</ele><time>2026-03-29T09:39:51.433Z</time></trkpt><trkpt lat="45.8861137" lon="9.4132322"><ele>560.0</ele><time>2026-03-29T09:39:52.438Z</time></trkpt><trkpt lat="45.8860333" lon="9.4130232"><ele>560.0</ele><time>2026-03-29T09:39:53.447Z</time></trkpt><trkpt lat="45.8859565" lon="9.4127972"><ele>560.0</ele><time>2026-03-29T09:39:54.447Z</time></trkpt><trkpt lat="45.8858806" lon="9.4125726"><ele>557.0</ele><time>2026-03-29T09:39:55.444Z</time></trkpt><trkpt lat="45.8858082" lon="9.4123615"><ele>554.0</ele><time>2026-03-29T09:39:56.456Z</time></trkpt><trkpt lat="45.8857331" lon="9.4121431"><ele>551.0</ele><time>2026-03-29T09:39:57.435Z</time></trkpt><trkpt lat="45.8856552" lon="9.4119384"><ele>551.0</ele><time>2026-03-29T09:39:58.441Z</time></trkpt><trkpt lat="45.8855776" lon="9.4117368"><ele>551.0</ele><time>2026-03-29T09:39:59.442Z</time></trkpt><trkpt lat="45.8854898" lon="9.4115477"><ele>551.0</ele><time>2026-03-29T09:40:00.442Z</time></trkpt><trkpt lat="45.8854" lon="9.411358"><ele>555.75</ele><time>2026-03-29T09:40:01.442Z</time></trkpt><trkpt lat="45.8853025" lon="9.41119"><ele>560.5</ele><time>2026-03-29T09:40:02.44Z</time></trkpt><trkpt lat="45.885206" lon="9.4110304"><ele>565.25</ele><time>2026-03-29T09:40:03.442Z</time></trkpt><trkpt lat="45.8851127" lon="9.4108667"><ele>570.0</ele><time>2026-03-29T09:40:04.431Z</time></trkpt><trkpt lat="45.8850272" lon="9.4107153"><ele>561.0</ele><time>2026-03-29T09:40:05.436Z</time></trkpt><trkpt lat="45.8849555" lon="9.4105774"><ele>552.0</ele><time>2026-03-29T09:40:06.442Z</time></trkpt><trkpt lat="45.8849132" lon="9.4104303"><ele>543.0</ele><time>2026-03-29T09:40:07.428Z</time></trkpt><trkpt lat="45.8848708" lon="9.4103024"><ele>534.0</ele><time>2026-03-29T09:40:08.441Z</time></trkpt><trkpt lat="45.8848168" lon="9.4102126"><ele>525.0</ele><time>2026-03-29T09:40:09.443Z</time></trkpt><trkpt lat="45.8847491" lon="9.4101682"><ele>525.0</ele><time>2026-03-29T09:40:10.442Z</time></trkpt><trkpt lat="45.8846759" lon="9.4101817"><ele>525.0</ele><time>2026-03-29T09:40:11.442Z</time></trkpt><trkpt lat="45.8846101" lon="9.4102211"><ele>525.0</ele><time>2026-03-29T09:40:12.44Z</time></trkpt><trkpt lat="45.8845701" lon="9.4103192"><ele>525.0</ele><time>2026-03-29T09:40:13.448Z</time></trkpt><trkpt lat="45.884578" lon="9.410442"><ele>525.0</ele><time>2026-03-29T09:40:14.438Z</time></trkpt><trkpt lat="45.8846009" lon="9.4105746"><ele>525.0</ele><time>2026-03-29T09:40:15.427Z</time></trkpt><trkpt lat="45.8846262" lon="9.4107183"><ele>523.0</ele><time>2026-03-29T09:40:16.446Z</time></trkpt><trkpt lat="45.884647" lon="9.4108625"><ele>521.0</ele><time>2026-03-29T09:40:17.443Z</time></trkpt><trkpt lat="45.8846667" lon="9.4110114"><ele>519.0</ele><time>2026-03-29T09:40:18.448Z</time></trkpt><trkpt lat="45.8846864" lon="9.4111562"><ele>517.0</ele><time>2026-03-29T09:40:19.431Z</time></trkpt><trkpt lat="45.8846837" lon="9.411287"><ele>515.0</ele><time>2026-03-29T09:40:20.448Z</time></trkpt><trkpt lat="45.8846523" lon="9.4114006"><ele>513.6666666666666</ele><time>2026-03-29T09:40:21.443Z</time></trkpt><trkpt lat="45.8846189" lon="9.411505"><ele>512.3333333333333</ele><time>2026-03-29T09:40:22.444Z</time></trkpt><trkpt lat="45.8845473" lon="9.4115697"><ele>511.0</ele><time>2026-03-29T09:40:23.442Z</time></trkpt><trkpt lat="45.8844674" lon="9.4116047"><ele>509.66666666666663</ele><time>2026-03-29T09:40:24.436Z</time></trkpt><trkpt lat="45.8843789" lon="9.4116012"><ele>508.3333333333333</ele><time>2026-03-29T09:40:25.432Z</time></trkpt><trkpt lat="45.8842985" lon="9.4115535"><ele>507.0</ele><time>2026-03-29T09:40:26.443Z</time></trkpt><trkpt lat="45.8842312" lon="9.4114639"><ele>502.5</ele><time>2026-03-29T09:40:27.44Z</time></trkpt><trkpt lat="45.8841781" lon="9.4113383"><ele>498.0</ele><time>2026-03-29T09:40:28.441Z</time></trkpt><trkpt lat="45.8841314" lon="9.411188"><ele>493.5</ele><time>2026-03-29T09:40:29.433Z</time></trkpt><trkpt lat="45.8840856" lon="9.4110281"><ele>489.0</ele><time>2026-03-29T09:40:30.439Z</time></trkpt><trkpt lat="45.8840407" lon="9.4108718"><ele>488.5</ele><time>2026-03-29T09:40:31.437Z</time></trkpt><trkpt lat="45.8839939" lon="9.4107146"><ele>488.0</ele><time>2026-03-29T09:40:32.446Z</time></trkpt><trkpt lat="45.8839344" lon="9.4105626"><ele>487.5</ele><time>2026-03-29T09:40:33.445Z</time></trkpt><trkpt lat="45.8838599" lon="9.4104254"><ele>487.0</ele><time>2026-03-29T09:40:34.437Z</time></trkpt><trkpt lat="45.883775" lon="9.4103009"><ele>487.0</ele><time>2026-03-29T09:40:35.442Z</time></trkpt><trkpt lat="45.8836869" lon="9.4101863"><ele>487.00000000000006</ele><time>2026-03-29T09:40:36.439Z</time></trkpt><trkpt lat="45.8835978" lon="9.4100768"><ele>487.00000000000006</ele><time>2026-03-29T09:40:37.43Z</time></trkpt><trkpt lat="45.8835205" lon="9.4099707"><ele>487.0</ele><time>2026-03-29T09:40:38.444Z</time></trkpt><trkpt lat="45.8834695" lon="9.40986"><ele>487.0</ele><time>2026-03-29T09:40:39.451Z</time></trkpt><trkpt lat="45.883458" lon="9.4097491"><ele>486.33333333333337</ele><time>2026-03-29T09:40:40.454Z</time></trkpt><trkpt lat="45.8834859" lon="9.4096585"><ele>485.6666666666667</ele><time>2026-03-29T09:40:41.447Z</time></trkpt><trkpt lat="45.8835245" lon="9.4095714"><ele>485.0</ele><time>2026-03-29T09:40:42.442Z</time></trkpt><trkpt lat="45.8836169" lon="9.409535"><ele>484.33333333333337</ele><time>2026-03-29T09:40:43.445Z</time></trkpt><trkpt lat="45.8837086" lon="9.4094856"><ele>483.6666666666667</ele><time>2026-03-29T09:40:44.446Z</time></trkpt><trkpt lat="45.8838016" lon="9.4094329"><ele>483.0</ele><time>2026-03-29T09:40:45.438Z</time></trkpt><trkpt lat="45.8838906" lon="9.4093809"><ele>483.0</ele><time>2026-03-29T09:40:46.437Z</time></trkpt><trkpt lat="45.883976" lon="9.4093337"><ele>483.0</ele><time>2026-03-29T09:40:47.458Z</time></trkpt><trkpt lat="45.8840585" lon="9.4092895"><ele>483.0</ele><time>2026-03-29T09:40:48.436Z</time></trkpt><trkpt lat="45.8841301" lon="9.409233"><ele>483.0</ele><time>2026-03-29T09:40:49.437Z</time></trkpt><trkpt lat="45.8841792" lon="9.4091525"><ele>483.0</ele><time>2026-03-29T09:40:50.444Z</time></trkpt><trkpt lat="45.8841903" lon="9.4090611"><ele>483.0</ele><time>2026-03-29T09:40:51.439Z</time></trkpt><trkpt lat="45.8841112" lon="9.4089495"><ele>483.0</ele><time>2026-03-29T09:40:53.442Z</time></trkpt><trkpt lat="45.8840378" lon="9.4089497"><ele>482.99999999999994</ele><time>2026-03-29T09:40:54.446Z</time></trkpt><trkpt lat="45.8839538" lon="9.4089805"><ele>482.99999999999994</ele><time>2026-03-29T09:40:55.432Z</time></trkpt><trkpt lat="45.8838584" lon="9.4090278"><ele>483.0</ele><time>2026-03-29T09:40:56.446Z</time></trkpt><trkpt lat="45.8837583" lon="9.40908"><ele>483.0</ele><time>2026-03-29T09:40:57.444Z</time></trkpt><trkpt lat="45.8836506" lon="9.4091437"><ele>483.0</ele><time>2026-03-29T09:40:58.443Z</time></trkpt><trkpt lat="45.8835365" lon="9.4091932"><ele>483.0</ele><time>2026-03-29T09:40:59.444Z</time></trkpt><trkpt lat="45.8834271" lon="9.4092463"><ele>483.0</ele><time>2026-03-29T09:41:00.438Z</time></trkpt><trkpt lat="45.8833165" lon="9.4092975"><ele>483.0</ele><time>2026-03-29T09:41:01.448Z</time></trkpt><trkpt lat="45.8832072" lon="9.40936"><ele>477.79999999999995</ele><time>2026-03-29T09:41:02.426Z</time></trkpt><trkpt lat="45.883101" lon="9.4094235"><ele>472.59999999999997</ele><time>2026-03-29T09:41:03.445Z</time></trkpt><trkpt lat="45.8829977" lon="9.4094849"><ele>467.40000000000003</ele><time>2026-03-29T09:41:04.444Z</time></trkpt><trkpt lat="45.8828953" lon="9.4095386"><ele>462.20000000000005</ele><time>2026-03-29T09:41:05.438Z</time></trkpt><trkpt lat="45.8827951" lon="9.4095717"><ele>457.0</ele><time>2026-03-29T09:41:06.444Z</time></trkpt><trkpt lat="45.8827023" lon="9.4095798"><ele>457.0</ele><time>2026-03-29T09:41:07.443Z</time></trkpt><trkpt lat="45.8826153" lon="9.409533"><ele>457.00000000000006</ele><time>2026-03-29T09:41:08.45Z</time></trkpt><trkpt lat="45.8825322" lon="9.4094444"><ele>457.00000000000006</ele><time>2026-03-29T09:41:09.449Z</time></trkpt><trkpt lat="45.8824417" lon="9.4093376"><ele>457.0</ele><time>2026-03-29T09:41:10.443Z</time></trkpt><trkpt lat="45.8823461" lon="9.4092282"><ele>457.0</ele><time>2026-03-29T09:41:11.446Z</time></trkpt><trkpt lat="45.8822533" lon="9.4091151"><ele>457.0</ele><time>2026-03-29T09:41:12.437Z</time></trkpt><trkpt lat="45.8821653" lon="9.409011"><ele>457.0</ele><time>2026-03-29T09:41:13.446Z</time></trkpt><trkpt lat="45.8820486" lon="9.4089542"><ele>457.0</ele><time>2026-03-29T09:41:14.433Z</time></trkpt><trkpt lat="45.8819236" lon="9.4089138"><ele>457.0</ele><time>2026-03-29T09:41:15.444Z</time></trkpt><trkpt lat="45.8817937" lon="9.4088783"><ele>457.0</ele><time>2026-03-29T09:41:16.438Z</time></trkpt><trkpt lat="45.8816696" lon="9.4088331"><ele>457.0</ele><time>2026-03-29T09:41:17.452Z</time></trkpt><trkpt lat="45.8815526" lon="9.4087885"><ele>457.0</ele><time>2026-03-29T09:41:18.449Z</time></trkpt><trkpt lat="45.8814522" lon="9.4087102"><ele>457.0</ele><time>2026-03-29T09:41:19.448Z</time></trkpt><trkpt lat="45.8813498" lon="9.4086313"><ele>457.0</ele><time>2026-03-29T09:41:20.445Z</time></trkpt><trkpt lat="45.8812438" lon="9.408546"><ele>457.0</ele><time>2026-03-29T09:41:21.448Z</time></trkpt><trkpt lat="45.881148" lon="9.4084272"><ele>457.0</ele><time>2026-03-29T09:41:22.442Z</time></trkpt><trkpt lat="45.8810537" lon="9.4083002"><ele>457.0</ele><time>2026-03-29T09:41:23.448Z</time></trkpt><trkpt lat="45.8809594" lon="9.4081778"><ele>453.75</ele><time>2026-03-29T09:41:24.452Z</time></trkpt><trkpt lat="45.8808631" lon="9.4080547"><ele>450.5</ele><time>2026-03-29T09:41:25.442Z</time></trkpt><trkpt lat="45.8807664" lon="9.4079409"><ele>447.25</ele><time>2026-03-29T09:41:26.457Z</time></trkpt><trkpt lat="45.8806717" lon="9.407836"><ele>444.0</ele><time>2026-03-29T09:41:27.448Z</time></trkpt><trkpt lat="45.8805863" lon="9.4077363"><ele>444.0</ele><time>2026-03-29T09:41:28.444Z</time></trkpt><trkpt lat="45.8805049" lon="9.4076525"><ele>444.0</ele><time>2026-03-29T09:41:29.444Z</time></trkpt><trkpt lat="45.8804226" lon="9.4075848"><ele>444.0</ele><time>2026-03-29T09:41:30.443Z</time></trkpt><trkpt lat="45.8803365" lon="9.4075536"><ele>444.0</ele><time>2026-03-29T09:41:31.443Z</time></trkpt><trkpt lat="45.8802343" lon="9.4075405"><ele>444.0</ele><time>2026-03-29T09:41:32.444Z</time></trkpt><trkpt lat="45.8801253" lon="9.4075246"><ele>442.6</ele><time>2026-03-29T09:41:33.443Z</time></trkpt><trkpt lat="45.8800172" lon="9.4075003"><ele>441.2</ele><time>2026-03-29T09:41:34.445Z</time></trkpt><trkpt lat="45.8799089" lon="9.4074611"><ele>439.80000000000007</ele><time>2026-03-29T09:41:35.442Z</time></trkpt><trkpt lat="45.8798052" lon="9.4074238"><ele>438.40000000000003</ele><time>2026-03-29T09:41:36.448Z</time></trkpt><trkpt lat="45.8797036" lon="9.4073744"><ele>437.0</ele><time>2026-03-29T09:41:37.438Z</time></trkpt><trkpt lat="45.8795992" lon="9.4073208"><ele>437.0</ele><time>2026-03-29T09:41:38.435Z</time></trkpt><trkpt lat="45.8794949" lon="9.40726"><ele>437.00000000000006</ele><time>2026-03-29T09:41:39.445Z</time></trkpt><trkpt lat="45.8793942" lon="9.407197"><ele>437.00000000000006</ele><time>2026-03-29T09:41:40.446Z</time></trkpt><trkpt lat="45.8792992" lon="9.4071314"><ele>437.0</ele><time>2026-03-29T09:41:41.431Z</time></trkpt><trkpt lat="45.879207" lon="9.4070694"><ele>437.0</ele><time>2026-03-29T09:41:42.433Z</time></trkpt><trkpt lat="45.87913" lon="9.4069801"><ele>436.5</ele><time>2026-03-29T09:41:43.444Z</time></trkpt><trkpt lat="45.8790501" lon="9.4068744"><ele>436.0</ele><time>2026-03-29T09:41:44.448Z</time></trkpt><trkpt lat="45.8789647" lon="9.4067615"><ele>435.5</ele><time>2026-03-29T09:41:45.44Z</time></trkpt><trkpt lat="45.8788804" lon="9.4066473"><ele>435.0</ele><time>2026-03-29T09:41:46.435Z</time></trkpt><trkpt lat="45.8787966" lon="9.4065353"><ele>435.0</ele><time>2026-03-29T09:41:47.442Z</time></trkpt><trkpt lat="45.8787174" lon="9.4064301"><ele>435.0</ele><time>2026-03-29T09:41:48.442Z</time></trkpt><trkpt lat="45.8786394" lon="9.4063243"><ele>435.0</ele><time>2026-03-29T09:41:49.435Z</time></trkpt><trkpt lat="45.8785732" lon="9.4062191"><ele>435.0</ele><time>2026-03-29T09:41:50.445Z</time></trkpt><trkpt lat="45.8785114" lon="9.406115"><ele>435.0</ele><time>2026-03-29T09:41:51.441Z</time></trkpt><trkpt lat="45.87845" lon="9.4060065"><ele>435.4</ele><time>2026-03-29T09:41:52.446Z</time></trkpt><trkpt lat="45.87839" lon="9.4058925"><ele>435.8</ele><time>2026-03-29T09:41:53.43Z</time></trkpt><trkpt lat="45.8783315" lon="9.4057675"><ele>436.20000000000005</ele><time>2026-03-29T09:41:54.442Z</time></trkpt><trkpt lat="45.8782735" lon="9.4056353"><ele>436.6</ele><time>2026-03-29T09:41:55.445Z</time></trkpt><trkpt lat="45.8782188" lon="9.4055101"><ele>437.0</ele><time>2026-03-29T09:41:56.444Z</time></trkpt><trkpt lat="45.8781643" lon="9.4053865"><ele>437.0</ele><time>2026-03-29T09:41:57.442Z</time></trkpt><trkpt lat="45.8781019" lon="9.405276"><ele>437.00000000000006</ele><time>2026-03-29T09:41:58.447Z</time></trkpt><trkpt lat="45.8780318" lon="9.4051751"><ele>437.00000000000006</ele><time>2026-03-29T09:41:59.438Z</time></trkpt><trkpt lat="45.8779465" lon="9.4050759"><ele>437.0</ele><time>2026-03-29T09:42:00.442Z</time></trkpt><trkpt lat="45.8778575" lon="9.4049724"><ele>437.0</ele><time>2026-03-29T09:42:01.446Z</time></trkpt><trkpt lat="45.8777445" lon="9.4048821"><ele>437.0</ele><time>2026-03-29T09:42:02.446Z</time></trkpt><trkpt lat="45.877631" lon="9.4047918"><ele>437.0</ele><time>2026-03-29T09:42:03.445Z</time></trkpt><trkpt lat="45.8775142" lon="9.4046968"><ele>437.0</ele><time>2026-03-29T09:42:04.444Z</time></trkpt><trkpt lat="45.8773968" lon="9.4046022"><ele>437.0</ele><time>2026-03-29T09:42:05.455Z</time></trkpt><trkpt lat="45.8772805" lon="9.4045141"><ele>438.0</ele><time>2026-03-29T09:42:06.443Z</time></trkpt><trkpt lat="45.8771673" lon="9.4044267"><ele>439.0</ele><time>2026-03-29T09:42:07.437Z</time></trkpt><trkpt lat="45.8770603" lon="9.404339"><ele>440.0</ele><time>2026-03-29T09:42:08.456Z</time></trkpt><trkpt lat="45.8769545" lon="9.4042552"><ele>441.0</ele><time>2026-03-29T09:42:09.447Z</time></trkpt><trkpt lat="45.8768515" lon="9.4041728"><ele>434.0</ele><time>2026-03-29T09:42:10.438Z</time></trkpt><trkpt lat="45.8767494" lon="9.4040986"><ele>427.0</ele><time>2026-03-29T09:42:11.439Z</time></trkpt><trkpt lat="45.8766438" lon="9.4040368"><ele>420.0</ele><time>2026-03-29T09:42:12.441Z</time></trkpt><trkpt lat="45.876533" lon="9.4039923"><ele>413.0</ele><time>2026-03-29T09:42:13.44Z</time></trkpt><trkpt lat="45.8764179" lon="9.4039506"><ele>413.0</ele><time>2026-03-29T09:42:14.437Z</time></trkpt><trkpt lat="45.8763045" lon="9.4039091"><ele>413.0</ele><time>2026-03-29T09:42:15.444Z</time></trkpt><trkpt lat="45.876186" lon="9.4038414"><ele>413.0</ele><time>2026-03-29T09:42:16.439Z</time></trkpt><trkpt lat="45.8760623" lon="9.4037542"><ele>413.0</ele><time>2026-03-29T09:42:17.438Z</time></trkpt><trkpt lat="45.8759391" lon="9.4036684"><ele>415.25</ele><time>2026-03-29T09:42:18.433Z</time></trkpt><trkpt lat="45.875816" lon="9.4035886"><ele>417.5</ele><time>2026-03-29T09:42:19.444Z</time></trkpt><trkpt lat="45.8756968" lon="9.4035041"><ele>419.75</ele><time>2026-03-29T09:42:20.453Z</time></trkpt><trkpt lat="45.8755789" lon="9.4034277"><ele>422.0</ele><time>2026-03-29T09:42:21.44Z</time></trkpt><trkpt lat="45.8754669" lon="9.403341"><ele>422.0</ele><time>2026-03-29T09:42:22.431Z</time></trkpt><trkpt lat="45.8753566" lon="9.4032567"><ele>422.0</ele><time>2026-03-29T09:42:23.45Z</time></trkpt><trkpt lat="45.8752476" lon="9.4031595"><ele>422.0</ele><time>2026-03-29T09:42:24.452Z</time></trkpt><trkpt lat="45.8751397" lon="9.4030488"><ele>422.0</ele><time>2026-03-29T09:42:25.441Z</time></trkpt><trkpt lat="45.8750335" lon="9.4029391"><ele>418.8</ele><time>2026-03-29T09:42:26.446Z</time></trkpt><trkpt lat="45.8749374" lon="9.402825"><ele>415.6</ele><time>2026-03-29T09:42:27.453Z</time></trkpt><trkpt lat="45.8748456" lon="9.4027197"><ele>412.40000000000003</ele><time>2026-03-29T09:42:28.452Z</time></trkpt><trkpt lat="45.8747653" lon="9.4026267"><ele>409.20000000000005</ele><time>2026-03-29T09:42:29.453Z</time></trkpt><trkpt lat="45.8746967" lon="9.402546"><ele>406.0</ele><time>2026-03-29T09:42:30.45Z</time></trkpt><trkpt lat="45.8746319" lon="9.4024732"><ele>406.00000000000006</ele><time>2026-03-29T09:42:31.433Z</time></trkpt><trkpt lat="45.8745675" lon="9.4024111"><ele>406.0</ele><time>2026-03-29T09:42:32.442Z</time></trkpt><trkpt lat="45.8744999" lon="9.4023558"><ele>406.0</ele><time>2026-03-29T09:42:33.442Z</time></trkpt><trkpt lat="45.8744309" lon="9.4023047"><ele>406.0</ele><time>2026-03-29T09:42:34.441Z</time></trkpt><trkpt lat="45.8743562" lon="9.4022567"><ele>406.00000000000006</ele><time>2026-03-29T09:42:35.423Z</time></trkpt><trkpt lat="45.8742787" lon="9.4022109"><ele>406.0</ele><time>2026-03-29T09:42:36.438Z</time></trkpt><trkpt lat="45.8742032" lon="9.402166"><ele>404.85714285714283</ele><time>2026-03-29T09:42:37.44Z</time></trkpt><trkpt lat="45.8741319" lon="9.4021219"><ele>403.7142857142857</ele><time>2026-03-29T09:42:38.447Z</time></trkpt><trkpt lat="45.8740647" lon="9.4020809"><ele>402.57142857142856</ele><time>2026-03-29T09:42:39.447Z</time></trkpt><trkpt lat="45.8739941" lon="9.4020425"><ele>401.42857142857144</ele><time>2026-03-29T09:42:40.441Z</time></trkpt><trkpt lat="45.8739246" lon="9.4020024"><ele>400.2857142857143</ele><time>2026-03-29T09:42:41.448Z</time></trkpt><trkpt lat="45.8738556" lon="9.4019637"><ele>399.1428571428571</ele><time>2026-03-29T09:42:42.449Z</time></trkpt><trkpt lat="45.8737947" lon="9.4019198"><ele>398.0</ele><time>2026-03-29T09:42:43.438Z</time></trkpt><trkpt lat="45.8736822" lon="9.4019044"><ele>398.0</ele><time>2026-03-29T09:42:45.455Z</time></trkpt><trkpt lat="45.8735887" lon="9.4019721"><ele>398.0</ele><time>2026-03-29T09:42:47.451Z</time></trkpt><trkpt lat="45.8735342" lon="9.4020826"><ele>398.0</ele><time>2026-03-29T09:42:49.453Z</time></trkpt><trkpt lat="45.8735221" lon="9.4022255"><ele>398.0</ele><time>2026-03-29T09:42:51.446Z</time></trkpt><trkpt lat="45.8735507" lon="9.4023173"><ele>398.0</ele><time>2026-03-29T09:42:52.437Z</time></trkpt><trkpt lat="45.8736024" lon="9.4024195"><ele>394.59999999999997</ele><time>2026-03-29T09:42:53.443Z</time></trkpt><trkpt lat="45.8736595" lon="9.4025289"><ele>391.2</ele><time>2026-03-29T09:42:54.442Z</time></trkpt><trkpt lat="45.873717" lon="9.402638"><ele>387.8</ele><time>2026-03-29T09:42:55.454Z</time></trkpt><trkpt lat="45.8737802" lon="9.4027323"><ele>384.4</ele><time>2026-03-29T09:42:56.452Z</time></trkpt><trkpt lat="45.8738444" lon="9.402812"><ele>381.0</ele><time>2026-03-29T09:42:57.429Z</time></trkpt><trkpt lat="45.8739199" lon="9.4028809"><ele>381.0</ele><time>2026-03-29T09:42:58.435Z</time></trkpt><trkpt lat="45.87401" lon="9.4029419"><ele>381.0</ele><time>2026-03-29T09:42:59.451Z</time></trkpt><trkpt lat="45.8740991" lon="9.4029837"><ele>381.0</ele><time>2026-03-29T09:43:00.44Z</time></trkpt><trkpt lat="45.8741814" lon="9.4030271"><ele>381.0</ele><time>2026-03-29T09:43:01.451Z</time></trkpt><trkpt lat="45.8742576" lon="9.4030619"><ele>381.0</ele><time>2026-03-29T09:43:02.446Z</time></trkpt><trkpt lat="45.8743376" lon="9.4030831"><ele>381.0</ele><time>2026-03-29T09:43:03.447Z</time></trkpt><trkpt lat="45.8744184" lon="9.4031215"><ele>382.20000000000005</ele><time>2026-03-29T09:43:04.446Z</time></trkpt><trkpt lat="45.8745072" lon="9.4031974"><ele>383.40000000000003</ele><time>2026-03-29T09:43:05.451Z</time></trkpt><trkpt lat="45.8745891" lon="9.4032815"><ele>384.6</ele><time>2026-03-29T09:43:06.446Z</time></trkpt><trkpt lat="45.8746623" lon="9.4033619"><ele>385.8</ele><time>2026-03-29T09:43:07.44Z</time></trkpt><trkpt lat="45.8747302" lon="9.4034389"><ele>387.0</ele><time>2026-03-29T09:43:08.44Z</time></trkpt><trkpt lat="45.8747833" lon="9.4035025"><ele>387.0</ele><time>2026-03-29T09:43:09.44Z</time></trkpt><trkpt lat="45.8748094" lon="9.4035914"><ele>387.0</ele><time>2026-03-29T09:43:10.43Z</time></trkpt><trkpt lat="45.8747979" lon="9.4036933"><ele>387.0</ele><time>2026-03-29T09:43:11.448Z</time></trkpt><trkpt lat="45.8747421" lon="9.4038035"><ele>387.0</ele><time>2026-03-29T09:43:12.438Z</time></trkpt><trkpt lat="45.874656" lon="9.4039096"><ele>387.0</ele><time>2026-03-29T09:43:13.44Z</time></trkpt><trkpt lat="45.874557" lon="9.4040257"><ele>384.6</ele><time>2026-03-29T09:43:14.445Z</time></trkpt><trkpt lat="45.8744574" lon="9.4041292"><ele>382.20000000000005</ele><time>2026-03-29T09:43:15.474Z</time></trkpt><trkpt lat="45.8743571" lon="9.4041928"><ele>379.8</ele><time>2026-03-29T09:43:16.451Z</time></trkpt><trkpt lat="45.8742653" lon="9.404245"><ele>377.4</ele><time>2026-03-29T09:43:17.447Z</time></trkpt><trkpt lat="45.8741709" lon="9.4042938"><ele>375.0</ele><time>2026-03-29T09:43:18.439Z</time></trkpt><trkpt lat="45.874081" lon="9.4043237"><ele>374.0</ele><time>2026-03-29T09:43:19.445Z</time></trkpt><trkpt lat="45.8739925" lon="9.4043009"><ele>373.0</ele><time>2026-03-29T09:43:20.449Z</time></trkpt><trkpt lat="45.8738952" lon="9.4042746"><ele>372.0</ele><time>2026-03-29T09:43:21.434Z</time></trkpt><trkpt lat="45.8737613" lon="9.4042206"><ele>371.0</ele><time>2026-03-29T09:43:22.447Z</time></trkpt><trkpt lat="45.8736384" lon="9.404186"><ele>371.0</ele><time>2026-03-29T09:43:23.451Z</time></trkpt><trkpt lat="45.8735138" lon="9.4041554"><ele>371.0</ele><time>2026-03-29T09:43:24.436Z</time></trkpt><trkpt lat="45.8733872" lon="9.404134"><ele>371.0</ele><time>2026-03-29T09:43:25.445Z</time></trkpt><trkpt lat="45.8732592" lon="9.4041158"><ele>371.0</ele><time>2026-03-29T09:43:26.45Z</time></trkpt><trkpt lat="45.8731378" lon="9.4041056"><ele>370.75</ele><time>2026-03-29T09:43:27.428Z</time></trkpt><trkpt lat="45.8730109" lon="9.4041133"><ele>370.5</ele><time>2026-03-29T09:43:28.455Z</time></trkpt><trkpt lat="45.8728854" lon="9.404121"><ele>370.25</ele><time>2026-03-29T09:43:29.442Z</time></trkpt><trkpt lat="45.8727554" lon="9.4041349"><ele>370.0</ele><time>2026-03-29T09:43:30.445Z</time></trkpt><trkpt lat="45.8726311" lon="9.4041488"><ele>368.5</ele><time>2026-03-29T09:43:31.445Z</time></trkpt><trkpt lat="45.8725094" lon="9.4041417"><ele>367.0</ele><time>2026-03-29T09:43:32.446Z</time></trkpt><trkpt lat="45.872401" lon="9.4041087"><ele>365.5</ele><time>2026-03-29T09:43:33.45Z</time></trkpt><trkpt lat="45.8722921" lon="9.4040745"><ele>364.0</ele><time>2026-03-29T09:43:34.438Z</time></trkpt><trkpt lat="45.8721809" lon="9.4039854"><ele>364.0</ele><time>2026-03-29T09:43:35.439Z</time></trkpt><trkpt lat="45.8720702" lon="9.4038916"><ele>364.0</ele><time>2026-03-29T09:43:36.452Z</time></trkpt><trkpt lat="45.8719625" lon="9.4038096"><ele>364.0</ele><time>2026-03-29T09:43:37.43Z</time></trkpt><trkpt lat="45.8718519" lon="9.4037269"><ele>364.0</ele><time>2026-03-29T09:43:38.429Z</time></trkpt><trkpt lat="45.8717361" lon="9.4036394"><ele>359.25</ele><time>2026-03-29T09:43:39.451Z</time></trkpt><trkpt lat="45.8716159" lon="9.4035468"><ele>354.5</ele><time>2026-03-29T09:43:40.439Z</time></trkpt><trkpt lat="45.871498" lon="9.4034511"><ele>349.75</ele><time>2026-03-29T09:43:41.434Z</time></trkpt><trkpt lat="45.871384" lon="9.403354"><ele>345.0</ele><time>2026-03-29T09:43:42.439Z</time></trkpt><trkpt lat="45.8712737" lon="9.4032563"><ele>345.0</ele><time>2026-03-29T09:43:43.441Z</time></trkpt><trkpt lat="45.8711679" lon="9.4031622"><ele>345.0</ele><time>2026-03-29T09:43:44.446Z</time></trkpt><trkpt lat="45.8710686" lon="9.4030818"><ele>345.0</ele><time>2026-03-29T09:43:45.446Z</time></trkpt><trkpt lat="45.870969" lon="9.4030022"><ele>345.0</ele><time>2026-03-29T09:43:46.436Z</time></trkpt><trkpt lat="45.8708646" lon="9.402963"><ele>343.2</ele><time>2026-03-29T09:43:47.446Z</time></trkpt><trkpt lat="45.8707621" lon="9.4029403"><ele>341.4</ele><time>2026-03-29T09:43:48.439Z</time></trkpt><trkpt lat="45.8706575" lon="9.4029188"><ele>339.6</ele><time>2026-03-29T09:43:49.461Z</time></trkpt><trkpt lat="45.8705571" lon="9.4029163"><ele>337.8</ele><time>2026-03-29T09:43:50.435Z</time></trkpt><trkpt lat="45.8704558" lon="9.4029127"><ele>336.0</ele><time>2026-03-29T09:43:51.444Z</time></trkpt><trkpt lat="45.87035" lon="9.4029276"><ele>336.0</ele><time>2026-03-29T09:43:52.436Z</time></trkpt><trkpt lat="45.8702418" lon="9.4029438"><ele>336.0</ele><time>2026-03-29T09:43:53.447Z</time></trkpt><trkpt lat="45.8701326" lon="9.4029428"><ele>336.0</ele><time>2026-03-29T09:43:54.444Z</time></trkpt><trkpt lat="45.8700256" lon="9.4029249"><ele>336.0</ele><time>2026-03-29T09:43:55.446Z</time></trkpt><trkpt lat="45.869928" lon="9.402888"><ele>336.0</ele><time>2026-03-29T09:43:56.453Z</time></trkpt><trkpt lat="45.8698247" lon="9.4028381"><ele>335.20000000000005</ele><time>2026-03-29T09:43:57.45Z</time></trkpt><trkpt lat="45.8697229" lon="9.4027898"><ele>334.40000000000003</ele><time>2026-03-29T09:43:58.444Z</time></trkpt><trkpt lat="45.8696244" lon="9.4027416"><ele>333.6</ele><time>2026-03-29T09:43:59.45Z</time></trkpt><trkpt lat="45.8695295" lon="9.4026924"><ele>332.8</ele><time>2026-03-29T09:44:00.434Z</time></trkpt><trkpt lat="45.8694344" lon="9.4026741"><ele>332.0</ele><time>2026-03-29T09:44:01.443Z</time></trkpt><trkpt lat="45.8693416" lon="9.4026834"><ele>331.5</ele><time>2026-03-29T09:44:02.436Z</time></trkpt><trkpt lat="45.8692524" lon="9.4027141"><ele>331.0</ele><time>2026-03-29T09:44:03.445Z</time></trkpt><trkpt lat="45.8691646" lon="9.4027461"><ele>330.5</ele><time>2026-03-29T09:44:04.44Z</time></trkpt><trkpt lat="45.8690938" lon="9.4028199"><ele>330.0</ele><time>2026-03-29T09:44:05.45Z</time></trkpt><trkpt lat="45.8690143" lon="9.4028671"><ele>329.5</ele><time>2026-03-29T09:44:06.44Z</time></trkpt><trkpt lat="45.8689348" lon="9.4029108"><ele>329.0</ele><time>2026-03-29T09:44:07.442Z</time></trkpt><trkpt lat="45.8688704" lon="9.402975"><ele>330.5</ele><time>2026-03-29T09:44:08.456Z</time></trkpt><trkpt lat="45.8688165" lon="9.4030599"><ele>332.0</ele><time>2026-03-29T09:44:09.45Z</time></trkpt><trkpt lat="45.8687758" lon="9.4031639"><ele>333.5</ele><time>2026-03-29T09:44:10.445Z</time></trkpt><trkpt lat="45.8687451" lon="9.4032874"><ele>335.0</ele><time>2026-03-29T09:44:11.45Z</time></trkpt><trkpt lat="45.8687215" lon="9.4034118"><ele>336.5</ele><time>2026-03-29T09:44:12.458Z</time></trkpt><trkpt lat="45.8687041" lon="9.4035267"><ele>338.0</ele><time>2026-03-29T09:44:13.449Z</time></trkpt><trkpt lat="45.8686856" lon="9.4036318"><ele>338.0</ele><time>2026-03-29T09:44:14.438Z</time></trkpt><trkpt lat="45.8686665" lon="9.4037323"><ele>338.0</ele><time>2026-03-29T09:44:15.437Z</time></trkpt><trkpt lat="45.8686132" lon="9.4037876"><ele>338.0</ele><time>2026-03-29T09:44:16.454Z</time></trkpt><trkpt lat="45.8685423" lon="9.4038252"><ele>338.0</ele><time>2026-03-29T09:44:17.434Z</time></trkpt><trkpt lat="45.8684707" lon="9.4038606"><ele>338.0</ele><time>2026-03-29T09:44:18.453Z</time></trkpt><trkpt lat="45.8683743" lon="9.4038645"><ele>338.0</ele><time>2026-03-29T09:44:19.452Z</time></trkpt><trkpt lat="45.8682691" lon="9.4038653"><ele>335.59999999999997</ele><time>2026-03-29T09:44:20.449Z</time></trkpt><trkpt lat="45.8681681" lon="9.4038629"><ele>333.2</ele><time>2026-03-29T09:44:21.444Z</time></trkpt><trkpt lat="45.868072" lon="9.4038481"><ele>330.8</ele><time>2026-03-29T09:44:22.447Z</time></trkpt><trkpt lat="45.86798" lon="9.403811"><ele>328.4</ele><time>2026-03-29T09:44:23.458Z</time></trkpt><trkpt lat="45.8678884" lon="9.4037663"><ele>326.0</ele><time>2026-03-29T09:44:24.452Z</time></trkpt><trkpt lat="45.8678043" lon="9.4037219"><ele>325.33333333333337</ele><time>2026-03-29T09:44:25.449Z</time></trkpt><trkpt lat="45.8677354" lon="9.4036837"><ele>324.6666666666667</ele><time>2026-03-29T09:44:26.445Z</time></trkpt><trkpt lat="45.8676377" lon="9.4036706"><ele>324.0</ele><time>2026-03-29T09:44:28.46Z</time></trkpt><trkpt lat="45.8675738" lon="9.4037178"><ele>323.3333333333333</ele><time>2026-03-29T09:44:30.451Z</time></trkpt><trkpt lat="45.8675363" lon="9.4037988"><ele>322.66666666666663</ele><time>2026-03-29T09:44:33.451Z</time></trkpt><trkpt lat="45.8675326" lon="9.4039007"><ele>322.0</ele><time>2026-03-29T09:44:36.449Z</time></trkpt><trkpt lat="45.8675742" lon="9.4037738"><ele>322.0</ele><time>2026-03-29T09:44:58.444Z</time></trkpt><trkpt lat="45.8676423" lon="9.4036973"><ele>322.0</ele><time>2026-03-29T09:45:00.449Z</time></trkpt><trkpt lat="45.867756" lon="9.4037053"><ele>322.0</ele><time>2026-03-29T09:45:02.449Z</time></trkpt><trkpt lat="45.8678639" lon="9.4037702"><ele>322.0</ele><time>2026-03-29T09:45:03.454Z</time></trkpt><trkpt lat="45.8679781" lon="9.4038351"><ele>322.0</ele><time>2026-03-29T09:45:04.452Z</time></trkpt><trkpt lat="45.8680851" lon="9.4038676"><ele>322.66666666666663</ele><time>2026-03-29T09:45:05.455Z</time></trkpt><trkpt lat="45.8681844" lon="9.4038778"><ele>323.3333333333333</ele><time>2026-03-29T09:45:06.459Z</time></trkpt><trkpt lat="45.8682747" lon="9.4038731"><ele>324.0</ele><time>2026-03-29T09:45:07.43Z</time></trkpt><trkpt lat="45.8683615" lon="9.4038704"><ele>324.6666666666667</ele><time>2026-03-29T09:45:08.462Z</time></trkpt><trkpt lat="45.8684473" lon="9.4038677"><ele>325.33333333333337</ele><time>2026-03-29T09:45:09.438Z</time></trkpt><trkpt lat="45.8685208" lon="9.4038669"><ele>326.0</ele><time>2026-03-29T09:45:10.464Z</time></trkpt><trkpt lat="45.8685857" lon="9.4038526"><ele>328.0</ele><time>2026-03-29T09:45:12.455Z</time></trkpt><trkpt lat="45.8686588" lon="9.4037793"><ele>330.0</ele><time>2026-03-29T09:45:16.45Z</time></trkpt><trkpt lat="45.8687023" lon="9.4036341"><ele>332.0</ele><time>2026-03-29T09:45:18.446Z</time></trkpt><trkpt lat="45.8687195" lon="9.4035426"><ele>334.0</ele><time>2026-03-29T09:45:19.452Z</time></trkpt><trkpt lat="45.8687327" lon="9.4034465"><ele>336.0</ele><time>2026-03-29T09:45:20.454Z</time></trkpt><trkpt lat="45.8687491" lon="9.4033549"><ele>338.0</ele><time>2026-03-29T09:45:21.439Z</time></trkpt><trkpt lat="45.8687766" lon="9.4032008"><ele>338.0</ele><time>2026-03-29T09:45:23.449Z</time></trkpt><trkpt lat="45.8687852" lon="9.4030922"><ele>338.0</ele><time>2026-03-29T09:45:25.458Z</time></trkpt><trkpt lat="45.8688092" lon="9.4029617"><ele>338.0</ele><time>2026-03-29T09:45:27.445Z</time></trkpt><trkpt lat="45.8688426" lon="9.4028462"><ele>338.0</ele><time>2026-03-29T09:45:29.449Z</time></trkpt><trkpt lat="45.8688737" lon="9.4027499"><ele>338.0</ele><time>2026-03-29T09:45:31.438Z</time></trkpt><trkpt lat="45.8689052" lon="9.40265"><ele>338.0</ele><time>2026-03-29T09:45:33.461Z</time></trkpt><trkpt lat="45.8689357" lon="9.4025661"><ele>336.5</ele><time>2026-03-29T09:45:35.441Z</time></trkpt><trkpt lat="45.8689645" lon="9.4024781"><ele>335.0</ele><time>2026-03-29T09:45:37.442Z</time></trkpt><trkpt lat="45.869024" lon="9.4023942"><ele>333.5</ele><time>2026-03-29T09:45:40.443Z</time></trkpt><trkpt lat="45.8690853" lon="9.4023337"><ele>332.0</ele><time>2026-03-29T09:45:43.443Z</time></trkpt><trkpt lat="45.8690989" lon="9.4022252"><ele>330.5</ele><time>2026-03-29T09:45:48.457Z</time></trkpt><trkpt lat="45.8690465" lon="9.4021529"><ele>329.0</ele><time>2026-03-29T09:45:50.446Z</time></trkpt><trkpt lat="45.8689679" lon="9.4020763"><ele>326.83333333333337</ele><time>2026-03-29T09:45:52.442Z</time></trkpt><trkpt lat="45.8688692" lon="9.4019855"><ele>324.6666666666667</ele><time>2026-03-29T09:45:54.449Z</time></trkpt><trkpt lat="45.8688187" lon="9.4019238"><ele>322.5</ele><time>2026-03-29T09:45:55.448Z</time></trkpt><trkpt lat="45.8687623" lon="9.401859"><ele>320.3333333333333</ele><time>2026-03-29T09:45:56.444Z</time></trkpt><trkpt lat="45.8687139" lon="9.4017841"><ele>318.16666666666663</ele><time>2026-03-29T09:45:57.44Z</time></trkpt><trkpt lat="45.8686623" lon="9.4017009"><ele>316.0</ele><time>2026-03-29T09:45:58.459Z</time></trkpt><trkpt lat="45.8686142" lon="9.4016163"><ele>316.0</ele><time>2026-03-29T09:45:59.445Z</time></trkpt><trkpt lat="45.8685651" lon="9.4015425"><ele>316.0</ele><time>2026-03-29T09:46:00.434Z</time></trkpt><trkpt lat="45.8685122" lon="9.4014706"><ele>316.0</ele><time>2026-03-29T09:46:01.457Z</time></trkpt><trkpt lat="45.8684116" lon="9.4013687"><ele>316.0</ele><time>2026-03-29T09:46:03.433Z</time></trkpt><trkpt lat="45.8682913" lon="9.4013172"><ele>316.0</ele><time>2026-03-29T09:46:05.455Z</time></trkpt><trkpt lat="45.8681804" lon="9.4012587"><ele>314.8333333333333</ele><time>2026-03-29T09:46:07.44Z</time></trkpt><trkpt lat="45.8681201" lon="9.4012126"><ele>313.66666666666663</ele><time>2026-03-29T09:46:08.449Z</time></trkpt><trkpt lat="45.868059" lon="9.4011773"><ele>312.5</ele><time>2026-03-29T09:46:09.451Z</time></trkpt><trkpt lat="45.8679978" lon="9.4011387"><ele>311.3333333333333</ele><time>2026-03-29T09:46:10.452Z</time></trkpt><trkpt lat="45.867885" lon="9.4010782"><ele>310.1666666666667</ele><time>2026-03-29T09:46:12.451Z</time></trkpt><trkpt lat="45.8678112" lon="9.401046"><ele>309.0</ele><time>2026-03-29T09:46:13.442Z</time></trkpt><trkpt lat="45.8677427" lon="9.4010131"><ele>309.0</ele><time>2026-03-29T09:46:14.451Z</time></trkpt><trkpt lat="45.8676835" lon="9.4009757"><ele>309.0</ele><time>2026-03-29T09:46:15.456Z</time></trkpt><trkpt lat="45.8675739" lon="9.4009054"><ele>309.0</ele><time>2026-03-29T09:46:17.452Z</time></trkpt><trkpt lat="45.867468" lon="9.400833"><ele>309.0</ele><time>2026-03-29T09:46:19.452Z</time></trkpt><trkpt lat="45.8674091" lon="9.4007964"><ele>309.0</ele><time>2026-03-29T09:46:20.45Z</time></trkpt><trkpt lat="45.8673487" lon="9.4007605"><ele>309.0</ele><time>2026-03-29T09:46:21.437Z</time></trkpt><trkpt lat="45.8672846" lon="9.4007271"><ele>308.8571428571429</ele><time>2026-03-29T09:46:22.444Z</time></trkpt><trkpt lat="45.8672242" lon="9.400696"><ele>308.7142857142857</ele><time>2026-03-29T09:46:23.454Z</time></trkpt><trkpt lat="45.8671639" lon="9.4006673"><ele>308.57142857142856</ele><time>2026-03-29T09:46:24.446Z</time></trkpt><trkpt lat="45.8670572" lon="9.400625"><ele>308.42857142857144</ele><time>2026-03-29T09:46:26.441Z</time></trkpt><trkpt lat="45.8669953" lon="9.4005998"><ele>308.2857142857143</ele><time>2026-03-29T09:46:27.443Z</time></trkpt><trkpt lat="45.8669272" lon="9.4005741"><ele>308.14285714285717</ele><time>2026-03-29T09:46:28.447Z</time></trkpt><trkpt lat="45.8668555" lon="9.4005505"><ele>308.0</ele><time>2026-03-29T09:46:29.454Z</time></trkpt><trkpt lat="45.8667925" lon="9.4005462"><ele>306.8</ele><time>2026-03-29T09:46:30.445Z</time></trkpt><trkpt lat="45.86668" lon="9.4005428"><ele>305.6</ele><time>2026-03-29T09:46:32.444Z</time></trkpt><trkpt lat="45.8665649" lon="9.4005312"><ele>304.4</ele><time>2026-03-29T09:46:34.432Z</time></trkpt><trkpt lat="45.8664591" lon="9.4005208"><ele>303.2</ele><time>2026-03-29T09:46:36.442Z</time></trkpt><trkpt lat="45.8663997" lon="9.4004413"><ele>302.0</ele><time>2026-03-29T09:46:38.448Z</time></trkpt><trkpt lat="45.8663897" lon="9.4003329"><ele>302.0</ele><time>2026-03-29T09:46:41.432Z</time></trkpt><trkpt lat="45.866381" lon="9.4002375"><ele>302.0</ele><time>2026-03-29T09:46:45.447Z</time></trkpt><trkpt lat="45.8663702" lon="9.4001345"><ele>302.0</ele><time>2026-03-29T09:46:49.457Z</time></trkpt><trkpt lat="45.8663257" lon="9.4001989"><ele>302.0</ele><time>2026-03-29T09:47:07.436Z</time></trkpt><trkpt lat="45.866337" lon="9.4002972"><ele>302.0</ele><time>2026-03-29T09:47:09.437Z</time></trkpt><trkpt lat="45.8663568" lon="9.4004188"><ele>302.0</ele><time>2026-03-29T09:47:11.443Z</time></trkpt><trkpt lat="45.8664606" lon="9.4005845"><ele>302.0</ele><time>2026-03-29T09:47:27.453Z</time></trkpt><trkpt lat="45.8665262" lon="9.4005698"><ele>302.0</ele><time>2026-03-29T09:47:28.441Z</time></trkpt><trkpt lat="45.866603" lon="9.4005577"><ele>302.0</ele><time>2026-03-29T09:47:29.453Z</time></trkpt><trkpt lat="45.8666993" lon="9.4005586"><ele>302.0</ele><time>2026-03-29T09:47:31.443Z</time></trkpt><trkpt lat="45.8667333" lon="9.4006545"><ele>302.0</ele><time>2026-03-29T09:47:34.436Z</time></trkpt><trkpt lat="45.8666813" lon="9.400821"><ele>302.0</ele><time>2026-03-29T09:47:36.457Z</time></trkpt><trkpt lat="45.866654" lon="9.4009294"><ele>302.0</ele><time>2026-03-29T09:47:37.444Z</time></trkpt><trkpt lat="45.8666096" lon="9.4010817"><ele>302.0</ele><time>2026-03-29T09:47:38.433Z</time></trkpt><trkpt lat="45.866554" lon="9.40124"><ele>302.0</ele><time>2026-03-29T09:47:39.452Z</time></trkpt><trkpt lat="45.8664864" lon="9.4013826"><ele>302.0</ele><time>2026-03-29T09:47:40.451Z</time></trkpt><trkpt lat="45.8664445" lon="9.4015144"><ele>302.6</ele><time>2026-03-29T09:47:41.435Z</time></trkpt><trkpt lat="45.8664005" lon="9.4016447"><ele>303.2</ele><time>2026-03-29T09:47:42.443Z</time></trkpt><trkpt lat="45.8663559" lon="9.4017764"><ele>303.8</ele><time>2026-03-29T09:47:43.445Z</time></trkpt><trkpt lat="45.8663092" lon="9.4019125"><ele>304.4</ele><time>2026-03-29T09:47:44.448Z</time></trkpt><trkpt lat="45.866254" lon="9.4020604"><ele>305.0</ele><time>2026-03-29T09:47:45.454Z</time></trkpt><trkpt lat="45.8661962" lon="9.4022121"><ele>306.2</ele><time>2026-03-29T09:47:46.44Z</time></trkpt><trkpt lat="45.8661445" lon="9.4023604"><ele>307.4</ele><time>2026-03-29T09:47:47.451Z</time></trkpt><trkpt lat="45.8660949" lon="9.4024963"><ele>308.6</ele><time>2026-03-29T09:47:48.446Z</time></trkpt><trkpt lat="45.8660479" lon="9.4026273"><ele>309.8</ele><time>2026-03-29T09:47:49.444Z</time></trkpt><trkpt lat="45.8659999" lon="9.4027602"><ele>311.0</ele><time>2026-03-29T09:47:50.443Z</time></trkpt><trkpt lat="45.8659521" lon="9.4028836"><ele>309.5</ele><time>2026-03-29T09:47:51.438Z</time></trkpt><trkpt lat="45.8659077" lon="9.4029892"><ele>308.0</ele><time>2026-03-29T09:47:52.45Z</time></trkpt><trkpt lat="45.8658644" lon="9.4030856"><ele>306.5</ele><time>2026-03-29T09:47:53.445Z</time></trkpt><trkpt lat="45.8657959" lon="9.4031476"><ele>305.0</ele><time>2026-03-29T09:47:55.447Z</time></trkpt><trkpt lat="45.8657346" lon="9.4031717"><ele>303.5</ele><time>2026-03-29T09:48:34.454Z</time></trkpt><trkpt lat="45.8656552" lon="9.4032659"><ele>302.0</ele><time>2026-03-29T09:48:36.435Z</time></trkpt><trkpt lat="45.8655644" lon="9.403343"><ele>302.0</ele><time>2026-03-29T09:48:38.452Z</time></trkpt><trkpt lat="45.8655014" lon="9.4033892"><ele>302.0</ele><time>2026-03-29T09:48:39.435Z</time></trkpt><trkpt lat="45.8654332" lon="9.4034399"><ele>302.0</ele><time>2026-03-29T09:48:40.455Z</time></trkpt><trkpt lat="45.8653688" lon="9.4035026"><ele>302.0</ele><time>2026-03-29T09:48:41.452Z</time></trkpt><trkpt lat="45.8653097" lon="9.4035766"><ele>302.0</ele><time>2026-03-29T09:48:42.434Z</time></trkpt><trkpt lat="45.865257" lon="9.4036739"><ele>302.0</ele><time>2026-03-29T09:48:43.444Z</time></trkpt><trkpt lat="45.8652182" lon="9.4037834"><ele>302.6</ele><time>2026-03-29T09:48:44.451Z</time></trkpt><trkpt lat="45.8651874" lon="9.403895"><ele>303.2</ele><time>2026-03-29T09:48:45.446Z</time></trkpt><trkpt lat="45.8651582" lon="9.4040207"><ele>303.8</ele><time>2026-03-29T09:48:46.447Z</time></trkpt><trkpt lat="45.8651273" lon="9.4041568"><ele>304.4</ele><time>2026-03-29T09:48:47.452Z</time></trkpt><trkpt lat="45.8650957" lon="9.4042999"><ele>305.0</ele><time>2026-03-29T09:48:48.438Z</time></trkpt><trkpt lat="45.8650674" lon="9.4044388"><ele>303.1666666666667</ele><time>2026-03-29T09:48:49.442Z</time></trkpt><trkpt lat="45.865038" lon="9.4045806"><ele>301.33333333333337</ele><time>2026-03-29T09:48:50.449Z</time></trkpt><trkpt lat="45.8650076" lon="9.4047121"><ele>299.5</ele><time>2026-03-29T09:48:51.444Z</time></trkpt><trkpt lat="45.8649789" lon="9.4048313"><ele>297.6666666666667</ele><time>2026-03-29T09:48:52.441Z</time></trkpt><trkpt lat="45.86492" lon="9.4048959"><ele>295.8333333333333</ele><time>2026-03-29T09:48:53.444Z</time></trkpt><trkpt lat="45.8648631" lon="9.4049547"><ele>294.0</ele><time>2026-03-29T09:48:54.443Z</time></trkpt><trkpt lat="45.8647892" lon="9.4049518"><ele>294.0</ele><time>2026-03-29T09:48:55.434Z</time></trkpt><trkpt lat="45.8647053" lon="9.4049147"><ele>294.0</ele><time>2026-03-29T09:48:56.433Z</time></trkpt><trkpt lat="45.8645983" lon="9.4048625"><ele>294.0</ele><time>2026-03-29T09:48:57.445Z</time></trkpt><trkpt lat="45.8644954" lon="9.4048026"><ele>294.0</ele><time>2026-03-29T09:48:58.438Z</time></trkpt><trkpt lat="45.8643984" lon="9.4047472"><ele>294.0</ele><time>2026-03-29T09:48:59.434Z</time></trkpt><trkpt lat="45.8643121" lon="9.4046805"><ele>292.4</ele><time>2026-03-29T09:49:00.449Z</time></trkpt><trkpt lat="45.8642426" lon="9.4045884"><ele>290.79999999999995</ele><time>2026-03-29T09:49:01.433Z</time></trkpt><trkpt lat="45.8641881" lon="9.404479"><ele>289.20000000000005</ele><time>2026-03-29T09:49:02.43Z</time></trkpt><trkpt lat="45.8641446" lon="9.4043497"><ele>287.6</ele><time>2026-03-29T09:49:03.446Z</time></trkpt><trkpt lat="45.8641069" lon="9.4042064"><ele>286.0</ele><time>2026-03-29T09:49:04.436Z</time></trkpt><trkpt lat="45.8640725" lon="9.4040716"><ele>286.0</ele><time>2026-03-29T09:49:05.449Z</time></trkpt><trkpt lat="45.8640395" lon="9.4039482"><ele>286.0</ele><time>2026-03-29T09:49:06.45Z</time></trkpt><trkpt lat="45.8640069" lon="9.4038341"><ele>286.0</ele><time>2026-03-29T09:49:07.444Z</time></trkpt><trkpt lat="45.8639774" lon="9.4037285"><ele>286.0</ele><time>2026-03-29T09:49:08.443Z</time></trkpt><trkpt lat="45.8639532" lon="9.4036271"><ele>286.0</ele><time>2026-03-29T09:49:09.432Z</time></trkpt><trkpt lat="45.8639364" lon="9.403524"><ele>286.0</ele><time>2026-03-29T09:49:10.441Z</time></trkpt><trkpt lat="45.8639259" lon="9.4034097"><ele>285.5</ele><time>2026-03-29T09:49:11.437Z</time></trkpt><trkpt lat="45.863917" lon="9.4032967"><ele>285.0</ele><time>2026-03-29T09:49:12.454Z</time></trkpt><trkpt lat="45.8639435" lon="9.4031868"><ele>284.5</ele><time>2026-03-29T09:49:13.447Z</time></trkpt><trkpt lat="45.8639713" lon="9.4030812"><ele>284.0</ele><time>2026-03-29T09:49:14.447Z</time></trkpt><trkpt lat="45.8640184" lon="9.4029848"><ele>283.5</ele><time>2026-03-29T09:49:15.453Z</time></trkpt><trkpt lat="45.8640659" lon="9.4028931"><ele>283.0</ele><time>2026-03-29T09:49:16.443Z</time></trkpt><trkpt lat="45.8641129" lon="9.4028005"><ele>282.5</ele><time>2026-03-29T09:49:17.445Z</time></trkpt><trkpt lat="45.8641587" lon="9.4026979"><ele>282.0</ele><time>2026-03-29T09:49:18.443Z</time></trkpt><trkpt lat="45.8642063" lon="9.4025937"><ele>281.5</ele><time>2026-03-29T09:49:19.439Z</time></trkpt><trkpt lat="45.8642528" lon="9.4024946"><ele>281.0</ele><time>2026-03-29T09:49:20.451Z</time></trkpt><trkpt lat="45.864293" lon="9.4024065"><ele>280.5</ele><time>2026-03-29T09:49:21.449Z</time></trkpt><trkpt lat="45.8643523" lon="9.402277"><ele>280.0</ele><time>2026-03-29T09:49:23.432Z</time></trkpt><trkpt lat="45.8643915" lon="9.4021968"><ele>282.2</ele><time>2026-03-29T09:49:25.433Z</time></trkpt><trkpt lat="45.8644344" lon="9.4021005"><ele>284.4</ele><time>2026-03-29T09:49:27.441Z</time></trkpt><trkpt lat="45.8645052" lon="9.4019476"><ele>286.6</ele><time>2026-03-29T09:49:29.448Z</time></trkpt><trkpt lat="45.8645497" lon="9.4018477"><ele>288.8</ele><time>2026-03-29T09:49:30.448Z</time></trkpt><trkpt lat="45.8646019" lon="9.4017384"><ele>291.0</ele><time>2026-03-29T09:49:31.449Z</time></trkpt><trkpt lat="45.8646571" lon="9.4016238"><ele>291.0</ele><time>2026-03-29T09:49:32.434Z</time></trkpt><trkpt lat="45.8647102" lon="9.4015092"><ele>291.0</ele><time>2026-03-29T09:49:33.438Z</time></trkpt><trkpt lat="45.8647676" lon="9.4013829"><ele>291.0</ele><time>2026-03-29T09:49:34.449Z</time></trkpt><trkpt lat="45.8648316" lon="9.4012459"><ele>291.0</ele><time>2026-03-29T09:49:35.448Z</time></trkpt><trkpt lat="45.8648979" lon="9.4011007"><ele>291.0</ele><time>2026-03-29T09:49:36.44Z</time></trkpt><trkpt lat="45.8649583" lon="9.4009666"><ele>290.8333333333333</ele><time>2026-03-29T09:49:37.449Z</time></trkpt><trkpt lat="45.8650144" lon="9.4008477"><ele>290.6666666666667</ele><time>2026-03-29T09:49:38.445Z</time></trkpt><trkpt lat="45.8650714" lon="9.4007284"><ele>290.5</ele><time>2026-03-29T09:49:39.439Z</time></trkpt><trkpt lat="45.8651205" lon="9.4006164"><ele>290.33333333333337</ele><time>2026-03-29T09:49:40.448Z</time></trkpt><trkpt lat="45.8651649" lon="9.4005199"><ele>290.1666666666667</ele><time>2026-03-29T09:49:41.445Z</time></trkpt><trkpt lat="45.8652069" lon="9.4004358"><ele>290.0</ele><time>2026-03-29T09:49:42.429Z</time></trkpt><trkpt lat="45.8652444" lon="9.4003553"><ele>290.33333333333337</ele><time>2026-03-29T09:49:43.453Z</time></trkpt><trkpt lat="45.865303" lon="9.4002167"><ele>290.6666666666667</ele><time>2026-03-29T09:49:45.445Z</time></trkpt><trkpt lat="45.8653481" lon="9.400116"><ele>291.0</ele><time>2026-03-29T09:49:47.446Z</time></trkpt><trkpt lat="45.8653896" lon="9.4000289"><ele>291.3333333333333</ele><time>2026-03-29T09:49:58.445Z</time></trkpt><trkpt lat="45.8654274" lon="9.3999435"><ele>291.66666666666663</ele><time>2026-03-29T09:49:59.438Z</time></trkpt><trkpt lat="45.8654696" lon="9.3998457"><ele>292.0</ele><time>2026-03-29T09:50:00.446Z</time></trkpt><trkpt lat="45.8655117" lon="9.3997259"><ele>290.75</ele><time>2026-03-29T09:50:01.453Z</time></trkpt><trkpt lat="45.8655616" lon="9.3995731"><ele>289.5</ele><time>2026-03-29T09:50:02.448Z</time></trkpt><trkpt lat="45.8656123" lon="9.3994082"><ele>288.25</ele><time>2026-03-29T09:50:03.44Z</time></trkpt><trkpt lat="45.8656642" lon="9.3992547"><ele>287.0</ele><time>2026-03-29T09:50:04.443Z</time></trkpt><trkpt lat="45.8657201" lon="9.3990965"><ele>287.0</ele><time>2026-03-29T09:50:05.449Z</time></trkpt><trkpt lat="45.8657761" lon="9.3989324"><ele>287.0</ele><time>2026-03-29T09:50:06.451Z</time></trkpt><trkpt lat="45.8658292" lon="9.3987783"><ele>287.0</ele><time>2026-03-29T09:50:07.428Z</time></trkpt><trkpt lat="45.8658806" lon="9.3986372"><ele>287.0</ele><time>2026-03-29T09:50:08.452Z</time></trkpt><trkpt lat="45.865929" lon="9.3985072"><ele>288.33333333333337</ele><time>2026-03-29T09:50:09.478Z</time></trkpt><trkpt lat="45.8659713" lon="9.3983848"><ele>289.6666666666667</ele><time>2026-03-29T09:50:10.446Z</time></trkpt><trkpt lat="45.8660053" lon="9.3982757"><ele>291.0</ele><time>2026-03-29T09:50:11.439Z</time></trkpt><trkpt lat="45.8660296" lon="9.3981887"><ele>292.3333333333333</ele><time>2026-03-29T09:50:12.466Z</time></trkpt><trkpt lat="45.8660512" lon="9.3980984"><ele>293.66666666666663</ele><time>2026-03-29T09:50:14.445Z</time></trkpt><trkpt lat="45.8660508" lon="9.3980078"><ele>295.0</ele><time>2026-03-29T09:50:24.449Z</time></trkpt><trkpt lat="45.8660037" lon="9.3978757"><ele>291.8</ele><time>2026-03-29T09:50:26.448Z</time></trkpt><trkpt lat="45.8659439" lon="9.3977985"><ele>288.6</ele><time>2026-03-29T09:50:27.459Z</time></trkpt><trkpt lat="45.8658817" lon="9.3977166"><ele>285.4</ele><time>2026-03-29T09:50:28.442Z</time></trkpt><trkpt lat="45.865812" lon="9.397607"><ele>282.2</ele><time>2026-03-29T09:50:29.44Z</time></trkpt><trkpt lat="45.8657365" lon="9.3974928"><ele>279.0</ele><time>2026-03-29T09:50:30.463Z</time></trkpt><trkpt lat="45.8656584" lon="9.397385"><ele>279.0</ele><time>2026-03-29T09:50:31.448Z</time></trkpt><trkpt lat="45.8655835" lon="9.3972783"><ele>279.0</ele><time>2026-03-29T09:50:32.44Z</time></trkpt><trkpt lat="45.8655125" lon="9.3971763"><ele>279.0</ele><time>2026-03-29T09:50:33.461Z</time></trkpt><trkpt lat="45.8654436" lon="9.3970768"><ele>279.0</ele><time>2026-03-29T09:50:34.449Z</time></trkpt><trkpt lat="45.8653774" lon="9.3969762"><ele>279.0</ele><time>2026-03-29T09:50:35.441Z</time></trkpt><trkpt lat="45.8653155" lon="9.3968803"><ele>279.59999999999997</ele><time>2026-03-29T09:50:36.457Z</time></trkpt><trkpt lat="45.8652551" lon="9.3967846"><ele>280.2</ele><time>2026-03-29T09:50:37.451Z</time></trkpt><trkpt lat="45.8651921" lon="9.3966851"><ele>280.79999999999995</ele><time>2026-03-29T09:50:38.453Z</time></trkpt><trkpt lat="45.8651314" lon="9.3965787"><ele>281.4</ele><time>2026-03-29T09:50:39.439Z</time></trkpt><trkpt lat="45.8650744" lon="9.3964748"><ele>282.0</ele><time>2026-03-29T09:50:40.45Z</time></trkpt><trkpt lat="45.8650216" lon="9.3963747"><ele>280.0</ele><time>2026-03-29T09:50:41.447Z</time></trkpt><trkpt lat="45.8649676" lon="9.3962749"><ele>278.0</ele><time>2026-03-29T09:50:42.45Z</time></trkpt><trkpt lat="45.8649113" lon="9.396174"><ele>276.0</ele><time>2026-03-29T09:50:43.447Z</time></trkpt><trkpt lat="45.8648537" lon="9.3960648"><ele>274.0</ele><time>2026-03-29T09:50:44.442Z</time></trkpt><trkpt lat="45.8648014" lon="9.3959471"><ele>272.0</ele><time>2026-03-29T09:50:45.439Z</time></trkpt><trkpt lat="45.8647551" lon="9.3958318"><ele>272.0</ele><time>2026-03-29T09:50:46.448Z</time></trkpt><trkpt lat="45.8647188" lon="9.3957185"><ele>272.0</ele><time>2026-03-29T09:50:47.439Z</time></trkpt><trkpt lat="45.8646937" lon="9.3956059"><ele>272.0</ele><time>2026-03-29T09:50:48.442Z</time></trkpt><trkpt lat="45.8646839" lon="9.3954845"><ele>272.0</ele><time>2026-03-29T09:50:49.461Z</time></trkpt><trkpt lat="45.8646737" lon="9.3953568"><ele>272.0</ele><time>2026-03-29T09:50:50.453Z</time></trkpt><trkpt lat="45.864695" lon="9.3952337"><ele>272.0</ele><time>2026-03-29T09:50:51.444Z</time></trkpt><trkpt lat="45.8647208" lon="9.3951208"><ele>271.33333333333337</ele><time>2026-03-29T09:50:52.445Z</time></trkpt><trkpt lat="45.8647468" lon="9.395011"><ele>270.6666666666667</ele><time>2026-03-29T09:50:53.449Z</time></trkpt><trkpt lat="45.8647637" lon="9.3949022"><ele>270.0</ele><time>2026-03-29T09:50:54.438Z</time></trkpt><trkpt lat="45.8647805" lon="9.3947966"><ele>269.3333333333333</ele><time>2026-03-29T09:50:55.449Z</time></trkpt><trkpt lat="45.8647801" lon="9.3946848"><ele>268.66666666666663</ele><time>2026-03-29T09:50:56.444Z</time></trkpt><trkpt lat="45.8647507" lon="9.3945848"><ele>268.0</ele><time>2026-03-29T09:50:57.446Z</time></trkpt><trkpt lat="45.8647076" lon="9.3945008"><ele>267.5</ele><time>2026-03-29T09:50:58.451Z</time></trkpt><trkpt lat="45.8646548" lon="9.3944364"><ele>267.0</ele><time>2026-03-29T09:50:59.448Z</time></trkpt><trkpt lat="45.8645702" lon="9.394355"><ele>266.5</ele><time>2026-03-29T09:51:01.443Z</time></trkpt><trkpt lat="45.8644892" lon="9.3942682"><ele>266.0</ele><time>2026-03-29T09:51:03.438Z</time></trkpt><trkpt lat="45.8644385" lon="9.3942118"><ele>265.5</ele><time>2026-03-29T09:51:04.441Z</time></trkpt><trkpt lat="45.8643823" lon="9.3941517"><ele>265.0</ele><time>2026-03-29T09:51:05.444Z</time></trkpt><trkpt lat="45.8643302" lon="9.3940751"><ele>264.99999999999994</ele><time>2026-03-29T09:51:06.442Z</time></trkpt><trkpt lat="45.8642855" lon="9.393989"><ele>265.0</ele><time>2026-03-29T09:51:07.441Z</time></trkpt><trkpt lat="45.8642462" lon="9.3939054"><ele>265.0</ele><time>2026-03-29T09:51:08.448Z</time></trkpt><trkpt lat="45.8642085" lon="9.3938199"><ele>265.0</ele><time>2026-03-29T09:51:09.435Z</time></trkpt><trkpt lat="45.8641737" lon="9.3937401"><ele>265.0</ele><time>2026-03-29T09:51:10.443Z</time></trkpt><trkpt lat="45.8641404" lon="9.3936609"><ele>264.99999999999994</ele><time>2026-03-29T09:51:11.441Z</time></trkpt><trkpt lat="45.8640893" lon="9.3935383"><ele>265.0</ele><time>2026-03-29T09:51:13.447Z</time></trkpt><trkpt lat="45.8640561" lon="9.393456"><ele>263.5</ele><time>2026-03-29T09:51:22.469Z</time></trkpt><trkpt lat="45.8639988" lon="9.393394"><ele>262.0</ele><time>2026-03-29T09:53:23.454Z</time></trkpt><trkpt lat="45.8639434" lon="9.3932968"><ele>260.5</ele><time>2026-03-29T09:53:26.453Z</time></trkpt><trkpt lat="45.863887" lon="9.3931785"><ele>259.0</ele><time>2026-03-29T09:53:28.449Z</time></trkpt><trkpt lat="45.8638475" lon="9.3930859"><ele>257.5</ele><time>2026-03-29T09:53:29.444Z</time></trkpt><trkpt lat="45.8638091" lon="9.3929962"><ele>256.0</ele><time>2026-03-29T09:53:30.457Z</time></trkpt><trkpt lat="45.8637679" lon="9.3928948"><ele>255.66666666666666</ele><time>2026-03-29T09:53:31.446Z</time></trkpt><trkpt lat="45.8637197" lon="9.392784"><ele>255.33333333333331</ele><time>2026-03-29T09:53:32.437Z</time></trkpt><trkpt lat="45.8636676" lon="9.392665"><ele>255.0</ele><time>2026-03-29T09:53:33.44Z</time></trkpt><trkpt lat="45.8636217" lon="9.3925529"><ele>254.66666666666669</ele><time>2026-03-29T09:53:34.446Z</time></trkpt><trkpt lat="45.8635812" lon="9.3924489"><ele>254.33333333333334</ele><time>2026-03-29T09:53:35.453Z</time></trkpt><trkpt lat="45.863546" lon="9.3923506"><ele>254.0</ele><time>2026-03-29T09:53:36.449Z</time></trkpt><trkpt lat="45.8635124" lon="9.3922568"><ele>253.00000000000003</ele><time>2026-03-29T09:53:37.429Z</time></trkpt><trkpt lat="45.8634853" lon="9.3921722"><ele>252.0</ele><time>2026-03-29T09:53:38.453Z</time></trkpt><trkpt lat="45.863433" lon="9.3920135"><ele>251.0</ele><time>2026-03-29T09:53:40.45Z</time></trkpt><trkpt lat="45.8633932" lon="9.3918818"><ele>250.0</ele><time>2026-03-29T09:53:42.467Z</time></trkpt><trkpt lat="45.8633638" lon="9.3917783"><ele>249.00000000000003</ele><time>2026-03-29T09:53:45.447Z</time></trkpt><trkpt lat="45.8633317" lon="9.391685"><ele>248.0</ele><time>2026-03-29T09:53:48.444Z</time></trkpt><trkpt lat="45.8633036" lon="9.3916013"><ele>248.00000000000003</ele><time>2026-03-29T09:53:50.444Z</time></trkpt><trkpt lat="45.8632702" lon="9.3915089"><ele>248.0</ele><time>2026-03-29T09:53:52.433Z</time></trkpt><trkpt lat="45.8632359" lon="9.3913935"><ele>248.0</ele><time>2026-03-29T09:53:55.444Z</time></trkpt><trkpt lat="45.8632042" lon="9.3913116"><ele>248.0</ele><time>2026-03-29T09:53:57.457Z</time></trkpt><trkpt lat="45.8631713" lon="9.3912168"><ele>248.00000000000003</ele><time>2026-03-29T09:53:59.459Z</time></trkpt><trkpt lat="45.8631716" lon="9.3911153"><ele>248.0</ele><time>2026-03-29T09:54:01.434Z</time></trkpt><trkpt lat="45.8632477" lon="9.3910192"><ele>247.71428571428572</ele><time>2026-03-29T09:54:03.463Z</time></trkpt><trkpt lat="45.8633035" lon="9.3909664"><ele>247.42857142857144</ele><time>2026-03-29T09:54:04.465Z</time></trkpt><trkpt lat="45.8633684" lon="9.3909057"><ele>247.14285714285717</ele><time>2026-03-29T09:54:05.439Z</time></trkpt><trkpt lat="45.8634387" lon="9.3908439"><ele>246.8571428571429</ele><time>2026-03-29T09:54:06.441Z</time></trkpt><trkpt lat="45.8635004" lon="9.3907875"><ele>246.57142857142858</ele><time>2026-03-29T09:54:07.44Z</time></trkpt><trkpt lat="45.8635581" lon="9.3907322"><ele>246.28571428571433</ele><time>2026-03-29T09:54:08.459Z</time></trkpt><trkpt lat="45.8636214" lon="9.3906778"><ele>246.00000000000003</ele><time>2026-03-29T09:54:09.439Z</time></trkpt><trkpt lat="45.8636891" lon="9.3906135"><ele>245.83333333333334</ele><time>2026-03-29T09:54:10.459Z</time></trkpt><trkpt lat="45.8637617" lon="9.3905444"><ele>245.66666666666669</ele><time>2026-03-29T09:54:11.439Z</time></trkpt><trkpt lat="45.8638351" lon="9.3904752"><ele>245.5</ele><time>2026-03-29T09:54:12.455Z</time></trkpt><trkpt lat="45.8639013" lon="9.3904165"><ele>245.33333333333334</ele><time>2026-03-29T09:54:13.434Z</time></trkpt><trkpt lat="45.8639582" lon="9.3903682"><ele>245.16666666666669</ele><time>2026-03-29T09:54:14.458Z</time></trkpt><trkpt lat="45.8640585" lon="9.3902828"><ele>245.0</ele><time>2026-03-29T09:54:16.449Z</time></trkpt><trkpt lat="45.8641125" lon="9.3902321"><ele>244.83333333333334</ele><time>2026-03-29T09:54:17.453Z</time></trkpt><trkpt lat="45.8641663" lon="9.3901838"><ele>244.66666666666669</ele><time>2026-03-29T09:54:18.453Z</time></trkpt><trkpt lat="45.8642326" lon="9.3901166"><ele>244.5</ele><time>2026-03-29T09:54:19.45Z</time></trkpt><trkpt lat="45.8643099" lon="9.3900409"><ele>244.33333333333331</ele><time>2026-03-29T09:54:20.445Z</time></trkpt><trkpt lat="45.8643892" lon="9.3899613"><ele>244.16666666666666</ele><time>2026-03-29T09:54:21.449Z</time></trkpt><trkpt lat="45.8644788" lon="9.389876"><ele>244.0</ele><time>2026-03-29T09:54:22.443Z</time></trkpt><trkpt lat="45.8645645" lon="9.3897975"><ele>244.0</ele><time>2026-03-29T09:54:23.459Z</time></trkpt><trkpt lat="45.86465" lon="9.3897182"><ele>243.99999999999997</ele><time>2026-03-29T09:54:24.46Z</time></trkpt><trkpt lat="45.8647309" lon="9.3896412"><ele>243.99999999999997</ele><time>2026-03-29T09:54:25.449Z</time></trkpt><trkpt lat="45.8648084" lon="9.3895672"><ele>244.0</ele><time>2026-03-29T09:54:26.44Z</time></trkpt><trkpt lat="45.8648878" lon="9.3894587"><ele>244.0</ele><time>2026-03-29T09:54:28.449Z</time></trkpt><trkpt lat="45.8648765" lon="9.389364"><ele>243.99999999999997</ele><time>2026-03-29T09:54:30.453Z</time></trkpt><trkpt lat="45.8648238" lon="9.3893123"><ele>244.0</ele><time>2026-03-29T09:54:33.463Z</time></trkpt><trkpt lat="45.8647635" lon="9.3893562"><ele>243.99999999999997</ele><time>2026-03-29T09:55:06.473Z</time></trkpt><trkpt lat="45.8647486" lon="9.3894635"><ele>243.99999999999997</ele><time>2026-03-29T09:55:21.472Z</time></trkpt><trkpt lat="45.8647043" lon="9.3895595"><ele>244.0</ele><time>2026-03-29T09:55:27.448Z</time></trkpt><trkpt lat="45.8646357" lon="9.3896421"><ele>243.99999999999997</ele><time>2026-03-29T09:55:29.458Z</time></trkpt><trkpt lat="45.8645807" lon="9.389702"><ele>243.99999999999997</ele><time>2026-03-29T09:55:30.466Z</time></trkpt><trkpt lat="45.8645093" lon="9.3897728"><ele>243.99999999999997</ele><time>2026-03-29T09:55:31.446Z</time></trkpt><trkpt lat="45.8644412" lon="9.3898386"><ele>244.0</ele><time>2026-03-29T09:55:32.451Z</time></trkpt><trkpt lat="45.8643806" lon="9.3898966"><ele>244.0</ele><time>2026-03-29T09:55:33.46Z</time></trkpt><trkpt lat="45.8643212" lon="9.3899518"><ele>244.0</ele><time>2026-03-29T09:55:34.462Z</time></trkpt><trkpt lat="45.8642584" lon="9.3900104"><ele>243.99999999999997</ele><time>2026-03-29T09:55:35.45Z</time></trkpt><trkpt lat="45.8642025" lon="9.390063"><ele>244.0</ele><time>2026-03-29T09:55:36.443Z</time></trkpt><trkpt lat="45.8641166" lon="9.3901383"><ele>243.0</ele><time>2026-03-29T09:55:38.455Z</time></trkpt><trkpt lat="45.8640228" lon="9.3901628"><ele>242.0</ele><time>2026-03-29T09:55:40.452Z</time></trkpt><trkpt lat="45.863942" lon="9.3902612"><ele>241.0</ele><time>2026-03-29T09:55:42.458Z</time></trkpt><trkpt lat="45.8638222" lon="9.3903911"><ele>240.0</ele><time>2026-03-29T09:55:44.449Z</time></trkpt><trkpt lat="45.8637398" lon="9.3904765"><ele>240.83333333333334</ele><time>2026-03-29T09:55:45.438Z</time></trkpt><trkpt lat="45.8636708" lon="9.3905363"><ele>241.66666666666669</ele><time>2026-03-29T09:55:46.453Z</time></trkpt><trkpt lat="45.8636116" lon="9.3905818"><ele>242.5</ele><time>2026-03-29T09:55:47.466Z</time></trkpt><trkpt lat="45.8635209" lon="9.3906472"><ele>243.33333333333334</ele><time>2026-03-29T09:55:49.448Z</time></trkpt><trkpt lat="45.8634495" lon="9.3907009"><ele>244.16666666666669</ele><time>2026-03-29T09:55:52.45Z</time></trkpt><trkpt lat="45.863386" lon="9.390737"><ele>245.0</ele><time>2026-03-29T09:55:56.454Z</time></trkpt><trkpt lat="45.8633057" lon="9.3907895"><ele>245.16666666666669</ele><time>2026-03-29T09:55:59.443Z</time></trkpt><trkpt lat="45.8632382" lon="9.3908524"><ele>245.33333333333334</ele><time>2026-03-29T09:56:01.48Z</time></trkpt><trkpt lat="45.8631594" lon="9.3909224"><ele>245.5</ele><time>2026-03-29T09:56:03.458Z</time></trkpt><trkpt lat="45.8630579" lon="9.3909854"><ele>245.66666666666669</ele><time>2026-03-29T09:56:05.44Z</time></trkpt><trkpt lat="45.8629944" lon="9.3910343"><ele>245.83333333333334</ele><time>2026-03-29T09:56:06.453Z</time></trkpt><trkpt lat="45.8629207" lon="9.3911126"><ele>246.0</ele><time>2026-03-29T09:56:07.44Z</time></trkpt><trkpt lat="45.8628338" lon="9.3912063"><ele>246.0</ele><time>2026-03-29T09:56:08.448Z</time></trkpt><trkpt lat="45.8627369" lon="9.3913088"><ele>246.0</ele><time>2026-03-29T09:56:09.444Z</time></trkpt><trkpt lat="45.8626442" lon="9.3914013"><ele>246.0</ele><time>2026-03-29T09:56:10.455Z</time></trkpt><trkpt lat="45.8625539" lon="9.3914964"><ele>246.0</ele><time>2026-03-29T09:56:11.442Z</time></trkpt><trkpt lat="45.8624613" lon="9.3915867"><ele>245.4</ele><time>2026-03-29T09:56:12.453Z</time></trkpt><trkpt lat="45.862368" lon="9.3916744"><ele>244.8</ele><time>2026-03-29T09:56:13.443Z</time></trkpt><trkpt lat="45.8622764" lon="9.3917571"><ele>244.20000000000002</ele><time>2026-03-29T09:56:14.443Z</time></trkpt><trkpt lat="45.8621862" lon="9.391841"><ele>243.60000000000002</ele><time>2026-03-29T09:56:15.463Z</time></trkpt><trkpt lat="45.8621011" lon="9.3919186"><ele>243.0</ele><time>2026-03-29T09:56:16.459Z</time></trkpt><trkpt lat="45.8620243" lon="9.391989"><ele>243.0</ele><time>2026-03-29T09:56:17.469Z</time></trkpt><trkpt lat="45.8619556" lon="9.3920527"><ele>243.0</ele><time>2026-03-29T09:56:18.444Z</time></trkpt><trkpt lat="45.8618901" lon="9.3921165"><ele>243.0</ele><time>2026-03-29T09:56:19.454Z</time></trkpt><trkpt lat="45.8618234" lon="9.3921847"><ele>243.0</ele><time>2026-03-29T09:56:20.433Z</time></trkpt><trkpt lat="45.8617491" lon="9.3922586"><ele>243.0</ele><time>2026-03-29T09:56:21.444Z</time></trkpt><trkpt lat="45.8616799" lon="9.3923242"><ele>243.0</ele><time>2026-03-29T09:56:22.44Z</time></trkpt><trkpt lat="45.8616162" lon="9.3923816"><ele>242.2</ele><time>2026-03-29T09:56:23.443Z</time></trkpt><trkpt lat="45.861556" lon="9.3924311"><ele>241.4</ele><time>2026-03-29T09:56:24.45Z</time></trkpt><trkpt lat="45.8614594" lon="9.3925195"><ele>240.59999999999997</ele><time>2026-03-29T09:56:26.452Z</time></trkpt><trkpt lat="45.8613754" lon="9.39256"><ele>239.79999999999998</ele><time>2026-03-29T09:56:28.441Z</time></trkpt><trkpt lat="45.8612806" lon="9.3925938"><ele>239.0</ele><time>2026-03-29T09:56:30.45Z</time></trkpt><trkpt lat="45.8612029" lon="9.3926685"><ele>239.0</ele><time>2026-03-29T09:56:32.449Z</time></trkpt><trkpt lat="45.8611511" lon="9.3928076"><ele>238.99999999999997</ele><time>2026-03-29T09:56:34.449Z</time></trkpt><trkpt lat="45.8611255" lon="9.3929192"><ele>238.99999999999997</ele><time>2026-03-29T09:56:35.448Z</time></trkpt><trkpt lat="45.8610817" lon="9.393032"><ele>239.0</ele><time>2026-03-29T09:56:36.441Z</time></trkpt><trkpt lat="45.8610229" lon="9.3931424"><ele>239.0</ele><time>2026-03-29T09:56:37.466Z</time></trkpt><trkpt lat="45.8609625" lon="9.3932436"><ele>239.5</ele><time>2026-03-29T09:56:38.445Z</time></trkpt><trkpt lat="45.8609017" lon="9.3933461"><ele>240.0</ele><time>2026-03-29T09:56:39.46Z</time></trkpt><trkpt lat="45.8608304" lon="9.3934735"><ele>240.5</ele><time>2026-03-29T09:56:40.455Z</time></trkpt><trkpt lat="45.8607536" lon="9.393611"><ele>241.0</ele><time>2026-03-29T09:56:41.45Z</time></trkpt><trkpt lat="45.860668" lon="9.3937613"><ele>241.0</ele><time>2026-03-29T09:56:42.454Z</time></trkpt><trkpt lat="45.8605649" lon="9.3939151"><ele>241.0</ele><time>2026-03-29T09:56:43.455Z</time></trkpt><trkpt lat="45.860465" lon="9.394059"><ele>241.0</ele><time>2026-03-29T09:56:44.442Z</time></trkpt><trkpt lat="45.8603752" lon="9.3941929"><ele>241.0</ele><time>2026-03-29T09:56:45.446Z</time></trkpt><trkpt lat="45.8602921" lon="9.3943167"><ele>241.0</ele><time>2026-03-29T09:56:46.445Z</time></trkpt><trkpt lat="45.8602146" lon="9.3944292"><ele>241.00000000000003</ele><time>2026-03-29T09:56:47.435Z</time></trkpt><trkpt lat="45.8601363" lon="9.3945412"><ele>241.00000000000003</ele><time>2026-03-29T09:56:48.464Z</time></trkpt><trkpt lat="45.860061" lon="9.3946603"><ele>241.0</ele><time>2026-03-29T09:56:49.449Z</time></trkpt><trkpt lat="45.8599838" lon="9.3947846"><ele>241.0</ele><time>2026-03-29T09:56:50.46Z</time></trkpt><trkpt lat="45.8599125" lon="9.3949005"><ele>240.8</ele><time>2026-03-29T09:56:51.453Z</time></trkpt><trkpt lat="45.8598408" lon="9.3950091"><ele>240.60000000000002</ele><time>2026-03-29T09:56:52.462Z</time></trkpt><trkpt lat="45.8597694" lon="9.3951156"><ele>240.4</ele><time>2026-03-29T09:56:53.452Z</time></trkpt><trkpt lat="45.8597034" lon="9.3952139"><ele>240.2</ele><time>2026-03-29T09:56:54.436Z</time></trkpt><trkpt lat="45.8596431" lon="9.3953025"><ele>240.0</ele><time>2026-03-29T09:56:55.449Z</time></trkpt><trkpt lat="45.8595871" lon="9.3953824"><ele>240.0</ele><time>2026-03-29T09:56:56.453Z</time></trkpt><trkpt lat="45.8595354" lon="9.3954567"><ele>240.0</ele><time>2026-03-29T09:56:57.446Z</time></trkpt><trkpt lat="45.8594867" lon="9.3955217"><ele>240.0</ele><time>2026-03-29T09:56:58.449Z</time></trkpt><trkpt lat="45.859407" lon="9.3956278"><ele>240.0</ele><time>2026-03-29T09:57:00.439Z</time></trkpt><trkpt lat="45.8593366" lon="9.3957218"><ele>240.0</ele><time>2026-03-29T09:57:02.439Z</time></trkpt><trkpt lat="45.8592637" lon="9.3958175"><ele>240.0</ele><time>2026-03-29T09:57:04.451Z</time></trkpt><trkpt lat="45.8591564" lon="9.3959599"><ele>239.8</ele><time>2026-03-29T09:57:16.439Z</time></trkpt><trkpt lat="45.8591001" lon="9.3960425"><ele>239.6</ele><time>2026-03-29T09:57:18.439Z</time></trkpt><trkpt lat="45.859023" lon="9.396087"><ele>239.39999999999998</ele><time>2026-03-29T09:57:21.455Z</time></trkpt><trkpt lat="45.8589363" lon="9.3961472"><ele>239.2</ele><time>2026-03-29T09:57:23.452Z</time></trkpt><trkpt lat="45.8588642" lon="9.3962632"><ele>239.0</ele><time>2026-03-29T09:57:25.45Z</time></trkpt><trkpt lat="45.8588156" lon="9.3964143"><ele>239.50000000000003</ele><time>2026-03-29T09:57:27.453Z</time></trkpt><trkpt lat="45.8587363" lon="9.3965135"><ele>240.0</ele><time>2026-03-29T09:57:29.434Z</time></trkpt><trkpt lat="45.8586855" lon="9.3965834"><ele>240.5</ele><time>2026-03-29T09:57:30.444Z</time></trkpt><trkpt lat="45.8586249" lon="9.3966634"><ele>241.0</ele><time>2026-03-29T09:57:31.443Z</time></trkpt><trkpt lat="45.8585652" lon="9.3967422"><ele>241.50000000000003</ele><time>2026-03-29T09:57:32.439Z</time></trkpt><trkpt lat="45.8585011" lon="9.3968083"><ele>242.0</ele><time>2026-03-29T09:57:33.465Z</time></trkpt><trkpt lat="45.8584294" lon="9.3968669"><ele>240.8</ele><time>2026-03-29T09:57:34.458Z</time></trkpt><trkpt lat="45.858345" lon="9.3969401"><ele>239.6</ele><time>2026-03-29T09:57:35.449Z</time></trkpt><trkpt lat="45.8582602" lon="9.3970097"><ele>238.40000000000003</ele><time>2026-03-29T09:57:36.438Z</time></trkpt><trkpt lat="45.8581832" lon="9.3970705"><ele>237.20000000000002</ele><time>2026-03-29T09:57:37.451Z</time></trkpt><trkpt lat="45.858101" lon="9.3971324"><ele>236.0</ele><time>2026-03-29T09:57:38.446Z</time></trkpt><trkpt lat="45.8580184" lon="9.3971991"><ele>236.0</ele><time>2026-03-29T09:57:39.451Z</time></trkpt><trkpt lat="45.8579319" lon="9.3972645"><ele>236.00000000000003</ele><time>2026-03-29T09:57:40.445Z</time></trkpt><trkpt lat="45.857836" lon="9.3973237"><ele>236.00000000000003</ele><time>2026-03-29T09:57:41.45Z</time></trkpt><trkpt lat="45.8577283" lon="9.3973757"><ele>236.0</ele><time>2026-03-29T09:57:42.436Z</time></trkpt><trkpt lat="45.8576147" lon="9.3974197"><ele>236.0</ele><time>2026-03-29T09:57:43.45Z</time></trkpt><trkpt lat="45.8575062" lon="9.3974554"><ele>234.60000000000002</ele><time>2026-03-29T09:57:44.453Z</time></trkpt><trkpt lat="45.857403" lon="9.3974857"><ele>233.20000000000002</ele><time>2026-03-29T09:57:45.44Z</time></trkpt><trkpt lat="45.8573074" lon="9.3975156"><ele>231.79999999999998</ele><time>2026-03-29T09:57:46.453Z</time></trkpt><trkpt lat="45.8572192" lon="9.3975417"><ele>230.39999999999998</ele><time>2026-03-29T09:57:47.461Z</time></trkpt><trkpt lat="45.8571363" lon="9.397566"><ele>229.0</ele><time>2026-03-29T09:57:48.445Z</time></trkpt><trkpt lat="45.8570498" lon="9.3975873"><ele>228.99999999999997</ele><time>2026-03-29T09:57:49.445Z</time></trkpt><trkpt lat="45.8569645" lon="9.3976079"><ele>229.0</ele><time>2026-03-29T09:57:50.456Z</time></trkpt><trkpt lat="45.8568859" lon="9.3976296"><ele>229.0</ele><time>2026-03-29T09:57:51.44Z</time></trkpt><trkpt lat="45.8568076" lon="9.3976483"><ele>229.0</ele><time>2026-03-29T09:57:52.464Z</time></trkpt><trkpt lat="45.8567216" lon="9.3976691"><ele>228.99999999999997</ele><time>2026-03-29T09:57:53.431Z</time></trkpt><trkpt lat="45.8566375" lon="9.3976875"><ele>229.0</ele><time>2026-03-29T09:57:54.434Z</time></trkpt><trkpt lat="45.8565581" lon="9.3976957"><ele>228.33333333333331</ele><time>2026-03-29T09:57:55.434Z</time></trkpt><trkpt lat="45.8564826" lon="9.3976946"><ele>227.66666666666666</ele><time>2026-03-29T09:57:56.45Z</time></trkpt><trkpt lat="45.8564065" lon="9.3976843"><ele>227.0</ele><time>2026-03-29T09:57:57.458Z</time></trkpt><trkpt lat="45.8563299" lon="9.3976565"><ele>226.33333333333331</ele><time>2026-03-29T09:57:58.453Z</time></trkpt><trkpt lat="45.8562577" lon="9.3976357"><ele>225.66666666666666</ele><time>2026-03-29T09:57:59.446Z</time></trkpt><trkpt lat="45.8561863" lon="9.3976516"><ele>225.0</ele><time>2026-03-29T09:58:00.456Z</time></trkpt><trkpt lat="45.8561167" lon="9.3977063"><ele>225.0</ele><time>2026-03-29T09:58:01.453Z</time></trkpt><trkpt lat="45.856042" lon="9.3977904"><ele>225.0</ele><time>2026-03-29T09:58:02.436Z</time></trkpt><trkpt lat="45.8559603" lon="9.3978827"><ele>225.0</ele><time>2026-03-29T09:58:03.45Z</time></trkpt><trkpt lat="45.8558613" lon="9.3979777"><ele>225.0</ele><time>2026-03-29T09:58:04.449Z</time></trkpt><trkpt lat="45.8557538" lon="9.3980776"><ele>225.0</ele><time>2026-03-29T09:58:05.443Z</time></trkpt><trkpt lat="45.8556546" lon="9.3981711"><ele>224.25</ele><time>2026-03-29T09:58:06.448Z</time></trkpt><trkpt lat="45.8555557" lon="9.398263"><ele>223.5</ele><time>2026-03-29T09:58:07.458Z</time></trkpt><trkpt lat="45.8554477" lon="9.3983623"><ele>222.75</ele><time>2026-03-29T09:58:08.439Z</time></trkpt><trkpt lat="45.8553427" lon="9.3984639"><ele>222.0</ele><time>2026-03-29T09:58:09.451Z</time></trkpt><trkpt lat="45.855245" lon="9.3985684"><ele>222.0</ele><time>2026-03-29T09:58:10.439Z</time></trkpt><trkpt lat="45.8551506" lon="9.398677"><ele>222.0</ele><time>2026-03-29T09:58:11.453Z</time></trkpt><trkpt lat="45.8550646" lon="9.3987859"><ele>222.0</ele><time>2026-03-29T09:58:12.476Z</time></trkpt><trkpt lat="45.8549821" lon="9.3988918"><ele>222.0</ele><time>2026-03-29T09:58:13.452Z</time></trkpt><trkpt lat="45.8549015" lon="9.3989913"><ele>221.6</ele><time>2026-03-29T09:58:14.451Z</time></trkpt><trkpt lat="45.8548259" lon="9.3990846"><ele>221.2</ele><time>2026-03-29T09:58:15.444Z</time></trkpt><trkpt lat="45.8547626" lon="9.3991639"><ele>220.8</ele><time>2026-03-29T09:58:16.453Z</time></trkpt><trkpt lat="45.8547121" lon="9.3992249"><ele>220.4</ele><time>2026-03-29T09:58:17.453Z</time></trkpt><trkpt lat="45.8546141" lon="9.3993257"><ele>220.0</ele><time>2026-03-29T09:58:19.442Z</time></trkpt><trkpt lat="45.8545094" lon="9.3994171"><ele>219.99999999999997</ele><time>2026-03-29T09:58:21.468Z</time></trkpt><trkpt lat="45.8544466" lon="9.3994639"><ele>220.0</ele><time>2026-03-29T09:58:22.454Z</time></trkpt><trkpt lat="45.854384" lon="9.3995078"><ele>220.0</ele><time>2026-03-29T09:58:23.471Z</time></trkpt><trkpt lat="45.8543229" lon="9.3995471"><ele>220.0</ele><time>2026-03-29T09:58:24.43Z</time></trkpt><trkpt lat="45.8542641" lon="9.3995879"><ele>220.0</ele><time>2026-03-29T09:58:25.455Z</time></trkpt><trkpt lat="45.8542065" lon="9.3996266"><ele>219.99999999999997</ele><time>2026-03-29T09:58:26.451Z</time></trkpt><trkpt lat="45.8541435" lon="9.3996594"><ele>220.0</ele><time>2026-03-29T09:58:27.446Z</time></trkpt><trkpt lat="45.8540773" lon="9.3996903"><ele>220.16666666666666</ele><time>2026-03-29T09:58:28.455Z</time></trkpt><trkpt lat="45.854001" lon="9.3997214"><ele>220.33333333333331</ele><time>2026-03-29T09:58:29.433Z</time></trkpt><trkpt lat="45.8539208" lon="9.399739"><ele>220.5</ele><time>2026-03-29T09:58:30.449Z</time></trkpt><trkpt lat="45.8538375" lon="9.399744"><ele>220.66666666666669</ele><time>2026-03-29T09:58:31.463Z</time></trkpt><trkpt lat="45.8537503" lon="9.3997367"><ele>220.83333333333334</ele><time>2026-03-29T09:58:32.467Z</time></trkpt><trkpt lat="45.8536631" lon="9.3997199"><ele>221.0</ele><time>2026-03-29T09:58:33.452Z</time></trkpt><trkpt lat="45.8535858" lon="9.399697"><ele>221.00000000000003</ele><time>2026-03-29T09:58:34.461Z</time></trkpt><trkpt lat="45.8535109" lon="9.3996697"><ele>221.0</ele><time>2026-03-29T09:58:35.458Z</time></trkpt><trkpt lat="45.8534332" lon="9.3996295"><ele>221.0</ele><time>2026-03-29T09:58:36.445Z</time></trkpt><trkpt lat="45.8533617" lon="9.3995842"><ele>221.0</ele><time>2026-03-29T09:58:37.457Z</time></trkpt><trkpt lat="45.8532986" lon="9.3995403"><ele>221.00000000000003</ele><time>2026-03-29T09:58:38.434Z</time></trkpt><trkpt lat="45.8531919" lon="9.3994612"><ele>221.0</ele><time>2026-03-29T09:58:40.451Z</time></trkpt><trkpt lat="45.8530775" lon="9.399449"><ele>221.0</ele><time>2026-03-29T09:58:42.458Z</time></trkpt><trkpt lat="45.852981" lon="9.3995496"><ele>221.00000000000003</ele><time>2026-03-29T09:58:44.452Z</time></trkpt><trkpt lat="45.852931" lon="9.399612"><ele>221.00000000000003</ele><time>2026-03-29T09:58:45.445Z</time></trkpt><trkpt lat="45.8528794" lon="9.3996712"><ele>221.0</ele><time>2026-03-29T09:58:46.445Z</time></trkpt><trkpt lat="45.852804" lon="9.3997504"><ele>221.0</ele><time>2026-03-29T09:58:47.448Z</time></trkpt><trkpt lat="45.8527135" lon="9.3998416"><ele>221.20000000000002</ele><time>2026-03-29T09:58:48.451Z</time></trkpt><trkpt lat="45.8526257" lon="9.3999273"><ele>221.40000000000003</ele><time>2026-03-29T09:58:49.437Z</time></trkpt><trkpt lat="45.8525359" lon="9.4000168"><ele>221.6</ele><time>2026-03-29T09:58:50.435Z</time></trkpt><trkpt lat="45.8524429" lon="9.4001113"><ele>221.8</ele><time>2026-03-29T09:58:51.449Z</time></trkpt><trkpt lat="45.8523522" lon="9.400204"><ele>222.0</ele><time>2026-03-29T09:58:52.453Z</time></trkpt><trkpt lat="45.8522682" lon="9.4002937"><ele>221.8</ele><time>2026-03-29T09:58:53.452Z</time></trkpt><trkpt lat="45.8521877" lon="9.4003806"><ele>221.6</ele><time>2026-03-29T09:58:54.481Z</time></trkpt><trkpt lat="45.8521138" lon="9.4004616"><ele>221.40000000000003</ele><time>2026-03-29T09:58:55.47Z</time></trkpt><trkpt lat="45.852044" lon="9.4005353"><ele>221.20000000000002</ele><time>2026-03-29T09:58:56.443Z</time></trkpt><trkpt lat="45.8519744" lon="9.4006054"><ele>221.0</ele><time>2026-03-29T09:58:57.44Z</time></trkpt><trkpt lat="45.8519009" lon="9.4006647"><ele>221.00000000000003</ele><time>2026-03-29T09:58:58.453Z</time></trkpt><trkpt lat="45.8518287" lon="9.400704"><ele>221.0</ele><time>2026-03-29T09:58:59.457Z</time></trkpt><trkpt lat="45.8517588" lon="9.4007348"><ele>221.0</ele><time>2026-03-29T09:59:00.451Z</time></trkpt><trkpt lat="45.851698" lon="9.40079"><ele>221.0</ele><time>2026-03-29T09:59:01.443Z</time></trkpt><trkpt lat="45.8516549" lon="9.4008787"><ele>221.00000000000003</ele><time>2026-03-29T09:59:02.462Z</time></trkpt><trkpt lat="45.8516269" lon="9.4009933"><ele>221.0</ele><time>2026-03-29T09:59:03.45Z</time></trkpt><trkpt lat="45.8515942" lon="9.401115"><ele>220.60000000000002</ele><time>2026-03-29T09:59:04.454Z</time></trkpt><trkpt lat="45.8515528" lon="9.4012172"><ele>220.20000000000002</ele><time>2026-03-29T09:59:05.441Z</time></trkpt><trkpt lat="45.8514962" lon="9.4013091"><ele>219.79999999999998</ele><time>2026-03-29T09:59:06.447Z</time></trkpt><trkpt lat="45.8514234" lon="9.401405"><ele>219.39999999999998</ele><time>2026-03-29T09:59:07.446Z</time></trkpt><trkpt lat="45.8513463" lon="9.4015061"><ele>219.0</ele><time>2026-03-29T09:59:08.45Z</time></trkpt><trkpt lat="45.8512447" lon="9.4015931"><ele>219.0</ele><time>2026-03-29T09:59:09.439Z</time></trkpt><trkpt lat="45.8511372" lon="9.401681"><ele>219.0</ele><time>2026-03-29T09:59:10.444Z</time></trkpt><trkpt lat="45.8510354" lon="9.4017648"><ele>219.0</ele><time>2026-03-29T09:59:11.455Z</time></trkpt><trkpt lat="45.8509391" lon="9.4018385"><ele>219.0</ele><time>2026-03-29T09:59:12.444Z</time></trkpt><trkpt lat="45.8508423" lon="9.4019059"><ele>218.39999999999998</ele><time>2026-03-29T09:59:13.446Z</time></trkpt><trkpt lat="45.850743" lon="9.401969"><ele>217.79999999999998</ele><time>2026-03-29T09:59:14.454Z</time></trkpt><trkpt lat="45.8506455" lon="9.402027"><ele>217.20000000000002</ele><time>2026-03-29T09:59:15.45Z</time></trkpt><trkpt lat="45.8505386" lon="9.4020819"><ele>216.60000000000002</ele><time>2026-03-29T09:59:16.454Z</time></trkpt><trkpt lat="45.850424" lon="9.402133"><ele>216.0</ele><time>2026-03-29T09:59:17.449Z</time></trkpt><trkpt lat="45.8503164" lon="9.402177"><ele>216.0</ele><time>2026-03-29T09:59:18.445Z</time></trkpt><trkpt lat="45.850218" lon="9.4022202"><ele>216.00000000000003</ele><time>2026-03-29T09:59:19.454Z</time></trkpt><trkpt lat="45.8501243" lon="9.4022643"><ele>216.00000000000003</ele><time>2026-03-29T09:59:20.453Z</time></trkpt><trkpt lat="45.8500305" lon="9.4023223"><ele>216.0</ele><time>2026-03-29T09:59:21.448Z</time></trkpt><trkpt lat="45.8499353" lon="9.4023976"><ele>216.0</ele><time>2026-03-29T09:59:22.452Z</time></trkpt><trkpt lat="45.84984" lon="9.4024794"><ele>215.60000000000002</ele><time>2026-03-29T09:59:23.448Z</time></trkpt><trkpt lat="45.8497508" lon="9.4025558"><ele>215.20000000000002</ele><time>2026-03-29T09:59:24.465Z</time></trkpt><trkpt lat="45.8496603" lon="9.4026358"><ele>214.79999999999998</ele><time>2026-03-29T09:59:25.451Z</time></trkpt><trkpt lat="45.8495654" lon="9.4027204"><ele>214.39999999999998</ele><time>2026-03-29T09:59:26.447Z</time></trkpt><trkpt lat="45.849467" lon="9.402815"><ele>214.0</ele><time>2026-03-29T09:59:27.446Z</time></trkpt><trkpt lat="45.8493663" lon="9.4029082"><ele>213.79999999999998</ele><time>2026-03-29T09:59:28.45Z</time></trkpt><trkpt lat="45.8492718" lon="9.402989"><ele>213.59999999999997</ele><time>2026-03-29T09:59:29.453Z</time></trkpt><trkpt lat="45.8491807" lon="9.4030634"><ele>213.4</ele><time>2026-03-29T09:59:30.448Z</time></trkpt><trkpt lat="45.8490864" lon="9.4031454"><ele>213.2</ele><time>2026-03-29T09:59:31.439Z</time></trkpt><trkpt lat="45.8489907" lon="9.4032265"><ele>213.0</ele><time>2026-03-29T09:59:32.452Z</time></trkpt><trkpt lat="45.8488984" lon="9.4033074"><ele>213.75</ele><time>2026-03-29T09:59:33.436Z</time></trkpt><trkpt lat="45.8488127" lon="9.4033877"><ele>214.5</ele><time>2026-03-29T09:59:34.452Z</time></trkpt><trkpt lat="45.8487168" lon="9.4034711"><ele>215.25</ele><time>2026-03-29T09:59:35.437Z</time></trkpt><trkpt lat="45.8486129" lon="9.4035628"><ele>216.0</ele><time>2026-03-29T09:59:36.443Z</time></trkpt><trkpt lat="45.8485102" lon="9.4036526"><ele>215.60000000000002</ele><time>2026-03-29T09:59:37.454Z</time></trkpt><trkpt lat="45.8484096" lon="9.403735"><ele>215.20000000000002</ele><time>2026-03-29T09:59:38.446Z</time></trkpt><trkpt lat="45.8483106" lon="9.403818"><ele>214.79999999999998</ele><time>2026-03-29T09:59:39.434Z</time></trkpt><trkpt lat="45.8482164" lon="9.4038989"><ele>214.39999999999998</ele><time>2026-03-29T09:59:40.442Z</time></trkpt><trkpt lat="45.8481222" lon="9.4039783"><ele>214.0</ele><time>2026-03-29T09:59:41.432Z</time></trkpt><trkpt lat="45.8480294" lon="9.4040488"><ele>213.99999999999997</ele><time>2026-03-29T09:59:42.44Z</time></trkpt><trkpt lat="45.8479422" lon="9.4041062"><ele>214.0</ele><time>2026-03-29T09:59:43.436Z</time></trkpt><trkpt lat="45.8478581" lon="9.4041537"><ele>214.0</ele><time>2026-03-29T09:59:44.444Z</time></trkpt><trkpt lat="45.8477745" lon="9.4041954"><ele>214.0</ele><time>2026-03-29T09:59:45.436Z</time></trkpt><trkpt lat="45.8476933" lon="9.4042344"><ele>213.99999999999997</ele><time>2026-03-29T09:59:46.439Z</time></trkpt><trkpt lat="45.8476193" lon="9.404267"><ele>214.0</ele><time>2026-03-29T09:59:47.433Z</time></trkpt><trkpt lat="45.8475498" lon="9.4042982"><ele>213.66666666666666</ele><time>2026-03-29T09:59:48.441Z</time></trkpt><trkpt lat="45.8474896" lon="9.4043276"><ele>213.33333333333331</ele><time>2026-03-29T09:59:49.44Z</time></trkpt><trkpt lat="45.8473857" lon="9.4043769"><ele>213.0</ele><time>2026-03-29T09:59:51.449Z</time></trkpt><trkpt lat="45.8472646" lon="9.4044349"><ele>212.66666666666669</ele><time>2026-03-29T09:59:53.441Z</time></trkpt><trkpt lat="45.8471982" lon="9.4044755"><ele>212.33333333333334</ele><time>2026-03-29T09:59:54.451Z</time></trkpt><trkpt lat="45.8471358" lon="9.4045202"><ele>212.0</ele><time>2026-03-29T09:59:55.439Z</time></trkpt><trkpt lat="45.8470737" lon="9.4045588"><ele>212.00000000000003</ele><time>2026-03-29T09:59:56.459Z</time></trkpt><trkpt lat="45.8470109" lon="9.4045957"><ele>212.0</ele><time>2026-03-29T09:59:57.437Z</time></trkpt><trkpt lat="45.8469504" lon="9.4046315"><ele>212.0</ele><time>2026-03-29T09:59:58.445Z</time></trkpt><trkpt lat="45.8468358" lon="9.4046995"><ele>212.0</ele><time>2026-03-29T10:00:00.442Z</time></trkpt><trkpt lat="45.84677" lon="9.4047376"><ele>212.00000000000003</ele><time>2026-03-29T10:00:01.435Z</time></trkpt><trkpt lat="45.8466992" lon="9.4047625"><ele>212.0</ele><time>2026-03-29T10:00:02.432Z</time></trkpt><trkpt lat="45.8466269" lon="9.4047872"><ele>212.50000000000003</ele><time>2026-03-29T10:00:03.434Z</time></trkpt><trkpt lat="45.8465492" lon="9.4048086"><ele>213.0</ele><time>2026-03-29T10:00:04.435Z</time></trkpt><trkpt lat="45.8464659" lon="9.4048238"><ele>213.5</ele><time>2026-03-29T10:00:05.441Z</time></trkpt><trkpt lat="45.8463698" lon="9.4048347"><ele>214.0</ele><time>2026-03-29T10:00:06.445Z</time></trkpt><trkpt lat="45.8462795" lon="9.4048523"><ele>214.50000000000003</ele><time>2026-03-29T10:00:07.441Z</time></trkpt><trkpt lat="45.846182" lon="9.4048751"><ele>215.0</ele><time>2026-03-29T10:00:08.44Z</time></trkpt><trkpt lat="45.8460837" lon="9.4049087"><ele>215.0</ele><time>2026-03-29T10:00:09.431Z</time></trkpt><trkpt lat="45.8459931" lon="9.4049399"><ele>215.0</ele><time>2026-03-29T10:00:10.456Z</time></trkpt><trkpt lat="45.8459084" lon="9.4049721"><ele>215.0</ele><time>2026-03-29T10:00:11.454Z</time></trkpt><trkpt lat="45.8458226" lon="9.4050033"><ele>215.0</ele><time>2026-03-29T10:00:12.451Z</time></trkpt><trkpt lat="45.8457372" lon="9.4050362"><ele>215.0</ele><time>2026-03-29T10:00:13.452Z</time></trkpt><trkpt lat="45.8456428" lon="9.4050848"><ele>214.8</ele><time>2026-03-29T10:00:14.447Z</time></trkpt><trkpt lat="45.8455449" lon="9.4051367"><ele>214.6</ele><time>2026-03-29T10:00:15.442Z</time></trkpt><trkpt lat="45.8454545" lon="9.4051829"><ele>214.39999999999998</ele><time>2026-03-29T10:00:16.439Z</time></trkpt><trkpt lat="45.8453572" lon="9.40523"><ele>214.2</ele><time>2026-03-29T10:00:17.445Z</time></trkpt><trkpt lat="45.8452501" lon="9.4052832"><ele>214.0</ele><time>2026-03-29T10:00:18.443Z</time></trkpt><trkpt lat="45.8451405" lon="9.4053392"><ele>213.75</ele><time>2026-03-29T10:00:19.445Z</time></trkpt><trkpt lat="45.8450179" lon="9.4054009"><ele>213.5</ele><time>2026-03-29T10:00:20.453Z</time></trkpt><trkpt lat="45.8449049" lon="9.4054616"><ele>213.25</ele><time>2026-03-29T10:00:21.441Z</time></trkpt><trkpt lat="45.8448076" lon="9.4055296"><ele>213.0</ele><time>2026-03-29T10:00:22.442Z</time></trkpt><trkpt lat="45.8447066" lon="9.4055954"><ele>213.0</ele><time>2026-03-29T10:00:23.425Z</time></trkpt><trkpt lat="45.8446121" lon="9.40566"><ele>213.0</ele><time>2026-03-29T10:00:24.438Z</time></trkpt><trkpt lat="45.8445168" lon="9.405722"><ele>213.0</ele><time>2026-03-29T10:00:25.443Z</time></trkpt><trkpt lat="45.8444238" lon="9.4057845"><ele>213.0</ele><time>2026-03-29T10:00:26.451Z</time></trkpt><trkpt lat="45.8443272" lon="9.4058699"><ele>213.0</ele><time>2026-03-29T10:00:27.459Z</time></trkpt><trkpt lat="45.8442278" lon="9.4059507"><ele>212.33333333333334</ele><time>2026-03-29T10:00:28.437Z</time></trkpt><trkpt lat="45.8441379" lon="9.4060299"><ele>211.66666666666669</ele><time>2026-03-29T10:00:29.441Z</time></trkpt><trkpt lat="45.8440588" lon="9.4060992"><ele>211.0</ele><time>2026-03-29T10:00:30.442Z</time></trkpt><trkpt lat="45.843999" lon="9.406147"><ele>210.33333333333334</ele><time>2026-03-29T10:00:31.435Z</time></trkpt><trkpt lat="45.8439049" lon="9.4061938"><ele>209.66666666666669</ele><time>2026-03-29T10:00:33.448Z</time></trkpt><trkpt lat="45.843827" lon="9.4062015"><ele>209.0</ele><time>2026-03-29T10:00:35.463Z</time></trkpt><trkpt lat="45.8437112" lon="9.4062254"><ele>209.0</ele><time>2026-03-29T10:00:37.45Z</time></trkpt><trkpt lat="45.8436488" lon="9.4062686"><ele>209.0</ele><time>2026-03-29T10:00:38.444Z</time></trkpt><trkpt lat="45.8435611" lon="9.4063818"><ele>209.0</ele><time>2026-03-29T10:00:40.441Z</time></trkpt><trkpt lat="45.8436025" lon="9.4064844"><ele>209.0</ele><time>2026-03-29T10:00:42.459Z</time></trkpt><trkpt lat="45.8437197" lon="9.4064497"><ele>209.0</ele><time>2026-03-29T10:00:44.468Z</time></trkpt><trkpt lat="45.8437958" lon="9.4063882"><ele>209.0</ele><time>2026-03-29T10:00:45.445Z</time></trkpt><trkpt lat="45.8438644" lon="9.4063297"><ele>209.0</ele><time>2026-03-29T10:00:46.453Z</time></trkpt><trkpt lat="45.8439355" lon="9.40627"><ele>209.0</ele><time>2026-03-29T10:00:47.434Z</time></trkpt><trkpt lat="45.8440142" lon="9.4062049"><ele>209.0</ele><time>2026-03-29T10:00:48.444Z</time></trkpt><trkpt lat="45.8441009" lon="9.4061369"><ele>209.0</ele><time>2026-03-29T10:00:49.45Z</time></trkpt><trkpt lat="45.8441992" lon="9.40606"><ele>209.0</ele><time>2026-03-29T10:00:50.452Z</time></trkpt><trkpt lat="45.8442956" lon="9.4059839"><ele>209.0</ele><time>2026-03-29T10:00:51.45Z</time></trkpt><trkpt lat="45.8443909" lon="9.4059112"><ele>209.0</ele><time>2026-03-29T10:00:52.448Z</time></trkpt><trkpt lat="45.8444897" lon="9.4058358"><ele>209.0</ele><time>2026-03-29T10:00:53.441Z</time></trkpt><trkpt lat="45.8445993" lon="9.4057604"><ele>209.0</ele><time>2026-03-29T10:00:54.446Z</time></trkpt><trkpt lat="45.8447138" lon="9.405684"><ele>209.0</ele><time>2026-03-29T10:00:55.444Z</time></trkpt><trkpt lat="45.8448323" lon="9.4056083"><ele>209.0</ele><time>2026-03-29T10:00:56.45Z</time></trkpt><trkpt lat="45.8449542" lon="9.4055279"><ele>209.0</ele><time>2026-03-29T10:00:57.434Z</time></trkpt><trkpt lat="45.8450833" lon="9.4054492"><ele>210.25</ele><time>2026-03-29T10:00:58.447Z</time></trkpt><trkpt lat="45.8452006" lon="9.4053985"><ele>211.5</ele><time>2026-03-29T10:00:59.438Z</time></trkpt><trkpt lat="45.8453149" lon="9.4053513"><ele>212.75</ele><time>2026-03-29T10:01:00.466Z</time></trkpt><trkpt lat="45.8454232" lon="9.4053065"><ele>214.0</ele><time>2026-03-29T10:01:01.446Z</time></trkpt><trkpt lat="45.8455265" lon="9.4052623"><ele>214.0</ele><time>2026-03-29T10:01:02.455Z</time></trkpt><trkpt lat="45.84563" lon="9.4052188"><ele>214.0</ele><time>2026-03-29T10:01:03.463Z</time></trkpt><trkpt lat="45.8457489" lon="9.4051723"><ele>214.0</ele><time>2026-03-29T10:01:04.44Z</time></trkpt><trkpt lat="45.8458702" lon="9.405121"><ele>214.0</ele><time>2026-03-29T10:01:05.461Z</time></trkpt><trkpt lat="45.8459875" lon="9.4050723"><ele>214.2</ele><time>2026-03-29T10:01:06.47Z</time></trkpt><trkpt lat="45.8460875" lon="9.4050339"><ele>214.39999999999998</ele><time>2026-03-29T10:01:07.442Z</time></trkpt><trkpt lat="45.8461866" lon="9.4049952"><ele>214.6</ele><time>2026-03-29T10:01:08.456Z</time></trkpt><trkpt lat="45.8462798" lon="9.4049582"><ele>214.8</ele><time>2026-03-29T10:01:09.453Z</time></trkpt><trkpt lat="45.8463714" lon="9.4049223"><ele>215.0</ele><time>2026-03-29T10:01:10.452Z</time></trkpt><trkpt lat="45.846472" lon="9.4048837"><ele>215.0</ele><time>2026-03-29T10:01:11.447Z</time></trkpt><trkpt lat="45.8465672" lon="9.4048458"><ele>215.0</ele><time>2026-03-29T10:01:12.447Z</time></trkpt><trkpt lat="45.8466689" lon="9.4048049"><ele>215.0</ele><time>2026-03-29T10:01:13.446Z</time></trkpt><trkpt lat="45.8467621" lon="9.4047675"><ele>215.0</ele><time>2026-03-29T10:01:14.449Z</time></trkpt><trkpt lat="45.846855" lon="9.4047272"><ele>215.0</ele><time>2026-03-29T10:01:15.444Z</time></trkpt><trkpt lat="45.8469548" lon="9.4046949"><ele>215.16666666666669</ele><time>2026-03-29T10:01:16.446Z</time></trkpt><trkpt lat="45.8470396" lon="9.4046699"><ele>215.33333333333334</ele><time>2026-03-29T10:01:17.439Z</time></trkpt><trkpt lat="45.8471113" lon="9.404657"><ele>215.5</ele><time>2026-03-29T10:01:18.457Z</time></trkpt><trkpt lat="45.8472071" lon="9.4046326"><ele>215.66666666666669</ele><time>2026-03-29T10:01:20.452Z</time></trkpt><trkpt lat="45.8472706" lon="9.4045404"><ele>215.83333333333334</ele><time>2026-03-29T10:01:22.434Z</time></trkpt><trkpt lat="45.8472562" lon="9.4044239"><ele>216.0</ele><time>2026-03-29T10:01:24.441Z</time></trkpt><trkpt lat="45.8471602" lon="9.4044455"><ele>216.0</ele><time>2026-03-29T10:01:26.447Z</time></trkpt><trkpt lat="45.8470859" lon="9.4045206"><ele>216.0</ele><time>2026-03-29T10:01:27.447Z</time></trkpt><trkpt lat="45.8470122" lon="9.4045918"><ele>216.0</ele><time>2026-03-29T10:01:28.456Z</time></trkpt><trkpt lat="45.8469299" lon="9.4046582"><ele>216.0</ele><time>2026-03-29T10:01:29.449Z</time></trkpt><trkpt lat="45.8468494" lon="9.4046854"><ele>216.0</ele><time>2026-03-29T10:01:30.451Z</time></trkpt><trkpt lat="45.8467699" lon="9.4046962"><ele>216.0</ele><time>2026-03-29T10:01:31.436Z</time></trkpt><trkpt lat="45.8466812" lon="9.4047163"><ele>215.75</ele><time>2026-03-29T10:01:32.456Z</time></trkpt><trkpt lat="45.8465441" lon="9.4047706"><ele>215.5</ele><time>2026-03-29T10:01:33.442Z</time></trkpt><trkpt lat="45.8464074" lon="9.4048214"><ele>215.25</ele><time>2026-03-29T10:01:34.451Z</time></trkpt><trkpt lat="45.8462774" lon="9.4048743"><ele>215.0</ele><time>2026-03-29T10:01:35.443Z</time></trkpt><trkpt lat="45.8461596" lon="9.4049248"><ele>215.0</ele><time>2026-03-29T10:01:36.45Z</time></trkpt><trkpt lat="45.8460594" lon="9.4049616"><ele>215.0</ele><time>2026-03-29T10:01:37.443Z</time></trkpt><trkpt lat="45.8459633" lon="9.4049918"><ele>215.0</ele><time>2026-03-29T10:01:38.443Z</time></trkpt><trkpt lat="45.845864" lon="9.4050252"><ele>215.0</ele><time>2026-03-29T10:01:39.452Z</time></trkpt><trkpt lat="45.8457613" lon="9.4050628"><ele>215.0</ele><time>2026-03-29T10:01:40.451Z</time></trkpt><trkpt lat="45.8456634" lon="9.4050905"><ele>214.8</ele><time>2026-03-29T10:01:41.454Z</time></trkpt><trkpt lat="45.8455759" lon="9.4051309"><ele>214.6</ele><time>2026-03-29T10:01:42.448Z</time></trkpt><trkpt lat="45.8454913" lon="9.405174"><ele>214.39999999999998</ele><time>2026-03-29T10:01:43.447Z</time></trkpt><trkpt lat="45.8454011" lon="9.4052248"><ele>214.2</ele><time>2026-03-29T10:01:44.452Z</time></trkpt><trkpt lat="45.8453064" lon="9.4052786"><ele>214.0</ele><time>2026-03-29T10:01:45.453Z</time></trkpt><trkpt lat="45.8452017" lon="9.4053332"><ele>213.79999999999998</ele><time>2026-03-29T10:01:46.449Z</time></trkpt><trkpt lat="45.8451005" lon="9.4053853"><ele>213.59999999999997</ele><time>2026-03-29T10:01:47.439Z</time></trkpt><trkpt lat="45.8450123" lon="9.4054287"><ele>213.4</ele><time>2026-03-29T10:01:48.451Z</time></trkpt><trkpt lat="45.8449241" lon="9.4054714"><ele>213.2</ele><time>2026-03-29T10:01:49.451Z</time></trkpt><trkpt lat="45.8448465" lon="9.4055214"><ele>213.0</ele><time>2026-03-29T10:01:50.448Z</time></trkpt><trkpt lat="45.8447607" lon="9.4055801"><ele>213.0</ele><time>2026-03-29T10:01:51.449Z</time></trkpt><trkpt lat="45.8446686" lon="9.4056448"><ele>213.0</ele><time>2026-03-29T10:01:52.446Z</time></trkpt><trkpt lat="45.8445616" lon="9.4057309"><ele>213.0</ele><time>2026-03-29T10:01:53.443Z</time></trkpt><trkpt lat="45.8444637" lon="9.4058056"><ele>213.0</ele><time>2026-03-29T10:01:54.482Z</time></trkpt><trkpt lat="45.8443785" lon="9.4058657"><ele>213.0</ele><time>2026-03-29T10:01:55.436Z</time></trkpt><trkpt lat="45.8442961" lon="9.4059266"><ele>212.33333333333334</ele><time>2026-03-29T10:01:56.453Z</time></trkpt><trkpt lat="45.8442162" lon="9.4059903"><ele>211.66666666666669</ele><time>2026-03-29T10:01:57.444Z</time></trkpt><trkpt lat="45.8441383" lon="9.40605"><ele>211.0</ele><time>2026-03-29T10:01:58.454Z</time></trkpt><trkpt lat="45.8440656" lon="9.4061062"><ele>210.33333333333334</ele><time>2026-03-29T10:01:59.437Z</time></trkpt><trkpt lat="45.8440035" lon="9.4061554"><ele>209.66666666666669</ele><time>2026-03-29T10:02:00.446Z</time></trkpt><trkpt lat="45.8439061" lon="9.4062151"><ele>209.0</ele><time>2026-03-29T10:02:02.435Z</time></trkpt><trkpt lat="45.8438123" lon="9.4062215"><ele>209.0</ele><time>2026-03-29T10:02:04.43Z</time></trkpt><trkpt lat="45.8436916" lon="9.406254"><ele>209.0</ele><time>2026-03-29T10:02:06.444Z</time></trkpt><trkpt lat="45.8435821" lon="9.4062993"><ele>209.0</ele><time>2026-03-29T10:02:08.447Z</time></trkpt><trkpt lat="45.8434981" lon="9.4063251"><ele>209.0</ele><time>2026-03-29T10:02:10.437Z</time></trkpt><trkpt lat="45.8434493" lon="9.4063879"><ele>209.0</ele><time>2026-03-29T10:02:14.449Z</time></trkpt><trkpt lat="45.8433958" lon="9.406464"><ele>209.2</ele><time>2026-03-29T10:10:41.462Z</time></trkpt><trkpt lat="45.8433141" lon="9.4065607"><ele>209.39999999999998</ele><time>2026-03-29T10:10:43.433Z</time></trkpt><trkpt lat="45.8432454" lon="9.4066584"><ele>209.6</ele><time>2026-03-29T10:10:45.454Z</time></trkpt><trkpt lat="45.843196" lon="9.4067609"><ele>209.8</ele><time>2026-03-29T10:10:48.474Z</time></trkpt><trkpt lat="45.843102" lon="9.4068885"><ele>210.0</ele><time>2026-03-29T10:10:50.436Z</time></trkpt><trkpt lat="45.8430409" lon="9.4069633"><ele>210.0</ele><time>2026-03-29T10:10:51.447Z</time></trkpt><trkpt lat="45.8429723" lon="9.4070422"><ele>210.0</ele><time>2026-03-29T10:10:52.456Z</time></trkpt><trkpt lat="45.8428859" lon="9.4071336"><ele>210.0</ele><time>2026-03-29T10:10:53.439Z</time></trkpt><trkpt lat="45.8427916" lon="9.407226"><ele>210.0</ele><time>2026-03-29T10:10:54.454Z</time></trkpt><trkpt lat="45.8427013" lon="9.4073113"><ele>210.0</ele><time>2026-03-29T10:10:55.452Z</time></trkpt><trkpt lat="45.842608" lon="9.4073947"><ele>210.0</ele><time>2026-03-29T10:10:56.446Z</time></trkpt><trkpt lat="45.8425108" lon="9.4074812"><ele>210.0</ele><time>2026-03-29T10:10:57.454Z</time></trkpt><trkpt lat="45.8424101" lon="9.4075725"><ele>210.0</ele><time>2026-03-29T10:10:58.449Z</time></trkpt><trkpt lat="45.8423037" lon="9.4076651"><ele>210.0</ele><time>2026-03-29T10:10:59.453Z</time></trkpt><trkpt lat="45.8421999" lon="9.4077563"><ele>210.0</ele><time>2026-03-29T10:11:00.464Z</time></trkpt><trkpt lat="45.8421036" lon="9.4078404"><ele>210.0</ele><time>2026-03-29T10:11:01.449Z</time></trkpt><trkpt lat="45.8420152" lon="9.4079194"><ele>210.0</ele><time>2026-03-29T10:11:02.455Z</time></trkpt><trkpt lat="45.8419331" lon="9.4079927"><ele>210.0</ele><time>2026-03-29T10:11:03.45Z</time></trkpt><trkpt lat="45.8418571" lon="9.4080616"><ele>210.0</ele><time>2026-03-29T10:11:04.451Z</time></trkpt><trkpt lat="45.8417875" lon="9.4081258"><ele>209.66666666666666</ele><time>2026-03-29T10:11:05.451Z</time></trkpt><trkpt lat="45.8417159" lon="9.4081889"><ele>209.33333333333331</ele><time>2026-03-29T10:11:06.45Z</time></trkpt><trkpt lat="45.8416414" lon="9.4082534"><ele>209.0</ele><time>2026-03-29T10:11:07.449Z</time></trkpt><trkpt lat="45.8415734" lon="9.4083054"><ele>208.66666666666666</ele><time>2026-03-29T10:11:08.457Z</time></trkpt><trkpt lat="45.8415002" lon="9.4083454"><ele>208.33333333333331</ele><time>2026-03-29T10:11:10.437Z</time></trkpt><trkpt lat="45.8414241" lon="9.4083428"><ele>208.0</ele><time>2026-03-29T10:11:16.46Z</time></trkpt><trkpt lat="45.8413102" lon="9.4083492"><ele>207.99999999999997</ele><time>2026-03-29T10:11:18.449Z</time></trkpt><trkpt lat="45.841257" lon="9.4084616"><ele>208.0</ele><time>2026-03-29T10:11:20.449Z</time></trkpt><trkpt lat="45.8412948" lon="9.4085464"><ele>208.0</ele><time>2026-03-29T10:11:22.45Z</time></trkpt><trkpt lat="45.8413579" lon="9.4085445"><ele>208.0</ele><time>2026-03-29T10:11:23.458Z</time></trkpt><trkpt lat="45.8414295" lon="9.4085146"><ele>207.99999999999997</ele><time>2026-03-29T10:11:24.447Z</time></trkpt><trkpt lat="45.8415117" lon="9.4084502"><ele>208.0</ele><time>2026-03-29T10:11:25.459Z</time></trkpt><trkpt lat="45.841597" lon="9.4083856"><ele>208.0</ele><time>2026-03-29T10:11:26.453Z</time></trkpt><trkpt lat="45.8416888" lon="9.4083103"><ele>208.0</ele><time>2026-03-29T10:11:27.448Z</time></trkpt><trkpt lat="45.84179" lon="9.4082273"><ele>208.0</ele><time>2026-03-29T10:11:28.452Z</time></trkpt><trkpt lat="45.8418986" lon="9.4081301"><ele>208.0</ele><time>2026-03-29T10:11:29.449Z</time></trkpt><trkpt lat="45.8420126" lon="9.4080209"><ele>208.5</ele><time>2026-03-29T10:11:30.453Z</time></trkpt><trkpt lat="45.8421203" lon="9.4079172"><ele>209.0</ele><time>2026-03-29T10:11:31.451Z</time></trkpt><trkpt lat="45.842227" lon="9.4078186"><ele>209.5</ele><time>2026-03-29T10:11:32.443Z</time></trkpt><trkpt lat="45.842329" lon="9.407729"><ele>210.0</ele><time>2026-03-29T10:11:33.461Z</time></trkpt><trkpt lat="45.842422" lon="9.4076455"><ele>210.0</ele><time>2026-03-29T10:11:34.449Z</time></trkpt><trkpt lat="45.8425146" lon="9.4075608"><ele>210.0</ele><time>2026-03-29T10:11:35.459Z</time></trkpt><trkpt lat="45.8426096" lon="9.4074754"><ele>210.0</ele><time>2026-03-29T10:11:36.462Z</time></trkpt><trkpt lat="45.8427069" lon="9.4073811"><ele>210.0</ele><time>2026-03-29T10:11:37.458Z</time></trkpt><trkpt lat="45.8428046" lon="9.4072851"><ele>210.0</ele><time>2026-03-29T10:11:38.444Z</time></trkpt><trkpt lat="45.8428887" lon="9.4071923"><ele>210.0</ele><time>2026-03-29T10:11:39.456Z</time></trkpt><trkpt lat="45.8429689" lon="9.4071067"><ele>210.0</ele><time>2026-03-29T10:11:40.45Z</time></trkpt><trkpt lat="45.8430502" lon="9.4070239"><ele>210.0</ele><time>2026-03-29T10:11:41.464Z</time></trkpt><trkpt lat="45.843124" lon="9.4069503"><ele>210.0</ele><time>2026-03-29T10:11:42.468Z</time></trkpt><trkpt lat="45.8431889" lon="9.4068823"><ele>210.0</ele><time>2026-03-29T10:11:43.445Z</time></trkpt><trkpt lat="45.8432532" lon="9.4068153"><ele>210.0</ele><time>2026-03-29T10:11:44.457Z</time></trkpt><trkpt lat="45.843316" lon="9.4067499"><ele>210.0</ele><time>2026-03-29T10:11:45.452Z</time></trkpt><trkpt lat="45.8433718" lon="9.4066926"><ele>210.0</ele><time>2026-03-29T10:11:46.451Z</time></trkpt><trkpt lat="45.8434673" lon="9.406624"><ele>210.0</ele><time>2026-03-29T10:11:48.447Z</time></trkpt><trkpt lat="45.8435588" lon="9.4065965"><ele>210.0</ele><time>2026-03-29T10:11:50.44Z</time></trkpt><trkpt lat="45.8436631" lon="9.4065454"><ele>210.16666666666666</ele><time>2026-03-29T10:11:52.453Z</time></trkpt><trkpt lat="45.843729" lon="9.4064976"><ele>210.33333333333331</ele><time>2026-03-29T10:11:53.452Z</time></trkpt><trkpt lat="45.8438033" lon="9.4064334"><ele>210.5</ele><time>2026-03-29T10:11:54.451Z</time></trkpt><trkpt lat="45.8438835" lon="9.4063598"><ele>210.66666666666666</ele><time>2026-03-29T10:11:55.453Z</time></trkpt><trkpt lat="45.8439672" lon="9.406287"><ele>210.83333333333331</ele><time>2026-03-29T10:11:56.445Z</time></trkpt><trkpt lat="45.8440448" lon="9.40622"><ele>211.0</ele><time>2026-03-29T10:11:57.452Z</time></trkpt><trkpt lat="45.8441179" lon="9.4061584"><ele>210.66666666666666</ele><time>2026-03-29T10:11:58.453Z</time></trkpt><trkpt lat="45.8441909" lon="9.4060991"><ele>210.33333333333331</ele><time>2026-03-29T10:11:59.444Z</time></trkpt><trkpt lat="45.8442643" lon="9.4060426"><ele>210.0</ele><time>2026-03-29T10:12:00.446Z</time></trkpt><trkpt lat="45.8443407" lon="9.4059865"><ele>209.66666666666669</ele><time>2026-03-29T10:12:01.45Z</time></trkpt><trkpt lat="45.8444214" lon="9.4059257"><ele>209.33333333333334</ele><time>2026-03-29T10:12:02.447Z</time></trkpt><trkpt lat="45.8445065" lon="9.4058609"><ele>209.0</ele><time>2026-03-29T10:12:03.454Z</time></trkpt><trkpt lat="45.8445963" lon="9.4057947"><ele>209.0</ele><time>2026-03-29T10:12:04.442Z</time></trkpt><trkpt lat="45.8446936" lon="9.4057252"><ele>209.0</ele><time>2026-03-29T10:12:05.463Z</time></trkpt><trkpt lat="45.8447938" lon="9.4056589"><ele>209.0</ele><time>2026-03-29T10:12:06.454Z</time></trkpt><trkpt lat="45.8448879" lon="9.4056024"><ele>209.0</ele><time>2026-03-29T10:12:07.449Z</time></trkpt><trkpt lat="45.844984" lon="9.4055487"><ele>209.0</ele><time>2026-03-29T10:12:08.455Z</time></trkpt><trkpt lat="45.8450804" lon="9.4054947"><ele>210.0</ele><time>2026-03-29T10:12:09.447Z</time></trkpt><trkpt lat="45.845177" lon="9.4054416"><ele>211.0</ele><time>2026-03-29T10:12:10.452Z</time></trkpt><trkpt lat="45.8452785" lon="9.4053875"><ele>211.99999999999997</ele><time>2026-03-29T10:12:11.452Z</time></trkpt><trkpt lat="45.8453818" lon="9.4053395"><ele>213.0</ele><time>2026-03-29T10:12:12.457Z</time></trkpt><trkpt lat="45.8454844" lon="9.4053022"><ele>214.0</ele><time>2026-03-29T10:12:13.451Z</time></trkpt><trkpt lat="45.8455812" lon="9.4052661"><ele>214.0</ele><time>2026-03-29T10:12:14.438Z</time></trkpt><trkpt lat="45.8456744" lon="9.4052325"><ele>213.99999999999997</ele><time>2026-03-29T10:12:15.453Z</time></trkpt><trkpt lat="45.845762" lon="9.4051953"><ele>213.99999999999997</ele><time>2026-03-29T10:12:16.445Z</time></trkpt><trkpt lat="45.8458524" lon="9.4051576"><ele>214.0</ele><time>2026-03-29T10:12:17.455Z</time></trkpt><trkpt lat="45.8459486" lon="9.4051151"><ele>214.0</ele><time>2026-03-29T10:12:18.456Z</time></trkpt><trkpt lat="45.8460483" lon="9.4050776"><ele>214.16666666666666</ele><time>2026-03-29T10:12:19.447Z</time></trkpt><trkpt lat="45.8461448" lon="9.4050349"><ele>214.33333333333331</ele><time>2026-03-29T10:12:20.457Z</time></trkpt><trkpt lat="45.8462337" lon="9.4050021"><ele>214.5</ele><time>2026-03-29T10:12:21.439Z</time></trkpt><trkpt lat="45.8463152" lon="9.404972"><ele>214.66666666666669</ele><time>2026-03-29T10:12:22.45Z</time></trkpt><trkpt lat="45.8463907" lon="9.4049418"><ele>214.83333333333334</ele><time>2026-03-29T10:12:23.455Z</time></trkpt><trkpt lat="45.846464" lon="9.4049128"><ele>215.0</ele><time>2026-03-29T10:12:24.445Z</time></trkpt><trkpt lat="45.8465396" lon="9.4048786"><ele>215.00000000000003</ele><time>2026-03-29T10:12:25.449Z</time></trkpt><trkpt lat="45.8466147" lon="9.4048458"><ele>215.0</ele><time>2026-03-29T10:12:26.448Z</time></trkpt><trkpt lat="45.8466916" lon="9.4048118"><ele>215.0</ele><time>2026-03-29T10:12:27.453Z</time></trkpt><trkpt lat="45.8467652" lon="9.4047976"><ele>215.0</ele><time>2026-03-29T10:12:28.445Z</time></trkpt><trkpt lat="45.8468431" lon="9.4047812"><ele>215.00000000000003</ele><time>2026-03-29T10:12:29.448Z</time></trkpt><trkpt lat="45.8469112" lon="9.4047696"><ele>215.0</ele><time>2026-03-29T10:12:30.451Z</time></trkpt><trkpt lat="45.8470408" lon="9.4047575"><ele>215.2</ele><time>2026-03-29T10:12:32.453Z</time></trkpt><trkpt lat="45.847116" lon="9.4047505"><ele>215.4</ele><time>2026-03-29T10:12:33.457Z</time></trkpt><trkpt lat="45.8472023" lon="9.4047335"><ele>215.60000000000002</ele><time>2026-03-29T10:12:34.455Z</time></trkpt><trkpt lat="45.8472866" lon="9.4046921"><ele>215.8</ele><time>2026-03-29T10:12:35.457Z</time></trkpt><trkpt lat="45.8473759" lon="9.4046457"><ele>216.0</ele><time>2026-03-29T10:12:36.459Z</time></trkpt><trkpt lat="45.8474739" lon="9.4045882"><ele>215.60000000000002</ele><time>2026-03-29T10:12:37.458Z</time></trkpt><trkpt lat="45.8475778" lon="9.4045316"><ele>215.20000000000002</ele><time>2026-03-29T10:12:38.441Z</time></trkpt><trkpt lat="45.8476783" lon="9.4044818"><ele>214.79999999999998</ele><time>2026-03-29T10:12:39.437Z</time></trkpt><trkpt lat="45.8477732" lon="9.4044349"><ele>214.39999999999998</ele><time>2026-03-29T10:12:40.451Z</time></trkpt><trkpt lat="45.8478742" lon="9.4043839"><ele>214.0</ele><time>2026-03-29T10:12:41.464Z</time></trkpt><trkpt lat="45.8479755" lon="9.4043363"><ele>214.0</ele><time>2026-03-29T10:12:42.442Z</time></trkpt><trkpt lat="45.8480805" lon="9.4042775"><ele>213.99999999999997</ele><time>2026-03-29T10:12:43.455Z</time></trkpt><trkpt lat="45.8481864" lon="9.4042092"><ele>213.99999999999997</ele><time>2026-03-29T10:12:44.452Z</time></trkpt><trkpt lat="45.8482904" lon="9.4041409"><ele>214.0</ele><time>2026-03-29T10:12:45.452Z</time></trkpt><trkpt lat="45.848382" lon="9.404064"><ele>214.0</ele><time>2026-03-29T10:12:46.464Z</time></trkpt><trkpt lat="45.8484668" lon="9.4039968"><ele>214.39999999999998</ele><time>2026-03-29T10:12:47.444Z</time></trkpt><trkpt lat="45.8485483" lon="9.4039376"><ele>214.79999999999998</ele><time>2026-03-29T10:12:48.442Z</time></trkpt><trkpt lat="45.8486378" lon="9.4038702"><ele>215.20000000000002</ele><time>2026-03-29T10:12:49.451Z</time></trkpt><trkpt lat="45.84872" lon="9.4038042"><ele>215.60000000000002</ele><time>2026-03-29T10:12:50.451Z</time></trkpt><trkpt lat="45.8487956" lon="9.4037439"><ele>216.0</ele><time>2026-03-29T10:12:51.451Z</time></trkpt><trkpt lat="45.8488705" lon="9.4036812"><ele>216.0</ele><time>2026-03-29T10:12:52.452Z</time></trkpt><trkpt lat="45.8489489" lon="9.4036152"><ele>216.00000000000003</ele><time>2026-03-29T10:12:53.452Z</time></trkpt><trkpt lat="45.8490325" lon="9.4035506"><ele>216.00000000000003</ele><time>2026-03-29T10:12:54.448Z</time></trkpt><trkpt lat="45.8491272" lon="9.4034793"><ele>216.0</ele><time>2026-03-29T10:12:55.457Z</time></trkpt><trkpt lat="45.8492326" lon="9.4033964"><ele>216.0</ele><time>2026-03-29T10:12:56.458Z</time></trkpt><trkpt lat="45.8493457" lon="9.4033026"><ele>216.5</ele><time>2026-03-29T10:12:57.458Z</time></trkpt><trkpt lat="45.8494603" lon="9.4032046"><ele>217.0</ele><time>2026-03-29T10:12:58.448Z</time></trkpt><trkpt lat="45.8495697" lon="9.4031107"><ele>217.5</ele><time>2026-03-29T10:12:59.448Z</time></trkpt><trkpt lat="45.8496858" lon="9.4030123"><ele>218.0</ele><time>2026-03-29T10:13:00.45Z</time></trkpt><trkpt lat="45.8498078" lon="9.4029105"><ele>217.33333333333334</ele><time>2026-03-29T10:13:01.448Z</time></trkpt><trkpt lat="45.8499283" lon="9.4028092"><ele>216.66666666666669</ele><time>2026-03-29T10:13:02.442Z</time></trkpt><trkpt lat="45.8500527" lon="9.4027031"><ele>216.0</ele><time>2026-03-29T10:13:03.453Z</time></trkpt><trkpt lat="45.8798846" lon="9.3711735"><ele>216.0</ele><time>2026-03-29T10:16:09.382Z</time></trkpt><trkpt lat="45.879913" lon="9.3709935"><ele>216.0</ele><time>2026-03-29T10:16:10.392Z</time></trkpt><trkpt lat="45.8799779" lon="9.3707491"><ele>216.0</ele><time>2026-03-29T10:16:11.443Z</time></trkpt><trkpt lat="45.8800408" lon="9.3705159"><ele>222.0</ele><time>2026-03-29T10:16:12.438Z</time></trkpt><trkpt lat="45.8801013" lon="9.3702919"><ele>228.0</ele><time>2026-03-29T10:16:13.445Z</time></trkpt><trkpt lat="45.8801673" lon="9.3700701"><ele>234.0</ele><time>2026-03-29T10:16:14.445Z</time></trkpt><trkpt lat="45.8802433" lon="9.3698542"><ele>230.0</ele><time>2026-03-29T10:16:15.44Z</time></trkpt><trkpt lat="45.8803341" lon="9.3696419"><ele>226.0</ele><time>2026-03-29T10:16:16.444Z</time></trkpt><trkpt lat="45.880435" lon="9.3694382"><ele>222.0</ele><time>2026-03-29T10:16:17.449Z</time></trkpt><trkpt lat="45.8805457" lon="9.3692383"><ele>222.0</ele><time>2026-03-29T10:16:18.451Z</time></trkpt><trkpt lat="45.8806585" lon="9.369043"><ele>222.0</ele><time>2026-03-29T10:16:19.449Z</time></trkpt><trkpt lat="45.8807718" lon="9.3688507"><ele>222.0</ele><time>2026-03-29T10:16:20.446Z</time></trkpt><trkpt lat="45.8808837" lon="9.3686552"><ele>224.66666666666669</ele><time>2026-03-29T10:16:21.459Z</time></trkpt><trkpt lat="45.8809886" lon="9.3684601"><ele>227.33333333333334</ele><time>2026-03-29T10:16:22.45Z</time></trkpt><trkpt lat="45.8810939" lon="9.3682594"><ele>230.0</ele><time>2026-03-29T10:16:23.449Z</time></trkpt><trkpt lat="45.8811992" lon="9.3680595"><ele>226.0</ele><time>2026-03-29T10:16:24.452Z</time></trkpt><trkpt lat="45.8813087" lon="9.3678624"><ele>222.0</ele><time>2026-03-29T10:16:25.446Z</time></trkpt><trkpt lat="45.8814187" lon="9.3676648"><ele>218.0</ele><time>2026-03-29T10:16:26.451Z</time></trkpt><trkpt lat="45.8815356" lon="9.3674577"><ele>218.0</ele><time>2026-03-29T10:16:27.451Z</time></trkpt><trkpt lat="45.8816471" lon="9.3672554"><ele>218.0</ele><time>2026-03-29T10:16:28.449Z</time></trkpt><trkpt lat="45.8817561" lon="9.3670497"><ele>218.0</ele><time>2026-03-29T10:16:29.447Z</time></trkpt><trkpt lat="45.8818645" lon="9.366847"><ele>218.33333333333334</ele><time>2026-03-29T10:16:30.452Z</time></trkpt><trkpt lat="45.8819707" lon="9.3666433"><ele>218.66666666666669</ele><time>2026-03-29T10:16:31.453Z</time></trkpt><trkpt lat="45.8820778" lon="9.3664441"><ele>219.0</ele><time>2026-03-29T10:16:32.46Z</time></trkpt><trkpt lat="45.8821874" lon="9.3662425"><ele>219.0</ele><time>2026-03-29T10:16:33.442Z</time></trkpt><trkpt lat="45.8822997" lon="9.366039"><ele>219.0</ele><time>2026-03-29T10:16:34.455Z</time></trkpt><trkpt lat="45.8824142" lon="9.3658329"><ele>219.0</ele><time>2026-03-29T10:16:35.455Z</time></trkpt><trkpt lat="45.8825295" lon="9.3656217"><ele>226.66666666666669</ele><time>2026-03-29T10:16:36.45Z</time></trkpt><trkpt lat="45.8826436" lon="9.3654069"><ele>234.33333333333334</ele><time>2026-03-29T10:16:37.45Z</time></trkpt><trkpt lat="45.8827566" lon="9.3651917"><ele>242.0</ele><time>2026-03-29T10:16:38.45Z</time></trkpt><trkpt lat="45.882866" lon="9.3649748"><ele>242.0</ele><time>2026-03-29T10:16:39.444Z</time></trkpt><trkpt lat="45.8829685" lon="9.3647544"><ele>242.0</ele><time>2026-03-29T10:16:40.455Z</time></trkpt><trkpt lat="45.8830697" lon="9.3645365"><ele>242.0</ele><time>2026-03-29T10:16:41.445Z</time></trkpt><trkpt lat="45.8831665" lon="9.3643166"><ele>244.0</ele><time>2026-03-29T10:16:42.455Z</time></trkpt><trkpt lat="45.8832628" lon="9.3640974"><ele>246.0</ele><time>2026-03-29T10:16:43.453Z</time></trkpt><trkpt lat="45.8833609" lon="9.3638655"><ele>248.0</ele><time>2026-03-29T10:16:44.443Z</time></trkpt><trkpt lat="45.8834586" lon="9.363644"><ele>248.0</ele><time>2026-03-29T10:16:45.436Z</time></trkpt><trkpt lat="45.8835605" lon="9.3634268"><ele>248.0</ele><time>2026-03-29T10:16:46.44Z</time></trkpt><trkpt lat="45.8836608" lon="9.3632269"><ele>248.0</ele><time>2026-03-29T10:16:47.44Z</time></trkpt><trkpt lat="45.8837645" lon="9.3630368"><ele>239.66666666666669</ele><time>2026-03-29T10:16:48.439Z</time></trkpt><trkpt lat="45.8838822" lon="9.3628534"><ele>231.33333333333331</ele><time>2026-03-29T10:16:49.445Z</time></trkpt><trkpt lat="45.8840083" lon="9.3626803"><ele>223.0</ele><time>2026-03-29T10:16:50.448Z</time></trkpt><trkpt lat="45.8841286" lon="9.3624965"><ele>223.0</ele><time>2026-03-29T10:16:51.435Z</time></trkpt><trkpt lat="45.8842416" lon="9.3623312"><ele>223.0</ele><time>2026-03-29T10:16:52.448Z</time></trkpt><trkpt lat="45.884362" lon="9.3621483"><ele>223.0</ele><time>2026-03-29T10:16:53.448Z</time></trkpt><trkpt lat="45.8844861" lon="9.3619569"><ele>226.33333333333331</ele><time>2026-03-29T10:16:54.447Z</time></trkpt><trkpt lat="45.8846106" lon="9.3617621"><ele>229.66666666666669</ele><time>2026-03-29T10:16:55.447Z</time></trkpt><trkpt lat="45.8847368" lon="9.3615629"><ele>233.0</ele><time>2026-03-29T10:16:56.455Z</time></trkpt><trkpt lat="45.8848725" lon="9.3613797"><ele>229.66666666666669</ele><time>2026-03-29T10:16:57.443Z</time></trkpt><trkpt lat="45.8850145" lon="9.3612119"><ele>226.33333333333331</ele><time>2026-03-29T10:16:58.436Z</time></trkpt><trkpt lat="45.885169" lon="9.3610664"><ele>223.0</ele><time>2026-03-29T10:16:59.445Z</time></trkpt><trkpt lat="45.8853344" lon="9.3609399"><ele>223.0</ele><time>2026-03-29T10:17:00.436Z</time></trkpt><trkpt lat="45.8855265" lon="9.360818"><ele>223.0</ele><time>2026-03-29T10:17:01.445Z</time></trkpt><trkpt lat="45.8857066" lon="9.3607045"><ele>223.0</ele><time>2026-03-29T10:17:02.441Z</time></trkpt><trkpt lat="45.8858835" lon="9.360563"><ele>219.66666666666666</ele><time>2026-03-29T10:17:03.441Z</time></trkpt><trkpt lat="45.8860466" lon="9.3604412"><ele>216.33333333333331</ele><time>2026-03-29T10:17:04.445Z</time></trkpt><trkpt lat="45.8862031" lon="9.3603288"><ele>213.0</ele><time>2026-03-29T10:17:05.445Z</time></trkpt><trkpt lat="45.8863775" lon="9.3602131"><ele>213.0</ele><time>2026-03-29T10:17:06.445Z</time></trkpt><trkpt lat="45.8865506" lon="9.3600965"><ele>213.0</ele><time>2026-03-29T10:17:07.439Z</time></trkpt><trkpt lat="45.8867193" lon="9.3599757"><ele>213.0</ele><time>2026-03-29T10:17:08.45Z</time></trkpt><trkpt lat="45.8868897" lon="9.3598555"><ele>211.0</ele><time>2026-03-29T10:17:09.454Z</time></trkpt><trkpt lat="45.8870624" lon="9.3597345"><ele>209.0</ele><time>2026-03-29T10:17:10.451Z</time></trkpt><trkpt lat="45.8872376" lon="9.3596082"><ele>207.0</ele><time>2026-03-29T10:17:11.449Z</time></trkpt><trkpt lat="45.8874155" lon="9.3594824"><ele>212.0</ele><time>2026-03-29T10:17:12.432Z</time></trkpt><trkpt lat="45.8875943" lon="9.3593568"><ele>217.0</ele><time>2026-03-29T10:17:13.45Z</time></trkpt><trkpt lat="45.887777" lon="9.3592416"><ele>222.0</ele><time>2026-03-29T10:17:14.45Z</time></trkpt><trkpt lat="45.8879648" lon="9.3591459"><ele>222.0</ele><time>2026-03-29T10:17:15.447Z</time></trkpt><trkpt lat="45.8881558" lon="9.359058"><ele>222.0</ele><time>2026-03-29T10:17:16.45Z</time></trkpt><trkpt lat="45.8883479" lon="9.358969"><ele>222.0</ele><time>2026-03-29T10:17:17.461Z</time></trkpt><trkpt lat="45.8885369" lon="9.3588794"><ele>218.0</ele><time>2026-03-29T10:17:18.449Z</time></trkpt><trkpt lat="45.8887246" lon="9.3587904"><ele>214.0</ele><time>2026-03-29T10:17:19.446Z</time></trkpt><trkpt lat="45.8889057" lon="9.3587023"><ele>210.0</ele><time>2026-03-29T10:17:20.448Z</time></trkpt><trkpt lat="45.8890828" lon="9.3586144"><ele>210.0</ele><time>2026-03-29T10:17:21.444Z</time></trkpt><trkpt lat="45.8892552" lon="9.3585207"><ele>210.0</ele><time>2026-03-29T10:17:22.448Z</time></trkpt><trkpt lat="45.8894206" lon="9.358416"><ele>210.0</ele><time>2026-03-29T10:17:23.45Z</time></trkpt><trkpt lat="45.8895835" lon="9.3583119"><ele>208.66666666666669</ele><time>2026-03-29T10:17:24.449Z</time></trkpt><trkpt lat="45.8897381" lon="9.3581746"><ele>207.33333333333334</ele><time>2026-03-29T10:17:25.448Z</time></trkpt><trkpt lat="45.8898938" lon="9.3580428"><ele>206.0</ele><time>2026-03-29T10:17:26.446Z</time></trkpt><trkpt lat="45.8900424" lon="9.357882"><ele>213.0</ele><time>2026-03-29T10:17:27.452Z</time></trkpt><trkpt lat="45.8901808" lon="9.3577122"><ele>220.0</ele><time>2026-03-29T10:17:28.449Z</time></trkpt><trkpt lat="45.8903172" lon="9.3575272"><ele>227.0</ele><time>2026-03-29T10:17:29.439Z</time></trkpt><trkpt lat="45.890447" lon="9.3573289"><ele>221.66666666666669</ele><time>2026-03-29T10:17:30.447Z</time></trkpt><trkpt lat="45.890574" lon="9.3571241"><ele>216.33333333333331</ele><time>2026-03-29T10:17:31.441Z</time></trkpt><trkpt lat="45.8906945" lon="9.3569067"><ele>211.0</ele><time>2026-03-29T10:17:32.444Z</time></trkpt><trkpt lat="45.8908089" lon="9.3566804"><ele>211.0</ele><time>2026-03-29T10:17:33.451Z</time></trkpt><trkpt lat="45.8909173" lon="9.3564507"><ele>211.0</ele><time>2026-03-29T10:17:34.448Z</time></trkpt><trkpt lat="45.8910234" lon="9.3562226"><ele>211.0</ele><time>2026-03-29T10:17:35.448Z</time></trkpt><trkpt lat="45.8911272" lon="9.3559951"><ele>210.0</ele><time>2026-03-29T10:17:36.445Z</time></trkpt><trkpt lat="45.8912318" lon="9.3557676"><ele>209.0</ele><time>2026-03-29T10:17:37.455Z</time></trkpt><trkpt lat="45.8913398" lon="9.355544"><ele>208.0</ele><time>2026-03-29T10:17:38.464Z</time></trkpt><trkpt lat="45.8914545" lon="9.3553315"><ele>208.0</ele><time>2026-03-29T10:17:39.444Z</time></trkpt><trkpt lat="45.8915693" lon="9.3551235"><ele>208.0</ele><time>2026-03-29T10:17:40.448Z</time></trkpt><trkpt lat="45.8916975" lon="9.3549338"><ele>208.0</ele><time>2026-03-29T10:17:41.437Z</time></trkpt><trkpt lat="45.8918315" lon="9.3547561"><ele>209.0</ele><time>2026-03-29T10:17:42.442Z</time></trkpt><trkpt lat="45.8919695" lon="9.3545905"><ele>210.0</ele><time>2026-03-29T10:17:43.449Z</time></trkpt><trkpt lat="45.8921083" lon="9.3544357"><ele>211.0</ele><time>2026-03-29T10:17:44.444Z</time></trkpt><trkpt lat="45.8922487" lon="9.3542884"><ele>211.0</ele><time>2026-03-29T10:17:45.45Z</time></trkpt><trkpt lat="45.8923856" lon="9.354138"><ele>211.0</ele><time>2026-03-29T10:17:46.443Z</time></trkpt><trkpt lat="45.8925215" lon="9.3539858"><ele>211.0</ele><time>2026-03-29T10:17:47.449Z</time></trkpt><trkpt lat="45.8926577" lon="9.3538268"><ele>216.33333333333331</ele><time>2026-03-29T10:17:48.449Z</time></trkpt><trkpt lat="45.8927935" lon="9.3536563"><ele>221.66666666666669</ele><time>2026-03-29T10:17:49.44Z</time></trkpt><trkpt lat="45.8929219" lon="9.3534695"><ele>227.0</ele><time>2026-03-29T10:17:50.447Z</time></trkpt><trkpt lat="45.8930486" lon="9.3532673"><ele>227.0</ele><time>2026-03-29T10:17:51.448Z</time></trkpt><trkpt lat="45.8931709" lon="9.3530544"><ele>227.0</ele><time>2026-03-29T10:17:52.445Z</time></trkpt><trkpt lat="45.8932874" lon="9.352831"><ele>227.0</ele><time>2026-03-29T10:17:53.447Z</time></trkpt><trkpt lat="45.893397" lon="9.3526033"><ele>229.0</ele><time>2026-03-29T10:17:54.446Z</time></trkpt><trkpt lat="45.8934932" lon="9.3523789"><ele>231.0</ele><time>2026-03-29T10:17:55.448Z</time></trkpt><trkpt lat="45.8935812" lon="9.3521511"><ele>233.0</ele><time>2026-03-29T10:17:56.448Z</time></trkpt><trkpt lat="45.8936658" lon="9.3519161"><ele>233.0</ele><time>2026-03-29T10:17:57.445Z</time></trkpt><trkpt lat="45.8937423" lon="9.3516643"><ele>233.0</ele><time>2026-03-29T10:17:58.461Z</time></trkpt><trkpt lat="45.8938175" lon="9.3513986"><ele>233.0</ele><time>2026-03-29T10:17:59.449Z</time></trkpt><trkpt lat="45.8938967" lon="9.3511304"><ele>226.33333333333334</ele><time>2026-03-29T10:18:00.449Z</time></trkpt><trkpt lat="45.8939758" lon="9.3508717"><ele>219.66666666666669</ele><time>2026-03-29T10:18:01.438Z</time></trkpt><trkpt lat="45.8940507" lon="9.3506299"><ele>213.0</ele><time>2026-03-29T10:18:02.449Z</time></trkpt><trkpt lat="45.8941228" lon="9.3504046"><ele>210.66666666666669</ele><time>2026-03-29T10:18:03.448Z</time></trkpt><trkpt lat="45.8941951" lon="9.3501915"><ele>208.33333333333334</ele><time>2026-03-29T10:18:04.455Z</time></trkpt><trkpt lat="45.8942711" lon="9.3499844"><ele>206.0</ele><time>2026-03-29T10:18:05.452Z</time></trkpt><trkpt lat="45.8943434" lon="9.3497854"><ele>213.0</ele><time>2026-03-29T10:18:06.446Z</time></trkpt><trkpt lat="45.8944146" lon="9.349586"><ele>220.0</ele><time>2026-03-29T10:18:07.444Z</time></trkpt><trkpt lat="45.8944848" lon="9.3493818"><ele>227.0</ele><time>2026-03-29T10:18:08.45Z</time></trkpt><trkpt lat="45.8945533" lon="9.3491786"><ele>227.0</ele><time>2026-03-29T10:18:09.446Z</time></trkpt><trkpt lat="45.8946221" lon="9.3489887"><ele>227.0</ele><time>2026-03-29T10:18:10.445Z</time></trkpt><trkpt lat="45.894695" lon="9.3488165"><ele>227.0</ele><time>2026-03-29T10:18:11.432Z</time></trkpt><trkpt lat="45.8947704" lon="9.3486605"><ele>227.0</ele><time>2026-03-29T10:18:12.439Z</time></trkpt><trkpt lat="45.8949796" lon="9.3482106"><ele>227.0</ele><time>2026-03-29T10:18:15.429Z</time></trkpt><trkpt lat="45.8950418" lon="9.3480602"><ele>227.0</ele><time>2026-03-29T10:18:16.446Z</time></trkpt><trkpt lat="45.895105" lon="9.3478908"><ele>227.0</ele><time>2026-03-29T10:18:17.449Z</time></trkpt><trkpt lat="45.8951658" lon="9.3477234"><ele>227.0</ele><time>2026-03-29T10:18:18.449Z</time></trkpt><trkpt lat="45.8952419" lon="9.3475481"><ele>227.0</ele><time>2026-03-29T10:18:19.45Z</time></trkpt><trkpt lat="45.8953081" lon="9.3473617"><ele>227.0</ele><time>2026-03-29T10:18:20.443Z</time></trkpt><trkpt lat="45.8953757" lon="9.3471671"><ele>227.0</ele><time>2026-03-29T10:18:21.44Z</time></trkpt><trkpt lat="45.8954441" lon="9.3469798"><ele>227.0</ele><time>2026-03-29T10:18:22.445Z</time></trkpt><trkpt lat="45.8955233" lon="9.3468074"><ele>222.25</ele><time>2026-03-29T10:18:23.439Z</time></trkpt><trkpt lat="45.8956163" lon="9.346653"><ele>217.5</ele><time>2026-03-29T10:18:24.435Z</time></trkpt><trkpt lat="45.8956987" lon="9.3464955"><ele>212.75</ele><time>2026-03-29T10:18:25.434Z</time></trkpt><trkpt lat="45.8957897" lon="9.346326"><ele>208.0</ele><time>2026-03-29T10:18:26.441Z</time></trkpt><trkpt lat="45.8958713" lon="9.3461518"><ele>210.66666666666666</ele><time>2026-03-29T10:18:27.443Z</time></trkpt><trkpt lat="45.8959524" lon="9.3459725"><ele>213.33333333333331</ele><time>2026-03-29T10:18:28.441Z</time></trkpt><trkpt lat="45.8961007" lon="9.3456196"><ele>216.0</ele><time>2026-03-29T10:18:30.454Z</time></trkpt><trkpt lat="45.8954379" lon="9.3419292"><ele>216.0</ele><time>2026-03-29T10:18:48.45Z</time></trkpt><trkpt lat="45.895293" lon="9.341817"><ele>216.0</ele><time>2026-03-29T10:18:49.439Z</time></trkpt><trkpt lat="45.8951898" lon="9.3416711"><ele>216.0</ele><time>2026-03-29T10:18:50.445Z</time></trkpt><trkpt lat="45.8950848" lon="9.3415175"><ele>214.75</ele><time>2026-03-29T10:18:51.452Z</time></trkpt><trkpt lat="45.8949815" lon="9.3413598"><ele>213.5</ele><time>2026-03-29T10:18:52.447Z</time></trkpt><trkpt lat="45.8948871" lon="9.341204"><ele>212.25</ele><time>2026-03-29T10:18:53.44Z</time></trkpt><trkpt lat="45.8948068" lon="9.3410459"><ele>211.0</ele><time>2026-03-29T10:18:54.445Z</time></trkpt><trkpt lat="45.8947431" lon="9.3408798"><ele>211.0</ele><time>2026-03-29T10:18:55.451Z</time></trkpt><trkpt lat="45.8946877" lon="9.3407074"><ele>211.0</ele><time>2026-03-29T10:18:56.446Z</time></trkpt><trkpt lat="45.8946412" lon="9.3405325"><ele>211.0</ele><time>2026-03-29T10:18:57.453Z</time></trkpt><trkpt lat="45.8946005" lon="9.3403647"><ele>211.0</ele><time>2026-03-29T10:18:58.463Z</time></trkpt><trkpt lat="45.8945742" lon="9.3401985"><ele>211.5</ele><time>2026-03-29T10:18:59.449Z</time></trkpt><trkpt lat="45.8945555" lon="9.340039"><ele>212.0</ele><time>2026-03-29T10:19:00.456Z</time></trkpt><trkpt lat="45.8945427" lon="9.3398759"><ele>212.5</ele><time>2026-03-29T10:19:01.453Z</time></trkpt><trkpt lat="45.894529" lon="9.3397094"><ele>213.0</ele><time>2026-03-29T10:19:02.449Z</time></trkpt><trkpt lat="45.8945139" lon="9.3395451"><ele>213.0</ele><time>2026-03-29T10:19:03.456Z</time></trkpt><trkpt lat="45.8945013" lon="9.3393805"><ele>213.0</ele><time>2026-03-29T10:19:04.458Z</time></trkpt><trkpt lat="45.8944906" lon="9.3392112"><ele>213.0</ele><time>2026-03-29T10:19:05.461Z</time></trkpt><trkpt lat="45.8944869" lon="9.33904"><ele>213.0</ele><time>2026-03-29T10:19:06.441Z</time></trkpt><trkpt lat="45.8944938" lon="9.3388652"><ele>212.75</ele><time>2026-03-29T10:19:07.452Z</time></trkpt><trkpt lat="45.8945123" lon="9.3386868"><ele>212.5</ele><time>2026-03-29T10:19:08.443Z</time></trkpt><trkpt lat="45.8945379" lon="9.3385014"><ele>212.25</ele><time>2026-03-29T10:19:09.451Z</time></trkpt><trkpt lat="45.8945681" lon="9.3383051"><ele>212.0</ele><time>2026-03-29T10:19:10.453Z</time></trkpt><trkpt lat="45.8946042" lon="9.3380971"><ele>212.0</ele><time>2026-03-29T10:19:11.453Z</time></trkpt><trkpt lat="45.8946422" lon="9.3378836"><ele>212.0</ele><time>2026-03-29T10:19:12.444Z</time></trkpt><trkpt lat="45.8946807" lon="9.3376761"><ele>212.0</ele><time>2026-03-29T10:19:13.452Z</time></trkpt><trkpt lat="45.894719" lon="9.3374682"><ele>212.0</ele><time>2026-03-29T10:19:14.457Z</time></trkpt><trkpt lat="45.8947582" lon="9.3372546"><ele>212.0</ele><time>2026-03-29T10:19:15.453Z</time></trkpt><trkpt lat="45.8947981" lon="9.3370397"><ele>212.0</ele><time>2026-03-29T10:19:16.451Z</time></trkpt><trkpt lat="45.8948366" lon="9.3368225"><ele>211.66666666666669</ele><time>2026-03-29T10:19:17.449Z</time></trkpt><trkpt lat="45.8948728" lon="9.3366034"><ele>211.33333333333331</ele><time>2026-03-29T10:19:18.447Z</time></trkpt><trkpt lat="45.89491" lon="9.336384"><ele>211.0</ele><time>2026-03-29T10:19:19.441Z</time></trkpt><trkpt lat="45.8949484" lon="9.336164"><ele>212.0</ele><time>2026-03-29T10:19:20.451Z</time></trkpt><trkpt lat="45.8949865" lon="9.3359566"><ele>213.0</ele><time>2026-03-29T10:19:21.439Z</time></trkpt><trkpt lat="45.8950224" lon="9.3357642"><ele>214.0</ele><time>2026-03-29T10:19:22.448Z</time></trkpt><trkpt lat="45.8950559" lon="9.3355873"><ele>215.0</ele><time>2026-03-29T10:19:23.459Z</time></trkpt><trkpt lat="45.8950878" lon="9.3354245"><ele>215.0</ele><time>2026-03-29T10:19:24.444Z</time></trkpt><trkpt lat="45.8951177" lon="9.3352697"><ele>215.0</ele><time>2026-03-29T10:19:25.461Z</time></trkpt><trkpt lat="45.8951438" lon="9.3351125"><ele>215.0</ele><time>2026-03-29T10:19:26.441Z</time></trkpt><trkpt lat="45.8951751" lon="9.3349622"><ele>215.0</ele><time>2026-03-29T10:19:27.451Z</time></trkpt><trkpt lat="45.8952162" lon="9.3348294"><ele>215.0</ele><time>2026-03-29T10:19:28.459Z</time></trkpt><trkpt lat="45.895264" lon="9.334712"><ele>214.8</ele><time>2026-03-29T10:19:29.451Z</time></trkpt><trkpt lat="45.895318" lon="9.3346038"><ele>214.6</ele><time>2026-03-29T10:19:30.456Z</time></trkpt><trkpt lat="45.8953811" lon="9.3345014"><ele>214.39999999999998</ele><time>2026-03-29T10:19:31.453Z</time></trkpt><trkpt lat="45.895454" lon="9.3344036"><ele>214.2</ele><time>2026-03-29T10:19:32.448Z</time></trkpt><trkpt lat="45.8955367" lon="9.3343095"><ele>214.0</ele><time>2026-03-29T10:19:33.452Z</time></trkpt><trkpt lat="45.8956255" lon="9.3342207"><ele>214.0</ele><time>2026-03-29T10:19:34.44Z</time></trkpt><trkpt lat="45.8957104" lon="9.334142"><ele>213.99999999999997</ele><time>2026-03-29T10:19:35.459Z</time></trkpt><trkpt lat="45.8957971" lon="9.3340665"><ele>213.99999999999997</ele><time>2026-03-29T10:19:36.447Z</time></trkpt><trkpt lat="45.8958885" lon="9.3339879"><ele>214.0</ele><time>2026-03-29T10:19:37.45Z</time></trkpt><trkpt lat="45.8959794" lon="9.3339091"><ele>214.0</ele><time>2026-03-29T10:19:38.46Z</time></trkpt><trkpt lat="45.8960633" lon="9.3338357"><ele>213.79999999999998</ele><time>2026-03-29T10:19:39.448Z</time></trkpt><trkpt lat="45.8961449" lon="9.3337632"><ele>213.59999999999997</ele><time>2026-03-29T10:19:40.439Z</time></trkpt><trkpt lat="45.8962301" lon="9.3336885"><ele>213.4</ele><time>2026-03-29T10:19:41.446Z</time></trkpt><trkpt lat="45.8963176" lon="9.333608"><ele>213.2</ele><time>2026-03-29T10:19:42.45Z</time></trkpt><trkpt lat="45.8964107" lon="9.3335282"><ele>213.0</ele><time>2026-03-29T10:19:43.45Z</time></trkpt><trkpt lat="45.89651" lon="9.3334447"><ele>213.0</ele><time>2026-03-29T10:19:44.451Z</time></trkpt><trkpt lat="45.8966164" lon="9.3333608"><ele>213.0</ele><time>2026-03-29T10:19:45.449Z</time></trkpt><trkpt lat="45.8967274" lon="9.3332777"><ele>213.0</ele><time>2026-03-29T10:19:46.467Z</time></trkpt><trkpt lat="45.8968406" lon="9.3332011"><ele>213.0</ele><time>2026-03-29T10:19:47.437Z</time></trkpt><trkpt lat="45.8969555" lon="9.3331297"><ele>213.25</ele><time>2026-03-29T10:19:48.439Z</time></trkpt><trkpt lat="45.8970719" lon="9.3330622"><ele>213.5</ele><time>2026-03-29T10:19:49.447Z</time></trkpt><trkpt lat="45.8971887" lon="9.3329978"><ele>213.75</ele><time>2026-03-29T10:19:50.451Z</time></trkpt><trkpt lat="45.8973043" lon="9.3329393"><ele>214.0</ele><time>2026-03-29T10:19:51.451Z</time></trkpt><trkpt lat="45.8974213" lon="9.332893"><ele>213.25</ele><time>2026-03-29T10:19:52.438Z</time></trkpt><trkpt lat="45.8975397" lon="9.3328512"><ele>212.5</ele><time>2026-03-29T10:19:53.446Z</time></trkpt><trkpt lat="45.8976548" lon="9.3328107"><ele>211.75</ele><time>2026-03-29T10:19:54.447Z</time></trkpt><trkpt lat="45.8977629" lon="9.3327796"><ele>211.0</ele><time>2026-03-29T10:19:55.446Z</time></trkpt><trkpt lat="45.8978716" lon="9.3327454"><ele>211.0</ele><time>2026-03-29T10:19:56.455Z</time></trkpt><trkpt lat="45.8979773" lon="9.3327055"><ele>211.0</ele><time>2026-03-29T10:19:57.432Z</time></trkpt><trkpt lat="45.8980755" lon="9.3326722"><ele>211.0</ele><time>2026-03-29T10:19:58.446Z</time></trkpt><trkpt lat="45.8981675" lon="9.3326399"><ele>211.0</ele><time>2026-03-29T10:19:59.443Z</time></trkpt><trkpt lat="45.8982569" lon="9.3326059"><ele>211.0</ele><time>2026-03-29T10:20:00.446Z</time></trkpt><trkpt lat="45.8983484" lon="9.3325726"><ele>211.0</ele><time>2026-03-29T10:20:01.439Z</time></trkpt><trkpt lat="45.8984436" lon="9.3325393"><ele>211.0</ele><time>2026-03-29T10:20:02.449Z</time></trkpt><trkpt lat="45.8985394" lon="9.332505"><ele>211.0</ele><time>2026-03-29T10:20:03.442Z</time></trkpt><trkpt lat="45.8986307" lon="9.3324653"><ele>211.0</ele><time>2026-03-29T10:20:04.448Z</time></trkpt><trkpt lat="45.8987169" lon="9.332436"><ele>211.0</ele><time>2026-03-29T10:20:05.442Z</time></trkpt><trkpt lat="45.8987947" lon="9.3324096"><ele>211.0</ele><time>2026-03-29T10:20:06.452Z</time></trkpt><trkpt lat="45.8988632" lon="9.332396"><ele>211.0</ele><time>2026-03-29T10:20:07.453Z</time></trkpt><trkpt lat="45.8989273" lon="9.332379"><ele>211.0</ele><time>2026-03-29T10:20:08.45Z</time></trkpt><trkpt lat="45.8989924" lon="9.3323586"><ele>211.0</ele><time>2026-03-29T10:20:09.446Z</time></trkpt><trkpt lat="45.8990647" lon="9.3323331"><ele>211.0</ele><time>2026-03-29T10:20:10.448Z</time></trkpt><trkpt lat="45.8991416" lon="9.3323007"><ele>211.0</ele><time>2026-03-29T10:20:11.446Z</time></trkpt><trkpt lat="45.899213" lon="9.3322701"><ele>211.0</ele><time>2026-03-29T10:20:12.452Z</time></trkpt><trkpt lat="45.899283" lon="9.3322394"><ele>209.8</ele><time>2026-03-29T10:20:13.438Z</time></trkpt><trkpt lat="45.8993603" lon="9.3322083"><ele>208.60000000000002</ele><time>2026-03-29T10:20:14.447Z</time></trkpt><trkpt lat="45.899446" lon="9.3321742"><ele>207.4</ele><time>2026-03-29T10:20:15.45Z</time></trkpt><trkpt lat="45.8995385" lon="9.3321361"><ele>206.2</ele><time>2026-03-29T10:20:16.454Z</time></trkpt><trkpt lat="45.8996386" lon="9.3320987"><ele>205.0</ele><time>2026-03-29T10:20:17.45Z</time></trkpt><trkpt lat="45.8997468" lon="9.3320608"><ele>205.0</ele><time>2026-03-29T10:20:18.444Z</time></trkpt><trkpt lat="45.8998581" lon="9.3320215"><ele>205.0</ele><time>2026-03-29T10:20:19.445Z</time></trkpt><trkpt lat="45.899966" lon="9.3319854"><ele>205.0</ele><time>2026-03-29T10:20:20.453Z</time></trkpt><trkpt lat="45.9000709" lon="9.3319564"><ele>205.0</ele><time>2026-03-29T10:20:21.446Z</time></trkpt><trkpt lat="45.9001803" lon="9.3319334"><ele>205.0</ele><time>2026-03-29T10:20:22.453Z</time></trkpt><trkpt lat="45.9002839" lon="9.3319133"><ele>205.0</ele><time>2026-03-29T10:20:23.437Z</time></trkpt><trkpt lat="45.9004011" lon="9.3318943"><ele>205.0</ele><time>2026-03-29T10:20:24.444Z</time></trkpt><trkpt lat="45.9005309" lon="9.3318929"><ele>205.0</ele><time>2026-03-29T10:20:25.447Z</time></trkpt><trkpt lat="45.9006645" lon="9.3319023"><ele>205.0</ele><time>2026-03-29T10:20:26.44Z</time></trkpt><trkpt lat="45.9007959" lon="9.3319257"><ele>204.75</ele><time>2026-03-29T10:20:27.445Z</time></trkpt><trkpt lat="45.9009247" lon="9.3319526"><ele>204.5</ele><time>2026-03-29T10:20:28.44Z</time></trkpt><trkpt lat="45.9010492" lon="9.3319859"><ele>204.25</ele><time>2026-03-29T10:20:29.448Z</time></trkpt><trkpt lat="45.9011626" lon="9.3320126"><ele>204.0</ele><time>2026-03-29T10:20:30.442Z</time></trkpt><trkpt lat="45.9012789" lon="9.332042"><ele>204.0</ele><time>2026-03-29T10:20:31.448Z</time></trkpt><trkpt lat="45.9014037" lon="9.3320719"><ele>204.0</ele><time>2026-03-29T10:20:32.443Z</time></trkpt><trkpt lat="45.9015261" lon="9.3320952"><ele>204.0</ele><time>2026-03-29T10:20:33.449Z</time></trkpt><trkpt lat="45.9016482" lon="9.3321133"><ele>204.0</ele><time>2026-03-29T10:20:34.445Z</time></trkpt><trkpt lat="45.9017691" lon="9.332118"><ele>205.0</ele><time>2026-03-29T10:20:35.448Z</time></trkpt><trkpt lat="45.9018836" lon="9.3321125"><ele>206.0</ele><time>2026-03-29T10:20:36.444Z</time></trkpt><trkpt lat="45.9019987" lon="9.3320975"><ele>207.0</ele><time>2026-03-29T10:20:37.449Z</time></trkpt><trkpt lat="45.9021122" lon="9.3320721"><ele>208.0</ele><time>2026-03-29T10:20:38.433Z</time></trkpt><trkpt lat="45.9022163" lon="9.3320414"><ele>207.99999999999997</ele><time>2026-03-29T10:20:39.446Z</time></trkpt><trkpt lat="45.9023121" lon="9.3320074"><ele>208.0</ele><time>2026-03-29T10:20:40.445Z</time></trkpt><trkpt lat="45.9023999" lon="9.3319755"><ele>208.0</ele><time>2026-03-29T10:20:41.445Z</time></trkpt><trkpt lat="45.9024829" lon="9.3319444"><ele>208.0</ele><time>2026-03-29T10:20:42.444Z</time></trkpt><trkpt lat="45.902557" lon="9.3319184"><ele>207.99999999999997</ele><time>2026-03-29T10:20:43.442Z</time></trkpt><trkpt lat="45.9026306" lon="9.3319052"><ele>208.0</ele><time>2026-03-29T10:20:44.442Z</time></trkpt><trkpt lat="45.9027037" lon="9.3319056"><ele>208.16666666666666</ele><time>2026-03-29T10:20:45.451Z</time></trkpt><trkpt lat="45.9027766" lon="9.331892"><ele>208.33333333333331</ele><time>2026-03-29T10:20:46.448Z</time></trkpt><trkpt lat="45.9028457" lon="9.3318486"><ele>208.5</ele><time>2026-03-29T10:20:47.452Z</time></trkpt><trkpt lat="45.9029178" lon="9.331794"><ele>208.66666666666669</ele><time>2026-03-29T10:20:48.458Z</time></trkpt><trkpt lat="45.9030036" lon="9.3317458"><ele>208.83333333333334</ele><time>2026-03-29T10:20:49.447Z</time></trkpt><trkpt lat="45.9031074" lon="9.331704"><ele>209.0</ele><time>2026-03-29T10:20:50.462Z</time></trkpt><trkpt lat="45.9032229" lon="9.3316643"><ele>209.0</ele><time>2026-03-29T10:20:51.448Z</time></trkpt><trkpt lat="45.9033322" lon="9.3316233"><ele>209.0</ele><time>2026-03-29T10:20:52.446Z</time></trkpt><trkpt lat="45.9034344" lon="9.3315812"><ele>209.0</ele><time>2026-03-29T10:20:53.449Z</time></trkpt><trkpt lat="45.9035408" lon="9.331534"><ele>209.0</ele><time>2026-03-29T10:20:54.447Z</time></trkpt><trkpt lat="45.9036413" lon="9.331468"><ele>209.0</ele><time>2026-03-29T10:20:55.447Z</time></trkpt><trkpt lat="45.9037409" lon="9.3313757"><ele>209.25</ele><time>2026-03-29T10:20:56.449Z</time></trkpt><trkpt lat="45.903841" lon="9.3312812"><ele>209.5</ele><time>2026-03-29T10:20:57.445Z</time></trkpt><trkpt lat="45.9039307" lon="9.3311661"><ele>209.75</ele><time>2026-03-29T10:20:58.437Z</time></trkpt><trkpt lat="45.9040155" lon="9.3310517"><ele>210.0</ele><time>2026-03-29T10:20:59.45Z</time></trkpt><trkpt lat="45.904095" lon="9.3309392"><ele>210.0</ele><time>2026-03-29T10:21:00.432Z</time></trkpt><trkpt lat="45.9041686" lon="9.3308339"><ele>210.0</ele><time>2026-03-29T10:21:01.436Z</time></trkpt><trkpt lat="45.9042462" lon="9.330732"><ele>210.0</ele><time>2026-03-29T10:21:02.432Z</time></trkpt><trkpt lat="45.9043237" lon="9.3306216"><ele>210.0</ele><time>2026-03-29T10:21:03.436Z</time></trkpt><trkpt lat="45.9044045" lon="9.3305078"><ele>210.0</ele><time>2026-03-29T10:21:04.449Z</time></trkpt><trkpt lat="45.9044892" lon="9.330389"><ele>209.75</ele><time>2026-03-29T10:21:05.447Z</time></trkpt><trkpt lat="45.904578" lon="9.3302636"><ele>209.5</ele><time>2026-03-29T10:21:06.442Z</time></trkpt><trkpt lat="45.9046723" lon="9.3301344"><ele>209.25</ele><time>2026-03-29T10:21:07.447Z</time></trkpt><trkpt lat="45.9047625" lon="9.330007"><ele>209.0</ele><time>2026-03-29T10:21:08.451Z</time></trkpt><trkpt lat="45.9048527" lon="9.3298758"><ele>209.0</ele><time>2026-03-29T10:21:09.442Z</time></trkpt><trkpt lat="45.9049503" lon="9.3297394"><ele>209.0</ele><time>2026-03-29T10:21:10.433Z</time></trkpt><trkpt lat="45.9050489" lon="9.3296049"><ele>209.0</ele><time>2026-03-29T10:21:11.449Z</time></trkpt><trkpt lat="45.9051419" lon="9.3294766"><ele>209.0</ele><time>2026-03-29T10:21:12.445Z</time></trkpt><trkpt lat="45.9052373" lon="9.3293556"><ele>209.0</ele><time>2026-03-29T10:21:13.449Z</time></trkpt><trkpt lat="45.9053389" lon="9.329239"><ele>209.0</ele><time>2026-03-29T10:21:14.449Z</time></trkpt><trkpt lat="45.9054473" lon="9.3291263"><ele>209.0</ele><time>2026-03-29T10:21:15.452Z</time></trkpt><trkpt lat="45.9055616" lon="9.3290225"><ele>209.0</ele><time>2026-03-29T10:21:16.446Z</time></trkpt><trkpt lat="45.9056808" lon="9.3289272"><ele>208.25</ele><time>2026-03-29T10:21:17.443Z</time></trkpt><trkpt lat="45.9058062" lon="9.3288429"><ele>207.5</ele><time>2026-03-29T10:21:18.442Z</time></trkpt><trkpt lat="45.9059379" lon="9.3287731"><ele>206.75</ele><time>2026-03-29T10:21:19.45Z</time></trkpt><trkpt lat="45.9060746" lon="9.3287129"><ele>206.0</ele><time>2026-03-29T10:21:20.45Z</time></trkpt><trkpt lat="45.9062139" lon="9.3286563"><ele>206.0</ele><time>2026-03-29T10:21:21.446Z</time></trkpt><trkpt lat="45.906351" lon="9.328604"><ele>206.0</ele><time>2026-03-29T10:21:22.447Z</time></trkpt><trkpt lat="45.9064856" lon="9.3285548"><ele>206.0</ele><time>2026-03-29T10:21:23.449Z</time></trkpt><trkpt lat="45.9066231" lon="9.3285042"><ele>206.0</ele><time>2026-03-29T10:21:24.448Z</time></trkpt><trkpt lat="45.9067612" lon="9.328454"><ele>207.75</ele><time>2026-03-29T10:21:25.439Z</time></trkpt><trkpt lat="45.9069033" lon="9.3284025"><ele>209.5</ele><time>2026-03-29T10:21:26.441Z</time></trkpt><trkpt lat="45.9070493" lon="9.3283478"><ele>211.25</ele><time>2026-03-29T10:21:27.445Z</time></trkpt><trkpt lat="45.9071837" lon="9.3282985"><ele>213.0</ele><time>2026-03-29T10:21:28.437Z</time></trkpt><trkpt lat="45.9073075" lon="9.3282544"><ele>213.0</ele><time>2026-03-29T10:21:29.433Z</time></trkpt><trkpt lat="45.9074243" lon="9.3282068"><ele>213.0</ele><time>2026-03-29T10:21:30.452Z</time></trkpt><trkpt lat="45.9075388" lon="9.3281505"><ele>213.0</ele><time>2026-03-29T10:21:31.448Z</time></trkpt><trkpt lat="45.9076506" lon="9.3280758"><ele>213.0</ele><time>2026-03-29T10:21:32.445Z</time></trkpt><trkpt lat="45.90776" lon="9.3279838"><ele>210.75</ele><time>2026-03-29T10:21:33.436Z</time></trkpt><trkpt lat="45.9078644" lon="9.3278851"><ele>208.5</ele><time>2026-03-29T10:21:34.44Z</time></trkpt><trkpt lat="45.9079642" lon="9.3277923"><ele>206.25</ele><time>2026-03-29T10:21:35.43Z</time></trkpt><trkpt lat="45.9080636" lon="9.3277048"><ele>204.0</ele><time>2026-03-29T10:21:36.438Z</time></trkpt><trkpt lat="45.90817" lon="9.3276259"><ele>204.0</ele><time>2026-03-29T10:21:37.439Z</time></trkpt><trkpt lat="45.9082772" lon="9.3275475"><ele>204.0</ele><time>2026-03-29T10:21:38.44Z</time></trkpt><trkpt lat="45.9083897" lon="9.3274842"><ele>204.0</ele><time>2026-03-29T10:21:39.441Z</time></trkpt><trkpt lat="45.9085108" lon="9.3274524"><ele>204.0</ele><time>2026-03-29T10:21:40.44Z</time></trkpt><trkpt lat="45.9086377" lon="9.3274239"><ele>203.25</ele><time>2026-03-29T10:21:41.436Z</time></trkpt><trkpt lat="45.9087649" lon="9.3273847"><ele>202.5</ele><time>2026-03-29T10:21:42.444Z</time></trkpt><trkpt lat="45.9088841" lon="9.3273326"><ele>201.75</ele><time>2026-03-29T10:21:43.447Z</time></trkpt><trkpt lat="45.9089888" lon="9.3272711"><ele>201.0</ele><time>2026-03-29T10:21:44.449Z</time></trkpt><trkpt lat="45.9090794" lon="9.3271977"><ele>201.0</ele><time>2026-03-29T10:21:45.438Z</time></trkpt><trkpt lat="45.9091698" lon="9.3271133"><ele>201.0</ele><time>2026-03-29T10:21:46.45Z</time></trkpt><trkpt lat="45.9092603" lon="9.3270169"><ele>201.0</ele><time>2026-03-29T10:21:47.444Z</time></trkpt><trkpt lat="45.9093555" lon="9.3269157"><ele>201.0</ele><time>2026-03-29T10:21:48.448Z</time></trkpt><trkpt lat="45.909451" lon="9.3268181"><ele>202.75</ele><time>2026-03-29T10:21:49.446Z</time></trkpt><trkpt lat="45.9095476" lon="9.326723"><ele>204.5</ele><time>2026-03-29T10:21:50.446Z</time></trkpt><trkpt lat="45.9096476" lon="9.326633"><ele>206.25</ele><time>2026-03-29T10:21:51.445Z</time></trkpt><trkpt lat="45.9097539" lon="9.326553"><ele>208.0</ele><time>2026-03-29T10:21:52.439Z</time></trkpt><trkpt lat="45.9098646" lon="9.3264866"><ele>208.0</ele><time>2026-03-29T10:21:53.44Z</time></trkpt><trkpt lat="45.9099748" lon="9.3264219"><ele>208.0</ele><time>2026-03-29T10:21:54.441Z</time></trkpt><trkpt lat="45.9100808" lon="9.326388"><ele>208.0</ele><time>2026-03-29T10:21:55.454Z</time></trkpt><trkpt lat="45.9101923" lon="9.326355"><ele>208.0</ele><time>2026-03-29T10:21:56.447Z</time></trkpt><trkpt lat="45.9103063" lon="9.3263239"><ele>208.8</ele><time>2026-03-29T10:21:57.44Z</time></trkpt><trkpt lat="45.9104232" lon="9.3262941"><ele>209.60000000000002</ele><time>2026-03-29T10:21:58.451Z</time></trkpt><trkpt lat="45.910535" lon="9.3262614"><ele>210.39999999999998</ele><time>2026-03-29T10:21:59.448Z</time></trkpt><trkpt lat="45.9106382" lon="9.3262184"><ele>211.2</ele><time>2026-03-29T10:22:00.445Z</time></trkpt><trkpt lat="45.9107365" lon="9.3261653"><ele>212.0</ele><time>2026-03-29T10:22:01.437Z</time></trkpt><trkpt lat="45.9108299" lon="9.3260891"><ele>217.75</ele><time>2026-03-29T10:22:02.445Z</time></trkpt><trkpt lat="45.9109173" lon="9.3259845"><ele>223.5</ele><time>2026-03-29T10:22:03.434Z</time></trkpt><trkpt lat="45.9109979" lon="9.3258595"><ele>229.25</ele><time>2026-03-29T10:22:04.447Z</time></trkpt><trkpt lat="45.9110798" lon="9.3257306"><ele>235.0</ele><time>2026-03-29T10:22:05.447Z</time></trkpt><trkpt lat="45.9111369" lon="9.325579"><ele>231.2</ele><time>2026-03-29T10:22:06.448Z</time></trkpt><trkpt lat="45.9111899" lon="9.3254342"><ele>227.4</ele><time>2026-03-29T10:22:07.442Z</time></trkpt><trkpt lat="45.911241" lon="9.3252956"><ele>223.60000000000002</ele><time>2026-03-29T10:22:08.445Z</time></trkpt><trkpt lat="45.9112897" lon="9.3251587"><ele>219.8</ele><time>2026-03-29T10:22:09.449Z</time></trkpt><trkpt lat="45.9113427" lon="9.3250213"><ele>216.0</ele><time>2026-03-29T10:22:10.437Z</time></trkpt><trkpt lat="45.911397" lon="9.324881"><ele>216.0</ele><time>2026-03-29T10:22:11.447Z</time></trkpt><trkpt lat="45.9114595" lon="9.3247435"><ele>216.0</ele><time>2026-03-29T10:22:12.447Z</time></trkpt><trkpt lat="45.9115326" lon="9.3246189"><ele>216.0</ele><time>2026-03-29T10:22:13.449Z</time></trkpt><trkpt lat="45.9116196" lon="9.3245162"><ele>216.0</ele><time>2026-03-29T10:22:14.449Z</time></trkpt><trkpt lat="45.9117163" lon="9.324437"><ele>213.8</ele><time>2026-03-29T10:22:15.452Z</time></trkpt><trkpt lat="45.911819" lon="9.3243773"><ele>211.60000000000002</ele><time>2026-03-29T10:22:16.452Z</time></trkpt><trkpt lat="45.9119186" lon="9.3243273"><ele>209.4</ele><time>2026-03-29T10:22:17.445Z</time></trkpt><trkpt lat="45.9120171" lon="9.3242778"><ele>207.2</ele><time>2026-03-29T10:22:18.445Z</time></trkpt><trkpt lat="45.912116" lon="9.3242259"><ele>205.0</ele><time>2026-03-29T10:22:19.448Z</time></trkpt><trkpt lat="45.9122168" lon="9.3241708"><ele>205.0</ele><time>2026-03-29T10:22:20.431Z</time></trkpt><trkpt lat="45.9123192" lon="9.3241151"><ele>205.0</ele><time>2026-03-29T10:22:21.431Z</time></trkpt><trkpt lat="45.9124232" lon="9.3240583"><ele>205.0</ele><time>2026-03-29T10:22:22.445Z</time></trkpt><trkpt lat="45.9125295" lon="9.3239991"><ele>205.0</ele><time>2026-03-29T10:22:23.442Z</time></trkpt><trkpt lat="45.912637" lon="9.3239372"><ele>205.0</ele><time>2026-03-29T10:22:24.438Z</time></trkpt><trkpt lat="45.912744" lon="9.3238778"><ele>205.0</ele><time>2026-03-29T10:22:25.439Z</time></trkpt><trkpt lat="45.9128496" lon="9.3238193"><ele>205.0</ele><time>2026-03-29T10:22:26.439Z</time></trkpt><trkpt lat="45.9129547" lon="9.3237652"><ele>205.0</ele><time>2026-03-29T10:22:27.44Z</time></trkpt><trkpt lat="45.9130583" lon="9.3237097"><ele>205.0</ele><time>2026-03-29T10:22:28.444Z</time></trkpt><trkpt lat="45.913161" lon="9.323653"><ele>205.0</ele><time>2026-03-29T10:22:29.445Z</time></trkpt><trkpt lat="45.9132639" lon="9.3235976"><ele>205.0</ele><time>2026-03-29T10:22:30.457Z</time></trkpt><trkpt lat="45.9133663" lon="9.3235447"><ele>205.0</ele><time>2026-03-29T10:22:31.447Z</time></trkpt><trkpt lat="45.9134622" lon="9.3234963"><ele>205.0</ele><time>2026-03-29T10:22:32.443Z</time></trkpt><trkpt lat="45.9135497" lon="9.3234539"><ele>206.2</ele><time>2026-03-29T10:22:33.433Z</time></trkpt><trkpt lat="45.9136349" lon="9.3234116"><ele>207.4</ele><time>2026-03-29T10:22:34.446Z</time></trkpt><trkpt lat="45.9137178" lon="9.3233703"><ele>208.60000000000002</ele><time>2026-03-29T10:22:35.443Z</time></trkpt><trkpt lat="45.9137989" lon="9.323329"><ele>209.8</ele><time>2026-03-29T10:22:36.444Z</time></trkpt><trkpt lat="45.9138862" lon="9.3232863"><ele>211.0</ele><time>2026-03-29T10:22:37.439Z</time></trkpt><trkpt lat="45.9139756" lon="9.3232446"><ele>210.99999999999997</ele><time>2026-03-29T10:22:38.45Z</time></trkpt><trkpt lat="45.9140563" lon="9.3232204"><ele>211.0</ele><time>2026-03-29T10:22:39.446Z</time></trkpt><trkpt lat="45.9141446" lon="9.3232237"><ele>211.0</ele><time>2026-03-29T10:22:40.444Z</time></trkpt><trkpt lat="45.9142387" lon="9.3232394"><ele>211.0</ele><time>2026-03-29T10:22:41.444Z</time></trkpt><trkpt lat="45.9143266" lon="9.3232409"><ele>210.99999999999997</ele><time>2026-03-29T10:22:42.451Z</time></trkpt><trkpt lat="45.9144145" lon="9.3232432"><ele>211.0</ele><time>2026-03-29T10:22:43.452Z</time></trkpt><trkpt lat="45.9145042" lon="9.323245"><ele>211.20000000000002</ele><time>2026-03-29T10:22:44.429Z</time></trkpt><trkpt lat="45.9145812" lon="9.3232688"><ele>211.4</ele><time>2026-03-29T10:22:45.44Z</time></trkpt><trkpt lat="45.9146615" lon="9.323291"><ele>211.6</ele><time>2026-03-29T10:22:46.434Z</time></trkpt><trkpt lat="45.9147501" lon="9.3233016"><ele>211.8</ele><time>2026-03-29T10:22:47.436Z</time></trkpt><trkpt lat="45.9148524" lon="9.3232831"><ele>212.0</ele><time>2026-03-29T10:22:48.432Z</time></trkpt><trkpt lat="45.914936" lon="9.3232099"><ele>212.0</ele><time>2026-03-29T10:22:49.446Z</time></trkpt><trkpt lat="45.9150151" lon="9.3231053"><ele>212.0</ele><time>2026-03-29T10:22:50.442Z</time></trkpt><trkpt lat="45.9151001" lon="9.3229608"><ele>212.0</ele><time>2026-03-29T10:22:51.456Z</time></trkpt><trkpt lat="45.9151789" lon="9.3228203"><ele>212.0</ele><time>2026-03-29T10:22:52.441Z</time></trkpt><trkpt lat="45.9152523" lon="9.3226977"><ele>212.75</ele><time>2026-03-29T10:22:53.447Z</time></trkpt><trkpt lat="45.9153338" lon="9.3225794"><ele>213.5</ele><time>2026-03-29T10:22:54.447Z</time></trkpt><trkpt lat="45.9154204" lon="9.3224783"><ele>214.25</ele><time>2026-03-29T10:22:55.445Z</time></trkpt><trkpt lat="45.9155164" lon="9.322394"><ele>215.0</ele><time>2026-03-29T10:22:56.444Z</time></trkpt><trkpt lat="45.91562" lon="9.3223293"><ele>215.0</ele><time>2026-03-29T10:22:57.445Z</time></trkpt><trkpt lat="45.9157175" lon="9.3222805"><ele>215.0</ele><time>2026-03-29T10:22:58.447Z</time></trkpt><trkpt lat="45.915803" lon="9.3222403"><ele>215.0</ele><time>2026-03-29T10:22:59.444Z</time></trkpt><trkpt lat="45.9158721" lon="9.3222076"><ele>215.0</ele><time>2026-03-29T10:23:00.445Z</time></trkpt><trkpt lat="45.9159838" lon="9.3221495"><ele>215.0</ele><time>2026-03-29T10:23:02.435Z</time></trkpt><trkpt lat="45.9160913" lon="9.32209"><ele>215.33333333333334</ele><time>2026-03-29T10:23:04.445Z</time></trkpt><trkpt lat="45.9161594" lon="9.3220789"><ele>215.66666666666669</ele><time>2026-03-29T10:23:06.443Z</time></trkpt><trkpt lat="45.9162792" lon="9.3220033"><ele>216.0</ele><time>2026-03-29T10:23:57.452Z</time></trkpt><trkpt lat="45.9163244" lon="9.3219086"><ele>216.33333333333331</ele><time>2026-03-29T10:23:59.444Z</time></trkpt><trkpt lat="45.9162676" lon="9.32183"><ele>216.66666666666666</ele><time>2026-03-29T10:24:02.451Z</time></trkpt><trkpt lat="45.9161953" lon="9.3218243"><ele>217.0</ele><time>2026-03-29T10:24:05.433Z</time></trkpt><trkpt lat="45.9161971" lon="9.3219565"><ele>216.99999999999997</ele><time>2026-03-29T10:26:24.455Z</time></trkpt><trkpt lat="45.9162013" lon="9.3220641"><ele>217.0</ele><time>2026-03-29T10:26:25.433Z</time></trkpt><trkpt lat="45.9162042" lon="9.3221748"><ele>217.0</ele><time>2026-03-29T10:26:26.451Z</time></trkpt><trkpt lat="45.9161869" lon="9.3222701"><ele>217.0</ele><time>2026-03-29T10:26:27.449Z</time></trkpt><trkpt lat="45.9161699" lon="9.3223625"><ele>216.99999999999997</ele><time>2026-03-29T10:26:28.446Z</time></trkpt><trkpt lat="45.9161549" lon="9.3224588"><ele>217.0</ele><time>2026-03-29T10:26:29.448Z</time></trkpt><trkpt lat="45.9161298" lon="9.3226239"><ele>217.33333333333331</ele><time>2026-03-29T10:26:31.459Z</time></trkpt><trkpt lat="45.9161869" lon="9.3227353"><ele>217.66666666666666</ele><time>2026-03-29T10:26:33.451Z</time></trkpt><trkpt lat="45.9162585" lon="9.3227714"><ele>218.0</ele><time>2026-03-29T10:26:34.45Z</time></trkpt><trkpt lat="45.9163371" lon="9.3228018"><ele>218.33333333333331</ele><time>2026-03-29T10:26:35.457Z</time></trkpt><trkpt lat="45.9164266" lon="9.3228337"><ele>218.66666666666666</ele><time>2026-03-29T10:26:36.45Z</time></trkpt><trkpt lat="45.9165268" lon="9.3228653"><ele>219.0</ele><time>2026-03-29T10:26:37.441Z</time></trkpt><trkpt lat="45.9166262" lon="9.3229006"><ele>219.75</ele><time>2026-03-29T10:26:38.45Z</time></trkpt><trkpt lat="45.9167456" lon="9.3229534"><ele>220.5</ele><time>2026-03-29T10:26:39.452Z</time></trkpt><trkpt lat="45.9168752" lon="9.3230164"><ele>221.25</ele><time>2026-03-29T10:26:40.455Z</time></trkpt><trkpt lat="45.9170017" lon="9.3230766"><ele>222.0</ele><time>2026-03-29T10:26:41.461Z</time></trkpt><trkpt lat="45.917114" lon="9.3231303"><ele>222.0</ele><time>2026-03-29T10:26:42.455Z</time></trkpt><trkpt lat="45.9172176" lon="9.3231775"><ele>222.0</ele><time>2026-03-29T10:26:43.456Z</time></trkpt><trkpt lat="45.917326" lon="9.3232235"><ele>222.0</ele><time>2026-03-29T10:26:44.458Z</time></trkpt><trkpt lat="45.9174414" lon="9.3232734"><ele>222.0</ele><time>2026-03-29T10:26:45.457Z</time></trkpt><trkpt lat="45.917559" lon="9.3233268"><ele>222.75</ele><time>2026-03-29T10:26:46.453Z</time></trkpt><trkpt lat="45.9176664" lon="9.3234096"><ele>223.5</ele><time>2026-03-29T10:26:47.456Z</time></trkpt><trkpt lat="45.9177689" lon="9.3234811"><ele>224.25</ele><time>2026-03-29T10:26:48.462Z</time></trkpt><trkpt lat="45.9178735" lon="9.3235328"><ele>225.0</ele><time>2026-03-29T10:26:49.461Z</time></trkpt><trkpt lat="45.9179853" lon="9.3235742"><ele>225.0</ele><time>2026-03-29T10:26:50.453Z</time></trkpt><trkpt lat="45.9181079" lon="9.3236045"><ele>225.0</ele><time>2026-03-29T10:26:51.455Z</time></trkpt><trkpt lat="45.9182403" lon="9.3236291"><ele>225.0</ele><time>2026-03-29T10:26:52.444Z</time></trkpt><trkpt lat="45.9183788" lon="9.3236595"><ele>225.0</ele><time>2026-03-29T10:26:53.461Z</time></trkpt><trkpt lat="45.9185204" lon="9.3237002"><ele>226.25</ele><time>2026-03-29T10:26:54.452Z</time></trkpt><trkpt lat="45.9186579" lon="9.3237505"><ele>227.5</ele><time>2026-03-29T10:26:55.444Z</time></trkpt><trkpt lat="45.918796" lon="9.3238137"><ele>228.75</ele><time>2026-03-29T10:26:56.468Z</time></trkpt><trkpt lat="45.9189203" lon="9.3238808"><ele>230.0</ele><time>2026-03-29T10:26:57.458Z</time></trkpt><trkpt lat="45.9190356" lon="9.3239394"><ele>230.5</ele><time>2026-03-29T10:26:58.438Z</time></trkpt><trkpt lat="45.9191536" lon="9.3239994"><ele>231.0</ele><time>2026-03-29T10:26:59.45Z</time></trkpt><trkpt lat="45.9192717" lon="9.3240654"><ele>231.5</ele><time>2026-03-29T10:27:00.442Z</time></trkpt><trkpt lat="45.9193895" lon="9.3241209"><ele>232.0</ele><time>2026-03-29T10:27:01.458Z</time></trkpt><trkpt lat="45.9195034" lon="9.3241748"><ele>233.6</ele><time>2026-03-29T10:27:02.442Z</time></trkpt><trkpt lat="45.9196056" lon="9.3242234"><ele>235.2</ele><time>2026-03-29T10:27:03.432Z</time></trkpt><trkpt lat="45.9196928" lon="9.3242655"><ele>236.8</ele><time>2026-03-29T10:27:04.463Z</time></trkpt><trkpt lat="45.9197637" lon="9.3242982"><ele>238.4</ele><time>2026-03-29T10:27:05.455Z</time></trkpt><trkpt lat="45.9198721" lon="9.3243455"><ele>240.0</ele><time>2026-03-29T10:27:07.455Z</time></trkpt><trkpt lat="45.9199581" lon="9.3243861"><ele>241.4</ele><time>2026-03-29T10:27:09.461Z</time></trkpt><trkpt lat="45.9200755" lon="9.3244494"><ele>242.8</ele><time>2026-03-29T10:27:11.448Z</time></trkpt><trkpt lat="45.9201583" lon="9.3244936"><ele>244.2</ele><time>2026-03-29T10:27:12.443Z</time></trkpt><trkpt lat="45.920252" lon="9.324541"><ele>245.6</ele><time>2026-03-29T10:27:13.455Z</time></trkpt><trkpt lat="45.9203421" lon="9.3245875"><ele>247.0</ele><time>2026-03-29T10:27:14.455Z</time></trkpt><trkpt lat="45.9204487" lon="9.3246393"><ele>247.0</ele><time>2026-03-29T10:27:15.462Z</time></trkpt><trkpt lat="45.9205739" lon="9.3246926"><ele>247.0</ele><time>2026-03-29T10:27:16.444Z</time></trkpt><trkpt lat="45.9207037" lon="9.3247468"><ele>247.0</ele><time>2026-03-29T10:27:17.453Z</time></trkpt><trkpt lat="45.9208234" lon="9.3248022"><ele>247.0</ele><time>2026-03-29T10:27:18.455Z</time></trkpt><trkpt lat="45.9209454" lon="9.3248536"><ele>249.25</ele><time>2026-03-29T10:27:19.448Z</time></trkpt><trkpt lat="45.9210628" lon="9.3249115"><ele>251.5</ele><time>2026-03-29T10:27:20.455Z</time></trkpt><trkpt lat="45.9211655" lon="9.3249831"><ele>253.75</ele><time>2026-03-29T10:27:21.453Z</time></trkpt><trkpt lat="45.9212583" lon="9.3250816"><ele>256.0</ele><time>2026-03-29T10:27:22.471Z</time></trkpt><trkpt lat="45.9213415" lon="9.3252121"><ele>256.0</ele><time>2026-03-29T10:27:23.44Z</time></trkpt><trkpt lat="45.9214036" lon="9.3253514"><ele>256.0</ele><time>2026-03-29T10:27:24.463Z</time></trkpt><trkpt lat="45.9214501" lon="9.325509"><ele>256.0</ele><time>2026-03-29T10:27:25.45Z</time></trkpt><trkpt lat="45.9214787" lon="9.3256603"><ele>256.0</ele><time>2026-03-29T10:27:26.463Z</time></trkpt><trkpt lat="45.921482" lon="9.3257937"><ele>256.0</ele><time>2026-03-29T10:27:27.453Z</time></trkpt><trkpt lat="45.9214582" lon="9.3259141"><ele>258.75</ele><time>2026-03-29T10:27:28.454Z</time></trkpt><trkpt lat="45.9214317" lon="9.3260414"><ele>261.5</ele><time>2026-03-29T10:27:29.454Z</time></trkpt><trkpt lat="45.9213622" lon="9.3261873"><ele>264.25</ele><time>2026-03-29T10:27:30.463Z</time></trkpt><trkpt lat="45.9212976" lon="9.3263457"><ele>267.0</ele><time>2026-03-29T10:27:31.452Z</time></trkpt><trkpt lat="45.9212424" lon="9.326502"><ele>269.0</ele><time>2026-03-29T10:27:32.45Z</time></trkpt><trkpt lat="45.9211982" lon="9.3266507"><ele>271.0</ele><time>2026-03-29T10:27:33.443Z</time></trkpt><trkpt lat="45.9211622" lon="9.3268008"><ele>273.0</ele><time>2026-03-29T10:27:34.445Z</time></trkpt><trkpt lat="45.9211344" lon="9.3269531"><ele>275.0</ele><time>2026-03-29T10:27:35.449Z</time></trkpt><trkpt lat="45.9211175" lon="9.3271155"><ele>277.0</ele><time>2026-03-29T10:27:36.455Z</time></trkpt><trkpt lat="45.921112" lon="9.3272784"><ele>277.0</ele><time>2026-03-29T10:27:37.451Z</time></trkpt><trkpt lat="45.9211072" lon="9.3274173"><ele>277.0</ele><time>2026-03-29T10:27:38.454Z</time></trkpt><trkpt lat="45.9210864" lon="9.3275249"><ele>277.0</ele><time>2026-03-29T10:27:39.451Z</time></trkpt><trkpt lat="45.921041" lon="9.3275947"><ele>277.0</ele><time>2026-03-29T10:27:40.447Z</time></trkpt><trkpt lat="45.9209494" lon="9.3276428"><ele>277.0</ele><time>2026-03-29T10:27:42.451Z</time></trkpt><trkpt lat="45.9208758" lon="9.3276876"><ele>277.0</ele><time>2026-03-29T10:27:44.453Z</time></trkpt><trkpt lat="45.9208196" lon="9.3277362"><ele>277.0</ele><time>2026-03-29T10:27:45.453Z</time></trkpt><trkpt lat="45.9207445" lon="9.3277801"><ele>277.0</ele><time>2026-03-29T10:27:46.453Z</time></trkpt><trkpt lat="45.9206716" lon="9.3278128"><ele>277.0</ele><time>2026-03-29T10:27:47.455Z</time></trkpt><trkpt lat="45.9205887" lon="9.3278484"><ele>277.0</ele><time>2026-03-29T10:27:48.455Z</time></trkpt><trkpt lat="45.920493" lon="9.3279057"><ele>277.0</ele><time>2026-03-29T10:27:49.452Z</time></trkpt><trkpt lat="45.9203906" lon="9.3279744"><ele>277.0</ele><time>2026-03-29T10:27:50.451Z</time></trkpt><trkpt lat="45.9202943" lon="9.3280455"><ele>277.0</ele><time>2026-03-29T10:27:51.458Z</time></trkpt><trkpt lat="45.9201988" lon="9.3281164"><ele>277.0</ele><time>2026-03-29T10:27:52.452Z</time></trkpt><trkpt lat="45.9200961" lon="9.3281586"><ele>277.0</ele><time>2026-03-29T10:27:53.455Z</time></trkpt><trkpt lat="45.9199753" lon="9.3281567"><ele>277.0</ele><time>2026-03-29T10:27:54.455Z</time></trkpt><trkpt lat="45.9198533" lon="9.3281256"><ele>278.25</ele><time>2026-03-29T10:27:55.443Z</time></trkpt><trkpt lat="45.9197353" lon="9.3280798"><ele>279.5</ele><time>2026-03-29T10:27:56.454Z</time></trkpt><trkpt lat="45.9196184" lon="9.3280231"><ele>280.75</ele><time>2026-03-29T10:27:57.45Z</time></trkpt><trkpt lat="45.9195156" lon="9.3279514"><ele>282.0</ele><time>2026-03-29T10:27:58.447Z</time></trkpt><trkpt lat="45.9194151" lon="9.3278793"><ele>282.0</ele><time>2026-03-29T10:27:59.454Z</time></trkpt><trkpt lat="45.9193407" lon="9.327813"><ele>282.0</ele><time>2026-03-29T10:28:00.459Z</time></trkpt><trkpt lat="45.9192781" lon="9.3277567"><ele>282.0</ele><time>2026-03-29T10:28:01.458Z</time></trkpt><trkpt lat="45.9192191" lon="9.3277133"><ele>282.0</ele><time>2026-03-29T10:28:02.468Z</time></trkpt><trkpt lat="45.919119" lon="9.3276923"><ele>282.0</ele><time>2026-03-29T10:28:04.45Z</time></trkpt><trkpt lat="45.9190583" lon="9.327804"><ele>282.0</ele><time>2026-03-29T10:28:06.452Z</time></trkpt><trkpt lat="45.9190452" lon="9.3279061"><ele>283.0</ele><time>2026-03-29T10:28:07.45Z</time></trkpt><trkpt lat="45.9190974" lon="9.3279989"><ele>284.0</ele><time>2026-03-29T10:28:08.455Z</time></trkpt><trkpt lat="45.9191756" lon="9.3280873"><ele>285.0</ele><time>2026-03-29T10:28:09.447Z</time></trkpt><trkpt lat="45.919273" lon="9.3281659"><ele>286.0</ele><time>2026-03-29T10:28:10.452Z</time></trkpt><trkpt lat="45.9193642" lon="9.3282432"><ele>287.0</ele><time>2026-03-29T10:28:11.45Z</time></trkpt><trkpt lat="45.9194553" lon="9.328321"><ele>287.6</ele><time>2026-03-29T10:28:12.464Z</time></trkpt><trkpt lat="45.9195567" lon="9.3284026"><ele>288.2</ele><time>2026-03-29T10:28:13.458Z</time></trkpt><trkpt lat="45.919659" lon="9.3284808"><ele>288.8</ele><time>2026-03-29T10:28:14.451Z</time></trkpt><trkpt lat="45.9197483" lon="9.3285497"><ele>289.4</ele><time>2026-03-29T10:28:15.437Z</time></trkpt><trkpt lat="45.919825" lon="9.3286138"><ele>290.0</ele><time>2026-03-29T10:28:16.446Z</time></trkpt><trkpt lat="45.9198978" lon="9.3286743"><ele>290.0</ele><time>2026-03-29T10:28:17.438Z</time></trkpt><trkpt lat="45.9199644" lon="9.3287346"><ele>290.0</ele><time>2026-03-29T10:28:18.451Z</time></trkpt><trkpt lat="45.9200133" lon="9.3288034"><ele>290.0</ele><time>2026-03-29T10:28:19.45Z</time></trkpt><trkpt lat="45.9200435" lon="9.3288862"><ele>290.0</ele><time>2026-03-29T10:28:20.455Z</time></trkpt><trkpt lat="45.9200179" lon="9.3290506"><ele>290.0</ele><time>2026-03-29T10:28:22.446Z</time></trkpt><trkpt lat="45.91996" lon="9.3291054"><ele>290.0</ele><time>2026-03-29T10:28:23.465Z</time></trkpt><trkpt lat="45.9198855" lon="9.3291303"><ele>290.0</ele><time>2026-03-29T10:28:24.455Z</time></trkpt><trkpt lat="45.9198169" lon="9.329108"><ele>290.0</ele><time>2026-03-29T10:28:25.444Z</time></trkpt><trkpt lat="45.9197489" lon="9.329084"><ele>290.0</ele><time>2026-03-29T10:28:26.453Z</time></trkpt><trkpt lat="45.9196583" lon="9.3289962"><ele>290.0</ele><time>2026-03-29T10:28:27.453Z</time></trkpt><trkpt lat="45.9195546" lon="9.3288953"><ele>290.0</ele><time>2026-03-29T10:28:28.446Z</time></trkpt><trkpt lat="45.9194434" lon="9.3287876"><ele>290.0</ele><time>2026-03-29T10:28:29.445Z</time></trkpt><trkpt lat="45.9193363" lon="9.3286838"><ele>290.0</ele><time>2026-03-29T10:28:30.442Z</time></trkpt><trkpt lat="45.9192369" lon="9.328587"><ele>290.0</ele><time>2026-03-29T10:28:31.449Z</time></trkpt><trkpt lat="45.9191377" lon="9.3284913"><ele>290.0</ele><time>2026-03-29T10:28:32.453Z</time></trkpt><trkpt lat="45.9190299" lon="9.3283936"><ele>289.25</ele><time>2026-03-29T10:28:33.445Z</time></trkpt><trkpt lat="45.9189175" lon="9.3282953"><ele>288.5</ele><time>2026-03-29T10:28:34.446Z</time></trkpt><trkpt lat="45.9188132" lon="9.3282053"><ele>287.75</ele><time>2026-03-29T10:28:35.447Z</time></trkpt><trkpt lat="45.9187133" lon="9.3281226"><ele>287.0</ele><time>2026-03-29T10:28:36.448Z</time></trkpt><trkpt lat="45.9186103" lon="9.3280435"><ele>287.0</ele><time>2026-03-29T10:28:37.43Z</time></trkpt><trkpt lat="45.9185063" lon="9.3279679"><ele>287.0</ele><time>2026-03-29T10:28:38.447Z</time></trkpt><trkpt lat="45.9184058" lon="9.3279047"><ele>287.0</ele><time>2026-03-29T10:28:39.451Z</time></trkpt><trkpt lat="45.9183079" lon="9.3278586"><ele>287.0</ele><time>2026-03-29T10:28:40.443Z</time></trkpt><trkpt lat="45.9182021" lon="9.3278359"><ele>287.0</ele><time>2026-03-29T10:28:41.449Z</time></trkpt><trkpt lat="45.9180894" lon="9.3278131"><ele>288.6</ele><time>2026-03-29T10:28:42.447Z</time></trkpt><trkpt lat="45.9179736" lon="9.3278222"><ele>290.2</ele><time>2026-03-29T10:28:43.449Z</time></trkpt><trkpt lat="45.9178734" lon="9.3278206"><ele>291.8</ele><time>2026-03-29T10:28:44.466Z</time></trkpt><trkpt lat="45.9177856" lon="9.3278091"><ele>293.4</ele><time>2026-03-29T10:28:45.44Z</time></trkpt><trkpt lat="45.9177117" lon="9.3277964"><ele>295.0</ele><time>2026-03-29T10:28:46.448Z</time></trkpt><trkpt lat="45.917639" lon="9.3277845"><ele>296.2</ele><time>2026-03-29T10:28:47.445Z</time></trkpt><trkpt lat="45.9175538" lon="9.3277729"><ele>297.4</ele><time>2026-03-29T10:28:48.454Z</time></trkpt><trkpt lat="45.9174492" lon="9.3277586"><ele>298.6</ele><time>2026-03-29T10:28:49.45Z</time></trkpt><trkpt lat="45.9173333" lon="9.327741"><ele>299.8</ele><time>2026-03-29T10:28:50.435Z</time></trkpt><trkpt lat="45.917231" lon="9.327721"><ele>301.0</ele><time>2026-03-29T10:28:51.449Z</time></trkpt><trkpt lat="45.9171429" lon="9.3277023"><ele>301.0</ele><time>2026-03-29T10:28:52.445Z</time></trkpt><trkpt lat="45.9170656" lon="9.3276908"><ele>301.0</ele><time>2026-03-29T10:28:53.442Z</time></trkpt><trkpt lat="45.9169903" lon="9.3276906"><ele>301.0</ele><time>2026-03-29T10:28:54.443Z</time></trkpt><trkpt lat="45.91692" lon="9.3277118"><ele>301.0</ele><time>2026-03-29T10:28:55.447Z</time></trkpt><trkpt lat="45.9168596" lon="9.3277685"><ele>301.0</ele><time>2026-03-29T10:28:56.437Z</time></trkpt><trkpt lat="45.9168068" lon="9.3278601"><ele>301.0</ele><time>2026-03-29T10:28:57.453Z</time></trkpt><trkpt lat="45.9167513" lon="9.3279606"><ele>303.16666666666663</ele><time>2026-03-29T10:28:58.442Z</time></trkpt><trkpt lat="45.91671" lon="9.3280764"><ele>305.3333333333333</ele><time>2026-03-29T10:28:59.45Z</time></trkpt><trkpt lat="45.9166766" lon="9.3281711"><ele>307.5</ele><time>2026-03-29T10:29:00.461Z</time></trkpt><trkpt lat="45.9166474" lon="9.3282656"><ele>309.6666666666667</ele><time>2026-03-29T10:29:01.474Z</time></trkpt><trkpt lat="45.9166236" lon="9.3283673"><ele>311.83333333333337</ele><time>2026-03-29T10:29:02.457Z</time></trkpt><trkpt lat="45.9165964" lon="9.328459"><ele>314.0</ele><time>2026-03-29T10:29:03.459Z</time></trkpt><trkpt lat="45.9165007" lon="9.3285759"><ele>314.0</ele><time>2026-03-29T10:29:05.437Z</time></trkpt><trkpt lat="45.9164386" lon="9.3286097"><ele>314.0</ele><time>2026-03-29T10:29:06.457Z</time></trkpt><trkpt lat="45.9163615" lon="9.3286208"><ele>314.0</ele><time>2026-03-29T10:29:07.459Z</time></trkpt><trkpt lat="45.9162648" lon="9.3286013"><ele>314.0</ele><time>2026-03-29T10:29:08.453Z</time></trkpt><trkpt lat="45.9161574" lon="9.3285613"><ele>314.0</ele><time>2026-03-29T10:29:09.444Z</time></trkpt><trkpt lat="45.9160463" lon="9.3285129"><ele>314.0</ele><time>2026-03-29T10:29:10.448Z</time></trkpt><trkpt lat="45.9159234" lon="9.3284574"><ele>314.0</ele><time>2026-03-29T10:29:11.453Z</time></trkpt><trkpt lat="45.9157932" lon="9.328403"><ele>314.0</ele><time>2026-03-29T10:29:12.449Z</time></trkpt><trkpt lat="45.9156638" lon="9.3283551"><ele>314.0</ele><time>2026-03-29T10:29:13.445Z</time></trkpt><trkpt lat="45.9155346" lon="9.3283168"><ele>312.5</ele><time>2026-03-29T10:29:14.449Z</time></trkpt><trkpt lat="45.9154072" lon="9.3282971"><ele>311.0</ele><time>2026-03-29T10:29:15.45Z</time></trkpt><trkpt lat="45.9152876" lon="9.3283032"><ele>309.5</ele><time>2026-03-29T10:29:16.449Z</time></trkpt><trkpt lat="45.9151777" lon="9.3283303"><ele>308.0</ele><time>2026-03-29T10:29:17.444Z</time></trkpt><trkpt lat="45.9150774" lon="9.3283704"><ele>306.2</ele><time>2026-03-29T10:29:18.453Z</time></trkpt><trkpt lat="45.9149788" lon="9.3284113"><ele>304.4</ele><time>2026-03-29T10:29:19.449Z</time></trkpt><trkpt lat="45.914885" lon="9.3284584"><ele>302.59999999999997</ele><time>2026-03-29T10:29:20.447Z</time></trkpt><trkpt lat="45.9147899" lon="9.3285048"><ele>300.8</ele><time>2026-03-29T10:29:21.444Z</time></trkpt><trkpt lat="45.9146957" lon="9.3285513"><ele>299.0</ele><time>2026-03-29T10:29:22.449Z</time></trkpt><trkpt lat="45.9146007" lon="9.3285968"><ele>299.0</ele><time>2026-03-29T10:29:23.453Z</time></trkpt><trkpt lat="45.9145056" lon="9.3286426"><ele>299.0</ele><time>2026-03-29T10:29:24.451Z</time></trkpt><trkpt lat="45.9144114" lon="9.3286873"><ele>299.0</ele><time>2026-03-29T10:29:25.46Z</time></trkpt><trkpt lat="45.9143267" lon="9.3287284"><ele>299.0</ele><time>2026-03-29T10:29:26.44Z</time></trkpt><trkpt lat="45.9142609" lon="9.3287615"><ele>299.0</ele><time>2026-03-29T10:29:27.456Z</time></trkpt><trkpt lat="45.9141526" lon="9.3288189"><ele>298.0</ele><time>2026-03-29T10:29:29.46Z</time></trkpt><trkpt lat="45.9140607" lon="9.3288707"><ele>297.0</ele><time>2026-03-29T10:29:31.456Z</time></trkpt><trkpt lat="45.9139714" lon="9.3288626"><ele>296.0</ele><time>2026-03-29T10:29:33.451Z</time></trkpt><trkpt lat="45.9139359" lon="9.3287554"><ele>295.0</ele><time>2026-03-29T10:29:35.447Z</time></trkpt><trkpt lat="45.9139917" lon="9.3286708"><ele>294.0</ele><time>2026-03-29T10:29:37.444Z</time></trkpt><trkpt lat="45.914113" lon="9.3286456"><ele>294.0</ele><time>2026-03-29T10:29:39.442Z</time></trkpt><trkpt lat="45.9141946" lon="9.3286462"><ele>294.0</ele><time>2026-03-29T10:29:40.449Z</time></trkpt><trkpt lat="45.9142808" lon="9.3286494"><ele>294.0</ele><time>2026-03-29T10:29:41.449Z</time></trkpt><trkpt lat="45.9143577" lon="9.3286531"><ele>294.0</ele><time>2026-03-29T10:29:42.459Z</time></trkpt><trkpt lat="45.9144364" lon="9.3286536"><ele>294.0</ele><time>2026-03-29T10:29:43.446Z</time></trkpt><trkpt lat="45.9145161" lon="9.3286236"><ele>294.0</ele><time>2026-03-29T10:29:44.435Z</time></trkpt><trkpt lat="45.9146031" lon="9.3285846"><ele>294.8333333333333</ele><time>2026-03-29T10:29:45.451Z</time></trkpt><trkpt lat="45.9146913" lon="9.3285452"><ele>295.6666666666667</ele><time>2026-03-29T10:29:46.445Z</time></trkpt><trkpt lat="45.9147687" lon="9.328511"><ele>296.5</ele><time>2026-03-29T10:29:47.45Z</time></trkpt><trkpt lat="45.9148415" lon="9.328477"><ele>297.33333333333337</ele><time>2026-03-29T10:29:48.451Z</time></trkpt><trkpt lat="45.9149129" lon="9.328443"><ele>298.1666666666667</ele><time>2026-03-29T10:29:49.452Z</time></trkpt><trkpt lat="45.9149772" lon="9.3284125"><ele>299.0</ele><time>2026-03-29T10:29:50.444Z</time></trkpt><trkpt lat="45.9150707" lon="9.3283238"><ele>297.8</ele><time>2026-03-29T10:29:52.453Z</time></trkpt><trkpt lat="45.9151084" lon="9.328148"><ele>296.59999999999997</ele><time>2026-03-29T10:29:54.461Z</time></trkpt><trkpt lat="45.9151189" lon="9.3280504"><ele>295.4</ele><time>2026-03-29T10:29:55.453Z</time></trkpt><trkpt lat="45.9151279" lon="9.3278746"><ele>294.2</ele><time>2026-03-29T10:29:57.45Z</time></trkpt><trkpt lat="45.9151718" lon="9.3277271"><ele>293.0</ele><time>2026-03-29T10:29:59.451Z</time></trkpt><trkpt lat="45.9152273" lon="9.3276619"><ele>293.0</ele><time>2026-03-29T10:30:00.445Z</time></trkpt><trkpt lat="45.9153106" lon="9.3276091"><ele>293.0</ele><time>2026-03-29T10:30:01.451Z</time></trkpt><trkpt lat="45.9153977" lon="9.3275548"><ele>293.0</ele><time>2026-03-29T10:30:02.444Z</time></trkpt><trkpt lat="45.9154997" lon="9.3275091"><ele>293.0</ele><time>2026-03-29T10:30:03.446Z</time></trkpt><trkpt lat="45.9156125" lon="9.327454"><ele>293.0</ele><time>2026-03-29T10:30:04.47Z</time></trkpt><trkpt lat="45.915735" lon="9.3273977"><ele>293.0</ele><time>2026-03-29T10:30:05.458Z</time></trkpt><trkpt lat="45.9158806" lon="9.3273374"><ele>293.0</ele><time>2026-03-29T10:30:06.442Z</time></trkpt><trkpt lat="45.9160278" lon="9.3272794"><ele>293.0</ele><time>2026-03-29T10:30:07.437Z</time></trkpt><trkpt lat="45.9161888" lon="9.3272253"><ele>287.6666666666667</ele><time>2026-03-29T10:30:08.463Z</time></trkpt><trkpt lat="45.9163528" lon="9.3271783"><ele>282.3333333333333</ele><time>2026-03-29T10:30:09.451Z</time></trkpt><trkpt lat="45.9165121" lon="9.3271476"><ele>277.0</ele><time>2026-03-29T10:30:10.461Z</time></trkpt><trkpt lat="45.9166714" lon="9.3271324"><ele>275.66666666666663</ele><time>2026-03-29T10:30:11.455Z</time></trkpt><trkpt lat="45.9168302" lon="9.327133"><ele>274.3333333333333</ele><time>2026-03-29T10:30:12.451Z</time></trkpt><trkpt lat="45.9169932" lon="9.3271436"><ele>273.0</ele><time>2026-03-29T10:30:13.448Z</time></trkpt><trkpt lat="45.9171532" lon="9.3271629"><ele>273.0</ele><time>2026-03-29T10:30:14.46Z</time></trkpt><trkpt lat="45.9173107" lon="9.327197"><ele>273.0</ele><time>2026-03-29T10:30:15.46Z</time></trkpt><trkpt lat="45.9174651" lon="9.3272428"><ele>273.0</ele><time>2026-03-29T10:30:16.451Z</time></trkpt><trkpt lat="45.9176224" lon="9.3273007"><ele>280.3333333333333</ele><time>2026-03-29T10:30:17.451Z</time></trkpt><trkpt lat="45.9177849" lon="9.3273732"><ele>287.66666666666663</ele><time>2026-03-29T10:30:18.46Z</time></trkpt><trkpt lat="45.9179436" lon="9.3274541"><ele>295.0</ele><time>2026-03-29T10:30:19.458Z</time></trkpt><trkpt lat="45.9181006" lon="9.3275454"><ele>295.0</ele><time>2026-03-29T10:30:20.454Z</time></trkpt><trkpt lat="45.9182624" lon="9.3276412"><ele>295.0</ele><time>2026-03-29T10:30:21.449Z</time></trkpt><trkpt lat="45.9184216" lon="9.3277634"><ele>295.0</ele><time>2026-03-29T10:30:22.443Z</time></trkpt><trkpt lat="45.9185789" lon="9.3278691"><ele>297.5</ele><time>2026-03-29T10:30:23.449Z</time></trkpt><trkpt lat="45.9187504" lon="9.3279714"><ele>300.0</ele><time>2026-03-29T10:30:24.447Z</time></trkpt><trkpt lat="45.919063" lon="9.3282866"><ele>295.0</ele><time>2026-03-29T10:30:26.453Z</time></trkpt><trkpt lat="45.9193867" lon="9.3285718"><ele>290.0</ele><time>2026-03-29T10:30:28.459Z</time></trkpt><trkpt lat="45.9195482" lon="9.3287162"><ele>350.0</ele><time>2026-03-29T10:30:29.447Z</time></trkpt><trkpt lat="45.9296565" lon="9.3293335"><ele>350.0</ele><time>2026-03-29T10:31:19.419Z</time></trkpt><trkpt lat="45.9299076" lon="9.3292222"><ele>350.0</ele><time>2026-03-29T10:31:20.431Z</time></trkpt><trkpt lat="45.9301284" lon="9.329119"><ele>382.0</ele><time>2026-03-29T10:31:21.44Z</time></trkpt><trkpt lat="45.9441048" lon="9.3135428"><ele>382.0</ele><time>2026-03-29T10:32:40.413Z</time></trkpt><trkpt lat="45.9442705" lon="9.3133386"><ele>382.0</ele><time>2026-03-29T10:32:41.391Z</time></trkpt><trkpt lat="45.9444582" lon="9.3131629"><ele>382.0</ele><time>2026-03-29T10:32:42.434Z</time></trkpt><trkpt lat="45.9446524" lon="9.3130107"><ele>382.0</ele><time>2026-03-29T10:32:43.45Z</time></trkpt><trkpt lat="45.9448538" lon="9.3128534"><ele>382.0</ele><time>2026-03-29T10:32:44.435Z</time></trkpt><trkpt lat="45.9450691" lon="9.3127139"><ele>382.0</ele><time>2026-03-29T10:32:45.452Z</time></trkpt><trkpt lat="45.9452866" lon="9.3125956"><ele>382.0</ele><time>2026-03-29T10:32:46.448Z</time></trkpt><trkpt lat="45.9454996" lon="9.3125008"><ele>382.0</ele><time>2026-03-29T10:32:47.453Z</time></trkpt><trkpt lat="45.9457159" lon="9.3124216"><ele>382.0</ele><time>2026-03-29T10:32:48.446Z</time></trkpt><trkpt lat="45.9459323" lon="9.3123546"><ele>382.0</ele><time>2026-03-29T10:32:49.447Z</time></trkpt><trkpt lat="45.9461512" lon="9.312301"><ele>381.66666666666663</ele><time>2026-03-29T10:32:50.45Z</time></trkpt><trkpt lat="45.9463724" lon="9.3122644"><ele>381.3333333333333</ele><time>2026-03-29T10:32:51.443Z</time></trkpt><trkpt lat="45.9465919" lon="9.3122464"><ele>381.0</ele><time>2026-03-29T10:32:52.444Z</time></trkpt><trkpt lat="45.9468107" lon="9.3122484"><ele>377.6666666666667</ele><time>2026-03-29T10:32:53.445Z</time></trkpt><trkpt lat="45.9470291" lon="9.31227"><ele>374.33333333333337</ele><time>2026-03-29T10:32:54.441Z</time></trkpt><trkpt lat="45.9472506" lon="9.3123094"><ele>371.0</ele><time>2026-03-29T10:32:55.438Z</time></trkpt><trkpt lat="45.947466" lon="9.312356"><ele>372.6666666666667</ele><time>2026-03-29T10:32:56.443Z</time></trkpt><trkpt lat="45.9476824" lon="9.3124101"><ele>374.3333333333333</ele><time>2026-03-29T10:32:57.45Z</time></trkpt><trkpt lat="45.9478929" lon="9.3124853"><ele>376.0</ele><time>2026-03-29T10:32:58.449Z</time></trkpt><trkpt lat="45.9481058" lon="9.3125741"><ele>376.0</ele><time>2026-03-29T10:32:59.446Z</time></trkpt><trkpt lat="45.9483163" lon="9.31267"><ele>376.0</ele><time>2026-03-29T10:33:00.428Z</time></trkpt><trkpt lat="45.9485283" lon="9.3127631"><ele>376.0</ele><time>2026-03-29T10:33:01.448Z</time></trkpt><trkpt lat="45.9487439" lon="9.3128521"><ele>369.5</ele><time>2026-03-29T10:33:02.453Z</time></trkpt><trkpt lat="45.9489591" lon="9.3129451"><ele>363.0</ele><time>2026-03-29T10:33:03.449Z</time></trkpt><trkpt lat="45.9491758" lon="9.313041"><ele>363.0</ele><time>2026-03-29T10:33:04.442Z</time></trkpt><trkpt lat="45.9493959" lon="9.3131364"><ele>363.0</ele><time>2026-03-29T10:33:05.444Z</time></trkpt><trkpt lat="45.9496179" lon="9.3132329"><ele>363.0</ele><time>2026-03-29T10:33:06.44Z</time></trkpt><trkpt lat="45.9498406" lon="9.3133294"><ele>363.0</ele><time>2026-03-29T10:33:07.443Z</time></trkpt><trkpt lat="45.9500654" lon="9.3134309"><ele>351.5</ele><time>2026-03-29T10:33:08.443Z</time></trkpt><trkpt lat="45.9502914" lon="9.3135354"><ele>340.0</ele><time>2026-03-29T10:33:09.443Z</time></trkpt><trkpt lat="45.9505182" lon="9.3136401"><ele>340.0</ele><time>2026-03-29T10:33:10.439Z</time></trkpt><trkpt lat="45.9507484" lon="9.3137379"><ele>340.0</ele><time>2026-03-29T10:33:11.434Z</time></trkpt><trkpt lat="45.9509807" lon="9.3138258"><ele>335.0</ele><time>2026-03-29T10:33:12.444Z</time></trkpt><trkpt lat="45.9512151" lon="9.3139046"><ele>330.0</ele><time>2026-03-29T10:33:13.45Z</time></trkpt><trkpt lat="45.9514502" lon="9.3139533"><ele>342.5</ele><time>2026-03-29T10:33:14.447Z</time></trkpt><trkpt lat="45.9516872" lon="9.3139947"><ele>355.0</ele><time>2026-03-29T10:33:15.445Z</time></trkpt><trkpt lat="45.9519244" lon="9.3140223"><ele>367.5</ele><time>2026-03-29T10:33:16.435Z</time></trkpt><trkpt lat="45.9521595" lon="9.3140365"><ele>380.0</ele><time>2026-03-29T10:33:17.443Z</time></trkpt><trkpt lat="45.9523927" lon="9.3140439"><ele>375.6666666666667</ele><time>2026-03-29T10:33:18.447Z</time></trkpt><trkpt lat="45.9526244" lon="9.3140387"><ele>371.3333333333333</ele><time>2026-03-29T10:33:19.442Z</time></trkpt><trkpt lat="45.9528364" lon="9.3140444"><ele>367.0</ele><time>2026-03-29T10:33:20.435Z</time></trkpt><trkpt lat="45.9548642" lon="9.3132885"><ele>364.0</ele><time>2026-03-29T10:33:30.428Z</time></trkpt><trkpt lat="45.955155" lon="9.3130812"><ele>361.0</ele><time>2026-03-29T10:33:31.434Z</time></trkpt><trkpt lat="45.9553837" lon="9.3129127"><ele>361.0</ele><time>2026-03-29T10:33:32.436Z</time></trkpt><trkpt lat="45.9555954" lon="9.3127664"><ele>361.0</ele><time>2026-03-29T10:33:33.436Z</time></trkpt><trkpt lat="45.9558038" lon="9.3126345"><ele>359.3333333333333</ele><time>2026-03-29T10:33:34.432Z</time></trkpt><trkpt lat="45.9560111" lon="9.3125165"><ele>357.6666666666667</ele><time>2026-03-29T10:33:35.434Z</time></trkpt><trkpt lat="45.9562181" lon="9.3124137"><ele>356.0</ele><time>2026-03-29T10:33:36.436Z</time></trkpt><trkpt lat="45.956427" lon="9.3123228"><ele>356.0</ele><time>2026-03-29T10:33:37.428Z</time></trkpt><trkpt lat="45.9566418" lon="9.3122495"><ele>356.0</ele><time>2026-03-29T10:33:38.435Z</time></trkpt><trkpt lat="45.95686" lon="9.3121843"><ele>356.0</ele><time>2026-03-29T10:33:39.442Z</time></trkpt><trkpt lat="45.9570826" lon="9.3121323"><ele>349.0</ele><time>2026-03-29T10:33:40.446Z</time></trkpt><trkpt lat="45.957307" lon="9.3120897"><ele>342.0</ele><time>2026-03-29T10:33:41.445Z</time></trkpt><trkpt lat="45.9575345" lon="9.3120556"><ele>340.0</ele><time>2026-03-29T10:33:42.44Z</time></trkpt><trkpt lat="45.9577632" lon="9.3120271"><ele>338.0</ele><time>2026-03-29T10:33:43.428Z</time></trkpt><trkpt lat="45.9579946" lon="9.3120038"><ele>338.0</ele><time>2026-03-29T10:33:44.437Z</time></trkpt><trkpt lat="45.9582235" lon="9.3119838"><ele>338.0</ele><time>2026-03-29T10:33:45.441Z</time></trkpt><trkpt lat="45.9584515" lon="9.3119623"><ele>338.0</ele><time>2026-03-29T10:33:46.443Z</time></trkpt><trkpt lat="45.9586799" lon="9.3119393"><ele>338.0</ele><time>2026-03-29T10:33:47.445Z</time></trkpt><trkpt lat="45.9589083" lon="9.3119157"><ele>338.0</ele><time>2026-03-29T10:33:48.442Z</time></trkpt><trkpt lat="45.9591377" lon="9.3118869"><ele>338.0</ele><time>2026-03-29T10:33:49.434Z</time></trkpt><trkpt lat="45.9593647" lon="9.3118578"><ele>341.0</ele><time>2026-03-29T10:33:50.458Z</time></trkpt><trkpt lat="45.9595909" lon="9.3118318"><ele>344.0</ele><time>2026-03-29T10:33:51.447Z</time></trkpt><trkpt lat="45.9598158" lon="9.3118046"><ele>348.6666666666667</ele><time>2026-03-29T10:33:52.447Z</time></trkpt><trkpt lat="45.960038" lon="9.3117692"><ele>353.3333333333333</ele><time>2026-03-29T10:33:53.441Z</time></trkpt><trkpt lat="45.9602567" lon="9.3117261"><ele>358.0</ele><time>2026-03-29T10:33:54.437Z</time></trkpt><trkpt lat="45.9604724" lon="9.3116777"><ele>358.0</ele><time>2026-03-29T10:33:55.436Z</time></trkpt><trkpt lat="45.9606914" lon="9.3116213"><ele>358.0</ele><time>2026-03-29T10:33:56.426Z</time></trkpt><trkpt lat="45.9609234" lon="9.3115537"><ele>340.0</ele><time>2026-03-29T10:33:57.436Z</time></trkpt><trkpt lat="45.9620655" lon="9.3111849"><ele>340.0</ele><time>2026-03-29T10:34:02.413Z</time></trkpt><trkpt lat="45.9622866" lon="9.311088"><ele>340.0</ele><time>2026-03-29T10:34:03.427Z</time></trkpt><trkpt lat="45.9624685" lon="9.3109077"><ele>357.5</ele><time>2026-03-29T10:34:04.426Z</time></trkpt><trkpt lat="45.9626852" lon="9.3107667"><ele>375.0</ele><time>2026-03-29T10:34:05.428Z</time></trkpt><trkpt lat="45.9629064" lon="9.310608"><ele>371.5</ele><time>2026-03-29T10:34:06.429Z</time></trkpt><trkpt lat="45.9631042" lon="9.3104852"><ele>368.0</ele><time>2026-03-29T10:34:07.426Z</time></trkpt><trkpt lat="45.9644996" lon="9.3095501"><ele>353.0</ele><time>2026-03-29T10:34:14.432Z</time></trkpt><trkpt lat="45.964709" lon="9.3094299"><ele>338.0</ele><time>2026-03-29T10:34:15.447Z</time></trkpt><trkpt lat="45.9649253" lon="9.3093294"><ele>342.6666666666667</ele><time>2026-03-29T10:34:16.431Z</time></trkpt><trkpt lat="45.9651427" lon="9.3092242"><ele>347.3333333333333</ele><time>2026-03-29T10:34:17.438Z</time></trkpt><trkpt lat="45.9653381" lon="9.3091319"><ele>352.0</ele><time>2026-03-29T10:34:18.434Z</time></trkpt><trkpt lat="45.9655319" lon="9.3090462"><ele>352.0</ele><time>2026-03-29T10:34:19.44Z</time></trkpt><trkpt lat="45.9657286" lon="9.3089561"><ele>352.0</ele><time>2026-03-29T10:34:20.436Z</time></trkpt><trkpt lat="45.9659316" lon="9.3088657"><ele>352.0</ele><time>2026-03-29T10:34:21.439Z</time></trkpt><trkpt lat="45.966127" lon="9.308779"><ele>348.3333333333333</ele><time>2026-03-29T10:34:22.425Z</time></trkpt><trkpt lat="45.9663183" lon="9.3086914"><ele>344.6666666666667</ele><time>2026-03-29T10:34:23.442Z</time></trkpt><trkpt lat="45.9665085" lon="9.308609"><ele>341.0</ele><time>2026-03-29T10:34:24.439Z</time></trkpt><trkpt lat="45.9667025" lon="9.3085275"><ele>341.0</ele><time>2026-03-29T10:34:25.446Z</time></trkpt><trkpt lat="45.9668989" lon="9.3084495"><ele>341.0</ele><time>2026-03-29T10:34:26.436Z</time></trkpt><trkpt lat="45.9670967" lon="9.3083717"><ele>341.0</ele><time>2026-03-29T10:34:27.439Z</time></trkpt><trkpt lat="45.9672971" lon="9.3082955"><ele>341.0</ele><time>2026-03-29T10:34:28.438Z</time></trkpt><trkpt lat="45.9674996" lon="9.3082203"><ele>341.0</ele><time>2026-03-29T10:34:29.434Z</time></trkpt><trkpt lat="45.9677038" lon="9.3081405"><ele>341.0</ele><time>2026-03-29T10:34:30.425Z</time></trkpt><trkpt lat="45.9679091" lon="9.3080523"><ele>343.6666666666667</ele><time>2026-03-29T10:34:31.43Z</time></trkpt><trkpt lat="45.968118" lon="9.3079611"><ele>346.3333333333333</ele><time>2026-03-29T10:34:32.437Z</time></trkpt><trkpt lat="45.9683276" lon="9.3078687"><ele>349.0</ele><time>2026-03-29T10:34:33.439Z</time></trkpt><trkpt lat="45.9685406" lon="9.3077763"><ele>349.0</ele><time>2026-03-29T10:34:34.444Z</time></trkpt><trkpt lat="45.9687563" lon="9.3076843"><ele>349.0</ele><time>2026-03-29T10:34:35.44Z</time></trkpt><trkpt lat="45.9689734" lon="9.3075965"><ele>338.0</ele><time>2026-03-29T10:34:36.43Z</time></trkpt><trkpt lat="45.9691935" lon="9.3075048"><ele>327.0</ele><time>2026-03-29T10:34:37.436Z</time></trkpt><trkpt lat="45.9922653" lon="9.2953508"><ele>327.0</ele><time>2026-03-29T10:36:23.396Z</time></trkpt><trkpt lat="45.992492" lon="9.2953058"><ele>327.0</ele><time>2026-03-29T10:36:24.376Z</time></trkpt><trkpt lat="45.9927104" lon="9.2952949"><ele>327.0</ele><time>2026-03-29T10:36:25.432Z</time></trkpt><trkpt lat="45.9929353" lon="9.2952868"><ele>327.5</ele><time>2026-03-29T10:36:26.446Z</time></trkpt><trkpt lat="45.9931644" lon="9.2952959"><ele>328.0</ele><time>2026-03-29T10:36:27.436Z</time></trkpt><trkpt lat="45.9933864" lon="9.2953137"><ele>328.0</ele><time>2026-03-29T10:36:28.447Z</time></trkpt><trkpt lat="45.9936027" lon="9.2953466"><ele>328.0</ele><time>2026-03-29T10:36:29.441Z</time></trkpt><trkpt lat="45.9938161" lon="9.2953914"><ele>328.0</ele><time>2026-03-29T10:36:30.444Z</time></trkpt><trkpt lat="45.9940273" lon="9.2954515"><ele>325.3333333333333</ele><time>2026-03-29T10:36:31.438Z</time></trkpt><trkpt lat="45.9942379" lon="9.2955177"><ele>322.6666666666667</ele><time>2026-03-29T10:36:32.429Z</time></trkpt><trkpt lat="45.9944522" lon="9.2955895"><ele>320.0</ele><time>2026-03-29T10:36:33.442Z</time></trkpt><trkpt lat="45.9946713" lon="9.2956619"><ele>333.0</ele><time>2026-03-29T10:36:34.443Z</time></trkpt><trkpt lat="45.994892" lon="9.2957359"><ele>346.0</ele><time>2026-03-29T10:36:35.434Z</time></trkpt><trkpt lat="45.9951109" lon="9.2958105"><ele>346.0</ele><time>2026-03-29T10:36:36.439Z</time></trkpt><trkpt lat="45.9953309" lon="9.2958862"><ele>346.0</ele><time>2026-03-29T10:36:37.448Z</time></trkpt><trkpt lat="45.9955509" lon="9.2959577"><ele>346.0</ele><time>2026-03-29T10:36:38.447Z</time></trkpt><trkpt lat="45.9957767" lon="9.2960266"><ele>346.0</ele><time>2026-03-29T10:36:39.445Z</time></trkpt><trkpt lat="45.9960087" lon="9.2960887"><ele>326.0</ele><time>2026-03-29T10:36:40.433Z</time></trkpt><trkpt lat="46.0378998" lon="9.3104619"><ele>322.5</ele><time>2026-03-29T10:39:56.387Z</time></trkpt><trkpt lat="46.03797" lon="9.3105902"><ele>319.0</ele><time>2026-03-29T10:39:57.392Z</time></trkpt><trkpt lat="46.0380092" lon="9.3107721"><ele>315.5</ele><time>2026-03-29T10:39:58.437Z</time></trkpt><trkpt lat="46.038024" lon="9.3109634"><ele>312.0</ele><time>2026-03-29T10:39:59.439Z</time></trkpt><trkpt lat="46.038002" lon="9.3111361"><ele>312.0</ele><time>2026-03-29T10:40:00.441Z</time></trkpt><trkpt lat="46.0379387" lon="9.3112708"><ele>312.0</ele><time>2026-03-29T10:40:01.436Z</time></trkpt><trkpt lat="46.0378658" lon="9.3113771"><ele>312.0</ele><time>2026-03-29T10:40:02.423Z</time></trkpt><trkpt lat="46.037773" lon="9.3114408"><ele>312.0</ele><time>2026-03-29T10:40:03.438Z</time></trkpt><trkpt lat="46.0376507" lon="9.3114689"><ele>312.0</ele><time>2026-03-29T10:40:04.428Z</time></trkpt><trkpt lat="46.0375201" lon="9.3114511"><ele>317.75</ele><time>2026-03-29T10:40:05.453Z</time></trkpt><trkpt lat="46.0374038" lon="9.311398"><ele>323.5</ele><time>2026-03-29T10:40:06.432Z</time></trkpt><trkpt lat="46.0373044" lon="9.3113028"><ele>329.25</ele><time>2026-03-29T10:40:07.433Z</time></trkpt><trkpt lat="46.0372311" lon="9.311176"><ele>335.0</ele><time>2026-03-29T10:40:08.434Z</time></trkpt><trkpt lat="46.0371715" lon="9.3110109"><ele>335.0</ele><time>2026-03-29T10:40:09.426Z</time></trkpt><trkpt lat="46.0371329" lon="9.3108362"><ele>335.0</ele><time>2026-03-29T10:40:10.441Z</time></trkpt><trkpt lat="46.0371227" lon="9.3106657"><ele>335.0</ele><time>2026-03-29T10:40:11.432Z</time></trkpt><trkpt lat="46.0371779" lon="9.3105119"><ele>335.0</ele><time>2026-03-29T10:40:12.438Z</time></trkpt><trkpt lat="46.0372557" lon="9.3103645"><ele>332.75</ele><time>2026-03-29T10:40:13.436Z</time></trkpt><trkpt lat="46.0373499" lon="9.3102241"><ele>330.5</ele><time>2026-03-29T10:40:14.446Z</time></trkpt><trkpt lat="46.0374463" lon="9.3100886"><ele>328.25</ele><time>2026-03-29T10:40:15.432Z</time></trkpt><trkpt lat="46.0375372" lon="9.3099547"><ele>326.0</ele><time>2026-03-29T10:40:16.435Z</time></trkpt><trkpt lat="46.0376289" lon="9.3098178"><ele>328.8</ele><time>2026-03-29T10:40:17.442Z</time></trkpt><trkpt lat="46.0377093" lon="9.3097093"><ele>331.6</ele><time>2026-03-29T10:40:18.443Z</time></trkpt><trkpt lat="46.0377863" lon="9.3096181"><ele>334.4</ele><time>2026-03-29T10:40:19.449Z</time></trkpt><trkpt lat="46.0378584" lon="9.3095334"><ele>337.2</ele><time>2026-03-29T10:40:20.445Z</time></trkpt><trkpt lat="46.0379563" lon="9.3094659"><ele>340.0</ele><time>2026-03-29T10:40:21.428Z</time></trkpt><trkpt lat="46.0380348" lon="9.3093743"><ele>340.0</ele><time>2026-03-29T10:40:22.448Z</time></trkpt><trkpt lat="46.0381124" lon="9.309289"><ele>340.0</ele><time>2026-03-29T10:40:23.445Z</time></trkpt><trkpt lat="46.038199" lon="9.3092148"><ele>340.0</ele><time>2026-03-29T10:40:24.441Z</time></trkpt><trkpt lat="46.0382858" lon="9.3091591"><ele>340.0</ele><time>2026-03-29T10:40:25.442Z</time></trkpt><trkpt lat="46.0383829" lon="9.3091043"><ele>340.0</ele><time>2026-03-29T10:40:26.436Z</time></trkpt><trkpt lat="46.038493" lon="9.3090459"><ele>337.5</ele><time>2026-03-29T10:40:27.442Z</time></trkpt><trkpt lat="46.0385972" lon="9.3089711"><ele>335.0</ele><time>2026-03-29T10:40:28.43Z</time></trkpt><trkpt lat="46.038691" lon="9.3088705"><ele>332.5</ele><time>2026-03-29T10:40:29.448Z</time></trkpt><trkpt lat="46.0387594" lon="9.3087376"><ele>330.0</ele><time>2026-03-29T10:40:30.438Z</time></trkpt><trkpt lat="46.0388133" lon="9.3085989"><ele>330.0</ele><time>2026-03-29T10:40:31.439Z</time></trkpt><trkpt lat="46.038868" lon="9.3084653"><ele>330.0</ele><time>2026-03-29T10:40:32.437Z</time></trkpt><trkpt lat="46.0389249" lon="9.308343"><ele>330.0</ele><time>2026-03-29T10:40:33.446Z</time></trkpt><trkpt lat="46.0389928" lon="9.3082403"><ele>330.0</ele><time>2026-03-29T10:40:34.443Z</time></trkpt><trkpt lat="46.0390719" lon="9.3081714"><ele>330.0</ele><time>2026-03-29T10:40:35.445Z</time></trkpt><trkpt lat="46.0391715" lon="9.3081416"><ele>325.5</ele><time>2026-03-29T10:40:36.438Z</time></trkpt><trkpt lat="46.0392871" lon="9.3081586"><ele>321.0</ele><time>2026-03-29T10:40:37.435Z</time></trkpt><trkpt lat="46.0394063" lon="9.3081841"><ele>316.5</ele><time>2026-03-29T10:40:38.45Z</time></trkpt><trkpt lat="46.0395209" lon="9.3081886"><ele>312.0</ele><time>2026-03-29T10:40:39.443Z</time></trkpt><trkpt lat="46.0396274" lon="9.3081649"><ele>312.0</ele><time>2026-03-29T10:40:40.433Z</time></trkpt><trkpt lat="46.0397229" lon="9.3081105"><ele>312.0</ele><time>2026-03-29T10:40:41.438Z</time></trkpt><trkpt lat="46.0398154" lon="9.3080303"><ele>312.0</ele><time>2026-03-29T10:40:42.431Z</time></trkpt><trkpt lat="46.039879" lon="9.3079159"><ele>312.0</ele><time>2026-03-29T10:40:43.445Z</time></trkpt><trkpt lat="46.0399449" lon="9.3078047"><ele>312.0</ele><time>2026-03-29T10:40:44.443Z</time></trkpt><trkpt lat="46.0400167" lon="9.3077362"><ele>311.8</ele><time>2026-03-29T10:40:45.44Z</time></trkpt><trkpt lat="46.040097" lon="9.307667"><ele>311.6</ele><time>2026-03-29T10:40:46.434Z</time></trkpt><trkpt lat="46.0401952" lon="9.307644"><ele>311.40000000000003</ele><time>2026-03-29T10:40:47.443Z</time></trkpt><trkpt lat="46.0403085" lon="9.307648"><ele>311.2</ele><time>2026-03-29T10:40:48.441Z</time></trkpt><trkpt lat="46.0404157" lon="9.3076605"><ele>311.0</ele><time>2026-03-29T10:40:49.443Z</time></trkpt><trkpt lat="46.0405099" lon="9.3076417"><ele>311.0</ele><time>2026-03-29T10:40:50.455Z</time></trkpt><trkpt lat="46.0405821" lon="9.3075939"><ele>311.0</ele><time>2026-03-29T10:40:51.44Z</time></trkpt><trkpt lat="46.0406421" lon="9.3075252"><ele>311.0</ele><time>2026-03-29T10:40:52.431Z</time></trkpt><trkpt lat="46.0406769" lon="9.3074282"><ele>311.0</ele><time>2026-03-29T10:40:53.434Z</time></trkpt><trkpt lat="46.0407234" lon="9.3073483"><ele>311.0</ele><time>2026-03-29T10:40:54.437Z</time></trkpt><trkpt lat="46.0407216" lon="9.3072125"><ele>311.0</ele><time>2026-03-29T10:40:55.442Z</time></trkpt><trkpt lat="46.040717" lon="9.3070522"><ele>311.40000000000003</ele><time>2026-03-29T10:40:56.442Z</time></trkpt><trkpt lat="46.0407133" lon="9.3068896"><ele>311.8</ele><time>2026-03-29T10:40:57.44Z</time></trkpt><trkpt lat="46.0407131" lon="9.3067328"><ele>312.20000000000005</ele><time>2026-03-29T10:40:58.447Z</time></trkpt><trkpt lat="46.040714" lon="9.3065779"><ele>312.6</ele><time>2026-03-29T10:40:59.449Z</time></trkpt><trkpt lat="46.0407189" lon="9.3064196"><ele>313.0</ele><time>2026-03-29T10:41:00.447Z</time></trkpt><trkpt lat="46.0407234" lon="9.306268"><ele>313.0</ele><time>2026-03-29T10:41:01.445Z</time></trkpt><trkpt lat="46.0407211" lon="9.3061228"><ele>313.0</ele><time>2026-03-29T10:41:02.43Z</time></trkpt><trkpt lat="46.0407155" lon="9.3059883"><ele>313.0</ele><time>2026-03-29T10:41:03.446Z</time></trkpt><trkpt lat="46.0406982" lon="9.3058702"><ele>313.0</ele><time>2026-03-29T10:41:04.437Z</time></trkpt><trkpt lat="46.0406616" lon="9.3057732"><ele>313.0</ele><time>2026-03-29T10:41:05.444Z</time></trkpt><trkpt lat="46.0406143" lon="9.30569"><ele>313.0</ele><time>2026-03-29T10:41:06.448Z</time></trkpt><trkpt lat="46.0405617" lon="9.305625"><ele>313.0</ele><time>2026-03-29T10:41:07.439Z</time></trkpt><trkpt lat="46.0404732" lon="9.3055189"><ele>313.0</ele><time>2026-03-29T10:41:09.436Z</time></trkpt><trkpt lat="46.0404582" lon="9.3054098"><ele>313.0</ele><time>2026-03-29T10:41:11.438Z</time></trkpt><trkpt lat="46.0405101" lon="9.3053583"><ele>313.0</ele><time>2026-03-29T10:41:13.448Z</time></trkpt><trkpt lat="46.0405915" lon="9.305443"><ele>313.0</ele><time>2026-03-29T10:41:15.445Z</time></trkpt><trkpt lat="46.0406328" lon="9.3055264"><ele>313.0</ele><time>2026-03-29T10:41:16.439Z</time></trkpt><trkpt lat="46.0406715" lon="9.3056148"><ele>313.0</ele><time>2026-03-29T10:41:17.446Z</time></trkpt><trkpt lat="46.0407105" lon="9.3057035"><ele>313.0</ele><time>2026-03-29T10:41:18.446Z</time></trkpt><trkpt lat="46.040752" lon="9.3057896"><ele>313.0</ele><time>2026-03-29T10:41:19.434Z</time></trkpt><trkpt lat="46.0407813" lon="9.3059581"><ele>313.0</ele><time>2026-03-29T10:41:21.44Z</time></trkpt><trkpt lat="46.0407803" lon="9.3060503"><ele>313.0</ele><time>2026-03-29T10:41:22.441Z</time></trkpt><trkpt lat="46.0407448" lon="9.3062042"><ele>313.0</ele><time>2026-03-29T10:41:24.438Z</time></trkpt><trkpt lat="46.0407562" lon="9.3063507"><ele>308.4</ele><time>2026-03-29T10:41:26.432Z</time></trkpt><trkpt lat="46.0407999" lon="9.3064801"><ele>303.8</ele><time>2026-03-29T10:41:28.442Z</time></trkpt><trkpt lat="46.0408997" lon="9.3064835"><ele>299.2</ele><time>2026-03-29T10:41:30.446Z</time></trkpt><trkpt lat="46.0409558" lon="9.3063327"><ele>294.6</ele><time>2026-03-29T10:41:32.431Z</time></trkpt><trkpt lat="46.0409625" lon="9.3062306"><ele>290.0</ele><time>2026-03-29T10:41:33.429Z</time></trkpt><trkpt lat="46.0409672" lon="9.306114"><ele>289.2</ele><time>2026-03-29T10:41:34.443Z</time></trkpt><trkpt lat="46.0409558" lon="9.3059818"><ele>288.4</ele><time>2026-03-29T10:41:35.448Z</time></trkpt><trkpt lat="46.0409188" lon="9.3058429"><ele>287.6</ele><time>2026-03-29T10:41:36.444Z</time></trkpt><trkpt lat="46.0408649" lon="9.3057146"><ele>286.8</ele><time>2026-03-29T10:41:37.442Z</time></trkpt><trkpt lat="46.0408097" lon="9.305599"><ele>286.0</ele><time>2026-03-29T10:41:38.44Z</time></trkpt><trkpt lat="46.0407599" lon="9.3054854"><ele>287.3333333333333</ele><time>2026-03-29T10:41:39.44Z</time></trkpt><trkpt lat="46.0407141" lon="9.3053749"><ele>288.66666666666663</ele><time>2026-03-29T10:41:40.441Z</time></trkpt><trkpt lat="46.0406671" lon="9.3052726"><ele>290.0</ele><time>2026-03-29T10:41:41.438Z</time></trkpt><trkpt lat="46.040615" lon="9.3051848"><ele>291.3333333333333</ele><time>2026-03-29T10:41:42.442Z</time></trkpt><trkpt lat="46.0405552" lon="9.3051073"><ele>292.6666666666667</ele><time>2026-03-29T10:41:43.439Z</time></trkpt><trkpt lat="46.0404821" lon="9.3050397"><ele>294.0</ele><time>2026-03-29T10:41:44.432Z</time></trkpt><trkpt lat="46.0404062" lon="9.3049701"><ele>294.0</ele><time>2026-03-29T10:41:45.441Z</time></trkpt><trkpt lat="46.0403236" lon="9.3049044"><ele>294.0</ele><time>2026-03-29T10:41:46.441Z</time></trkpt><trkpt lat="46.0402473" lon="9.3048401"><ele>294.0</ele><time>2026-03-29T10:41:47.44Z</time></trkpt><trkpt lat="46.0401737" lon="9.3047826"><ele>294.0</ele><time>2026-03-29T10:41:48.439Z</time></trkpt><trkpt lat="46.0401025" lon="9.3047309"><ele>294.0</ele><time>2026-03-29T10:41:49.44Z</time></trkpt><trkpt lat="46.0400301" lon="9.3046802"><ele>294.0</ele><time>2026-03-29T10:41:50.448Z</time></trkpt><trkpt lat="46.0399494" lon="9.3046318"><ele>292.0</ele><time>2026-03-29T10:41:51.437Z</time></trkpt><trkpt lat="46.0398653" lon="9.3045903"><ele>290.0</ele><time>2026-03-29T10:41:52.434Z</time></trkpt><trkpt lat="46.0397857" lon="9.3045525"><ele>288.0</ele><time>2026-03-29T10:41:53.438Z</time></trkpt><trkpt lat="46.0397103" lon="9.3045122"><ele>286.0</ele><time>2026-03-29T10:41:54.437Z</time></trkpt><trkpt lat="46.0396389" lon="9.3044738"><ele>284.0</ele><time>2026-03-29T10:41:55.435Z</time></trkpt><trkpt lat="46.0395781" lon="9.3044336"><ele>282.0</ele><time>2026-03-29T10:41:56.444Z</time></trkpt><trkpt lat="46.0395058" lon="9.3043358"><ele>282.0</ele><time>2026-03-29T10:41:58.447Z</time></trkpt><trkpt lat="46.0395357" lon="9.3042382"><ele>282.0</ele><time>2026-03-29T10:42:00.442Z</time></trkpt><trkpt lat="46.0396414" lon="9.3042759"><ele>282.0</ele><time>2026-03-29T10:42:02.441Z</time></trkpt><trkpt lat="46.0396994" lon="9.3043369"><ele>282.0</ele><time>2026-03-29T10:42:03.429Z</time></trkpt><trkpt lat="46.0397652" lon="9.3044039"><ele>282.0</ele><time>2026-03-29T10:42:04.438Z</time></trkpt><trkpt lat="46.0398401" lon="9.3044693"><ele>282.0</ele><time>2026-03-29T10:42:05.444Z</time></trkpt><trkpt lat="46.0399153" lon="9.304523"><ele>284.4</ele><time>2026-03-29T10:42:06.447Z</time></trkpt><trkpt lat="46.0399861" lon="9.3045671"><ele>286.79999999999995</ele><time>2026-03-29T10:42:07.445Z</time></trkpt><trkpt lat="46.0400602" lon="9.3046132"><ele>289.2</ele><time>2026-03-29T10:42:08.45Z</time></trkpt><trkpt lat="46.040145" lon="9.304669"><ele>291.59999999999997</ele><time>2026-03-29T10:42:09.433Z</time></trkpt><trkpt lat="46.0402396" lon="9.304729"><ele>294.0</ele><time>2026-03-29T10:42:10.44Z</time></trkpt><trkpt lat="46.0403345" lon="9.304786"><ele>294.0</ele><time>2026-03-29T10:42:11.447Z</time></trkpt><trkpt lat="46.0404252" lon="9.3048373"><ele>294.0</ele><time>2026-03-29T10:42:12.428Z</time></trkpt><trkpt lat="46.040512" lon="9.3048867"><ele>294.0</ele><time>2026-03-29T10:42:13.447Z</time></trkpt><trkpt lat="46.0405976" lon="9.3049382"><ele>294.0</ele><time>2026-03-29T10:42:14.443Z</time></trkpt><trkpt lat="46.0406802" lon="9.304989"><ele>294.0</ele><time>2026-03-29T10:42:15.441Z</time></trkpt><trkpt lat="46.040757" lon="9.3050403"><ele>289.5</ele><time>2026-03-29T10:42:16.448Z</time></trkpt><trkpt lat="46.0408316" lon="9.3050839"><ele>285.0</ele><time>2026-03-29T10:42:17.438Z</time></trkpt><trkpt lat="46.0409038" lon="9.3051238"><ele>280.5</ele><time>2026-03-29T10:42:18.439Z</time></trkpt><trkpt lat="46.040975" lon="9.3051646"><ele>276.0</ele><time>2026-03-29T10:42:19.441Z</time></trkpt><trkpt lat="46.0410515" lon="9.3052126"><ele>271.5</ele><time>2026-03-29T10:42:20.431Z</time></trkpt><trkpt lat="46.0411364" lon="9.3052642"><ele>267.0</ele><time>2026-03-29T10:42:21.436Z</time></trkpt><trkpt lat="46.0412196" lon="9.3053141"><ele>267.0</ele><time>2026-03-29T10:42:22.451Z</time></trkpt><trkpt lat="46.0412981" lon="9.3053593"><ele>267.0</ele><time>2026-03-29T10:42:23.433Z</time></trkpt><trkpt lat="46.0413729" lon="9.3054013"><ele>267.0</ele><time>2026-03-29T10:42:24.445Z</time></trkpt><trkpt lat="46.0414491" lon="9.3054449"><ele>267.0</ele><time>2026-03-29T10:42:25.445Z</time></trkpt><trkpt lat="46.0415243" lon="9.3054952"><ele>267.0</ele><time>2026-03-29T10:42:26.442Z</time></trkpt><trkpt lat="46.0415926" lon="9.3055488"><ele>267.0</ele><time>2026-03-29T10:42:27.433Z</time></trkpt><trkpt lat="46.0416562" lon="9.305598"><ele>264.5</ele><time>2026-03-29T10:42:28.437Z</time></trkpt><trkpt lat="46.0417656" lon="9.3056606"><ele>262.0</ele><time>2026-03-29T10:42:30.435Z</time></trkpt><trkpt lat="46.0418527" lon="9.3056279"><ele>259.5</ele><time>2026-03-29T10:42:32.445Z</time></trkpt><trkpt lat="46.0418735" lon="9.305478"><ele>257.0</ele><time>2026-03-29T10:42:34.45Z</time></trkpt><trkpt lat="46.0418192" lon="9.3054302"><ele>254.5</ele><time>2026-03-29T10:42:35.441Z</time></trkpt><trkpt lat="46.0417508" lon="9.3053998"><ele>252.0</ele><time>2026-03-29T10:42:36.437Z</time></trkpt><trkpt lat="46.0416771" lon="9.3053663"><ele>254.14285714285714</ele><time>2026-03-29T10:42:37.442Z</time></trkpt><trkpt lat="46.0416072" lon="9.3053356"><ele>256.2857142857143</ele><time>2026-03-29T10:42:38.443Z</time></trkpt><trkpt lat="46.0415399" lon="9.3053023"><ele>258.42857142857144</ele><time>2026-03-29T10:42:39.439Z</time></trkpt><trkpt lat="46.0414695" lon="9.3052654"><ele>260.57142857142856</ele><time>2026-03-29T10:42:40.43Z</time></trkpt><trkpt lat="46.0413995" lon="9.3052235"><ele>262.7142857142857</ele><time>2026-03-29T10:42:41.441Z</time></trkpt><trkpt lat="46.041333" lon="9.3051829"><ele>264.8571428571429</ele><time>2026-03-29T10:42:42.44Z</time></trkpt><trkpt lat="46.041277" lon="9.305126"><ele>267.0</ele><time>2026-03-29T10:42:43.441Z</time></trkpt><trkpt lat="46.0412163" lon="9.3050687"><ele>267.00000000000006</ele><time>2026-03-29T10:42:44.435Z</time></trkpt><trkpt lat="46.0411537" lon="9.3050133"><ele>267.0</ele><time>2026-03-29T10:42:45.441Z</time></trkpt><trkpt lat="46.0410948" lon="9.3049672"><ele>267.0</ele><time>2026-03-29T10:42:46.443Z</time></trkpt><trkpt lat="46.0410335" lon="9.3049267"><ele>267.0</ele><time>2026-03-29T10:42:47.441Z</time></trkpt><trkpt lat="46.0409709" lon="9.3048908"><ele>267.0</ele><time>2026-03-29T10:42:48.444Z</time></trkpt><trkpt lat="46.0409032" lon="9.3048534"><ele>267.00000000000006</ele><time>2026-03-29T10:42:49.444Z</time></trkpt><trkpt lat="46.0408268" lon="9.3048069"><ele>267.0</ele><time>2026-03-29T10:42:50.435Z</time></trkpt><trkpt lat="46.0407459" lon="9.3047592"><ele>264.2</ele><time>2026-03-29T10:42:51.435Z</time></trkpt><trkpt lat="46.0406674" lon="9.3047058"><ele>261.4</ele><time>2026-03-29T10:42:52.436Z</time></trkpt><trkpt lat="46.0405999" lon="9.3046232"><ele>258.6</ele><time>2026-03-29T10:42:53.443Z</time></trkpt><trkpt lat="46.0405333" lon="9.3045411"><ele>255.8</ele><time>2026-03-29T10:42:54.432Z</time></trkpt><trkpt lat="46.0404563" lon="9.3044648"><ele>253.0</ele><time>2026-03-29T10:42:55.438Z</time></trkpt><trkpt lat="46.0403751" lon="9.3043973"><ele>253.0</ele><time>2026-03-29T10:42:56.442Z</time></trkpt><trkpt lat="46.0402907" lon="9.3043393"><ele>253.0</ele><time>2026-03-29T10:42:57.442Z</time></trkpt><trkpt lat="46.0402048" lon="9.3042856"><ele>253.0</ele><time>2026-03-29T10:42:58.441Z</time></trkpt><trkpt lat="46.0401203" lon="9.3042303"><ele>253.0</ele><time>2026-03-29T10:42:59.446Z</time></trkpt><trkpt lat="46.0400382" lon="9.3041694"><ele>253.0</ele><time>2026-03-29T10:43:00.446Z</time></trkpt><trkpt lat="46.0399657" lon="9.3040999"><ele>251.8</ele><time>2026-03-29T10:43:01.435Z</time></trkpt><trkpt lat="46.0398942" lon="9.3040258"><ele>250.60000000000002</ele><time>2026-03-29T10:43:02.45Z</time></trkpt><trkpt lat="46.0398212" lon="9.303948"><ele>249.39999999999998</ele><time>2026-03-29T10:43:03.435Z</time></trkpt><trkpt lat="46.0397471" lon="9.3038691"><ele>248.2</ele><time>2026-03-29T10:43:04.441Z</time></trkpt><trkpt lat="46.0396711" lon="9.3037926"><ele>247.0</ele><time>2026-03-29T10:43:05.436Z</time></trkpt><trkpt lat="46.0396001" lon="9.3037199"><ele>246.99999999999997</ele><time>2026-03-29T10:43:06.437Z</time></trkpt><trkpt lat="46.0395243" lon="9.3036689"><ele>247.0</ele><time>2026-03-29T10:43:07.437Z</time></trkpt><trkpt lat="46.0394413" lon="9.3036293"><ele>247.0</ele><time>2026-03-29T10:43:08.438Z</time></trkpt><trkpt lat="46.0393605" lon="9.3035972"><ele>247.0</ele><time>2026-03-29T10:43:09.421Z</time></trkpt><trkpt lat="46.0392765" lon="9.3035715"><ele>246.99999999999997</ele><time>2026-03-29T10:43:10.449Z</time></trkpt><trkpt lat="46.0391897" lon="9.3035404"><ele>247.0</ele><time>2026-03-29T10:43:11.438Z</time></trkpt><trkpt lat="46.0391113" lon="9.3034979"><ele>243.85714285714286</ele><time>2026-03-29T10:43:12.435Z</time></trkpt><trkpt lat="46.0390415" lon="9.3034468"><ele>240.71428571428572</ele><time>2026-03-29T10:43:13.438Z</time></trkpt><trkpt lat="46.0389805" lon="9.3033883"><ele>237.57142857142858</ele><time>2026-03-29T10:43:14.437Z</time></trkpt><trkpt lat="46.0389267" lon="9.303321"><ele>234.42857142857144</ele><time>2026-03-29T10:43:15.442Z</time></trkpt><trkpt lat="46.0388776" lon="9.3032494"><ele>231.28571428571428</ele><time>2026-03-29T10:43:16.442Z</time></trkpt><trkpt lat="46.0388314" lon="9.3031857"><ele>228.14285714285717</ele><time>2026-03-29T10:43:17.443Z</time></trkpt><trkpt lat="46.0387754" lon="9.3030813"><ele>225.00000000000003</ele><time>2026-03-29T10:43:19.438Z</time></trkpt><trkpt lat="46.0387755" lon="9.302974"><ele>225.0</ele><time>2026-03-29T10:43:22.448Z</time></trkpt><trkpt lat="46.0388472" lon="9.3030277"><ele>225.0</ele><time>2026-03-29T10:43:24.442Z</time></trkpt><trkpt lat="46.0389124" lon="9.3031741"><ele>225.0</ele><time>2026-03-29T10:43:26.443Z</time></trkpt><trkpt lat="46.0389837" lon="9.3033081"><ele>225.0</ele><time>2026-03-29T10:43:28.44Z</time></trkpt><trkpt lat="46.0390409" lon="9.3033656"><ele>225.0</ele><time>2026-03-29T10:43:29.443Z</time></trkpt><trkpt lat="46.0391096" lon="9.3034109"><ele>228.66666666666666</ele><time>2026-03-29T10:43:30.432Z</time></trkpt><trkpt lat="46.0391848" lon="9.303448"><ele>232.33333333333331</ele><time>2026-03-29T10:43:31.44Z</time></trkpt><trkpt lat="46.0392696" lon="9.303478"><ele>236.0</ele><time>2026-03-29T10:43:32.436Z</time></trkpt><trkpt lat="46.0393643" lon="9.303501"><ele>239.66666666666666</ele><time>2026-03-29T10:43:33.441Z</time></trkpt><trkpt lat="46.0394593" lon="9.3035177"><ele>243.33333333333331</ele><time>2026-03-29T10:43:34.442Z</time></trkpt><trkpt lat="46.0395463" lon="9.3035396"><ele>247.0</ele><time>2026-03-29T10:43:35.438Z</time></trkpt><trkpt lat="46.0396339" lon="9.3035721"><ele>247.0</ele><time>2026-03-29T10:43:36.439Z</time></trkpt><trkpt lat="46.0397188" lon="9.3036189"><ele>247.0</ele><time>2026-03-29T10:43:37.446Z</time></trkpt><trkpt lat="46.0397969" lon="9.3036687"><ele>247.0</ele><time>2026-03-29T10:43:38.439Z</time></trkpt><trkpt lat="46.0398795" lon="9.3037174"><ele>247.0</ele><time>2026-03-29T10:43:39.427Z</time></trkpt><trkpt lat="46.0399714" lon="9.3037621"><ele>247.0</ele><time>2026-03-29T10:43:40.451Z</time></trkpt><trkpt lat="46.0400649" lon="9.3037982"><ele>241.39999999999998</ele><time>2026-03-29T10:43:41.438Z</time></trkpt><trkpt lat="46.0401586" lon="9.3038338"><ele>235.79999999999998</ele><time>2026-03-29T10:43:42.436Z</time></trkpt><trkpt lat="46.0402457" lon="9.3038596"><ele>230.2</ele><time>2026-03-29T10:43:43.446Z</time></trkpt><trkpt lat="46.0403347" lon="9.30387"><ele>224.6</ele><time>2026-03-29T10:43:44.441Z</time></trkpt><trkpt lat="46.0404232" lon="9.3038858"><ele>219.0</ele><time>2026-03-29T10:43:45.444Z</time></trkpt><trkpt lat="46.0405169" lon="9.3039107"><ele>220.5</ele><time>2026-03-29T10:43:46.442Z</time></trkpt><trkpt lat="46.0405963" lon="9.3039607"><ele>222.0</ele><time>2026-03-29T10:43:47.438Z</time></trkpt><trkpt lat="46.0406632" lon="9.3040255"><ele>223.5</ele><time>2026-03-29T10:43:48.441Z</time></trkpt><trkpt lat="46.0407286" lon="9.3040947"><ele>225.0</ele><time>2026-03-29T10:43:49.431Z</time></trkpt><trkpt lat="46.0407988" lon="9.3041556"><ele>226.5</ele><time>2026-03-29T10:43:50.446Z</time></trkpt><trkpt lat="46.0408697" lon="9.304209"><ele>228.0</ele><time>2026-03-29T10:43:51.444Z</time></trkpt><trkpt lat="46.040947" lon="9.3042506"><ele>228.0</ele><time>2026-03-29T10:43:52.443Z</time></trkpt><trkpt lat="46.0410257" lon="9.304271"><ele>228.0</ele><time>2026-03-29T10:43:53.44Z</time></trkpt><trkpt lat="46.041099" lon="9.304279"><ele>228.0</ele><time>2026-03-29T10:43:54.422Z</time></trkpt><trkpt lat="46.0411696" lon="9.3042794"><ele>228.0</ele><time>2026-03-29T10:43:55.449Z</time></trkpt><trkpt lat="46.0412509" lon="9.3042775"><ele>228.0</ele><time>2026-03-29T10:43:56.452Z</time></trkpt><trkpt lat="46.0413424" lon="9.3042834"><ele>228.0</ele><time>2026-03-29T10:43:57.454Z</time></trkpt><trkpt lat="46.0414331" lon="9.3042922"><ele>228.0</ele><time>2026-03-29T10:43:58.436Z</time></trkpt><trkpt lat="46.0415156" lon="9.3043024"><ele>227.99999999999997</ele><time>2026-03-29T10:43:59.448Z</time></trkpt><trkpt lat="46.0415918" lon="9.3043159"><ele>228.0</ele><time>2026-03-29T10:44:00.444Z</time></trkpt><trkpt lat="46.0416605" lon="9.3043358"><ele>228.0</ele><time>2026-03-29T10:44:01.45Z</time></trkpt><trkpt lat="46.0417299" lon="9.3043691"><ele>227.99999999999997</ele><time>2026-03-29T10:44:02.435Z</time></trkpt><trkpt lat="46.0417935" lon="9.3044184"><ele>228.0</ele><time>2026-03-29T10:44:03.434Z</time></trkpt><trkpt lat="46.0418497" lon="9.3044675"><ele>228.0</ele><time>2026-03-29T10:44:04.444Z</time></trkpt><trkpt lat="46.0419581" lon="9.3045064"><ele>225.83333333333334</ele><time>2026-03-29T10:44:06.442Z</time></trkpt><trkpt lat="46.0420481" lon="9.3044651"><ele>223.66666666666669</ele><time>2026-03-29T10:44:08.432Z</time></trkpt><trkpt lat="46.0420903" lon="9.304364"><ele>221.5</ele><time>2026-03-29T10:44:10.431Z</time></trkpt><trkpt lat="46.0421151" lon="9.3042236"><ele>219.33333333333334</ele><time>2026-03-29T10:44:12.434Z</time></trkpt><trkpt lat="46.0421128" lon="9.3041311"><ele>217.16666666666669</ele><time>2026-03-29T10:44:13.44Z</time></trkpt><trkpt lat="46.0420961" lon="9.3040324"><ele>215.0</ele><time>2026-03-29T10:44:14.441Z</time></trkpt><trkpt lat="46.0420669" lon="9.3039497"><ele>213.4</ele><time>2026-03-29T10:44:15.433Z</time></trkpt><trkpt lat="46.0419755" lon="9.3038136"><ele>211.8</ele><time>2026-03-29T10:44:17.442Z</time></trkpt><trkpt lat="46.041912" lon="9.3037492"><ele>210.2</ele><time>2026-03-29T10:44:18.446Z</time></trkpt><trkpt lat="46.0418553" lon="9.3036936"><ele>208.6</ele><time>2026-03-29T10:44:19.45Z</time></trkpt><trkpt lat="46.0417495" lon="9.3035979"><ele>207.0</ele><time>2026-03-29T10:44:21.446Z</time></trkpt><trkpt lat="46.0416584" lon="9.3035152"><ele>207.14285714285717</ele><time>2026-03-29T10:44:23.444Z</time></trkpt><trkpt lat="46.0416003" lon="9.3034594"><ele>207.28571428571428</ele><time>2026-03-29T10:44:24.446Z</time></trkpt><trkpt lat="46.0415345" lon="9.3033933"><ele>207.42857142857144</ele><time>2026-03-29T10:44:25.434Z</time></trkpt><trkpt lat="46.0414721" lon="9.3033295"><ele>207.57142857142858</ele><time>2026-03-29T10:44:26.441Z</time></trkpt><trkpt lat="46.0414137" lon="9.3032756"><ele>207.71428571428572</ele><time>2026-03-29T10:44:27.445Z</time></trkpt><trkpt lat="46.0413537" lon="9.303217"><ele>207.85714285714286</ele><time>2026-03-29T10:44:28.438Z</time></trkpt><trkpt lat="46.041296" lon="9.3031525"><ele>208.0</ele><time>2026-03-29T10:44:29.448Z</time></trkpt><trkpt lat="46.0412493" lon="9.3030873"><ele>207.75</ele><time>2026-03-29T10:44:30.449Z</time></trkpt><trkpt lat="46.041179" lon="9.3029481"><ele>207.5</ele><time>2026-03-29T10:44:32.445Z</time></trkpt><trkpt lat="46.0411593" lon="9.302788"><ele>207.25</ele><time>2026-03-29T10:44:34.439Z</time></trkpt><trkpt lat="46.0411673" lon="9.3026161"><ele>207.0</ele><time>2026-03-29T10:44:36.439Z</time></trkpt><trkpt lat="46.0411699" lon="9.302461"><ele>207.0</ele><time>2026-03-29T10:44:38.443Z</time></trkpt><trkpt lat="46.0411982" lon="9.3023653"><ele>207.0</ele><time>2026-03-29T10:44:42.438Z</time></trkpt><trkpt lat="46.0412758" lon="9.3023508"><ele>207.0</ele><time>2026-03-29T10:44:44.436Z</time></trkpt><trkpt lat="46.0413539" lon="9.3023567"><ele>207.0</ele><time>2026-03-29T10:44:45.444Z</time></trkpt><trkpt lat="46.0414351" lon="9.3023627"><ele>207.0</ele><time>2026-03-29T10:44:46.445Z</time></trkpt><trkpt lat="46.0415176" lon="9.3023654"><ele>207.0</ele><time>2026-03-29T10:44:47.432Z</time></trkpt><trkpt lat="46.0415966" lon="9.3023548"><ele>207.0</ele><time>2026-03-29T10:44:48.447Z</time></trkpt><trkpt lat="46.0416839" lon="9.302357"><ele>207.0</ele><time>2026-03-29T10:44:49.435Z</time></trkpt><trkpt lat="46.0417842" lon="9.30236"><ele>207.0</ele><time>2026-03-29T10:44:50.444Z</time></trkpt><trkpt lat="46.0418888" lon="9.3023616"><ele>207.0</ele><time>2026-03-29T10:44:51.443Z</time></trkpt><trkpt lat="46.041986" lon="9.302358"><ele>207.0</ele><time>2026-03-29T10:44:52.452Z</time></trkpt><trkpt lat="46.0420839" lon="9.3023524"><ele>207.0</ele><time>2026-03-29T10:44:53.447Z</time></trkpt><trkpt lat="46.0421708" lon="9.302352"><ele>207.0</ele><time>2026-03-29T10:44:54.442Z</time></trkpt><trkpt lat="46.0422635" lon="9.3023578"><ele>207.0</ele><time>2026-03-29T10:44:55.445Z</time></trkpt><trkpt lat="46.0423363" lon="9.3023589"><ele>207.0</ele><time>2026-03-29T10:44:56.449Z</time></trkpt><trkpt lat="46.0424279" lon="9.3023563"><ele>207.0</ele><time>2026-03-29T10:44:58.439Z</time></trkpt><trkpt lat="46.0425071" lon="9.302348"><ele>207.0</ele><time>2026-03-29T10:45:25.443Z</time></trkpt><trkpt lat="46.0426011" lon="9.3023579"><ele>207.39999999999998</ele><time>2026-03-29T10:45:28.445Z</time></trkpt><trkpt lat="46.0427011" lon="9.3023623"><ele>207.79999999999998</ele><time>2026-03-29T10:45:30.432Z</time></trkpt><trkpt lat="46.0428239" lon="9.3023634"><ele>208.2</ele><time>2026-03-29T10:45:32.435Z</time></trkpt><trkpt lat="46.04289" lon="9.3023693"><ele>208.6</ele><time>2026-03-29T10:45:33.443Z</time></trkpt><trkpt lat="46.0430159" lon="9.3023765"><ele>209.0</ele><time>2026-03-29T10:45:35.446Z</time></trkpt><trkpt lat="46.0430943" lon="9.3023796"><ele>209.00000000000003</ele><time>2026-03-29T10:45:36.45Z</time></trkpt><trkpt lat="46.0431854" lon="9.3023767"><ele>209.0</ele><time>2026-03-29T10:45:37.441Z</time></trkpt><trkpt lat="46.043277" lon="9.3023762"><ele>209.0</ele><time>2026-03-29T10:45:38.444Z</time></trkpt><trkpt lat="46.043353" lon="9.3023899"><ele>209.0</ele><time>2026-03-29T10:45:39.448Z</time></trkpt><trkpt lat="46.0434169" lon="9.3024102"><ele>209.00000000000003</ele><time>2026-03-29T10:45:40.446Z</time></trkpt><trkpt lat="46.0434818" lon="9.3024291"><ele>209.0</ele><time>2026-03-29T10:45:41.438Z</time></trkpt><trkpt lat="46.0435874" lon="9.3024691"><ele>209.39999999999998</ele><time>2026-03-29T10:45:43.447Z</time></trkpt><trkpt lat="46.0436675" lon="9.3025093"><ele>209.8</ele><time>2026-03-29T10:45:45.443Z</time></trkpt><trkpt lat="46.0437305" lon="9.3025485"><ele>210.2</ele><time>2026-03-29T10:45:48.441Z</time></trkpt><trkpt lat="46.0437447" lon="9.3024394"><ele>210.60000000000002</ele><time>2026-03-29T10:45:50.439Z</time></trkpt><trkpt lat="46.043689" lon="9.3022775"><ele>211.0</ele><time>2026-03-29T10:45:52.437Z</time></trkpt><trkpt lat="46.0436364" lon="9.3021474"><ele>210.99999999999997</ele><time>2026-03-29T10:45:54.442Z</time></trkpt><trkpt lat="46.043595" lon="9.3020502"><ele>211.0</ele><time>2026-03-29T10:45:57.435Z</time></trkpt><trkpt lat="46.043596" lon="9.3022079"><ele>211.0</ele><time>2026-03-29T10:49:55.366Z</time></trkpt><trkpt lat="46.0436223" lon="9.3023011"><ele>211.0</ele><time>2026-03-29T10:50:02.456Z</time></trkpt><trkpt lat="46.0435988" lon="9.3022125"><ele>210.99999999999997</ele><time>2026-03-29T10:50:30.458Z</time></trkpt><trkpt lat="46.0435716" lon="9.302129"><ele>211.0</ele><time>2026-03-29T10:53:43.453Z</time></trkpt><trkpt lat="46.0435478" lon="9.3020399"><ele>205.0</ele><time>2026-03-29T10:54:11.459Z</time></trkpt><trkpt lat="46.0435911" lon="9.3022367"><ele>205.0</ele><time>2026-03-29T10:54:29.468Z</time></trkpt><trkpt lat="46.0435624" lon="9.3021537"><ele>205.0</ele><time>2026-03-29T10:54:56.458Z</time></trkpt><trkpt lat="46.0435402" lon="9.3020596"><ele>205.0</ele><time>2026-03-29T10:57:15.498Z</time></trkpt><trkpt lat="46.0436065" lon="9.3022039"><ele>205.0</ele><time>2026-03-29T10:58:02.476Z</time></trkpt></trkseg></trk></gpx>